<?xml version='1.0' encoding='UTF-8'?><gpx version="1.1" creator="JPX - https://github.com/jenetics/jpx" xmlns="http://www.topografix.com/GPX/1/1"><trk><trkseg><trkpt lat="44.30122023072924" lon="11.987929547551335"><ele>14.000000000000002</ele><time>2026-04-26T14:39:29Z</time></trkpt><trkpt lat="44.301284838681305" lon="11.987888945416863"><ele>14.0</ele><time>2026-04-26T14:40:03Z</time></trkpt><trkpt lat="44.301311176843654" lon="11.987796453290448"><ele>14.0</ele><time>2026-04-26T14:40:06Z</time></trkpt><trkpt lat="44.301377892212855" lon="11.987764216067479"><ele>14.0</ele><time>2026-04-26T14:40:08Z</time></trkpt><trkpt lat="44.30145597696269" lon="11.987838105821591"><ele>14.000000000000002</ele><time>2026-04-26T14:40:11Z</time></trkpt><trkpt lat="44.301550150608605" lon="11.98791980572301"><ele>14.0</ele><time>2026-04-26T14:40:13Z</time></trkpt><trkpt lat="44.301624641400146" lon="11.987962636971204"><ele>14.0</ele><time>2026-04-26T14:40:14Z</time></trkpt><trkpt lat="44.30172639732323" lon="11.988044986782372"><ele>14.0</ele><time>2026-04-26T14:40:16Z</time></trkpt><trkpt lat="44.301779321723295" lon="11.988096944956004"><ele>14.0</ele><time>2026-04-26T14:40:17Z</time></trkpt><trkpt lat="44.30183227293908" lon="11.988146295124611"><ele>14.0</ele><time>2026-04-26T14:40:18Z</time></trkpt><trkpt lat="44.30189140327554" lon="11.988193658276888"><ele>14.0</ele><time>2026-04-26T14:40:19Z</time></trkpt><trkpt lat="44.30194582460219" lon="11.988247781344782"><ele>14.0</ele><time>2026-04-26T14:40:20Z</time></trkpt><trkpt lat="44.302003478947704" lon="11.988297410450249"><ele>14.0</ele><time>2026-04-26T14:40:21Z</time></trkpt><trkpt lat="44.302061525913565" lon="11.988344702216729"><ele>14.0</ele><time>2026-04-26T14:40:22Z</time></trkpt><trkpt lat="44.302114621737864" lon="11.98839799543675"><ele>14.0</ele><time>2026-04-26T14:40:23Z</time></trkpt><trkpt lat="44.30217021902891" lon="11.988449535229817"><ele>14.0</ele><time>2026-04-26T14:40:24Z</time></trkpt><trkpt lat="44.30221450601822" lon="11.988529135365555"><ele>14.0</ele><time>2026-04-26T14:40:25Z</time></trkpt><trkpt lat="44.30227072649455" lon="11.988580784348708"><ele>14.0</ele><time>2026-04-26T14:40:26Z</time></trkpt><trkpt lat="44.302328176216946" lon="11.988633760609266"><ele>14.0</ele><time>2026-04-26T14:40:27Z</time></trkpt><trkpt lat="44.30238434734777" lon="11.988685557839851"><ele>14.0</ele><time>2026-04-26T14:40:28Z</time></trkpt><trkpt lat="44.30244047884821" lon="11.988737318525583"><ele>14.0</ele><time>2026-04-26T14:40:29Z</time></trkpt><trkpt lat="44.30254141294889" lon="11.988803325571634"><ele>13.999999999999998</ele><time>2026-04-26T14:40:31Z</time></trkpt><trkpt lat="44.30260064367304" lon="11.988860972981808"><ele>13.999999999999998</ele><time>2026-04-26T14:40:33Z</time></trkpt><trkpt lat="44.302663281088584" lon="11.98893988349624"><ele>14.0</ele><time>2026-04-26T14:40:37Z</time></trkpt><trkpt lat="44.30276849734017" lon="11.988781583418058"><ele>14.0</ele><time>2026-04-26T14:40:38Z</time></trkpt><trkpt lat="44.302813848843414" lon="11.98865004892624"><ele>14.0</ele><time>2026-04-26T14:40:39Z</time></trkpt><trkpt lat="44.30285494200452" lon="11.988525419432234"><ele>13.999999999999998</ele><time>2026-04-26T14:40:40Z</time></trkpt><trkpt lat="44.30289403313956" lon="11.988400583761461"><ele>13.999999999999998</ele><time>2026-04-26T14:40:41Z</time></trkpt><trkpt lat="44.30293258363453" lon="11.988266004115841"><ele>14.0</ele><time>2026-04-26T14:40:42Z</time></trkpt><trkpt lat="44.302971722497844" lon="11.988124618408479"><ele>14.0</ele><time>2026-04-26T14:40:43Z</time></trkpt><trkpt lat="44.30301420153682" lon="11.987980693283031"><ele>14.0</ele><time>2026-04-26T14:40:44Z</time></trkpt><trkpt lat="44.30306195572107" lon="11.987834612353474"><ele>14.0</ele><time>2026-04-26T14:40:45Z</time></trkpt><trkpt lat="44.30311087016005" lon="11.987692708835022"><ele>14.0</ele><time>2026-04-26T14:40:46Z</time></trkpt><trkpt lat="44.3031622795875" lon="11.987549845367482"><ele>14.0</ele><time>2026-04-26T14:40:47Z</time></trkpt><trkpt lat="44.30319405707997" lon="11.987388850346107"><ele>13.75</ele><time>2026-04-26T14:40:48Z</time></trkpt><trkpt lat="44.303250254813385" lon="11.987247365786379"><ele>13.5</ele><time>2026-04-26T14:40:49Z</time></trkpt><trkpt lat="44.303307376698385" lon="11.98710551431873"><ele>13.25</ele><time>2026-04-26T14:40:50Z</time></trkpt><trkpt lat="44.303365392244494" lon="11.986965730161407"><ele>13.0</ele><time>2026-04-26T14:40:51Z</time></trkpt><trkpt lat="44.30344339330882" lon="11.986842707363447"><ele>13.0</ele><time>2026-04-26T14:40:52Z</time></trkpt><trkpt lat="44.303503874041326" lon="11.986704534949858"><ele>13.0</ele><time>2026-04-26T14:40:53Z</time></trkpt><trkpt lat="44.30356692634439" lon="11.986565947918393"><ele>13.0</ele><time>2026-04-26T14:40:54Z</time></trkpt><trkpt lat="44.303628818922675" lon="11.986432749857254"><ele>13.0</ele><time>2026-04-26T14:40:55Z</time></trkpt><trkpt lat="44.30369360542841" lon="11.986298367951685"><ele>12.75</ele><time>2026-04-26T14:40:56Z</time></trkpt><trkpt lat="44.30376063100808" lon="11.986167197538974"><ele>12.5</ele><time>2026-04-26T14:40:57Z</time></trkpt><trkpt lat="44.30382868539858" lon="11.986035672075854"><ele>12.25</ele><time>2026-04-26T14:40:58Z</time></trkpt><trkpt lat="44.3038970664531" lon="11.985901019834035"><ele>12.0</ele><time>2026-04-26T14:40:59Z</time></trkpt><trkpt lat="44.3039469558131" lon="11.98575791473807"><ele>12.5</ele><time>2026-04-26T14:41:00Z</time></trkpt><trkpt lat="44.30401721920047" lon="11.98563429522077"><ele>13.0</ele><time>2026-04-26T14:41:01Z</time></trkpt><trkpt lat="44.30407697358926" lon="11.985494351295912"><ele>13.5</ele><time>2026-04-26T14:41:02Z</time></trkpt><trkpt lat="44.30413580313774" lon="11.985357840608954"><ele>14.0</ele><time>2026-04-26T14:41:03Z</time></trkpt><trkpt lat="44.304196406921605" lon="11.985219857937132"><ele>14.0</ele><time>2026-04-26T14:41:04Z</time></trkpt><trkpt lat="44.304260227938734" lon="11.985080047476956"><ele>14.0</ele><time>2026-04-26T14:41:05Z</time></trkpt><trkpt lat="44.304315658869896" lon="11.98494104852873"><ele>14.0</ele><time>2026-04-26T14:41:06Z</time></trkpt><trkpt lat="44.30438259675257" lon="11.984801269845713"><ele>14.0</ele><time>2026-04-26T14:41:07Z</time></trkpt><trkpt lat="44.3044388185928" lon="11.984653543417425"><ele>14.0</ele><time>2026-04-26T14:41:08Z</time></trkpt><trkpt lat="44.30449689847515" lon="11.984508108363187"><ele>14.0</ele><time>2026-04-26T14:41:09Z</time></trkpt><trkpt lat="44.30455873684697" lon="11.984363445472239"><ele>14.0</ele><time>2026-04-26T14:41:10Z</time></trkpt><trkpt lat="44.30462203935925" lon="11.98422074697588"><ele>14.0</ele><time>2026-04-26T14:41:11Z</time></trkpt><trkpt lat="44.304692176541586" lon="11.984078201995768"><ele>14.25</ele><time>2026-04-26T14:41:12Z</time></trkpt><trkpt lat="44.304750642589255" lon="11.983933133841038"><ele>14.5</ele><time>2026-04-26T14:41:13Z</time></trkpt><trkpt lat="44.304795374250226" lon="11.983772507206611"><ele>14.75</ele><time>2026-04-26T14:41:14Z</time></trkpt><trkpt lat="44.30485473279544" lon="11.98362389859849"><ele>15.0</ele><time>2026-04-26T14:41:15Z</time></trkpt><trkpt lat="44.30491380878985" lon="11.983475403239353"><ele>15.0</ele><time>2026-04-26T14:41:16Z</time></trkpt><trkpt lat="44.30498309162154" lon="11.983330964881107"><ele>15.0</ele><time>2026-04-26T14:41:17Z</time></trkpt><trkpt lat="44.30507293481478" lon="11.983213036021473"><ele>15.0</ele><time>2026-04-26T14:41:18Z</time></trkpt><trkpt lat="44.30514838110241" lon="11.98308748838077"><ele>15.0</ele><time>2026-04-26T14:41:19Z</time></trkpt><trkpt lat="44.30522719206441" lon="11.982957835688298"><ele>15.0</ele><time>2026-04-26T14:41:20Z</time></trkpt><trkpt lat="44.305302989572766" lon="11.982833140455789"><ele>15.0</ele><time>2026-04-26T14:41:21Z</time></trkpt><trkpt lat="44.305381258239606" lon="11.982704379898296"><ele>15.0</ele><time>2026-04-26T14:41:22Z</time></trkpt><trkpt lat="44.305455597189145" lon="11.98257742088626"><ele>15.0</ele><time>2026-04-26T14:41:23Z</time></trkpt><trkpt lat="44.30552573894866" lon="11.982439779900357"><ele>14.75</ele><time>2026-04-26T14:41:24Z</time></trkpt><trkpt lat="44.30557436115159" lon="11.982283615660778"><ele>14.5</ele><time>2026-04-26T14:41:25Z</time></trkpt><trkpt lat="44.30559779197317" lon="11.982115924713177"><ele>14.25</ele><time>2026-04-26T14:41:26Z</time></trkpt><trkpt lat="44.30563146671422" lon="11.981957175343572"><ele>14.0</ele><time>2026-04-26T14:41:27Z</time></trkpt><trkpt lat="44.30566482171868" lon="11.981797820457532"><ele>14.25</ele><time>2026-04-26T14:41:28Z</time></trkpt><trkpt lat="44.30572081590839" lon="11.981647954643687"><ele>14.5</ele><time>2026-04-26T14:41:29Z</time></trkpt><trkpt lat="44.305770935110196" lon="11.981504492629307"><ele>14.75</ele><time>2026-04-26T14:41:30Z</time></trkpt><trkpt lat="44.30582983894286" lon="11.981355136622446"><ele>15.0</ele><time>2026-04-26T14:41:31Z</time></trkpt><trkpt lat="44.30587351255718" lon="11.981203429847941"><ele>15.0</ele><time>2026-04-26T14:41:32Z</time></trkpt><trkpt lat="44.3059352366191" lon="11.981058905995056"><ele>15.0</ele><time>2026-04-26T14:41:33Z</time></trkpt><trkpt lat="44.30599416263653" lon="11.980909922107658"><ele>15.0</ele><time>2026-04-26T14:41:34Z</time></trkpt><trkpt lat="44.30604941311626" lon="11.980761586095857"><ele>15.0</ele><time>2026-04-26T14:41:35Z</time></trkpt><trkpt lat="44.30610777327404" lon="11.980608276075843"><ele>15.25</ele><time>2026-04-26T14:41:36Z</time></trkpt><trkpt lat="44.30616842353912" lon="11.98045900021263"><ele>15.5</ele><time>2026-04-26T14:41:37Z</time></trkpt><trkpt lat="44.3062311232599" lon="11.980309672547984"><ele>15.75</ele><time>2026-04-26T14:41:38Z</time></trkpt><trkpt lat="44.30629332122686" lon="11.980164240817176"><ele>16.0</ele><time>2026-04-26T14:41:39Z</time></trkpt><trkpt lat="44.30636465376253" lon="11.980016588198604"><ele>16.25</ele><time>2026-04-26T14:41:40Z</time></trkpt><trkpt lat="44.306435492517096" lon="11.979875543018434"><ele>16.5</ele><time>2026-04-26T14:41:41Z</time></trkpt><trkpt lat="44.30650940801116" lon="11.979735189668522"><ele>16.75</ele><time>2026-04-26T14:41:42Z</time></trkpt><trkpt lat="44.30657339348419" lon="11.97959061717131"><ele>17.0</ele><time>2026-04-26T14:41:43Z</time></trkpt><trkpt lat="44.30664340478116" lon="11.97945388123708"><ele>17.0</ele><time>2026-04-26T14:41:44Z</time></trkpt><trkpt lat="44.306712073661664" lon="11.979311962461775"><ele>17.0</ele><time>2026-04-26T14:41:45Z</time></trkpt><trkpt lat="44.30678280913348" lon="11.979179499275846"><ele>17.0</ele><time>2026-04-26T14:41:46Z</time></trkpt><trkpt lat="44.30685501356615" lon="11.979047957205498"><ele>17.0</ele><time>2026-04-26T14:41:47Z</time></trkpt><trkpt lat="44.30692622082466" lon="11.978916414569023"><ele>17.0</ele><time>2026-04-26T14:41:48Z</time></trkpt><trkpt lat="44.30699326795186" lon="11.978782258870709"><ele>17.0</ele><time>2026-04-26T14:41:49Z</time></trkpt><trkpt lat="44.307052840064934" lon="11.978638758458963"><ele>17.0</ele><time>2026-04-26T14:41:50Z</time></trkpt><trkpt lat="44.30710428111394" lon="11.978487032770575"><ele>17.0</ele><time>2026-04-26T14:41:51Z</time></trkpt><trkpt lat="44.307150602955666" lon="11.978333117500261"><ele>17.0</ele><time>2026-04-26T14:41:52Z</time></trkpt><trkpt lat="44.307197035538984" lon="11.978179710469897"><ele>17.0</ele><time>2026-04-26T14:41:53Z</time></trkpt><trkpt lat="44.3072450421962" lon="11.978025149015203"><ele>17.0</ele><time>2026-04-26T14:41:54Z</time></trkpt><trkpt lat="44.30729463333698" lon="11.977871482880436"><ele>17.0</ele><time>2026-04-26T14:41:55Z</time></trkpt><trkpt lat="44.307347069623376" lon="11.977721263741653"><ele>16.75</ele><time>2026-04-26T14:41:56Z</time></trkpt><trkpt lat="44.307409735966374" lon="11.977573883393665"><ele>16.5</ele><time>2026-04-26T14:41:57Z</time></trkpt><trkpt lat="44.30749620534256" lon="11.9774565261593"><ele>16.25</ele><time>2026-04-26T14:41:58Z</time></trkpt><trkpt lat="44.30757944608223" lon="11.977331369555547"><ele>16.0</ele><time>2026-04-26T14:41:59Z</time></trkpt><trkpt lat="44.30766812088919" lon="11.97721863931715"><ele>16.0</ele><time>2026-04-26T14:42:00Z</time></trkpt><trkpt lat="44.3077673771544" lon="11.97711985369518"><ele>16.0</ele><time>2026-04-26T14:42:01Z</time></trkpt><trkpt lat="44.307875596264374" lon="11.97703272008273"><ele>16.0</ele><time>2026-04-26T14:42:02Z</time></trkpt><trkpt lat="44.307984980730446" lon="11.976957580552101"><ele>16.0</ele><time>2026-04-26T14:42:03Z</time></trkpt><trkpt lat="44.308099810310246" lon="11.976883763135225"><ele>16.2</ele><time>2026-04-26T14:42:04Z</time></trkpt><trkpt lat="44.3082053082335" lon="11.97681528739702"><ele>16.400000000000002</ele><time>2026-04-26T14:42:05Z</time></trkpt><trkpt lat="44.30829795574845" lon="11.976754414301842"><ele>16.6</ele><time>2026-04-26T14:42:06Z</time></trkpt><trkpt lat="44.30838192687361" lon="11.976697519432486"><ele>16.8</ele><time>2026-04-26T14:42:07Z</time></trkpt><trkpt lat="44.308444530320955" lon="11.976622046566034"><ele>17.0</ele><time>2026-04-26T14:42:08Z</time></trkpt><trkpt lat="44.308507875529635" lon="11.976585376407659"><ele>17.2</ele><time>2026-04-26T14:42:09Z</time></trkpt><trkpt lat="44.3085958119457" lon="11.976501887202804"><ele>17.4</ele><time>2026-04-26T14:42:11Z</time></trkpt><trkpt lat="44.308671892629526" lon="11.976468588143383"><ele>17.6</ele><time>2026-04-26T14:42:14Z</time></trkpt><trkpt lat="44.30862116620307" lon="11.976312186090432"><ele>17.8</ele><time>2026-04-26T14:42:15Z</time></trkpt><trkpt lat="44.30857098884179" lon="11.976220707826444"><ele>18.0</ele><time>2026-04-26T14:42:16Z</time></trkpt><trkpt lat="44.30851222374561" lon="11.976132505817978"><ele>18.0</ele><time>2026-04-26T14:42:17Z</time></trkpt><trkpt lat="44.30845019008815" lon="11.976037376459967"><ele>18.0</ele><time>2026-04-26T14:42:18Z</time></trkpt><trkpt lat="44.30838309205172" lon="11.97593357512682"><ele>18.0</ele><time>2026-04-26T14:42:19Z</time></trkpt><trkpt lat="44.30831429147469" lon="11.975825039964901"><ele>18.0</ele><time>2026-04-26T14:42:20Z</time></trkpt><trkpt lat="44.30823711409836" lon="11.975712548583768"><ele>18.0</ele><time>2026-04-26T14:42:21Z</time></trkpt><trkpt lat="44.30815918374064" lon="11.97559716219794"><ele>18.0</ele><time>2026-04-26T14:42:22Z</time></trkpt><trkpt lat="44.30807589283269" lon="11.975471438296298"><ele>18.0</ele><time>2026-04-26T14:42:23Z</time></trkpt><trkpt lat="44.307993692438664" lon="11.975344745046497"><ele>18.0</ele><time>2026-04-26T14:42:24Z</time></trkpt><trkpt lat="44.30790786273398" lon="11.975217956381124"><ele>18.0</ele><time>2026-04-26T14:42:25Z</time></trkpt><trkpt lat="44.307818928427075" lon="11.975084143287164"><ele>18.0</ele><time>2026-04-26T14:42:26Z</time></trkpt><trkpt lat="44.30773254905899" lon="11.974947315252045"><ele>18.0</ele><time>2026-04-26T14:42:27Z</time></trkpt><trkpt lat="44.3076459102294" lon="11.974808372532495"><ele>18.0</ele><time>2026-04-26T14:42:28Z</time></trkpt><trkpt lat="44.30755771109478" lon="11.974670321707706"><ele>18.0</ele><time>2026-04-26T14:42:29Z</time></trkpt><trkpt lat="44.30746346493964" lon="11.974530882323617"><ele>18.0</ele><time>2026-04-26T14:42:30Z</time></trkpt><trkpt lat="44.307373266288394" lon="11.974390331570376"><ele>18.0</ele><time>2026-04-26T14:42:31Z</time></trkpt><trkpt lat="44.30728223369148" lon="11.974245071166608"><ele>18.0</ele><time>2026-04-26T14:42:32Z</time></trkpt><trkpt lat="44.30720312820873" lon="11.974097066885417"><ele>18.0</ele><time>2026-04-26T14:42:33Z</time></trkpt><trkpt lat="44.30710623444849" lon="11.973962948418581"><ele>18.0</ele><time>2026-04-26T14:42:34Z</time></trkpt><trkpt lat="44.3070103709911" lon="11.973819679370614"><ele>18.0</ele><time>2026-04-26T14:42:35Z</time></trkpt><trkpt lat="44.3069197264103" lon="11.973680205687804"><ele>18.0</ele><time>2026-04-26T14:42:36Z</time></trkpt><trkpt lat="44.30682493492448" lon="11.973537720167972"><ele>18.0</ele><time>2026-04-26T14:42:36.999Z</time></trkpt><trkpt lat="44.306732410049285" lon="11.973393047035707"><ele>17.75</ele><time>2026-04-26T14:42:37.999Z</time></trkpt><trkpt lat="44.30663762260794" lon="11.973249693026693"><ele>17.5</ele><time>2026-04-26T14:42:38.999Z</time></trkpt><trkpt lat="44.30654476738675" lon="11.97311015579978"><ele>17.25</ele><time>2026-04-26T14:42:39.999Z</time></trkpt><trkpt lat="44.30646345122202" lon="11.972978540414358"><ele>17.0</ele><time>2026-04-26T14:42:40.999Z</time></trkpt><trkpt lat="44.30639089895114" lon="11.972868199103766"><ele>17.333333333333336</ele><time>2026-04-26T14:42:41.999Z</time></trkpt><trkpt lat="44.306323591522485" lon="11.97275631220364"><ele>17.666666666666668</ele><time>2026-04-26T14:42:42.999Z</time></trkpt><trkpt lat="44.30625847178555" lon="11.972657888178974"><ele>18.0</ele><time>2026-04-26T14:42:43.999Z</time></trkpt><trkpt lat="44.30620012655015" lon="11.97256596852824"><ele>18.333333333333332</ele><time>2026-04-26T14:42:44.999Z</time></trkpt><trkpt lat="44.306143096178275" lon="11.972485900941374"><ele>18.666666666666664</ele><time>2026-04-26T14:42:45.999Z</time></trkpt><trkpt lat="44.306110115072464" lon="11.97239749057061"><ele>19.0</ele><time>2026-04-26T14:42:46.999Z</time></trkpt><trkpt lat="44.30619352830295" lon="11.972219377951529"><ele>19.0</ele><time>2026-04-26T14:42:48.999Z</time></trkpt><trkpt lat="44.306253768435" lon="11.972116159655764"><ele>19.0</ele><time>2026-04-26T14:42:49.999Z</time></trkpt><trkpt lat="44.30630600990837" lon="11.972001582278876"><ele>19.0</ele><time>2026-04-26T14:42:50.999Z</time></trkpt><trkpt lat="44.30637310400251" lon="11.971897276778364"><ele>19.0</ele><time>2026-04-26T14:42:52Z</time></trkpt><trkpt lat="44.30643745853421" lon="11.971767806559177"><ele>19.0</ele><time>2026-04-26T14:42:53Z</time></trkpt><trkpt lat="44.30650233566401" lon="11.971655582667584"><ele>18.75</ele><time>2026-04-26T14:42:54Z</time></trkpt><trkpt lat="44.306573376646256" lon="11.971539111864397"><ele>18.5</ele><time>2026-04-26T14:42:55Z</time></trkpt><trkpt lat="44.306649550239506" lon="11.971411783798446"><ele>18.25</ele><time>2026-04-26T14:42:56Z</time></trkpt><trkpt lat="44.306722363780594" lon="11.971277640724786"><ele>18.0</ele><time>2026-04-26T14:42:57Z</time></trkpt><trkpt lat="44.30680130205234" lon="11.971146493160758"><ele>18.0</ele><time>2026-04-26T14:42:58Z</time></trkpt><trkpt lat="44.306885156154884" lon="11.971012780702724"><ele>18.0</ele><time>2026-04-26T14:42:59Z</time></trkpt><trkpt lat="44.30695922377569" lon="11.970869879039054"><ele>18.0</ele><time>2026-04-26T14:43:00Z</time></trkpt><trkpt lat="44.30704243054733" lon="11.970729991429087"><ele>18.0</ele><time>2026-04-26T14:43:01Z</time></trkpt><trkpt lat="44.30712347304408" lon="11.970588920440976"><ele>18.0</ele><time>2026-04-26T14:43:02Z</time></trkpt><trkpt lat="44.30720395573417" lon="11.970447335607679"><ele>18.0</ele><time>2026-04-26T14:43:03Z</time></trkpt><trkpt lat="44.307291415303396" lon="11.970310165832853"><ele>18.0</ele><time>2026-04-26T14:43:04Z</time></trkpt><trkpt lat="44.30737259447995" lon="11.970163515050237"><ele>18.0</ele><time>2026-04-26T14:43:05Z</time></trkpt><trkpt lat="44.307453289056994" lon="11.970023936104663"><ele>18.75</ele><time>2026-04-26T14:43:06Z</time></trkpt><trkpt lat="44.30753450724213" lon="11.96987977900713"><ele>19.5</ele><time>2026-04-26T14:43:07Z</time></trkpt><trkpt lat="44.30761423804812" lon="11.969743515063389"><ele>20.25</ele><time>2026-04-26T14:43:08Z</time></trkpt><trkpt lat="44.307697286089855" lon="11.969613251212225"><ele>21.0</ele><time>2026-04-26T14:43:09Z</time></trkpt><trkpt lat="44.307774693291194" lon="11.969470202183144"><ele>21.0</ele><time>2026-04-26T14:43:10Z</time></trkpt><trkpt lat="44.30785353727216" lon="11.969335251641489"><ele>21.0</ele><time>2026-04-26T14:43:11Z</time></trkpt><trkpt lat="44.30792995406363" lon="11.969196606132927"><ele>21.0</ele><time>2026-04-26T14:43:12Z</time></trkpt><trkpt lat="44.30801006238882" lon="11.96906627197005"><ele>21.0</ele><time>2026-04-26T14:43:13Z</time></trkpt><trkpt lat="44.30808031644981" lon="11.968925075593022"><ele>20.5</ele><time>2026-04-26T14:43:14Z</time></trkpt><trkpt lat="44.30816113807493" lon="11.96879296639465"><ele>20.0</ele><time>2026-04-26T14:43:15Z</time></trkpt><trkpt lat="44.30823599066532" lon="11.968652627477914"><ele>19.5</ele><time>2026-04-26T14:43:16Z</time></trkpt><trkpt lat="44.30831294269924" lon="11.968510696802543"><ele>19.0</ele><time>2026-04-26T14:43:17Z</time></trkpt><trkpt lat="44.30839002943571" lon="11.968372499695025"><ele>18.75</ele><time>2026-04-26T14:43:18Z</time></trkpt><trkpt lat="44.30846563580077" lon="11.968230900784555"><ele>18.5</ele><time>2026-04-26T14:43:19Z</time></trkpt><trkpt lat="44.30854406810634" lon="11.968097830647052"><ele>18.25</ele><time>2026-04-26T14:43:20Z</time></trkpt><trkpt lat="44.30861810926842" lon="11.967949397010102"><ele>18.0</ele><time>2026-04-26T14:43:21Z</time></trkpt><trkpt lat="44.30869779036857" lon="11.9678183065271"><ele>18.0</ele><time>2026-04-26T14:43:22Z</time></trkpt><trkpt lat="44.30876961139252" lon="11.96767474167054"><ele>18.0</ele><time>2026-04-26T14:43:23Z</time></trkpt><trkpt lat="44.30884930726823" lon="11.967537711841148"><ele>18.0</ele><time>2026-04-26T14:43:24Z</time></trkpt><trkpt lat="44.30892381193591" lon="11.967391374718659"><ele>18.0</ele><time>2026-04-26T14:43:25Z</time></trkpt><trkpt lat="44.30900407253015" lon="11.967254032532118"><ele>18.25</ele><time>2026-04-26T14:43:26Z</time></trkpt><trkpt lat="44.30907068125736" lon="11.967103036205424"><ele>18.5</ele><time>2026-04-26T14:43:27Z</time></trkpt><trkpt lat="44.30913616331435" lon="11.966948190396733"><ele>18.75</ele><time>2026-04-26T14:43:28Z</time></trkpt><trkpt lat="44.30919932022977" lon="11.96679174022006"><ele>19.0</ele><time>2026-04-26T14:43:29Z</time></trkpt><trkpt lat="44.30926202934048" lon="11.96663333866545"><ele>19.25</ele><time>2026-04-26T14:43:30Z</time></trkpt><trkpt lat="44.30932428297924" lon="11.966473780919145"><ele>19.5</ele><time>2026-04-26T14:43:31Z</time></trkpt><trkpt lat="44.309387992259985" lon="11.966318731428851"><ele>19.75</ele><time>2026-04-26T14:43:32Z</time></trkpt><trkpt lat="44.309452294739394" lon="11.966163311636642"><ele>20.0</ele><time>2026-04-26T14:43:33Z</time></trkpt><trkpt lat="44.30951406443786" lon="11.966007041695057"><ele>19.5</ele><time>2026-04-26T14:43:34Z</time></trkpt><trkpt lat="44.30957301593795" lon="11.965847116305499"><ele>19.0</ele><time>2026-04-26T14:43:35Z</time></trkpt><trkpt lat="44.30962924586472" lon="11.965690059339714"><ele>18.5</ele><time>2026-04-26T14:43:36Z</time></trkpt><trkpt lat="44.30968400238388" lon="11.965529861693492"><ele>18.0</ele><time>2026-04-26T14:43:37Z</time></trkpt><trkpt lat="44.309730769937694" lon="11.96536596099568"><ele>18.0</ele><time>2026-04-26T14:43:38Z</time></trkpt><trkpt lat="44.309780672178846" lon="11.965200675832556"><ele>18.0</ele><time>2026-04-26T14:43:39Z</time></trkpt><trkpt lat="44.30983497360513" lon="11.965039238011387"><ele>18.0</ele><time>2026-04-26T14:43:40Z</time></trkpt><trkpt lat="44.30988636759755" lon="11.964873949459472"><ele>18.0</ele><time>2026-04-26T14:43:41Z</time></trkpt><trkpt lat="44.30993722289453" lon="11.964708693836561"><ele>18.25</ele><time>2026-04-26T14:43:42Z</time></trkpt><trkpt lat="44.30998776140262" lon="11.96454243795048"><ele>18.5</ele><time>2026-04-26T14:43:43Z</time></trkpt><trkpt lat="44.310038054074575" lon="11.964377595369633"><ele>18.75</ele><time>2026-04-26T14:43:44Z</time></trkpt><trkpt lat="44.31008999742144" lon="11.964213557130916"><ele>19.0</ele><time>2026-04-26T14:43:45Z</time></trkpt><trkpt lat="44.31015000929744" lon="11.96405354531857"><ele>19.5</ele><time>2026-04-26T14:43:46Z</time></trkpt><trkpt lat="44.31019411931515" lon="11.963888033601313"><ele>20.0</ele><time>2026-04-26T14:43:47Z</time></trkpt><trkpt lat="44.310243133433474" lon="11.963724027080477"><ele>20.5</ele><time>2026-04-26T14:43:48Z</time></trkpt><trkpt lat="44.310294369340646" lon="11.963557612607447"><ele>21.0</ele><time>2026-04-26T14:43:49Z</time></trkpt><trkpt lat="44.31034256837616" lon="11.963389643982385"><ele>21.0</ele><time>2026-04-26T14:43:50Z</time></trkpt><trkpt lat="44.31038704458775" lon="11.963220166304538"><ele>21.0</ele><time>2026-04-26T14:43:51Z</time></trkpt><trkpt lat="44.31043488734548" lon="11.963050170029376"><ele>21.0</ele><time>2026-04-26T14:43:52Z</time></trkpt><trkpt lat="44.31049516986803" lon="11.962888948308922"><ele>21.0</ele><time>2026-04-26T14:43:53Z</time></trkpt><trkpt lat="44.310544833541485" lon="11.962718857643365"><ele>21.0</ele><time>2026-04-26T14:43:54Z</time></trkpt><trkpt lat="44.31059611654652" lon="11.9625515056279"><ele>21.0</ele><time>2026-04-26T14:43:55Z</time></trkpt><trkpt lat="44.31064754077527" lon="11.96238607386724"><ele>21.0</ele><time>2026-04-26T14:43:56Z</time></trkpt><trkpt lat="44.31070136265571" lon="11.962216506012831"><ele>21.0</ele><time>2026-04-26T14:43:57Z</time></trkpt><trkpt lat="44.310754547952314" lon="11.962048943729316"><ele>20.75</ele><time>2026-04-26T14:43:58Z</time></trkpt><trkpt lat="44.310806845646" lon="11.961884177872314"><ele>20.5</ele><time>2026-04-26T14:43:59Z</time></trkpt><trkpt lat="44.31085958182424" lon="11.961718030561803"><ele>20.25</ele><time>2026-04-26T14:44:00Z</time></trkpt><trkpt lat="44.310894519097644" lon="11.961551728711441"><ele>20.0</ele><time>2026-04-26T14:44:01Z</time></trkpt><trkpt lat="44.31094315503767" lon="11.961417737653909"><ele>20.0</ele><time>2026-04-26T14:44:02Z</time></trkpt><trkpt lat="44.310979044749985" lon="11.961287120857769"><ele>20.0</ele><time>2026-04-26T14:44:03Z</time></trkpt><trkpt lat="44.31101610411711" lon="11.961180437585252"><ele>20.0</ele><time>2026-04-26T14:44:04Z</time></trkpt><trkpt lat="44.31104663727545" lon="11.961074433471124"><ele>20.0</ele><time>2026-04-26T14:44:05Z</time></trkpt><trkpt lat="44.31107821089702" lon="11.960985920741384"><ele>20.0</ele><time>2026-04-26T14:44:06Z</time></trkpt><trkpt lat="44.31110929572947" lon="11.9609026519496"><ele>20.0</ele><time>2026-04-26T14:44:07Z</time></trkpt><trkpt lat="44.31117737081076" lon="11.960784927196883"><ele>20.0</ele><time>2026-04-26T14:44:09Z</time></trkpt><trkpt lat="44.31128770673562" lon="11.960875982181213"><ele>20.0</ele><time>2026-04-26T14:44:11Z</time></trkpt><trkpt lat="44.311357281906794" lon="11.960916221455166"><ele>20.0</ele><time>2026-04-26T14:44:12Z</time></trkpt><trkpt lat="44.31142812458844" lon="11.96095812208715"><ele>20.0</ele><time>2026-04-26T14:44:13Z</time></trkpt><trkpt lat="44.31150729964454" lon="11.961004954952323"><ele>20.0</ele><time>2026-04-26T14:44:14Z</time></trkpt><trkpt lat="44.311588832573314" lon="11.961054771323079"><ele>20.0</ele><time>2026-04-26T14:44:15Z</time></trkpt><trkpt lat="44.31167407011585" lon="11.961107893952542"><ele>20.0</ele><time>2026-04-26T14:44:16Z</time></trkpt><trkpt lat="44.31176042337299" lon="11.961161711940825"><ele>20.0</ele><time>2026-04-26T14:44:17Z</time></trkpt><trkpt lat="44.3118502314016" lon="11.961218393926567"><ele>20.0</ele><time>2026-04-26T14:44:18Z</time></trkpt><trkpt lat="44.31193932094425" lon="11.961277940942178"><ele>20.0</ele><time>2026-04-26T14:44:19Z</time></trkpt><trkpt lat="44.31202930447652" lon="11.961343844634175"><ele>20.0</ele><time>2026-04-26T14:44:20Z</time></trkpt><trkpt lat="44.31212844534759" lon="11.961391426865147"><ele>20.0</ele><time>2026-04-26T14:44:21Z</time></trkpt><trkpt lat="44.31221969546492" lon="11.96146409440438"><ele>20.0</ele><time>2026-04-26T14:44:22Z</time></trkpt><trkpt lat="44.31231238883853" lon="11.961538011861327"><ele>20.0</ele><time>2026-04-26T14:44:23Z</time></trkpt><trkpt lat="44.31239903261447" lon="11.961627953543427"><ele>20.0</ele><time>2026-04-26T14:44:24Z</time></trkpt><trkpt lat="44.31249402665558" lon="11.961700698800772"><ele>20.0</ele><time>2026-04-26T14:44:25Z</time></trkpt><trkpt lat="44.312589673492326" lon="11.961770947397302"><ele>20.0</ele><time>2026-04-26T14:44:26Z</time></trkpt><trkpt lat="44.31268945153162" lon="11.9618211585409"><ele>20.0</ele><time>2026-04-26T14:44:27Z</time></trkpt><trkpt lat="44.31276626144119" lon="11.961900643884075"><ele>20.0</ele><time>2026-04-26T14:44:28Z</time></trkpt><trkpt lat="44.312856316288936" lon="11.961941638830577"><ele>20.0</ele><time>2026-04-26T14:44:29Z</time></trkpt><trkpt lat="44.31292935339093" lon="11.961996628020643"><ele>20.0</ele><time>2026-04-26T14:44:30Z</time></trkpt><trkpt lat="44.31299320633912" lon="11.962049192845475"><ele>20.0</ele><time>2026-04-26T14:44:31Z</time></trkpt><trkpt lat="44.31305141974162" lon="11.96209580088624"><ele>20.0</ele><time>2026-04-26T14:44:32Z</time></trkpt><trkpt lat="44.3131089765274" lon="11.9621400896216"><ele>20.0</ele><time>2026-04-26T14:44:33Z</time></trkpt><trkpt lat="44.31318981988942" lon="11.962225546711618"><ele>20.0</ele><time>2026-04-26T14:44:35Z</time></trkpt><trkpt lat="44.313273205085196" lon="11.962266450647574"><ele>20.0</ele><time>2026-04-26T14:44:37Z</time></trkpt><trkpt lat="44.3133257451642" lon="11.962319811721054"><ele>19.75</ele><time>2026-04-26T14:44:40Z</time></trkpt><trkpt lat="44.31339307985657" lon="11.962152081491702"><ele>19.5</ele><time>2026-04-26T14:44:41Z</time></trkpt><trkpt lat="44.31345578588152" lon="11.962041836433887"><ele>19.25</ele><time>2026-04-26T14:44:42.999Z</time></trkpt><trkpt lat="44.31350743118556" lon="11.96191557464658"><ele>19.0</ele><time>2026-04-26T14:44:44.999Z</time></trkpt><trkpt lat="44.313560591147116" lon="11.961783498043253"><ele>19.2</ele><time>2026-04-26T14:44:46.999Z</time></trkpt><trkpt lat="44.31361393572182" lon="11.961646049401926"><ele>19.4</ele><time>2026-04-26T14:44:48.999Z</time></trkpt><trkpt lat="44.313666877084344" lon="11.96150791900977"><ele>19.6</ele><time>2026-04-26T14:44:50.999Z</time></trkpt><trkpt lat="44.31371679851719" lon="11.96137766796806"><ele>19.8</ele><time>2026-04-26T14:44:52.999Z</time></trkpt><trkpt lat="44.313771261404405" lon="11.961235567732555"><ele>20.0</ele><time>2026-04-26T14:44:54.999Z</time></trkpt><trkpt lat="44.3138301506714" lon="11.961087165212351"><ele>20.0</ele><time>2026-04-26T14:44:56.999Z</time></trkpt><trkpt lat="44.313895479709736" lon="11.960943824143982"><ele>20.0</ele><time>2026-04-26T14:44:58.999Z</time></trkpt><trkpt lat="44.31396635114557" lon="11.960800466550932"><ele>20.0</ele><time>2026-04-26T14:45:00.999Z</time></trkpt><trkpt lat="44.31403903796464" lon="11.960657474294285"><ele>20.0</ele><time>2026-04-26T14:45:02.999Z</time></trkpt><trkpt lat="44.31410067040679" lon="11.960509879883313"><ele>20.0</ele><time>2026-04-26T14:45:04.999Z</time></trkpt><trkpt lat="44.3141377077414" lon="11.960437597820063"><ele>20.0</ele><time>2026-04-26T14:45:05.999Z</time></trkpt><trkpt lat="44.31417349969166" lon="11.960363618790959"><ele>20.0</ele><time>2026-04-26T14:45:06.999Z</time></trkpt><trkpt lat="44.31426966101314" lon="11.960217715913426"><ele>20.0</ele><time>2026-04-26T14:45:09Z</time></trkpt><trkpt lat="44.31432259692902" lon="11.960078250999146"><ele>20.0</ele><time>2026-04-26T14:45:11Z</time></trkpt><trkpt lat="44.31439788782561" lon="11.959939633786806"><ele>20.0</ele><time>2026-04-26T14:45:13Z</time></trkpt><trkpt lat="44.31444118215807" lon="11.959872900806205"><ele>20.0</ele><time>2026-04-26T14:45:14Z</time></trkpt><trkpt lat="44.31446971056904" lon="11.959791397871891"><ele>20.0</ele><time>2026-04-26T14:45:15Z</time></trkpt><trkpt lat="44.31450534092472" lon="11.959713704253005"><ele>20.0</ele><time>2026-04-26T14:45:16Z</time></trkpt><trkpt lat="44.314535703545076" lon="11.959634302807691"><ele>20.0</ele><time>2026-04-26T14:45:17Z</time></trkpt><trkpt lat="44.31456514747813" lon="11.959546165232455"><ele>20.0</ele><time>2026-04-26T14:45:18Z</time></trkpt><trkpt lat="44.314596112939576" lon="11.95946727756452"><ele>20.0</ele><time>2026-04-26T14:45:19Z</time></trkpt><trkpt lat="44.31461691227204" lon="11.95937948859248"><ele>20.0</ele><time>2026-04-26T14:45:20Z</time></trkpt><trkpt lat="44.31464064430419" lon="11.959296881238469"><ele>20.0</ele><time>2026-04-26T14:45:21Z</time></trkpt><trkpt lat="44.31468829130887" lon="11.959135365375841"><ele>20.0</ele><time>2026-04-26T14:45:23Z</time></trkpt><trkpt lat="44.314720759639975" lon="11.959052689121462"><ele>20.0</ele><time>2026-04-26T14:45:24Z</time></trkpt><trkpt lat="44.314768443538135" lon="11.958891991933564"><ele>20.0</ele><time>2026-04-26T14:45:26Z</time></trkpt><trkpt lat="44.314791325290244" lon="11.958804307788494"><ele>20.0</ele><time>2026-04-26T14:45:27Z</time></trkpt><trkpt lat="44.31483679150872" lon="11.958646110286839"><ele>20.0</ele><time>2026-04-26T14:45:29Z</time></trkpt><trkpt lat="44.314887931652926" lon="11.95849094836044"><ele>20.0</ele><time>2026-04-26T14:45:31Z</time></trkpt><trkpt lat="44.314939169047854" lon="11.958341230130106"><ele>20.0</ele><time>2026-04-26T14:45:33Z</time></trkpt><trkpt lat="44.31498871056852" lon="11.958189151968337"><ele>20.0</ele><time>2026-04-26T14:45:35Z</time></trkpt><trkpt lat="44.315032941239664" lon="11.958039586563201"><ele>20.0</ele><time>2026-04-26T14:45:37Z</time></trkpt><trkpt lat="44.31507419425542" lon="11.957904535989634"><ele>20.0</ele><time>2026-04-26T14:45:39Z</time></trkpt><trkpt lat="44.31512804765428" lon="11.957805421790626"><ele>20.0</ele><time>2026-04-26T14:45:41Z</time></trkpt><trkpt lat="44.31518529126964" lon="11.957699067578833"><ele>20.0</ele><time>2026-04-26T14:45:43Z</time></trkpt><trkpt lat="44.31524546271435" lon="11.95757991308604"><ele>20.0</ele><time>2026-04-26T14:45:45Z</time></trkpt><trkpt lat="44.31530343925562" lon="11.957450575779719"><ele>20.0</ele><time>2026-04-26T14:45:47Z</time></trkpt><trkpt lat="44.315359287125204" lon="11.957327552963184"><ele>20.0</ele><time>2026-04-26T14:45:49Z</time></trkpt><trkpt lat="44.315416900800415" lon="11.957197724995602"><ele>20.0</ele><time>2026-04-26T14:45:51Z</time></trkpt><trkpt lat="44.31546641378679" lon="11.957063067272484"><ele>20.0</ele><time>2026-04-26T14:45:53Z</time></trkpt><trkpt lat="44.31552708998115" lon="11.95693747447328"><ele>20.0</ele><time>2026-04-26T14:45:55Z</time></trkpt><trkpt lat="44.315583337282064" lon="11.956802592754496"><ele>20.2</ele><time>2026-04-26T14:45:57Z</time></trkpt><trkpt lat="44.315635705543635" lon="11.956664943432598"><ele>20.4</ele><time>2026-04-26T14:45:59Z</time></trkpt><trkpt lat="44.31568218113975" lon="11.956517968834612"><ele>20.6</ele><time>2026-04-26T14:46:01Z</time></trkpt><trkpt lat="44.31573027454105" lon="11.956367465723657"><ele>20.8</ele><time>2026-04-26T14:46:03Z</time></trkpt><trkpt lat="44.31575602230418" lon="11.956278479747988"><ele>21.0</ele><time>2026-04-26T14:46:04Z</time></trkpt><trkpt lat="44.31580307096398" lon="11.956121282623696"><ele>21.0</ele><time>2026-04-26T14:46:06Z</time></trkpt><trkpt lat="44.31583153434705" lon="11.956040650276597"><ele>21.0</ele><time>2026-04-26T14:46:07Z</time></trkpt><trkpt lat="44.31588644408649" lon="11.955888024953278"><ele>21.0</ele><time>2026-04-26T14:46:09Z</time></trkpt><trkpt lat="44.31591810250837" lon="11.955810295296503"><ele>21.0</ele><time>2026-04-26T14:46:10Z</time></trkpt><trkpt lat="44.31597078258275" lon="11.95565888879571"><ele>21.0</ele><time>2026-04-26T14:46:12Z</time></trkpt><trkpt lat="44.31602935540692" lon="11.955505430521127"><ele>21.0</ele><time>2026-04-26T14:46:14Z</time></trkpt><trkpt lat="44.31609823747239" lon="11.955364535545138"><ele>21.0</ele><time>2026-04-26T14:46:16Z</time></trkpt><trkpt lat="44.31613924625785" lon="11.955209669776593"><ele>21.0</ele><time>2026-04-26T14:46:18Z</time></trkpt><trkpt lat="44.31619750352463" lon="11.955058282491699"><ele>21.0</ele><time>2026-04-26T14:46:20Z</time></trkpt><trkpt lat="44.31625214298056" lon="11.954909649081818"><ele>20.8</ele><time>2026-04-26T14:46:22Z</time></trkpt><trkpt lat="44.316278884871664" lon="11.954826730893362"><ele>20.6</ele><time>2026-04-26T14:46:23Z</time></trkpt><trkpt lat="44.31632657184574" lon="11.954679360547656"><ele>20.4</ele><time>2026-04-26T14:46:25Z</time></trkpt><trkpt lat="44.31635645597909" lon="11.95458836271421"><ele>20.2</ele><time>2026-04-26T14:46:26Z</time></trkpt><trkpt lat="44.3164120938847" lon="11.954436015816446"><ele>20.0</ele><time>2026-04-26T14:46:28Z</time></trkpt><trkpt lat="44.31646274847518" lon="11.954286438351552"><ele>20.2</ele><time>2026-04-26T14:46:30Z</time></trkpt><trkpt lat="44.31651608880063" lon="11.954136571733839"><ele>20.4</ele><time>2026-04-26T14:46:32Z</time></trkpt><trkpt lat="44.31655541407413" lon="11.953997289254964"><ele>20.6</ele><time>2026-04-26T14:46:34Z</time></trkpt><trkpt lat="44.31659648545404" lon="11.953864525605063"><ele>20.8</ele><time>2026-04-26T14:46:36Z</time></trkpt><trkpt lat="44.316635493219664" lon="11.95372865892427"><ele>21.0</ele><time>2026-04-26T14:46:38Z</time></trkpt><trkpt lat="44.31667574162466" lon="11.953586024696541"><ele>21.0</ele><time>2026-04-26T14:46:40Z</time></trkpt><trkpt lat="44.31672157162555" lon="11.953448290256713"><ele>21.0</ele><time>2026-04-26T14:46:42Z</time></trkpt><trkpt lat="44.31676461527926" lon="11.95329943935933"><ele>21.0</ele><time>2026-04-26T14:46:44Z</time></trkpt><trkpt lat="44.31681277162959" lon="11.9531555750186"><ele>21.0</ele><time>2026-04-26T14:46:46Z</time></trkpt><trkpt lat="44.31685456959503" lon="11.953012032008319"><ele>21.0</ele><time>2026-04-26T14:46:48Z</time></trkpt><trkpt lat="44.316900106332874" lon="11.95287199819743"><ele>20.8</ele><time>2026-04-26T14:46:49.999Z</time></trkpt><trkpt lat="44.31695212644172" lon="11.952743263949298"><ele>20.6</ele><time>2026-04-26T14:46:51.999Z</time></trkpt><trkpt lat="44.317000649824834" lon="11.952616983017778"><ele>20.4</ele><time>2026-04-26T14:46:53.999Z</time></trkpt><trkpt lat="44.31706141620361" lon="11.952503988549372"><ele>20.2</ele><time>2026-04-26T14:46:55.999Z</time></trkpt><trkpt lat="44.31712059460867" lon="11.952403179212288"><ele>20.0</ele><time>2026-04-26T14:46:57.999Z</time></trkpt><trkpt lat="44.31716565495578" lon="11.95233519039377"><ele>20.0</ele><time>2026-04-26T14:46:59.999Z</time></trkpt><trkpt lat="44.317246811882235" lon="11.952442300487037"><ele>20.0</ele><time>2026-04-26T14:47:09.999Z</time></trkpt><trkpt lat="44.31731828655636" lon="11.952526960294547"><ele>20.0</ele><time>2026-04-26T14:47:11.999Z</time></trkpt><trkpt lat="44.31740305094476" lon="11.952642885890077"><ele>20.0</ele><time>2026-04-26T14:47:13.999Z</time></trkpt><trkpt lat="44.31748632884038" lon="11.95277269077916"><ele>20.0</ele><time>2026-04-26T14:47:15.999Z</time></trkpt><trkpt lat="44.3175260211197" lon="11.952843492057013"><ele>20.142857142857142</ele><time>2026-04-26T14:47:16.999Z</time></trkpt><trkpt lat="44.31756450419135" lon="11.952918634148523"><ele>20.285714285714285</ele><time>2026-04-26T14:47:17.999Z</time></trkpt><trkpt lat="44.31759461462356" lon="11.952996796871336"><ele>20.42857142857143</ele><time>2026-04-26T14:47:18.999Z</time></trkpt><trkpt lat="44.31762299633958" lon="11.95308062925349"><ele>20.57142857142857</ele><time>2026-04-26T14:47:20Z</time></trkpt><trkpt lat="44.31764877086695" lon="11.953168261751125"><ele>20.714285714285715</ele><time>2026-04-26T14:47:21Z</time></trkpt><trkpt lat="44.31767174898298" lon="11.95326650418453"><ele>20.857142857142858</ele><time>2026-04-26T14:47:22Z</time></trkpt><trkpt lat="44.31769022194034" lon="11.953358089351651"><ele>21.0</ele><time>2026-04-26T14:47:23Z</time></trkpt><trkpt lat="44.31770857674485" lon="11.95345444389074"><ele>21.0</ele><time>2026-04-26T14:47:24Z</time></trkpt><trkpt lat="44.31772737682956" lon="11.953553135837216"><ele>21.0</ele><time>2026-04-26T14:47:25Z</time></trkpt><trkpt lat="44.317746622005025" lon="11.953648164102624"><ele>21.0</ele><time>2026-04-26T14:47:26Z</time></trkpt><trkpt lat="44.31776614968535" lon="11.953742164261707"><ele>21.0</ele><time>2026-04-26T14:47:27Z</time></trkpt><trkpt lat="44.317785630961524" lon="11.953835941053672"><ele>21.0</ele><time>2026-04-26T14:47:28Z</time></trkpt><trkpt lat="44.317805709915326" lon="11.95393259484068"><ele>21.0</ele><time>2026-04-26T14:47:29Z</time></trkpt><trkpt lat="44.31782487779148" lon="11.954024863076757"><ele>21.0</ele><time>2026-04-26T14:47:30Z</time></trkpt><trkpt lat="44.31785954417879" lon="11.95411014011884"><ele>21.0</ele><time>2026-04-26T14:47:31Z</time></trkpt><trkpt lat="44.31787343686431" lon="11.954209701201018"><ele>21.0</ele><time>2026-04-26T14:47:32Z</time></trkpt><trkpt lat="44.31789526113616" lon="11.954305204315864"><ele>21.0</ele><time>2026-04-26T14:47:33Z</time></trkpt><trkpt lat="44.31791310091749" lon="11.954396926933757"><ele>21.0</ele><time>2026-04-26T14:47:34Z</time></trkpt><trkpt lat="44.31793045045722" lon="11.954490883987217"><ele>21.0</ele><time>2026-04-26T14:47:35Z</time></trkpt><trkpt lat="44.31795127129453" lon="11.954587386353065"><ele>21.0</ele><time>2026-04-26T14:47:36Z</time></trkpt><trkpt lat="44.317970666166964" lon="11.954677569972441"><ele>21.0</ele><time>2026-04-26T14:47:37Z</time></trkpt><trkpt lat="44.31799323489345" lon="11.954772853046789"><ele>21.0</ele><time>2026-04-26T14:47:38Z</time></trkpt><trkpt lat="44.31800371923365" lon="11.954865120312611"><ele>21.0</ele><time>2026-04-26T14:47:39Z</time></trkpt><trkpt lat="44.31800607945927" lon="11.954955923714525"><ele>21.0</ele><time>2026-04-26T14:47:40Z</time></trkpt><trkpt lat="44.3180207529339" lon="11.955049508613696"><ele>21.0</ele><time>2026-04-26T14:47:41Z</time></trkpt><trkpt lat="44.31803430230185" lon="11.955139669310345"><ele>21.0</ele><time>2026-04-26T14:47:42Z</time></trkpt><trkpt lat="44.318060850435664" lon="11.955229837118535"><ele>21.0</ele><time>2026-04-26T14:47:43Z</time></trkpt><trkpt lat="44.3180747035878" lon="11.955316387450662"><ele>21.0</ele><time>2026-04-26T14:47:44Z</time></trkpt><trkpt lat="44.31808007689689" lon="11.955410022546193"><ele>20.6</ele><time>2026-04-26T14:47:45Z</time></trkpt><trkpt lat="44.31810102999758" lon="11.95558295628138"><ele>20.200000000000003</ele><time>2026-04-26T14:47:47Z</time></trkpt><trkpt lat="44.318111098948535" lon="11.955745120987768"><ele>19.799999999999997</ele><time>2026-04-26T14:47:49Z</time></trkpt><trkpt lat="44.31810508841931" lon="11.955892060763809"><ele>19.4</ele><time>2026-04-26T14:47:51Z</time></trkpt><trkpt lat="44.31810550922827" lon="11.956028446668629"><ele>19.0</ele><time>2026-04-26T14:47:53Z</time></trkpt><trkpt lat="44.31810835187394" lon="11.9561570957147"><ele>19.0</ele><time>2026-04-26T14:47:55Z</time></trkpt><trkpt lat="44.318114020941906" lon="11.956284261876139"><ele>19.0</ele><time>2026-04-26T14:47:57Z</time></trkpt><trkpt lat="44.31812767813008" lon="11.956411836575594"><ele>19.0</ele><time>2026-04-26T14:47:59Z</time></trkpt><trkpt lat="44.31814183118828" lon="11.95654404237923"><ele>19.0</ele><time>2026-04-26T14:48:01Z</time></trkpt><trkpt lat="44.31814317653165" lon="11.956654736323756"><ele>19.0</ele><time>2026-04-26T14:48:03Z</time></trkpt><trkpt lat="44.31813197837116" lon="11.95674815895888"><ele>19.0</ele><time>2026-04-26T14:48:05Z</time></trkpt><trkpt lat="44.31812514152473" lon="11.95686402298126"><ele>19.5</ele><time>2026-04-26T14:48:07Z</time></trkpt><trkpt lat="44.31811835477734" lon="11.956979037975877"><ele>20.0</ele><time>2026-04-26T14:48:09Z</time></trkpt><trkpt lat="44.318494160793776" lon="11.957245466989129"><ele>20.0</ele><time>2026-04-26T14:48:13Z</time></trkpt><trkpt lat="44.31854222240523" lon="11.957324317403177"><ele>20.0</ele><time>2026-04-26T14:48:15Z</time></trkpt><trkpt lat="44.31860909050029" lon="11.95739643153295"><ele>20.0</ele><time>2026-04-26T14:48:18Z</time></trkpt><trkpt lat="44.31868060580104" lon="11.957465034318433"><ele>20.0</ele><time>2026-04-26T14:48:20Z</time></trkpt><trkpt lat="44.31877165320075" lon="11.957526668249796"><ele>20.0</ele><time>2026-04-26T14:48:22Z</time></trkpt><trkpt lat="44.31887003353119" lon="11.957564445271384"><ele>20.0</ele><time>2026-04-26T14:48:24Z</time></trkpt><trkpt lat="44.318971492847616" lon="11.95759366953474"><ele>20.0</ele><time>2026-04-26T14:48:26Z</time></trkpt><trkpt lat="44.319077353934354" lon="11.957607799814005"><ele>20.0</ele><time>2026-04-26T14:48:28Z</time></trkpt><trkpt lat="44.319178824369025" lon="11.957606508206943"><ele>20.0</ele><time>2026-04-26T14:48:30Z</time></trkpt><trkpt lat="44.31927729435465" lon="11.957587521636674"><ele>20.0</ele><time>2026-04-26T14:48:32Z</time></trkpt><trkpt lat="44.31937052097332" lon="11.95755914141282"><ele>20.0</ele><time>2026-04-26T14:48:34Z</time></trkpt><trkpt lat="44.31946171103894" lon="11.95751543257973"><ele>20.0</ele><time>2026-04-26T14:48:36Z</time></trkpt><trkpt lat="44.3195530895327" lon="11.957464718377965"><ele>20.0</ele><time>2026-04-26T14:48:38Z</time></trkpt><trkpt lat="44.31963907672257" lon="11.957414247792357"><ele>20.0</ele><time>2026-04-26T14:48:40Z</time></trkpt><trkpt lat="44.31972242209976" lon="11.957361973255304"><ele>20.0</ele><time>2026-04-26T14:48:42Z</time></trkpt><trkpt lat="44.31980449908796" lon="11.957302183562057"><ele>20.0</ele><time>2026-04-26T14:48:44.001Z</time></trkpt><trkpt lat="44.31989211376648" lon="11.957242693424298"><ele>20.0</ele><time>2026-04-26T14:48:46.001Z</time></trkpt><trkpt lat="44.31997525823455" lon="11.95718503831219"><ele>20.0</ele><time>2026-04-26T14:48:48.001Z</time></trkpt><trkpt lat="44.32005847109469" lon="11.957127249093586"><ele>20.0</ele><time>2026-04-26T14:48:50.001Z</time></trkpt><trkpt lat="44.32014532500955" lon="11.957072745693191"><ele>20.0</ele><time>2026-04-26T14:48:52.001Z</time></trkpt><trkpt lat="44.320233119259115" lon="11.957014800733408"><ele>20.0</ele><time>2026-04-26T14:48:54.001Z</time></trkpt><trkpt lat="44.32032729311766" lon="11.956964475477408"><ele>20.0</ele><time>2026-04-26T14:48:55.999Z</time></trkpt><trkpt lat="44.3204182003724" lon="11.956928910864727"><ele>20.0</ele><time>2026-04-26T14:48:57.999Z</time></trkpt><trkpt lat="44.320510342974565" lon="11.956913208854738"><ele>20.0</ele><time>2026-04-26T14:48:59.999Z</time></trkpt><trkpt lat="44.32060383762071" lon="11.95690709773026"><ele>20.0</ele><time>2026-04-26T14:49:01.999Z</time></trkpt><trkpt lat="44.32069708590672" lon="11.95691076262048"><ele>20.0</ele><time>2026-04-26T14:49:03.999Z</time></trkpt><trkpt lat="44.32078867360882" lon="11.956932702365032"><ele>20.0</ele><time>2026-04-26T14:49:05.999Z</time></trkpt><trkpt lat="44.32087019996345" lon="11.956970332746211"><ele>20.0</ele><time>2026-04-26T14:49:07.999Z</time></trkpt><trkpt lat="44.320953406588856" lon="11.95702335391877"><ele>20.0</ele><time>2026-04-26T14:49:09.999Z</time></trkpt><trkpt lat="44.32102591863989" lon="11.957088696472281"><ele>20.0</ele><time>2026-04-26T14:49:11.999Z</time></trkpt><trkpt lat="44.32109394686209" lon="11.95716832139062"><ele>20.0</ele><time>2026-04-26T14:49:13.999Z</time></trkpt><trkpt lat="44.32115221076393" lon="11.957259252978446"><ele>20.0</ele><time>2026-04-26T14:49:15.999Z</time></trkpt><trkpt lat="44.32121740375609" lon="11.957356263994143"><ele>20.0</ele><time>2026-04-26T14:49:17.999Z</time></trkpt><trkpt lat="44.32127860581856" lon="11.95745766671619"><ele>20.0</ele><time>2026-04-26T14:49:19.999Z</time></trkpt><trkpt lat="44.321337769075406" lon="11.957560802308"><ele>20.0</ele><time>2026-04-26T14:49:21.999Z</time></trkpt><trkpt lat="44.32140317935751" lon="11.957663324063844"><ele>20.0</ele><time>2026-04-26T14:49:23.999Z</time></trkpt><trkpt lat="44.32146407965209" lon="11.957767364577277"><ele>20.0</ele><time>2026-04-26T14:49:25.999Z</time></trkpt><trkpt lat="44.321522363335745" lon="11.957876510555293"><ele>20.0</ele><time>2026-04-26T14:49:28Z</time></trkpt><trkpt lat="44.321579959938575" lon="11.957983989372915"><ele>20.0</ele><time>2026-04-26T14:49:30Z</time></trkpt><trkpt lat="44.32163939690616" lon="11.958093500360542"><ele>20.0</ele><time>2026-04-26T14:49:32Z</time></trkpt><trkpt lat="44.32169597961421" lon="11.958200228191556"><ele>20.0</ele><time>2026-04-26T14:49:34Z</time></trkpt><trkpt lat="44.321750879074514" lon="11.95830792085153"><ele>20.0</ele><time>2026-04-26T14:49:36Z</time></trkpt><trkpt lat="44.321798449814" lon="11.95841662128678"><ele>20.2</ele><time>2026-04-26T14:49:38Z</time></trkpt><trkpt lat="44.321848880468494" lon="11.95852655341048"><ele>20.4</ele><time>2026-04-26T14:49:40Z</time></trkpt><trkpt lat="44.32190319553655" lon="11.95864254375992"><ele>20.6</ele><time>2026-04-26T14:49:42Z</time></trkpt><trkpt lat="44.32194499736089" lon="11.958767286266209"><ele>20.8</ele><time>2026-04-26T14:49:44Z</time></trkpt><trkpt lat="44.321987127137696" lon="11.958889429048783"><ele>21.0</ele><time>2026-04-26T14:49:46Z</time></trkpt><trkpt lat="44.32202522685062" lon="11.959024903750922"><ele>21.0</ele><time>2026-04-26T14:49:48Z</time></trkpt><trkpt lat="44.32204964834678" lon="11.959159837693415"><ele>21.0</ele><time>2026-04-26T14:49:50Z</time></trkpt><trkpt lat="44.322075500751914" lon="11.959301034549485"><ele>21.0</ele><time>2026-04-26T14:49:52Z</time></trkpt><trkpt lat="44.322098018749024" lon="11.9594346070983"><ele>21.0</ele><time>2026-04-26T14:49:54Z</time></trkpt><trkpt lat="44.32211662159424" lon="11.959561714980282"><ele>21.0</ele><time>2026-04-26T14:49:56Z</time></trkpt><trkpt lat="44.322131809050205" lon="11.959685178609531"><ele>20.833333333333332</ele><time>2026-04-26T14:49:58Z</time></trkpt><trkpt lat="44.322146924455694" lon="11.959807088672562"><ele>20.666666666666668</ele><time>2026-04-26T14:50:00Z</time></trkpt><trkpt lat="44.3221586601731" lon="11.959926295773741"><ele>20.5</ele><time>2026-04-26T14:50:02Z</time></trkpt><trkpt lat="44.32217336046447" lon="11.960050679796261"><ele>20.333333333333336</ele><time>2026-04-26T14:50:04Z</time></trkpt><trkpt lat="44.32218547049866" lon="11.960172710461629"><ele>20.166666666666668</ele><time>2026-04-26T14:50:06Z</time></trkpt><trkpt lat="44.32219759044621" lon="11.960295542015869"><ele>20.0</ele><time>2026-04-26T14:50:08Z</time></trkpt><trkpt lat="44.32220910239486" lon="11.960424782045934"><ele>20.0</ele><time>2026-04-26T14:50:10Z</time></trkpt><trkpt lat="44.322222071000326" lon="11.96055380198872"><ele>20.0</ele><time>2026-04-26T14:50:12Z</time></trkpt><trkpt lat="44.3222313558951" lon="11.96068967343887"><ele>20.0</ele><time>2026-04-26T14:50:14Z</time></trkpt><trkpt lat="44.32224397222331" lon="11.960815224564506"><ele>20.0</ele><time>2026-04-26T14:50:16Z</time></trkpt><trkpt lat="44.32225449150704" lon="11.960950614596648"><ele>20.0</ele><time>2026-04-26T14:50:18Z</time></trkpt><trkpt lat="44.32226407450067" lon="11.961081513092768"><ele>20.0</ele><time>2026-04-26T14:50:20Z</time></trkpt><trkpt lat="44.322273855230684" lon="11.961215684246216"><ele>20.0</ele><time>2026-04-26T14:50:22Z</time></trkpt><trkpt lat="44.32228447553494" lon="11.961345054475705"><ele>20.0</ele><time>2026-04-26T14:50:24Z</time></trkpt><trkpt lat="44.32229090906197" lon="11.961472957731761"><ele>20.0</ele><time>2026-04-26T14:50:26Z</time></trkpt><trkpt lat="44.32230060222839" lon="11.961595748378393"><ele>20.0</ele><time>2026-04-26T14:50:28.001Z</time></trkpt><trkpt lat="44.322309926794986" lon="11.961721700242505"><ele>20.0</ele><time>2026-04-26T14:50:30.001Z</time></trkpt><trkpt lat="44.32232097120428" lon="11.961850644979894"><ele>20.0</ele><time>2026-04-26T14:50:32.001Z</time></trkpt><trkpt lat="44.32233251271258" lon="11.961974864804478"><ele>20.0</ele><time>2026-04-26T14:50:34.001Z</time></trkpt><trkpt lat="44.322349518380854" lon="11.962099416799463"><ele>20.0</ele><time>2026-04-26T14:50:36.001Z</time></trkpt><trkpt lat="44.3223601212533" lon="11.962219562134647"><ele>20.0</ele><time>2026-04-26T14:50:38.001Z</time></trkpt><trkpt lat="44.32237909852491" lon="11.96234301289469"><ele>20.0</ele><time>2026-04-26T14:50:40.001Z</time></trkpt><trkpt lat="44.32240041986487" lon="11.96247077804899"><ele>20.0</ele><time>2026-04-26T14:50:42.001Z</time></trkpt><trkpt lat="44.32242331972656" lon="11.962586759151991"><ele>20.0</ele><time>2026-04-26T14:50:44.001Z</time></trkpt><trkpt lat="44.322449325381" lon="11.962709452239213"><ele>20.0</ele><time>2026-04-26T14:50:46.001Z</time></trkpt><trkpt lat="44.32247312684374" lon="11.962822019389026"><ele>20.0</ele><time>2026-04-26T14:50:48.001Z</time></trkpt><trkpt lat="44.32250018864993" lon="11.962945421914958"><ele>20.0</ele><time>2026-04-26T14:50:50.001Z</time></trkpt><trkpt lat="44.32253335204265" lon="11.963064901106785"><ele>20.0</ele><time>2026-04-26T14:50:52.001Z</time></trkpt><trkpt lat="44.32256317632051" lon="11.963178583547831"><ele>20.0</ele><time>2026-04-26T14:50:54.001Z</time></trkpt><trkpt lat="44.322597738124024" lon="11.963296917567545"><ele>20.0</ele><time>2026-04-26T14:50:56.001Z</time></trkpt><trkpt lat="44.322629532873115" lon="11.963412715090836"><ele>20.0</ele><time>2026-04-26T14:50:58.001Z</time></trkpt><trkpt lat="44.32266428659422" lon="11.963528162605474"><ele>20.0</ele><time>2026-04-26T14:51:00.001Z</time></trkpt><trkpt lat="44.32270311205833" lon="11.96364464769702"><ele>20.0</ele><time>2026-04-26T14:51:01.998Z</time></trkpt><trkpt lat="44.32274494094" lon="11.963761522079919"><ele>20.0</ele><time>2026-04-26T14:51:03.998Z</time></trkpt><trkpt lat="44.32278921553669" lon="11.96387788511152"><ele>20.0</ele><time>2026-04-26T14:51:05.998Z</time></trkpt><trkpt lat="44.32283609172196" lon="11.963988246412823"><ele>20.0</ele><time>2026-04-26T14:51:07.999Z</time></trkpt><trkpt lat="44.322884857775804" lon="11.96408846158009"><ele>20.0</ele><time>2026-04-26T14:51:09.999Z</time></trkpt><trkpt lat="44.322938268946224" lon="11.964192480930029"><ele>20.0</ele><time>2026-04-26T14:51:11.999Z</time></trkpt><trkpt lat="44.322989911096116" lon="11.964280113073238"><ele>20.0</ele><time>2026-04-26T14:51:13.999Z</time></trkpt><trkpt lat="44.32304477268934" lon="11.96437271244657"><ele>20.0</ele><time>2026-04-26T14:51:15.999Z</time></trkpt><trkpt lat="44.3230994355197" lon="11.964447670692124"><ele>20.0</ele><time>2026-04-26T14:51:17.999Z</time></trkpt><trkpt lat="44.32305638708272" lon="11.964635287675222"><ele>20.0</ele><time>2026-04-26T14:51:18.999Z</time></trkpt><trkpt lat="44.323118940628916" lon="11.9646908492928"><ele>20.0</ele><time>2026-04-26T14:51:20.999Z</time></trkpt><trkpt lat="44.32318770216708" lon="11.964765052634247"><ele>20.0</ele><time>2026-04-26T14:51:22.999Z</time></trkpt><trkpt lat="44.32326439183763" lon="11.96483899750705"><ele>19.8</ele><time>2026-04-26T14:51:24.999Z</time></trkpt><trkpt lat="44.32333851316928" lon="11.964900294366672"><ele>19.6</ele><time>2026-04-26T14:51:26.999Z</time></trkpt><trkpt lat="44.32342428515391" lon="11.964951796923009"><ele>19.4</ele><time>2026-04-26T14:51:28.999Z</time></trkpt><trkpt lat="44.32351559365456" lon="11.964991435183563"><ele>19.2</ele><time>2026-04-26T14:51:30.999Z</time></trkpt><trkpt lat="44.32361330506996" lon="11.965000784996574"><ele>19.0</ele><time>2026-04-26T14:51:32.999Z</time></trkpt><trkpt lat="44.323690923851295" lon="11.965009521514572"><ele>19.0</ele><time>2026-04-26T14:51:35Z</time></trkpt><trkpt lat="44.323776575614836" lon="11.96501732433393"><ele>19.0</ele><time>2026-04-26T14:51:37Z</time></trkpt><trkpt lat="44.32387380650966" lon="11.965026181943186"><ele>19.0</ele><time>2026-04-26T14:51:39Z</time></trkpt><trkpt lat="44.32399158888051" lon="11.965007485608135"><ele>19.0</ele><time>2026-04-26T14:51:41Z</time></trkpt><trkpt lat="44.32412171516693" lon="11.96501623688911"><ele>19.0</ele><time>2026-04-26T14:51:43Z</time></trkpt><trkpt lat="44.32419160986477" lon="11.965002314670729"><ele>19.0</ele><time>2026-04-26T14:51:44Z</time></trkpt><trkpt lat="44.32426058095471" lon="11.96497911505085"><ele>19.0</ele><time>2026-04-26T14:51:45Z</time></trkpt><trkpt lat="44.32433058465414" lon="11.964953314976446"><ele>19.0</ele><time>2026-04-26T14:51:46Z</time></trkpt><trkpt lat="44.32440275250171" lon="11.964923548403664"><ele>19.0</ele><time>2026-04-26T14:51:47Z</time></trkpt><trkpt lat="44.32447522799357" lon="11.964890027130094"><ele>19.0</ele><time>2026-04-26T14:51:48Z</time></trkpt><trkpt lat="44.324542306913436" lon="11.964857947812888"><ele>19.0</ele><time>2026-04-26T14:51:49Z</time></trkpt><trkpt lat="44.32461453943436" lon="11.964821582506444"><ele>19.0</ele><time>2026-04-26T14:51:50Z</time></trkpt><trkpt lat="44.3246843990655" lon="11.964786411787925"><ele>19.0</ele><time>2026-04-26T14:51:51Z</time></trkpt><trkpt lat="44.3247534192653" lon="11.964751663656484"><ele>19.0</ele><time>2026-04-26T14:51:52Z</time></trkpt><trkpt lat="44.32481918040847" lon="11.964717838303002"><ele>19.0</ele><time>2026-04-26T14:51:53Z</time></trkpt><trkpt lat="44.32488651414644" lon="11.964682769837008"><ele>19.0</ele><time>2026-04-26T14:51:54Z</time></trkpt><trkpt lat="44.324955293982555" lon="11.964646948060183"><ele>19.0</ele><time>2026-04-26T14:51:55Z</time></trkpt><trkpt lat="44.325021812093745" lon="11.96461230607231"><ele>19.0</ele><time>2026-04-26T14:51:56Z</time></trkpt><trkpt lat="44.32508735875881" lon="11.964578168271752"><ele>19.0</ele><time>2026-04-26T14:51:57Z</time></trkpt><trkpt lat="44.325152150104614" lon="11.96454442381017"><ele>19.0</ele><time>2026-04-26T14:51:58Z</time></trkpt><trkpt lat="44.32521875205578" lon="11.964511864152497"><ele>19.0</ele><time>2026-04-26T14:51:59Z</time></trkpt><trkpt lat="44.32528485468241" lon="11.964480276235552"><ele>19.0</ele><time>2026-04-26T14:52:00Z</time></trkpt><trkpt lat="44.325351796957946" lon="11.96444828706667"><ele>19.0</ele><time>2026-04-26T14:52:01Z</time></trkpt><trkpt lat="44.32541860924252" lon="11.964418838628923"><ele>19.0</ele><time>2026-04-26T14:52:02Z</time></trkpt><trkpt lat="44.32548063099065" lon="11.964378804638862"><ele>19.0</ele><time>2026-04-26T14:52:03Z</time></trkpt><trkpt lat="44.325544388481134" lon="11.96434611162144"><ele>19.0</ele><time>2026-04-26T14:52:04Z</time></trkpt><trkpt lat="44.325613032139074" lon="11.964325353176633"><ele>19.0</ele><time>2026-04-26T14:52:05Z</time></trkpt><trkpt lat="44.32568054744597" lon="11.964309848504824"><ele>19.0</ele><time>2026-04-26T14:52:06Z</time></trkpt><trkpt lat="44.32575166275027" lon="11.96429609024489"><ele>19.0</ele><time>2026-04-26T14:52:07Z</time></trkpt><trkpt lat="44.32582080087177" lon="11.964287849571738"><ele>19.0</ele><time>2026-04-26T14:52:08Z</time></trkpt><trkpt lat="44.32589047856652" lon="11.964282265110517"><ele>19.0</ele><time>2026-04-26T14:52:09Z</time></trkpt><trkpt lat="44.32596325785744" lon="11.964279877719337"><ele>19.0</ele><time>2026-04-26T14:52:10Z</time></trkpt><trkpt lat="44.326029814010546" lon="11.964280296709152"><ele>19.0</ele><time>2026-04-26T14:52:11Z</time></trkpt><trkpt lat="44.32609838087152" lon="11.964308035301999"><ele>19.0</ele><time>2026-04-26T14:52:12Z</time></trkpt><trkpt lat="44.326165501578615" lon="11.964315614312444"><ele>19.0</ele><time>2026-04-26T14:52:13Z</time></trkpt><trkpt lat="44.32623076827114" lon="11.964308267808535"><ele>19.0</ele><time>2026-04-26T14:52:14Z</time></trkpt><trkpt lat="44.32629470706572" lon="11.964348309214872"><ele>19.0</ele><time>2026-04-26T14:52:15Z</time></trkpt><trkpt lat="44.32635625628151" lon="11.964374383345898"><ele>19.0</ele><time>2026-04-26T14:52:16Z</time></trkpt><trkpt lat="44.326425573556705" lon="11.96439111491102"><ele>19.0</ele><time>2026-04-26T14:52:17Z</time></trkpt><trkpt lat="44.326482571655575" lon="11.964440578258666"><ele>19.0</ele><time>2026-04-26T14:52:18Z</time></trkpt><trkpt lat="44.326533744194975" lon="11.964493668224645"><ele>19.166666666666664</ele><time>2026-04-26T14:52:19Z</time></trkpt><trkpt lat="44.326587900237435" lon="11.964547170347887"><ele>19.333333333333332</ele><time>2026-04-26T14:52:20Z</time></trkpt><trkpt lat="44.32663765392131" lon="11.964606064865826"><ele>19.5</ele><time>2026-04-26T14:52:21Z</time></trkpt><trkpt lat="44.326684076921836" lon="11.964670021680384"><ele>19.666666666666668</ele><time>2026-04-26T14:52:22.001Z</time></trkpt><trkpt lat="44.32672921171118" lon="11.964734129384183"><ele>19.833333333333336</ele><time>2026-04-26T14:52:23.001Z</time></trkpt><trkpt lat="44.32679885287818" lon="11.96487982809067"><ele>20.0</ele><time>2026-04-26T14:52:25.001Z</time></trkpt><trkpt lat="44.32684857946171" lon="11.965020095059508"><ele>20.0</ele><time>2026-04-26T14:52:27.001Z</time></trkpt><trkpt lat="44.32695604149188" lon="11.965035673605453"><ele>20.0</ele><time>2026-04-26T14:52:28.001Z</time></trkpt><trkpt lat="44.32705458618129" lon="11.96514414071838"><ele>20.0</ele><time>2026-04-26T14:52:30.001Z</time></trkpt><trkpt lat="44.327105210881875" lon="11.965200509116611"><ele>20.0</ele><time>2026-04-26T14:52:31.001Z</time></trkpt><trkpt lat="44.32720657737815" lon="11.965300510607781"><ele>20.0</ele><time>2026-04-26T14:52:33.001Z</time></trkpt><trkpt lat="44.32725796799376" lon="11.96535137603079"><ele>19.75</ele><time>2026-04-26T14:52:34.001Z</time></trkpt><trkpt lat="44.32735788189472" lon="11.965447498443746"><ele>19.5</ele><time>2026-04-26T14:52:36.001Z</time></trkpt><trkpt lat="44.327457683587085" lon="11.965540191684262"><ele>19.25</ele><time>2026-04-26T14:52:38.001Z</time></trkpt><trkpt lat="44.32756001111427" lon="11.965644363241125"><ele>19.0</ele><time>2026-04-26T14:52:40.001Z</time></trkpt><trkpt lat="44.327661593331804" lon="11.965748496628857"><ele>19.0</ele><time>2026-04-26T14:52:42.001Z</time></trkpt><trkpt lat="44.327716512520794" lon="11.965792361643427"><ele>19.0</ele><time>2026-04-26T14:52:43.001Z</time></trkpt><trkpt lat="44.32782174445109" lon="11.965896695717456"><ele>19.0</ele><time>2026-04-26T14:52:45.001Z</time></trkpt><trkpt lat="44.32787464927843" lon="11.965946273892637"><ele>19.0</ele><time>2026-04-26T14:52:46.001Z</time></trkpt><trkpt lat="44.327927610921556" lon="11.965997143554837"><ele>19.0</ele><time>2026-04-26T14:52:47.001Z</time></trkpt><trkpt lat="44.32797942400921" lon="11.966053191744273"><ele>19.0</ele><time>2026-04-26T14:52:48.001Z</time></trkpt><trkpt lat="44.328037396845886" lon="11.966096119831834"><ele>18.857142857142858</ele><time>2026-04-26T14:52:49.001Z</time></trkpt><trkpt lat="44.32809103483208" lon="11.966148484661518"><ele>18.714285714285715</ele><time>2026-04-26T14:52:50.001Z</time></trkpt><trkpt lat="44.32814507957448" lon="11.966200629286282"><ele>18.571428571428573</ele><time>2026-04-26T14:52:51.001Z</time></trkpt><trkpt lat="44.32819979533328" lon="11.966252247668965"><ele>18.42857142857143</ele><time>2026-04-26T14:52:52.001Z</time></trkpt><trkpt lat="44.32826002408214" lon="11.966300112969705"><ele>18.285714285714285</ele><time>2026-04-26T14:52:53.001Z</time></trkpt><trkpt lat="44.32832047902904" lon="11.966348288269652"><ele>18.142857142857146</ele><time>2026-04-26T14:52:54.001Z</time></trkpt><trkpt lat="44.32838112680988" lon="11.966397562709176"><ele>18.0</ele><time>2026-04-26T14:52:55.001Z</time></trkpt><trkpt lat="44.3284412320452" lon="11.966440567506343"><ele>18.0</ele><time>2026-04-26T14:52:56.001Z</time></trkpt><trkpt lat="44.32849833858411" lon="11.966481464631377"><ele>18.0</ele><time>2026-04-26T14:52:57.001Z</time></trkpt><trkpt lat="44.32861223490925" lon="11.966553884604277"><ele>18.0</ele><time>2026-04-26T14:52:59.001Z</time></trkpt><trkpt lat="44.32871883362281" lon="11.966627674250823"><ele>18.0</ele><time>2026-04-26T14:53:01.001Z</time></trkpt><trkpt lat="44.32882254859954" lon="11.966696335709349"><ele>18.0</ele><time>2026-04-26T14:53:03.001Z</time></trkpt><trkpt lat="44.32892866696835" lon="11.966760787178506"><ele>18.4</ele><time>2026-04-26T14:53:05.001Z</time></trkpt><trkpt lat="44.329035375047226" lon="11.966835619046774"><ele>18.8</ele><time>2026-04-26T14:53:06.998Z</time></trkpt><trkpt lat="44.32915118974573" lon="11.96690060915311"><ele>19.2</ele><time>2026-04-26T14:53:08.999Z</time></trkpt><trkpt lat="44.3292130565544" lon="11.966924256687378"><ele>19.6</ele><time>2026-04-26T14:53:09.999Z</time></trkpt><trkpt lat="44.3293300786464" lon="11.966991387626686"><ele>20.0</ele><time>2026-04-26T14:53:11.999Z</time></trkpt><trkpt lat="44.32944277858858" lon="11.967049118634312"><ele>20.0</ele><time>2026-04-26T14:53:13.999Z</time></trkpt><trkpt lat="44.329561013889126" lon="11.967084261588553"><ele>20.0</ele><time>2026-04-26T14:53:15.999Z</time></trkpt><trkpt lat="44.32967677900759" lon="11.967118740962604"><ele>20.0</ele><time>2026-04-26T14:53:17.999Z</time></trkpt><trkpt lat="44.329798948658826" lon="11.967141817435456"><ele>20.0</ele><time>2026-04-26T14:53:19.999Z</time></trkpt><trkpt lat="44.32991244745537" lon="11.967164795784807"><ele>19.8</ele><time>2026-04-26T14:53:21.999Z</time></trkpt><trkpt lat="44.32997212595437" lon="11.967196108868825"><ele>19.6</ele><time>2026-04-26T14:53:22.999Z</time></trkpt><trkpt lat="44.33008850352764" lon="11.9672122624741"><ele>19.4</ele><time>2026-04-26T14:53:24.999Z</time></trkpt><trkpt lat="44.330207599014955" lon="11.967222190101214"><ele>19.2</ele><time>2026-04-26T14:53:26.999Z</time></trkpt><trkpt lat="44.330322352599175" lon="11.967226943444945"><ele>19.0</ele><time>2026-04-26T14:53:28.999Z</time></trkpt><trkpt lat="44.330443453761866" lon="11.967227440794554"><ele>18.75</ele><time>2026-04-26T14:53:30.999Z</time></trkpt><trkpt lat="44.33056184388953" lon="11.967225112570183"><ele>18.5</ele><time>2026-04-26T14:53:32.999Z</time></trkpt><trkpt lat="44.33068126220061" lon="11.967218603767664"><ele>18.25</ele><time>2026-04-26T14:53:35Z</time></trkpt><trkpt lat="44.330794505890836" lon="11.96721179756778"><ele>18.0</ele><time>2026-04-26T14:53:37Z</time></trkpt><trkpt lat="44.33090565384656" lon="11.967205264751296"><ele>18.0</ele><time>2026-04-26T14:53:39Z</time></trkpt><trkpt lat="44.331016287309154" lon="11.967199756245696"><ele>18.0</ele><time>2026-04-26T14:53:41Z</time></trkpt><trkpt lat="44.33112652892799" lon="11.967195102184983"><ele>18.0</ele><time>2026-04-26T14:53:43Z</time></trkpt><trkpt lat="44.33123028397162" lon="11.967194146255764"><ele>18.0</ele><time>2026-04-26T14:53:45Z</time></trkpt><trkpt lat="44.331315540826495" lon="11.967199537071659"><ele>18.0</ele><time>2026-04-26T14:53:47Z</time></trkpt><trkpt lat="44.33139760527149" lon="11.9672098247079"><ele>18.0</ele><time>2026-04-26T14:53:50Z</time></trkpt><trkpt lat="44.331474896432326" lon="11.967201562808668"><ele>18.0</ele><time>2026-04-26T14:53:54Z</time></trkpt><trkpt lat="44.331476773816846" lon="11.96702600951902"><ele>18.0</ele><time>2026-04-26T14:53:56Z</time></trkpt><trkpt lat="44.33146041250474" lon="11.966911075585495"><ele>18.0</ele><time>2026-04-26T14:53:58Z</time></trkpt><trkpt lat="44.3314500438546" lon="11.966776749648625"><ele>18.0</ele><time>2026-04-26T14:54:00Z</time></trkpt><trkpt lat="44.33143928567402" lon="11.966631189164824"><ele>17.8</ele><time>2026-04-26T14:54:02Z</time></trkpt><trkpt lat="44.33141619716934" lon="11.9664801074346"><ele>17.6</ele><time>2026-04-26T14:54:04Z</time></trkpt><trkpt lat="44.331405846882674" lon="11.966348111767642"><ele>17.4</ele><time>2026-04-26T14:54:06Z</time></trkpt><trkpt lat="44.331438530861874" lon="11.966232634131227"><ele>17.2</ele><time>2026-04-26T14:54:08Z</time></trkpt><trkpt lat="44.331564021807594" lon="11.96615696559185"><ele>17.0</ele><time>2026-04-26T14:54:11Z</time></trkpt><trkpt lat="44.331635374654304" lon="11.966090318930704"><ele>17.0</ele><time>2026-04-26T14:54:13.001Z</time></trkpt><trkpt lat="44.331682290665675" lon="11.966007949962876"><ele>17.0</ele><time>2026-04-26T14:54:15.001Z</time></trkpt><trkpt lat="44.33174062990787" lon="11.965961016979357"><ele>17.0</ele><time>2026-04-26T14:54:17.001Z</time></trkpt><trkpt lat="44.33179167116358" lon="11.965893927073395"><ele>17.0</ele><time>2026-04-26T14:54:21.001Z</time></trkpt><trkpt lat="44.331910694613065" lon="11.966007500675769"><ele>17.0</ele><time>2026-04-26T14:54:22.001Z</time></trkpt><trkpt lat="44.33197957351708" lon="11.966048670811595"><ele>17.0</ele><time>2026-04-26T14:54:24.001Z</time></trkpt><trkpt lat="44.33205775467183" lon="11.966082425719536"><ele>17.0</ele><time>2026-04-26T14:54:26.001Z</time></trkpt><trkpt lat="44.33213533448133" lon="11.966124503143561"><ele>17.0</ele><time>2026-04-26T14:54:28.001Z</time></trkpt><trkpt lat="44.33221650360665" lon="11.966159410474482"><ele>17.0</ele><time>2026-04-26T14:54:30.001Z</time></trkpt><trkpt lat="44.33229557833897" lon="11.96619663813618"><ele>17.0</ele><time>2026-04-26T14:54:32.001Z</time></trkpt><trkpt lat="44.33238000684011" lon="11.96623476915912"><ele>17.0</ele><time>2026-04-26T14:54:34.001Z</time></trkpt><trkpt lat="44.332460524771996" lon="11.966269388878437"><ele>17.0</ele><time>2026-04-26T14:54:36.001Z</time></trkpt><trkpt lat="44.33254682001942" lon="11.966304059345804"><ele>17.2</ele><time>2026-04-26T14:54:38.001Z</time></trkpt><trkpt lat="44.33263256442619" lon="11.966340287204105"><ele>17.4</ele><time>2026-04-26T14:54:40.001Z</time></trkpt><trkpt lat="44.33271556070403" lon="11.96637196992695"><ele>17.6</ele><time>2026-04-26T14:54:42.001Z</time></trkpt><trkpt lat="44.332803847184046" lon="11.9664085447292"><ele>17.8</ele><time>2026-04-26T14:54:44.001Z</time></trkpt><trkpt lat="44.33289236547449" lon="11.966448484460061"><ele>18.0</ele><time>2026-04-26T14:54:46.001Z</time></trkpt><trkpt lat="44.33297988634429" lon="11.96649977215922"><ele>18.0</ele><time>2026-04-26T14:54:48.001Z</time></trkpt><trkpt lat="44.33306679264384" lon="11.966557115644875"><ele>18.0</ele><time>2026-04-26T14:54:50.001Z</time></trkpt><trkpt lat="44.333148114233424" lon="11.96661627461655"><ele>18.0</ele><time>2026-04-26T14:54:52.001Z</time></trkpt><trkpt lat="44.33322536837584" lon="11.966684953579227"><ele>18.0</ele><time>2026-04-26T14:54:54.001Z</time></trkpt><trkpt lat="44.33329776745946" lon="11.966753703724041"><ele>18.0</ele><time>2026-04-26T14:54:56.001Z</time></trkpt><trkpt lat="44.333370575776144" lon="11.966820048515315"><ele>18.2</ele><time>2026-04-26T14:54:58.002Z</time></trkpt><trkpt lat="44.33343831998354" lon="11.966890979029545"><ele>18.4</ele><time>2026-04-26T14:55:00.002Z</time></trkpt><trkpt lat="44.33351173404732" lon="11.966957358192381"><ele>18.599999999999998</ele><time>2026-04-26T14:55:02.002Z</time></trkpt><trkpt lat="44.33359032527765" lon="11.967024423618625"><ele>18.8</ele><time>2026-04-26T14:55:04.002Z</time></trkpt><trkpt lat="44.33366651118454" lon="11.967099008266993"><ele>19.0</ele><time>2026-04-26T14:55:06.002Z</time></trkpt><trkpt lat="44.33374717382919" lon="11.967168063176917"><ele>19.0</ele><time>2026-04-26T14:55:08.002Z</time></trkpt><trkpt lat="44.333816665999905" lon="11.967242224205776"><ele>19.0</ele><time>2026-04-26T14:55:10.002Z</time></trkpt><trkpt lat="44.33388954142989" lon="11.967313301637557"><ele>19.0</ele><time>2026-04-26T14:55:12.002Z</time></trkpt><trkpt lat="44.33396074334462" lon="11.967383140535118"><ele>19.0</ele><time>2026-04-26T14:55:13.999Z</time></trkpt><trkpt lat="44.3340251460016" lon="11.967448595037185"><ele>19.0</ele><time>2026-04-26T14:55:15.999Z</time></trkpt><trkpt lat="44.33408806605556" lon="11.967522964741901"><ele>19.0</ele><time>2026-04-26T14:55:17.999Z</time></trkpt><trkpt lat="44.334150145922514" lon="11.967599661349645"><ele>18.8</ele><time>2026-04-26T14:55:19.999Z</time></trkpt><trkpt lat="44.334217109052645" lon="11.967687191008206"><ele>18.599999999999998</ele><time>2026-04-26T14:55:21.999Z</time></trkpt><trkpt lat="44.33428984476071" lon="11.96777550505663"><ele>18.4</ele><time>2026-04-26T14:55:23.999Z</time></trkpt><trkpt lat="44.33436069191573" lon="11.967863389698868"><ele>18.2</ele><time>2026-04-26T14:55:25.999Z</time></trkpt><trkpt lat="44.334435025086925" lon="11.967949403147179"><ele>18.0</ele><time>2026-04-26T14:55:27.999Z</time></trkpt><trkpt lat="44.33450716715239" lon="11.968037569651507"><ele>18.0</ele><time>2026-04-26T14:55:29.999Z</time></trkpt><trkpt lat="44.334576845428614" lon="11.968124348629773"><ele>18.0</ele><time>2026-04-26T14:55:31.999Z</time></trkpt><trkpt lat="44.33465016561907" lon="11.968206621246571"><ele>18.0</ele><time>2026-04-26T14:55:33.999Z</time></trkpt><trkpt lat="44.334726781785214" lon="11.968281339178427"><ele>18.0</ele><time>2026-04-26T14:55:36Z</time></trkpt><trkpt lat="44.33480865706483" lon="11.968347996200947"><ele>18.0</ele><time>2026-04-26T14:55:38Z</time></trkpt><trkpt lat="44.33489648169064" lon="11.968399176290061"><ele>17.8</ele><time>2026-04-26T14:55:40Z</time></trkpt><trkpt lat="44.3349904233094" lon="11.968429428980969"><ele>17.6</ele><time>2026-04-26T14:55:42Z</time></trkpt><trkpt lat="44.33507992648703" lon="11.968448620550816"><ele>17.4</ele><time>2026-04-26T14:55:44Z</time></trkpt><trkpt lat="44.335171370594" lon="11.96845352142808"><ele>17.2</ele><time>2026-04-26T14:55:46Z</time></trkpt><trkpt lat="44.33526391423357" lon="11.968448215375908"><ele>17.0</ele><time>2026-04-26T14:55:48Z</time></trkpt><trkpt lat="44.335359587490565" lon="11.96842725431113"><ele>17.0</ele><time>2026-04-26T14:55:50Z</time></trkpt><trkpt lat="44.33545280061956" lon="11.968392479506392"><ele>17.0</ele><time>2026-04-26T14:55:52Z</time></trkpt><trkpt lat="44.33554227261255" lon="11.968332974226149"><ele>17.0</ele><time>2026-04-26T14:55:54Z</time></trkpt><trkpt lat="44.33563199835869" lon="11.968270764154601"><ele>17.0</ele><time>2026-04-26T14:55:56Z</time></trkpt><trkpt lat="44.33572034693121" lon="11.968199300661945"><ele>17.0</ele><time>2026-04-26T14:55:58Z</time></trkpt><trkpt lat="44.335806081146764" lon="11.968126545543251"><ele>17.0</ele><time>2026-04-26T14:56:00Z</time></trkpt><trkpt lat="44.33588712122005" lon="11.968057760657837"><ele>17.0</ele><time>2026-04-26T14:56:02Z</time></trkpt><trkpt lat="44.33596277218506" lon="11.967981908640168"><ele>17.0</ele><time>2026-04-26T14:56:04Z</time></trkpt><trkpt lat="44.33604045211143" lon="11.967914477348309"><ele>17.0</ele><time>2026-04-26T14:56:06Z</time></trkpt><trkpt lat="44.3361182813612" lon="11.967838276255439"><ele>17.0</ele><time>2026-04-26T14:56:08.001Z</time></trkpt><trkpt lat="44.33619517013995" lon="11.967766826862407"><ele>17.0</ele><time>2026-04-26T14:56:10.001Z</time></trkpt><trkpt lat="44.336277449235446" lon="11.967693576277798"><ele>17.0</ele><time>2026-04-26T14:56:12.001Z</time></trkpt><trkpt lat="44.33636064521863" lon="11.96762707535754"><ele>17.0</ele><time>2026-04-26T14:56:14.001Z</time></trkpt><trkpt lat="44.33644723246867" lon="11.967560290567064"><ele>17.0</ele><time>2026-04-26T14:56:16.001Z</time></trkpt><trkpt lat="44.336533800732155" lon="11.967504881124299"><ele>17.0</ele><time>2026-04-26T14:56:18.001Z</time></trkpt><trkpt lat="44.33662243070693" lon="11.967466452499583"><ele>17.0</ele><time>2026-04-26T14:56:20.001Z</time></trkpt><trkpt lat="44.33671533210672" lon="11.967430314182963"><ele>17.0</ele><time>2026-04-26T14:56:22.001Z</time></trkpt><trkpt lat="44.33680824067678" lon="11.96740860086176"><ele>17.0</ele><time>2026-04-26T14:56:24.001Z</time></trkpt><trkpt lat="44.336902631197006" lon="11.967394013454"><ele>17.0</ele><time>2026-04-26T14:56:26.001Z</time></trkpt><trkpt lat="44.336998952177154" lon="11.967391272531078"><ele>17.0</ele><time>2026-04-26T14:56:28.001Z</time></trkpt><trkpt lat="44.33709298661686" lon="11.967403941940448"><ele>17.0</ele><time>2026-04-26T14:56:30.001Z</time></trkpt><trkpt lat="44.33718484043651" lon="11.967420861565776"><ele>17.0</ele><time>2026-04-26T14:56:32.001Z</time></trkpt><trkpt lat="44.33727989839268" lon="11.967460851703073"><ele>17.0</ele><time>2026-04-26T14:56:34.001Z</time></trkpt><trkpt lat="44.337367372708535" lon="11.96753140382079"><ele>17.0</ele><time>2026-04-26T14:56:36.001Z</time></trkpt><trkpt lat="44.33744994166734" lon="11.967623340555908"><ele>17.0</ele><time>2026-04-26T14:56:38.001Z</time></trkpt><trkpt lat="44.33752626636548" lon="11.967725453532521"><ele>17.2</ele><time>2026-04-26T14:56:40.001Z</time></trkpt><trkpt lat="44.33759993751645" lon="11.967831884785824"><ele>17.4</ele><time>2026-04-26T14:56:42.001Z</time></trkpt><trkpt lat="44.33767403171604" lon="11.967933082407333"><ele>17.6</ele><time>2026-04-26T14:56:44.001Z</time></trkpt><trkpt lat="44.33774111747211" lon="11.96803901195966"><ele>17.8</ele><time>2026-04-26T14:56:46.001Z</time></trkpt><trkpt lat="44.33781205986812" lon="11.968139713864108"><ele>18.0</ele><time>2026-04-26T14:56:48.002Z</time></trkpt><trkpt lat="44.33788100862577" lon="11.968241041952426"><ele>18.0</ele><time>2026-04-26T14:56:50.002Z</time></trkpt><trkpt lat="44.33795336307508" lon="11.968341040952398"><ele>18.0</ele><time>2026-04-26T14:56:52.002Z</time></trkpt><trkpt lat="44.33802046211414" lon="11.968445398705448"><ele>18.0</ele><time>2026-04-26T14:56:54.002Z</time></trkpt><trkpt lat="44.33808794437303" lon="11.968549492622127"><ele>18.0</ele><time>2026-04-26T14:56:56.002Z</time></trkpt><trkpt lat="44.338152320211634" lon="11.968648134739238"><ele>18.0</ele><time>2026-04-26T14:56:58.002Z</time></trkpt><trkpt lat="44.338215508170684" lon="11.968748950863853"><ele>18.0</ele><time>2026-04-26T14:57:00.002Z</time></trkpt><trkpt lat="44.33827892858274" lon="11.968859097051617"><ele>18.0</ele><time>2026-04-26T14:57:02.002Z</time></trkpt><trkpt lat="44.33833708152297" lon="11.968970406914366"><ele>18.0</ele><time>2026-04-26T14:57:04.002Z</time></trkpt><trkpt lat="44.33840018208694" lon="11.969078037118923"><ele>18.0</ele><time>2026-04-26T14:57:06.002Z</time></trkpt><trkpt lat="44.33845895968373" lon="11.969186673658948"><ele>18.0</ele><time>2026-04-26T14:57:08.002Z</time></trkpt><trkpt lat="44.33851544889379" lon="11.969295193917523"><ele>18.2</ele><time>2026-04-26T14:57:10.002Z</time></trkpt><trkpt lat="44.33856954194792" lon="11.96939914457953"><ele>18.4</ele><time>2026-04-26T14:57:12.002Z</time></trkpt><trkpt lat="44.33862476930919" lon="11.96949689426021"><ele>18.599999999999998</ele><time>2026-04-26T14:57:14.002Z</time></trkpt><trkpt lat="44.33867686666294" lon="11.969602660608944"><ele>18.8</ele><time>2026-04-26T14:57:16.002Z</time></trkpt><trkpt lat="44.33873775829428" lon="11.969709899138376"><ele>19.0</ele><time>2026-04-26T14:57:18.002Z</time></trkpt><trkpt lat="44.338795406189575" lon="11.969819377066655"><ele>19.0</ele><time>2026-04-26T14:57:19.999Z</time></trkpt><trkpt lat="44.338853533300686" lon="11.969934769039968"><ele>19.0</ele><time>2026-04-26T14:57:21.999Z</time></trkpt><trkpt lat="44.33891100304115" lon="11.970049771467004"><ele>19.0</ele><time>2026-04-26T14:57:23.999Z</time></trkpt><trkpt lat="44.33896725700524" lon="11.970159794814975"><ele>19.0</ele><time>2026-04-26T14:57:25.999Z</time></trkpt><trkpt lat="44.33902250609621" lon="11.970269945991397"><ele>19.0</ele><time>2026-04-26T14:57:27.999Z</time></trkpt><trkpt lat="44.33907357934361" lon="11.970373233753067"><ele>18.833333333333332</ele><time>2026-04-26T14:57:29.999Z</time></trkpt><trkpt lat="44.339119049310945" lon="11.970479767101343"><ele>18.666666666666664</ele><time>2026-04-26T14:57:31.999Z</time></trkpt><trkpt lat="44.33917022814881" lon="11.970585025926587"><ele>18.5</ele><time>2026-04-26T14:57:33.999Z</time></trkpt><trkpt lat="44.33921853284489" lon="11.970689998275962"><ele>18.333333333333332</ele><time>2026-04-26T14:57:35.999Z</time></trkpt><trkpt lat="44.33926410982904" lon="11.970795141337407"><ele>18.166666666666668</ele><time>2026-04-26T14:57:38Z</time></trkpt><trkpt lat="44.33929900883496" lon="11.970873677796824"><ele>18.0</ele><time>2026-04-26T14:57:40Z</time></trkpt><trkpt lat="44.33934280636304" lon="11.970971067768598"><ele>18.0</ele><time>2026-04-26T14:57:42Z</time></trkpt><trkpt lat="44.33938911500786" lon="11.971069707349344"><ele>18.0</ele><time>2026-04-26T14:57:44Z</time></trkpt><trkpt lat="44.339429816287904" lon="11.971176481815489"><ele>18.0</ele><time>2026-04-26T14:57:46Z</time></trkpt><trkpt lat="44.33947164531962" lon="11.971299908787175"><ele>18.0</ele><time>2026-04-26T14:57:48Z</time></trkpt><trkpt lat="44.339518350536295" lon="11.971417939548456"><ele>18.0</ele><time>2026-04-26T14:57:50Z</time></trkpt><trkpt lat="44.339564681197935" lon="11.97154039135904"><ele>18.0</ele><time>2026-04-26T14:57:52Z</time></trkpt><trkpt lat="44.339603040680984" lon="11.971663262266135"><ele>18.0</ele><time>2026-04-26T14:57:54Z</time></trkpt><trkpt lat="44.339645532880674" lon="11.97178605912147"><ele>18.0</ele><time>2026-04-26T14:57:56Z</time></trkpt><trkpt lat="44.33968524356485" lon="11.971899575462858"><ele>18.0</ele><time>2026-04-26T14:57:58Z</time></trkpt><trkpt lat="44.339726632993695" lon="11.972012493824282"><ele>18.0</ele><time>2026-04-26T14:58:00Z</time></trkpt><trkpt lat="44.3397587068864" lon="11.972119127751268"><ele>18.0</ele><time>2026-04-26T14:58:02Z</time></trkpt><trkpt lat="44.339798293426576" lon="11.972230398351645"><ele>18.0</ele><time>2026-04-26T14:58:04Z</time></trkpt><trkpt lat="44.33982716890919" lon="11.972331063332003"><ele>18.0</ele><time>2026-04-26T14:58:06Z</time></trkpt><trkpt lat="44.33986172494683" lon="11.97244364372782"><ele>18.0</ele><time>2026-04-26T14:58:08.001Z</time></trkpt><trkpt lat="44.33989518532031" lon="11.972557310290036"><ele>18.0</ele><time>2026-04-26T14:58:10.001Z</time></trkpt><trkpt lat="44.33992680374693" lon="11.972677415027372"><ele>18.0</ele><time>2026-04-26T14:58:12.001Z</time></trkpt><trkpt lat="44.3399549352324" lon="11.972798214339463"><ele>18.0</ele><time>2026-04-26T14:58:14.001Z</time></trkpt><trkpt lat="44.339982563244384" lon="11.972920848066888"><ele>18.0</ele><time>2026-04-26T14:58:16.001Z</time></trkpt><trkpt lat="44.340003897279246" lon="11.973050752645866"><ele>18.0</ele><time>2026-04-26T14:58:18.001Z</time></trkpt><trkpt lat="44.34002702066999" lon="11.973178627329796"><ele>18.0</ele><time>2026-04-26T14:58:20.001Z</time></trkpt><trkpt lat="44.34005008428898" lon="11.973314758367891"><ele>18.0</ele><time>2026-04-26T14:58:22.001Z</time></trkpt><trkpt lat="44.340067987120186" lon="11.973451899717249"><ele>17.8</ele><time>2026-04-26T14:58:24.001Z</time></trkpt><trkpt lat="44.34008643508562" lon="11.973585885119288"><ele>17.6</ele><time>2026-04-26T14:58:26.001Z</time></trkpt><trkpt lat="44.34010729293567" lon="11.973719117068555"><ele>17.4</ele><time>2026-04-26T14:58:28.001Z</time></trkpt><trkpt lat="44.34013119351858" lon="11.973842529486298"><ele>17.2</ele><time>2026-04-26T14:58:30.001Z</time></trkpt><trkpt lat="44.3401598271734" lon="11.973980752902902"><ele>17.0</ele><time>2026-04-26T14:58:32.001Z</time></trkpt><trkpt lat="44.34019237111841" lon="11.97411710811662"><ele>16.8</ele><time>2026-04-26T14:58:34.001Z</time></trkpt><trkpt lat="44.34022701012063" lon="11.974254941337406"><ele>16.6</ele><time>2026-04-26T14:58:36.001Z</time></trkpt><trkpt lat="44.340259782914636" lon="11.97439465272759"><ele>16.400000000000002</ele><time>2026-04-26T14:58:38.001Z</time></trkpt><trkpt lat="44.340293662975164" lon="11.974526857337404"><ele>16.2</ele><time>2026-04-26T14:58:40.001Z</time></trkpt><trkpt lat="44.34033863197468" lon="11.974652056683754"><ele>16.0</ele><time>2026-04-26T14:58:42.001Z</time></trkpt><trkpt lat="44.34040450153594" lon="11.974753528363054"><ele>16.0</ele><time>2026-04-26T14:58:44.002Z</time></trkpt><trkpt lat="44.34047039443913" lon="11.974844497518438"><ele>16.0</ele><time>2026-04-26T14:58:46.002Z</time></trkpt><trkpt lat="44.34054805445129" lon="11.974931289472606"><ele>16.0</ele><time>2026-04-26T14:58:48.002Z</time></trkpt><trkpt lat="44.34062952648882" lon="11.975015770564282"><ele>16.0</ele><time>2026-04-26T14:58:50.002Z</time></trkpt><trkpt lat="44.340716533694334" lon="11.975086294034446"><ele>16.0</ele><time>2026-04-26T14:58:52.002Z</time></trkpt><trkpt lat="44.34080611970327" lon="11.975149085126224"><ele>15.8</ele><time>2026-04-26T14:58:54.002Z</time></trkpt><trkpt lat="44.34089705221303" lon="11.975191780233736"><ele>15.600000000000001</ele><time>2026-04-26T14:58:56.002Z</time></trkpt><trkpt lat="44.340993212829616" lon="11.97520883131365"><ele>15.4</ele><time>2026-04-26T14:58:58.002Z</time></trkpt><trkpt lat="44.34108826989414" lon="11.975196277596458"><ele>15.2</ele><time>2026-04-26T14:59:00.002Z</time></trkpt><trkpt lat="44.34118143167735" lon="11.975162468700738"><ele>15.0</ele><time>2026-04-26T14:59:02.002Z</time></trkpt><trkpt lat="44.341267737239825" lon="11.975108289688533"><ele>15.0</ele><time>2026-04-26T14:59:04.002Z</time></trkpt><trkpt lat="44.341352857921606" lon="11.975041314692952"><ele>15.0</ele><time>2026-04-26T14:59:06.002Z</time></trkpt><trkpt lat="44.34142901447695" lon="11.97495707126114"><ele>15.0</ele><time>2026-04-26T14:59:08.002Z</time></trkpt><trkpt lat="44.34149683488745" lon="11.974865479475"><ele>15.0</ele><time>2026-04-26T14:59:10.002Z</time></trkpt><trkpt lat="44.34156883031084" lon="11.974775763182476"><ele>15.0</ele><time>2026-04-26T14:59:12.002Z</time></trkpt><trkpt lat="44.341639604393656" lon="11.97468692046699"><ele>15.4</ele><time>2026-04-26T14:59:14.002Z</time></trkpt><trkpt lat="44.3417166210204" lon="11.974603256271807"><ele>15.8</ele><time>2026-04-26T14:59:16.002Z</time></trkpt><trkpt lat="44.34179647925304" lon="11.974523265829234"><ele>16.2</ele><time>2026-04-26T14:59:18.002Z</time></trkpt><trkpt lat="44.34187747232014" lon="11.974447182353009"><ele>16.6</ele><time>2026-04-26T14:59:20.003Z</time></trkpt><trkpt lat="44.34195743861571" lon="11.974378635080212"><ele>17.0</ele><time>2026-04-26T14:59:22.003Z</time></trkpt><trkpt lat="44.34203508516004" lon="11.974314495017587"><ele>17.0</ele><time>2026-04-26T14:59:24.003Z</time></trkpt><trkpt lat="44.3421141618841" lon="11.974245285590792"><ele>17.0</ele><time>2026-04-26T14:59:25.999Z</time></trkpt><trkpt lat="44.34219894398544" lon="11.97417627447901"><ele>17.0</ele><time>2026-04-26T14:59:27.999Z</time></trkpt><trkpt lat="44.34228823459306" lon="11.974108072554596"><ele>17.0</ele><time>2026-04-26T14:59:29.999Z</time></trkpt><trkpt lat="44.34237116087155" lon="11.974037559559731"><ele>17.0</ele><time>2026-04-26T14:59:31.999Z</time></trkpt><trkpt lat="44.34245731806405" lon="11.973960019290505"><ele>16.8</ele><time>2026-04-26T14:59:33.999Z</time></trkpt><trkpt lat="44.34254522220363" lon="11.97387942601422"><ele>16.6</ele><time>2026-04-26T14:59:35.999Z</time></trkpt><trkpt lat="44.34263664872319" lon="11.973800199498765"><ele>16.400000000000002</ele><time>2026-04-26T14:59:37.999Z</time></trkpt><trkpt lat="44.342722444999445" lon="11.973722255248415"><ele>16.2</ele><time>2026-04-26T14:59:40Z</time></trkpt><trkpt lat="44.34280728535586" lon="11.973640810435642"><ele>16.0</ele><time>2026-04-26T14:59:42Z</time></trkpt><trkpt lat="44.34289171280895" lon="11.973560516986703"><ele>16.0</ele><time>2026-04-26T14:59:44Z</time></trkpt><trkpt lat="44.34297186889521" lon="11.973476704051201"><ele>16.0</ele><time>2026-04-26T14:59:46Z</time></trkpt><trkpt lat="44.343050168158356" lon="11.973391878575091"><ele>16.0</ele><time>2026-04-26T14:59:48Z</time></trkpt><trkpt lat="44.343136579800436" lon="11.973332954806695"><ele>16.0</ele><time>2026-04-26T14:59:50Z</time></trkpt><trkpt lat="44.34322082110253" lon="11.973260786991798"><ele>16.0</ele><time>2026-04-26T14:59:52Z</time></trkpt><trkpt lat="44.34330190667117" lon="11.973195173987353"><ele>15.8</ele><time>2026-04-26T14:59:54Z</time></trkpt><trkpt lat="44.34338832987547" lon="11.973142106597486"><ele>15.600000000000001</ele><time>2026-04-26T14:59:56Z</time></trkpt><trkpt lat="44.34347197475599" lon="11.973089071664551"><ele>15.4</ele><time>2026-04-26T14:59:58Z</time></trkpt><trkpt lat="44.3435579051156" lon="11.973040824875095"><ele>15.2</ele><time>2026-04-26T15:00:00Z</time></trkpt><trkpt lat="44.34364054356413" lon="11.972997218564144"><ele>15.0</ele><time>2026-04-26T15:00:02Z</time></trkpt><trkpt lat="44.34372927082436" lon="11.97295622812045"><ele>15.0</ele><time>2026-04-26T15:00:04Z</time></trkpt><trkpt lat="44.343816793717714" lon="11.972924532559466"><ele>15.0</ele><time>2026-04-26T15:00:06Z</time></trkpt><trkpt lat="44.34390161460577" lon="11.972887534927077"><ele>15.0</ele><time>2026-04-26T15:00:08.001Z</time></trkpt><trkpt lat="44.34399466817223" lon="11.972846787000472"><ele>15.0</ele><time>2026-04-26T15:00:10.001Z</time></trkpt><trkpt lat="44.34408587395817" lon="11.972811671139715"><ele>15.0</ele><time>2026-04-26T15:00:12.001Z</time></trkpt><trkpt lat="44.3441829209045" lon="11.972771975969385"><ele>15.0</ele><time>2026-04-26T15:00:14.001Z</time></trkpt><trkpt lat="44.34427459665821" lon="11.972741030103322"><ele>15.0</ele><time>2026-04-26T15:00:16.001Z</time></trkpt><trkpt lat="44.3443681967847" lon="11.972702402634726"><ele>15.0</ele><time>2026-04-26T15:00:18.001Z</time></trkpt><trkpt lat="44.34445598879313" lon="11.97266841083004"><ele>15.0</ele><time>2026-04-26T15:00:20.001Z</time></trkpt><trkpt lat="44.344519882219295" lon="11.972635640797435"><ele>15.0</ele><time>2026-04-26T15:00:22.001Z</time></trkpt><trkpt lat="44.34457763080599" lon="11.97259757417526"><ele>15.0</ele><time>2026-04-26T15:00:25.001Z</time></trkpt><trkpt lat="44.344653583818314" lon="11.972568678133474"><ele>15.0</ele><time>2026-04-26T15:00:37.001Z</time></trkpt><trkpt lat="44.34474766212246" lon="11.972565595800205"><ele>15.0</ele><time>2026-04-26T15:00:40.001Z</time></trkpt><trkpt lat="44.344829843225206" lon="11.972548633877626"><ele>15.0</ele><time>2026-04-26T15:00:42.002Z</time></trkpt><trkpt lat="44.34491358507852" lon="11.972558371391523"><ele>15.0</ele><time>2026-04-26T15:00:44.002Z</time></trkpt><trkpt lat="44.34502973976595" lon="11.972515178307347"><ele>15.0</ele><time>2026-04-26T15:00:46.002Z</time></trkpt><trkpt lat="44.345107630889395" lon="11.972571383655549"><ele>15.0</ele><time>2026-04-26T15:00:48.002Z</time></trkpt><trkpt lat="44.34519026411067" lon="11.972631010849593"><ele>15.0</ele><time>2026-04-26T15:00:50.002Z</time></trkpt><trkpt lat="44.345262662350365" lon="11.972706075571192"><ele>15.0</ele><time>2026-04-26T15:00:52.002Z</time></trkpt><trkpt lat="44.34534279602385" lon="11.972749550928652"><ele>15.0</ele><time>2026-04-26T15:00:54.002Z</time></trkpt><trkpt lat="44.345423105757966" lon="11.972820737310492"><ele>15.0</ele><time>2026-04-26T15:00:56.002Z</time></trkpt><trkpt lat="44.34549751945332" lon="11.972916103661415"><ele>14.8</ele><time>2026-04-26T15:00:58.002Z</time></trkpt><trkpt lat="44.345576917838706" lon="11.973011603016335"><ele>14.6</ele><time>2026-04-26T15:01:00.002Z</time></trkpt><trkpt lat="44.345662598790625" lon="11.973104451876168"><ele>14.399999999999999</ele><time>2026-04-26T15:01:02.002Z</time></trkpt><trkpt lat="44.34574024790132" lon="11.97321128924103"><ele>14.2</ele><time>2026-04-26T15:01:04.002Z</time></trkpt><trkpt lat="44.34581363034488" lon="11.973328010845638"><ele>14.0</ele><time>2026-04-26T15:01:06.002Z</time></trkpt><trkpt lat="44.34588841896934" lon="11.97344275389332"><ele>14.333333333333334</ele><time>2026-04-26T15:01:08.002Z</time></trkpt><trkpt lat="44.345964362490086" lon="11.973538656166507"><ele>14.666666666666668</ele><time>2026-04-26T15:01:10.002Z</time></trkpt><trkpt lat="44.346030474685364" lon="11.973605577998542"><ele>15.0</ele><time>2026-04-26T15:01:12.002Z</time></trkpt><trkpt lat="44.34610288137224" lon="11.97363803899956"><ele>15.333333333333332</ele><time>2026-04-26T15:01:14.002Z</time></trkpt><trkpt lat="44.34616500134032" lon="11.973659272861203"><ele>15.666666666666666</ele><time>2026-04-26T15:01:16.003Z</time></trkpt><trkpt lat="44.34622879844376" lon="11.973681648534845"><ele>16.0</ele><time>2026-04-26T15:01:19.003Z</time></trkpt><trkpt lat="44.346313623170815" lon="11.973702676563864"><ele>15.833333333333332</ele><time>2026-04-26T15:01:52Z</time></trkpt><trkpt lat="44.34638101088567" lon="11.973711887857313"><ele>15.666666666666666</ele><time>2026-04-26T15:01:54Z</time></trkpt><trkpt lat="44.34646178764335" lon="11.973720223387046"><ele>15.5</ele><time>2026-04-26T15:01:56Z</time></trkpt><trkpt lat="44.34654891943861" lon="11.973715180121458"><ele>15.333333333333332</ele><time>2026-04-26T15:01:58Z</time></trkpt><trkpt lat="44.346652070412404" lon="11.97371090853386"><ele>15.166666666666666</ele><time>2026-04-26T15:02:00Z</time></trkpt><trkpt lat="44.34674681267146" lon="11.973706985158818"><ele>15.0</ele><time>2026-04-26T15:02:02Z</time></trkpt><trkpt lat="44.34683577395979" lon="11.973703301179786"><ele>15.0</ele><time>2026-04-26T15:02:04.001Z</time></trkpt><trkpt lat="44.34688324564998" lon="11.973804407481389"><ele>15.0</ele><time>2026-04-26T15:02:05.001Z</time></trkpt><trkpt lat="44.34697531102678" lon="11.973800959211212"><ele>15.0</ele><time>2026-04-26T15:02:07.001Z</time></trkpt><trkpt lat="44.34706659088706" lon="11.97381684486058"><ele>15.0</ele><time>2026-04-26T15:02:09.001Z</time></trkpt><trkpt lat="44.34715707368638" lon="11.973841119124435"><ele>15.0</ele><time>2026-04-26T15:02:11.001Z</time></trkpt><trkpt lat="44.34725105046244" lon="11.973864018202892"><ele>15.0</ele><time>2026-04-26T15:02:13.001Z</time></trkpt><trkpt lat="44.3473455783099" lon="11.973883305646442"><ele>15.0</ele><time>2026-04-26T15:02:15.001Z</time></trkpt><trkpt lat="44.34743316733464" lon="11.973899084899298"><ele>15.0</ele><time>2026-04-26T15:02:17.001Z</time></trkpt><trkpt lat="44.3475279564864" lon="11.973921136934251"><ele>15.0</ele><time>2026-04-26T15:02:19.001Z</time></trkpt><trkpt lat="44.34762856399702" lon="11.973940109700882"><ele>15.0</ele><time>2026-04-26T15:02:21.001Z</time></trkpt><trkpt lat="44.34772584413609" lon="11.973963393800613"><ele>15.0</ele><time>2026-04-26T15:02:23.001Z</time></trkpt><trkpt lat="44.34782628932374" lon="11.973985034657446"><ele>15.0</ele><time>2026-04-26T15:02:25.001Z</time></trkpt><trkpt lat="44.34792621170145" lon="11.974008265084883"><ele>15.0</ele><time>2026-04-26T15:02:27.001Z</time></trkpt><trkpt lat="44.34803155867407" lon="11.974028068037214"><ele>15.0</ele><time>2026-04-26T15:02:29.001Z</time></trkpt><trkpt lat="44.34813161024088" lon="11.97404103311442"><ele>15.0</ele><time>2026-04-26T15:02:31.001Z</time></trkpt><trkpt lat="44.34822782553302" lon="11.974049284033644"><ele>14.8</ele><time>2026-04-26T15:02:33.001Z</time></trkpt><trkpt lat="44.34832394872801" lon="11.974061817916981"><ele>14.6</ele><time>2026-04-26T15:02:35.001Z</time></trkpt><trkpt lat="44.348419838039185" lon="11.974072201227441"><ele>14.399999999999999</ele><time>2026-04-26T15:02:37.001Z</time></trkpt><trkpt lat="44.348515203188775" lon="11.974070587062391"><ele>14.2</ele><time>2026-04-26T15:02:39.002Z</time></trkpt><trkpt lat="44.34860347644575" lon="11.974072166178983"><ele>14.0</ele><time>2026-04-26T15:02:41.002Z</time></trkpt><trkpt lat="44.348694736632865" lon="11.974069267699129"><ele>14.000000000000002</ele><time>2026-04-26T15:02:43.002Z</time></trkpt><trkpt lat="44.348784985997426" lon="11.974053565363342"><ele>14.0</ele><time>2026-04-26T15:02:45.002Z</time></trkpt><trkpt lat="44.34887155678518" lon="11.974027627142815"><ele>14.0</ele><time>2026-04-26T15:02:47.002Z</time></trkpt><trkpt lat="44.34895589134852" lon="11.973997270312307"><ele>14.0</ele><time>2026-04-26T15:02:49.002Z</time></trkpt><trkpt lat="44.34903943099556" lon="11.973959040845248"><ele>14.000000000000002</ele><time>2026-04-26T15:02:51.002Z</time></trkpt><trkpt lat="44.34912083444982" lon="11.973910105730395"><ele>14.0</ele><time>2026-04-26T15:02:53.002Z</time></trkpt><trkpt lat="44.349196458456625" lon="11.973847206754614"><ele>14.2</ele><time>2026-04-26T15:02:55.002Z</time></trkpt><trkpt lat="44.34926442633366" lon="11.97375810985189"><ele>14.399999999999999</ele><time>2026-04-26T15:02:57.002Z</time></trkpt><trkpt lat="44.349325125742645" lon="11.97365506087372"><ele>14.6</ele><time>2026-04-26T15:02:59.002Z</time></trkpt><trkpt lat="44.3493812058182" lon="11.973545955082812"><ele>14.8</ele><time>2026-04-26T15:03:01.002Z</time></trkpt><trkpt lat="44.34943682365257" lon="11.973437392149254"><ele>15.0</ele><time>2026-04-26T15:03:03.002Z</time></trkpt><trkpt lat="44.34948107567192" lon="11.97332065675975"><ele>15.2</ele><time>2026-04-26T15:03:05.002Z</time></trkpt><trkpt lat="44.34951869668444" lon="11.973196767438246"><ele>15.4</ele><time>2026-04-26T15:03:07.002Z</time></trkpt><trkpt lat="44.34955895906239" lon="11.97308112592064"><ele>15.600000000000001</ele><time>2026-04-26T15:03:09.002Z</time></trkpt><trkpt lat="44.3495980545857" lon="11.972962323995857"><ele>15.8</ele><time>2026-04-26T15:03:11.002Z</time></trkpt><trkpt lat="44.34963663832846" lon="11.972846114083318"><ele>16.0</ele><time>2026-04-26T15:03:13.003Z</time></trkpt><trkpt lat="44.34967757262427" lon="11.972731369957526"><ele>16.0</ele><time>2026-04-26T15:03:15.003Z</time></trkpt><trkpt lat="44.34971997127574" lon="11.972606338472179"><ele>16.0</ele><time>2026-04-26T15:03:17.003Z</time></trkpt><trkpt lat="44.34976346291319" lon="11.972483114253539"><ele>16.0</ele><time>2026-04-26T15:03:19.003Z</time></trkpt><trkpt lat="44.34981046477678" lon="11.972361362775775"><ele>16.0</ele><time>2026-04-26T15:03:21.003Z</time></trkpt><trkpt lat="44.34986454117912" lon="11.97224978141122"><ele>16.0</ele><time>2026-04-26T15:03:23.003Z</time></trkpt><trkpt lat="44.34992121620644" lon="11.97214208974074"><ele>15.8</ele><time>2026-04-26T15:03:25.003Z</time></trkpt><trkpt lat="44.34997832534308" lon="11.972038304194887"><ele>15.600000000000001</ele><time>2026-04-26T15:03:27.003Z</time></trkpt><trkpt lat="44.35004024612099" lon="11.9719480977342"><ele>15.4</ele><time>2026-04-26T15:03:29.003Z</time></trkpt><trkpt lat="44.35010854084048" lon="11.971852445439271"><ele>15.2</ele><time>2026-04-26T15:03:31.003Z</time></trkpt><trkpt lat="44.350181870971085" lon="11.971775238132361"><ele>15.0</ele><time>2026-04-26T15:03:33.003Z</time></trkpt><trkpt lat="44.35026210071522" lon="11.97170885269267"><ele>15.2</ele><time>2026-04-26T15:03:35.003Z</time></trkpt><trkpt lat="44.3503494171742" lon="11.971666624715484"><ele>15.4</ele><time>2026-04-26T15:03:37Z</time></trkpt><trkpt lat="44.350439800839716" lon="11.97163858588771"><ele>15.600000000000001</ele><time>2026-04-26T15:03:39Z</time></trkpt><trkpt lat="44.35053083689885" lon="11.97162571566953"><ele>15.8</ele><time>2026-04-26T15:03:41Z</time></trkpt><trkpt lat="44.350625779661364" lon="11.971625791327657"><ele>16.0</ele><time>2026-04-26T15:03:43Z</time></trkpt><trkpt lat="44.350718561423214" lon="11.971646057520587"><ele>15.600000000000001</ele><time>2026-04-26T15:03:45Z</time></trkpt><trkpt lat="44.35081187582472" lon="11.9716781647139"><ele>15.200000000000001</ele><time>2026-04-26T15:03:47Z</time></trkpt><trkpt lat="44.35090193221549" lon="11.97171766716998"><ele>14.799999999999999</ele><time>2026-04-26T15:03:49Z</time></trkpt><trkpt lat="44.35099450688742" lon="11.971760873971366"><ele>14.399999999999999</ele><time>2026-04-26T15:03:51Z</time></trkpt><trkpt lat="44.35108212920172" lon="11.971811928171503"><ele>14.0</ele><time>2026-04-26T15:03:53Z</time></trkpt><trkpt lat="44.35117170115395" lon="11.971860215044275"><ele>14.0</ele><time>2026-04-26T15:03:55Z</time></trkpt><trkpt lat="44.351257840765435" lon="11.971908667357614"><ele>13.999999999999998</ele><time>2026-04-26T15:03:57Z</time></trkpt><trkpt lat="44.35134356792146" lon="11.97195151158726"><ele>13.999999999999998</ele><time>2026-04-26T15:03:59Z</time></trkpt><trkpt lat="44.351429412709095" lon="11.971996734608377"><ele>14.0</ele><time>2026-04-26T15:04:01.001Z</time></trkpt><trkpt lat="44.351516525125774" lon="11.972045880647135"><ele>14.0</ele><time>2026-04-26T15:04:03.001Z</time></trkpt><trkpt lat="44.351607125237436" lon="11.972094215838439"><ele>14.2</ele><time>2026-04-26T15:04:05.001Z</time></trkpt><trkpt lat="44.35169507485032" lon="11.972143986439582"><ele>14.399999999999999</ele><time>2026-04-26T15:04:07.001Z</time></trkpt><trkpt lat="44.35178890734244" lon="11.972185849298311"><ele>14.6</ele><time>2026-04-26T15:04:09.001Z</time></trkpt><trkpt lat="44.35187553151165" lon="11.972232323568084"><ele>14.8</ele><time>2026-04-26T15:04:11.001Z</time></trkpt><trkpt lat="44.35196906986006" lon="11.972265983889608"><ele>15.0</ele><time>2026-04-26T15:04:13.001Z</time></trkpt><trkpt lat="44.352055054053025" lon="11.972304183933463"><ele>15.0</ele><time>2026-04-26T15:04:15.001Z</time></trkpt><trkpt lat="44.35213994639408" lon="11.97233665250136"><ele>15.0</ele><time>2026-04-26T15:04:17.001Z</time></trkpt><trkpt lat="44.35223552219821" lon="11.972356063243865"><ele>15.0</ele><time>2026-04-26T15:04:19.001Z</time></trkpt><trkpt lat="44.35233214080597" lon="11.972372780634897"><ele>15.0</ele><time>2026-04-26T15:04:21.001Z</time></trkpt><trkpt lat="44.352429046036136" lon="11.972381440083653"><ele>15.0</ele><time>2026-04-26T15:04:23.001Z</time></trkpt><trkpt lat="44.35252606898467" lon="11.972387625232257"><ele>15.0</ele><time>2026-04-26T15:04:25.001Z</time></trkpt><trkpt lat="44.3526233946083" lon="11.97239278915644"><ele>15.0</ele><time>2026-04-26T15:04:27.001Z</time></trkpt><trkpt lat="44.35272737827004" lon="11.97239231457994"><ele>15.0</ele><time>2026-04-26T15:04:29.001Z</time></trkpt><trkpt lat="44.35282803729648" lon="11.972386414639852"><ele>15.0</ele><time>2026-04-26T15:04:31.001Z</time></trkpt><trkpt lat="44.352929049494875" lon="11.972380662913098"><ele>15.0</ele><time>2026-04-26T15:04:33.001Z</time></trkpt><trkpt lat="44.35302592279908" lon="11.972368010688099"><ele>15.0</ele><time>2026-04-26T15:04:35.001Z</time></trkpt><trkpt lat="44.35312062226921" lon="11.972351225805241"><ele>15.0</ele><time>2026-04-26T15:04:37.001Z</time></trkpt><trkpt lat="44.35321285224187" lon="11.972325040506808"><ele>15.0</ele><time>2026-04-26T15:04:39.002Z</time></trkpt><trkpt lat="44.35330104520608" lon="11.972300526213703"><ele>15.0</ele><time>2026-04-26T15:04:41.002Z</time></trkpt><trkpt lat="44.35338733924758" lon="11.972265875824355"><ele>15.0</ele><time>2026-04-26T15:04:43.002Z</time></trkpt><trkpt lat="44.35347649347539" lon="11.972216923664103"><ele>15.0</ele><time>2026-04-26T15:04:45.002Z</time></trkpt><trkpt lat="44.35356294039036" lon="11.972167047549215"><ele>15.0</ele><time>2026-04-26T15:04:47.002Z</time></trkpt><trkpt lat="44.35364583798711" lon="11.972127720817866"><ele>15.0</ele><time>2026-04-26T15:04:49.002Z</time></trkpt><trkpt lat="44.35372680179485" lon="11.972092929785603"><ele>15.0</ele><time>2026-04-26T15:04:51.002Z</time></trkpt><trkpt lat="44.353808271528166" lon="11.972059394172973"><ele>15.0</ele><time>2026-04-26T15:04:53.002Z</time></trkpt><trkpt lat="44.35389176016355" lon="11.972017651196138"><ele>15.0</ele><time>2026-04-26T15:04:55.002Z</time></trkpt><trkpt lat="44.353976837329945" lon="11.971981525962477"><ele>14.666666666666666</ele><time>2026-04-26T15:04:57.002Z</time></trkpt><trkpt lat="44.354061136069475" lon="11.97194690056854"><ele>14.333333333333332</ele><time>2026-04-26T15:04:59.002Z</time></trkpt><trkpt lat="44.35414312156033" lon="11.971908710285586"><ele>14.0</ele><time>2026-04-26T15:05:01.002Z</time></trkpt><trkpt lat="44.35422741839186" lon="11.971876230557129"><ele>13.666666666666666</ele><time>2026-04-26T15:05:03.002Z</time></trkpt><trkpt lat="44.35431402074764" lon="11.971851111497443"><ele>13.333333333333332</ele><time>2026-04-26T15:05:05.002Z</time></trkpt><trkpt lat="44.35440170039687" lon="11.971815700335569"><ele>13.0</ele><time>2026-04-26T15:05:07.002Z</time></trkpt><trkpt lat="44.35449418058272" lon="11.971781644061062"><ele>12.999999999999998</ele><time>2026-04-26T15:05:09.002Z</time></trkpt><trkpt lat="44.35458817611982" lon="11.971747968503019"><ele>13.0</ele><time>2026-04-26T15:05:11.002Z</time></trkpt><trkpt lat="44.3546745165723" lon="11.971716782945904"><ele>13.0</ele><time>2026-04-26T15:05:13.002Z</time></trkpt><trkpt lat="44.35475880936997" lon="11.971681330144946"><ele>13.0</ele><time>2026-04-26T15:05:15.003Z</time></trkpt><trkpt lat="44.35484165810022" lon="11.971655305214616"><ele>12.999999999999998</ele><time>2026-04-26T15:05:17.003Z</time></trkpt><trkpt lat="44.35492580682275" lon="11.971631293753656"><ele>13.0</ele><time>2026-04-26T15:05:19.003Z</time></trkpt><trkpt lat="44.35500913829535" lon="11.971605074546739"><ele>13.333333333333332</ele><time>2026-04-26T15:05:21.003Z</time></trkpt><trkpt lat="44.35508498816202" lon="11.971596287732359"><ele>13.666666666666666</ele><time>2026-04-26T15:05:23.003Z</time></trkpt><trkpt lat="44.35516166471102" lon="11.971579510051605"><ele>14.0</ele><time>2026-04-26T15:05:25.003Z</time></trkpt><trkpt lat="44.355228794041345" lon="11.97158013134784"><ele>14.333333333333332</ele><time>2026-04-26T15:05:27.003Z</time></trkpt><trkpt lat="44.355309638115834" lon="11.971571989669888"><ele>14.666666666666666</ele><time>2026-04-26T15:05:30.003Z</time></trkpt><trkpt lat="44.35539474671187" lon="11.971581909051569"><ele>15.0</ele><time>2026-04-26T15:05:34.003Z</time></trkpt><trkpt lat="44.355469476405815" lon="11.971592683591801"><ele>15.0</ele><time>2026-04-26T15:05:37.003Z</time></trkpt><trkpt lat="44.3555322926799" lon="11.971603211682567"><ele>15.0</ele><time>2026-04-26T15:05:39.003Z</time></trkpt><trkpt lat="44.35560145146364" lon="11.971622034424286"><ele>15.0</ele><time>2026-04-26T15:05:41.003Z</time></trkpt><trkpt lat="44.35567970871198" lon="11.971653653036537"><ele>15.0</ele><time>2026-04-26T15:05:43.001Z</time></trkpt><trkpt lat="44.35576153008432" lon="11.971695340666757"><ele>15.0</ele><time>2026-04-26T15:05:45.001Z</time></trkpt><trkpt lat="44.35584210575537" lon="11.971752486496596"><ele>15.0</ele><time>2026-04-26T15:05:47.001Z</time></trkpt><trkpt lat="44.35591411886443" lon="11.971823402222276"><ele>14.8</ele><time>2026-04-26T15:05:49.001Z</time></trkpt><trkpt lat="44.35599095444104" lon="11.971895135036576"><ele>14.6</ele><time>2026-04-26T15:05:51.001Z</time></trkpt><trkpt lat="44.35605195088958" lon="11.972000242442283"><ele>14.399999999999999</ele><time>2026-04-26T15:05:53.001Z</time></trkpt><trkpt lat="44.356096395930294" lon="11.972117101116154"><ele>14.2</ele><time>2026-04-26T15:05:55.001Z</time></trkpt><trkpt lat="44.35614202043056" lon="11.972238356515199"><ele>14.0</ele><time>2026-04-26T15:05:57Z</time></trkpt><trkpt lat="44.356172947087046" lon="11.972358591026966"><ele>14.0</ele><time>2026-04-26T15:05:59.001Z</time></trkpt><trkpt lat="44.35620355110272" lon="11.972479353104815"><ele>13.999999999999998</ele><time>2026-04-26T15:06:01.001Z</time></trkpt><trkpt lat="44.35622906289877" lon="11.972604558549726"><ele>13.999999999999998</ele><time>2026-04-26T15:06:03.001Z</time></trkpt><trkpt lat="44.35625346021011" lon="11.972722638581741"><ele>14.0</ele><time>2026-04-26T15:06:05.001Z</time></trkpt><trkpt lat="44.35628136669871" lon="11.972839152955503"><ele>14.0</ele><time>2026-04-26T15:06:07.001Z</time></trkpt><trkpt lat="44.35629876395277" lon="11.972961575304813"><ele>14.000000000000002</ele><time>2026-04-26T15:06:09.001Z</time></trkpt><trkpt lat="44.356325105250214" lon="11.973069804213125"><ele>14.0</ele><time>2026-04-26T15:06:11.001Z</time></trkpt><trkpt lat="44.356351283377485" lon="11.973181610976791"><ele>14.0</ele><time>2026-04-26T15:06:13.001Z</time></trkpt><trkpt lat="44.35637177412625" lon="11.973287551342828"><ele>14.0</ele><time>2026-04-26T15:06:15.001Z</time></trkpt><trkpt lat="44.35638917706008" lon="11.973398232955201"><ele>14.000000000000002</ele><time>2026-04-26T15:06:17.001Z</time></trkpt><trkpt lat="44.35641243280796" lon="11.97350504460503"><ele>14.0</ele><time>2026-04-26T15:06:19.001Z</time></trkpt><trkpt lat="44.356436255152936" lon="11.973618969430833"><ele>14.166666666666668</ele><time>2026-04-26T15:06:21.001Z</time></trkpt><trkpt lat="44.3564534698653" lon="11.973728282703524"><ele>14.333333333333334</ele><time>2026-04-26T15:06:23.001Z</time></trkpt><trkpt lat="44.35647296606614" lon="11.973829339792477"><ele>14.5</ele><time>2026-04-26T15:06:25.001Z</time></trkpt><trkpt lat="44.356494593103804" lon="11.97393358674646"><ele>14.666666666666668</ele><time>2026-04-26T15:06:27.001Z</time></trkpt><trkpt lat="44.35651895370189" lon="11.97402577018462"><ele>14.833333333333334</ele><time>2026-04-26T15:06:29.001Z</time></trkpt><trkpt lat="44.3565536018707" lon="11.97412093795725"><ele>15.0</ele><time>2026-04-26T15:06:31.001Z</time></trkpt><trkpt lat="44.356592827466685" lon="11.974218844884458"><ele>14.5</ele><time>2026-04-26T15:06:33.001Z</time></trkpt><trkpt lat="44.35664373716884" lon="11.974311628992723"><ele>14.0</ele><time>2026-04-26T15:06:35.001Z</time></trkpt><trkpt lat="44.35670188146406" lon="11.974386574452083"><ele>13.5</ele><time>2026-04-26T15:06:37.001Z</time></trkpt><trkpt lat="44.35676305548606" lon="11.974460258526692"><ele>13.0</ele><time>2026-04-26T15:06:39.001Z</time></trkpt><trkpt lat="44.35682953438801" lon="11.974522346788666"><ele>12.5</ele><time>2026-04-26T15:06:41.001Z</time></trkpt><trkpt lat="44.356907007553346" lon="11.974566196918794"><ele>12.0</ele><time>2026-04-26T15:06:43.001Z</time></trkpt><trkpt lat="44.35697894631139" lon="11.974607294543237"><ele>12.0</ele><time>2026-04-26T15:06:45.002Z</time></trkpt><trkpt lat="44.35705737042669" lon="11.974631366244637"><ele>12.0</ele><time>2026-04-26T15:06:47.002Z</time></trkpt><trkpt lat="44.35714199031937" lon="11.974638526460259"><ele>12.0</ele><time>2026-04-26T15:06:49.002Z</time></trkpt><trkpt lat="44.35722120556638" lon="11.974630924318607"><ele>12.0</ele><time>2026-04-26T15:06:51.002Z</time></trkpt><trkpt lat="44.357307807541574" lon="11.974612306084849"><ele>12.0</ele><time>2026-04-26T15:06:53.002Z</time></trkpt><trkpt lat="44.35740194048909" lon="11.974582336965886"><ele>12.0</ele><time>2026-04-26T15:06:55.002Z</time></trkpt><trkpt lat="44.357490472342455" lon="11.974548014146594"><ele>12.399999999999999</ele><time>2026-04-26T15:06:57.002Z</time></trkpt><trkpt lat="44.3575808369592" lon="11.974512914549647"><ele>12.799999999999999</ele><time>2026-04-26T15:06:59.002Z</time></trkpt><trkpt lat="44.35766553802728" lon="11.974468666895762"><ele>13.2</ele><time>2026-04-26T15:07:01.002Z</time></trkpt><trkpt lat="44.35774727859432" lon="11.97442186556894"><ele>13.6</ele><time>2026-04-26T15:07:03.002Z</time></trkpt><trkpt lat="44.357825681688325" lon="11.97435915669097"><ele>14.0</ele><time>2026-04-26T15:07:05.002Z</time></trkpt><trkpt lat="44.357902523827875" lon="11.9742848239059"><ele>14.0</ele><time>2026-04-26T15:07:07.002Z</time></trkpt><trkpt lat="44.35797134321724" lon="11.974194657170584"><ele>13.999999999999998</ele><time>2026-04-26T15:07:09.002Z</time></trkpt><trkpt lat="44.35804366705038" lon="11.974104270125535"><ele>13.999999999999998</ele><time>2026-04-26T15:07:11.002Z</time></trkpt><trkpt lat="44.35811463228541" lon="11.974006936427545"><ele>14.0</ele><time>2026-04-26T15:07:13.002Z</time></trkpt><trkpt lat="44.35818501865603" lon="11.973908082226062"><ele>14.0</ele><time>2026-04-26T15:07:15.002Z</time></trkpt><trkpt lat="44.358256208237954" lon="11.973812446088774"><ele>14.0</ele><time>2026-04-26T15:07:17.002Z</time></trkpt><trkpt lat="44.35832058438449" lon="11.973717964517556"><ele>13.999999999999998</ele><time>2026-04-26T15:07:19.002Z</time></trkpt><trkpt lat="44.35838420455444" lon="11.973621299016553"><ele>13.999999999999998</ele><time>2026-04-26T15:07:21.002Z</time></trkpt><trkpt lat="44.35844867891957" lon="11.973526196673811"><ele>14.0</ele><time>2026-04-26T15:07:23.003Z</time></trkpt><trkpt lat="44.35844461872201" lon="11.973327792539502"><ele>14.0</ele><time>2026-04-26T15:07:25.003Z</time></trkpt><trkpt lat="44.358508410468254" lon="11.973256006326572"><ele>14.0</ele><time>2026-04-26T15:07:27.003Z</time></trkpt><trkpt lat="44.35856850061577" lon="11.973159047327565"><ele>13.999999999999998</ele><time>2026-04-26T15:07:29.003Z</time></trkpt><trkpt lat="44.358625382379074" lon="11.973053770744604"><ele>13.999999999999998</ele><time>2026-04-26T15:07:31.003Z</time></trkpt><trkpt lat="44.35867737275848" lon="11.972946889619081"><ele>14.0</ele><time>2026-04-26T15:07:33.003Z</time></trkpt><trkpt lat="44.358730419762104" lon="11.972829768700922"><ele>14.0</ele><time>2026-04-26T15:07:35.003Z</time></trkpt><trkpt lat="44.358782181107046" lon="11.972717538042978"><ele>14.0</ele><time>2026-04-26T15:07:37.003Z</time></trkpt><trkpt lat="44.35883346048181" lon="11.97260697583999"><ele>13.999999999999998</ele><time>2026-04-26T15:07:39.003Z</time></trkpt><trkpt lat="44.35888665815183" lon="11.97249853883565"><ele>13.999999999999998</ele><time>2026-04-26T15:07:41.003Z</time></trkpt><trkpt lat="44.35894387447226" lon="11.972392586480023"><ele>14.0</ele><time>2026-04-26T15:07:43.003Z</time></trkpt><trkpt lat="44.35900194031496" lon="11.972291145563375"><ele>14.0</ele><time>2026-04-26T15:07:45.003Z</time></trkpt><trkpt lat="44.35906573276645" lon="11.972189530675276"><ele>13.799999999999999</ele><time>2026-04-26T15:07:47.003Z</time></trkpt><trkpt lat="44.35913500660858" lon="11.972095588260807"><ele>13.599999999999998</ele><time>2026-04-26T15:07:49.001Z</time></trkpt><trkpt lat="44.35921124446005" lon="11.972009103309603"><ele>13.4</ele><time>2026-04-26T15:07:51.001Z</time></trkpt><trkpt lat="44.359284209305784" lon="11.97193450520864"><ele>13.2</ele><time>2026-04-26T15:07:53.001Z</time></trkpt><trkpt lat="44.359367082278055" lon="11.971855987821224"><ele>13.0</ele><time>2026-04-26T15:07:55.001Z</time></trkpt><trkpt lat="44.359436532829896" lon="11.971789221346395"><ele>13.0</ele><time>2026-04-26T15:07:57.001Z</time></trkpt><trkpt lat="44.359499553693986" lon="11.971717749471514"><ele>13.0</ele><time>2026-04-26T15:07:59Z</time></trkpt><trkpt lat="44.3595544435724" lon="11.971648849694736"><ele>13.0</ele><time>2026-04-26T15:08:01Z</time></trkpt><trkpt lat="44.359618138440744" lon="11.971554272669396"><ele>13.0</ele><time>2026-04-26T15:08:04Z</time></trkpt><trkpt lat="44.359666252508354" lon="11.971487113282864"><ele>13.0</ele><time>2026-04-26T15:08:06Z</time></trkpt><trkpt lat="44.35999973909873" lon="11.971776536765876"><ele>12.833333333333332</ele><time>2026-04-26T15:08:09.001Z</time></trkpt><trkpt lat="44.360079954689816" lon="11.971793260277508"><ele>12.666666666666666</ele><time>2026-04-26T15:08:11.001Z</time></trkpt><trkpt lat="44.360162757000055" lon="11.971823483794847"><ele>12.5</ele><time>2026-04-26T15:08:13.001Z</time></trkpt><trkpt lat="44.36025037358152" lon="11.971856157133223"><ele>12.333333333333332</ele><time>2026-04-26T15:08:15.001Z</time></trkpt><trkpt lat="44.36033811616586" lon="11.971892693946605"><ele>12.166666666666666</ele><time>2026-04-26T15:08:17.001Z</time></trkpt><trkpt lat="44.36042855908212" lon="11.971920723067683"><ele>12.0</ele><time>2026-04-26T15:08:19.001Z</time></trkpt><trkpt lat="44.360516689036665" lon="11.971960921834084"><ele>12.166666666666666</ele><time>2026-04-26T15:08:21.001Z</time></trkpt><trkpt lat="44.36060207709907" lon="11.972004864133298"><ele>12.333333333333332</ele><time>2026-04-26T15:08:23.001Z</time></trkpt><trkpt lat="44.360679442750744" lon="11.972046886184172"><ele>12.5</ele><time>2026-04-26T15:08:25.001Z</time></trkpt><trkpt lat="44.36075263199405" lon="11.972089240649238"><ele>12.666666666666666</ele><time>2026-04-26T15:08:27.001Z</time></trkpt><trkpt lat="44.3608249583399" lon="11.972133185399644"><ele>12.833333333333332</ele><time>2026-04-26T15:08:29.001Z</time></trkpt><trkpt lat="44.360900674973436" lon="11.9721870863906"><ele>13.0</ele><time>2026-04-26T15:08:31.001Z</time></trkpt><trkpt lat="44.360979519787215" lon="11.97223831041392"><ele>13.0</ele><time>2026-04-26T15:08:33.001Z</time></trkpt><trkpt lat="44.36105507031318" lon="11.97230149184065"><ele>13.0</ele><time>2026-04-26T15:08:35.001Z</time></trkpt><trkpt lat="44.361133494364886" lon="11.972363948848324"><ele>13.0</ele><time>2026-04-26T15:08:37.001Z</time></trkpt><trkpt lat="44.36120801804102" lon="11.972428869339819"><ele>13.0</ele><time>2026-04-26T15:08:39.001Z</time></trkpt><trkpt lat="44.36128582528731" lon="11.972499622159884"><ele>13.0</ele><time>2026-04-26T15:08:41.001Z</time></trkpt><trkpt lat="44.36136602034145" lon="11.972568998548647"><ele>12.666666666666666</ele><time>2026-04-26T15:08:43.001Z</time></trkpt><trkpt lat="44.36144265829569" lon="11.972638084572361"><ele>12.333333333333332</ele><time>2026-04-26T15:08:45.001Z</time></trkpt><trkpt lat="44.361519578156454" lon="11.972709852856"><ele>12.0</ele><time>2026-04-26T15:08:47.001Z</time></trkpt><trkpt lat="44.361592203747506" lon="11.972784884791121"><ele>11.666666666666666</ele><time>2026-04-26T15:08:49.001Z</time></trkpt><trkpt lat="44.361659226388184" lon="11.972856985898032"><ele>11.333333333333332</ele><time>2026-04-26T15:08:51.002Z</time></trkpt><trkpt lat="44.361725291344584" lon="11.972930350667562"><ele>11.0</ele><time>2026-04-26T15:08:53.002Z</time></trkpt><trkpt lat="44.361783940378416" lon="11.973011251062138"><ele>11.0</ele><time>2026-04-26T15:08:55.002Z</time></trkpt><trkpt lat="44.36183883481579" lon="11.97308596266318"><ele>11.0</ele><time>2026-04-26T15:08:57.002Z</time></trkpt><trkpt lat="44.36189834059061" lon="11.973167652362594"><ele>11.0</ele><time>2026-04-26T15:08:59.002Z</time></trkpt><trkpt lat="44.361950583489396" lon="11.973255822297267"><ele>11.0</ele><time>2026-04-26T15:09:01.002Z</time></trkpt><trkpt lat="44.362006939077446" lon="11.973338242620033"><ele>11.0</ele><time>2026-04-26T15:09:03.002Z</time></trkpt><trkpt lat="44.36206192175148" lon="11.97343053116556"><ele>11.0</ele><time>2026-04-26T15:09:05.002Z</time></trkpt><trkpt lat="44.3621171642538" lon="11.973528538863349"><ele>11.333333333333332</ele><time>2026-04-26T15:09:07.002Z</time></trkpt><trkpt lat="44.36216966054927" lon="11.97362644259594"><ele>11.666666666666666</ele><time>2026-04-26T15:09:09.002Z</time></trkpt><trkpt lat="44.36222144728445" lon="11.97372588983767"><ele>12.0</ele><time>2026-04-26T15:09:11.002Z</time></trkpt><trkpt lat="44.36226783802897" lon="11.973827098742856"><ele>12.333333333333332</ele><time>2026-04-26T15:09:13.002Z</time></trkpt><trkpt lat="44.362320073313086" lon="11.973926019479652"><ele>12.666666666666666</ele><time>2026-04-26T15:09:15.002Z</time></trkpt><trkpt lat="44.36236299968912" lon="11.974024602927217"><ele>13.0</ele><time>2026-04-26T15:09:17.002Z</time></trkpt><trkpt lat="44.362406330848394" lon="11.97412084552375"><ele>12.999999999999998</ele><time>2026-04-26T15:09:19.002Z</time></trkpt><trkpt lat="44.36245275020201" lon="11.974222181709214"><ele>13.0</ele><time>2026-04-26T15:09:21.002Z</time></trkpt><trkpt lat="44.362497139422466" lon="11.97432042631289"><ele>13.0</ele><time>2026-04-26T15:09:23.002Z</time></trkpt><trkpt lat="44.362543327562186" lon="11.97441816524606"><ele>13.0</ele><time>2026-04-26T15:09:25.002Z</time></trkpt><trkpt lat="44.362582909700066" lon="11.974512721298476"><ele>12.999999999999998</ele><time>2026-04-26T15:09:27.002Z</time></trkpt><trkpt lat="44.36262670144043" lon="11.974616921600763"><ele>13.0</ele><time>2026-04-26T15:09:29.002Z</time></trkpt><trkpt lat="44.362669616901165" lon="11.97472067896423"><ele>12.999999999999998</ele><time>2026-04-26T15:09:31.002Z</time></trkpt><trkpt lat="44.3627103285084" lon="11.974828816931108"><ele>13.0</ele><time>2026-04-26T15:09:33.003Z</time></trkpt><trkpt lat="44.36273968070228" lon="11.97493129944441"><ele>13.0</ele><time>2026-04-26T15:09:35.003Z</time></trkpt><trkpt lat="44.36278170009323" lon="11.975038856593857"><ele>13.0</ele><time>2026-04-26T15:09:37.003Z</time></trkpt><trkpt lat="44.36282163074256" lon="11.975146067283536"><ele>12.999999999999998</ele><time>2026-04-26T15:09:39.003Z</time></trkpt><trkpt lat="44.3628509646019" lon="11.975243647355487"><ele>13.0</ele><time>2026-04-26T15:09:41.003Z</time></trkpt><trkpt lat="44.36288746136219" lon="11.975347546407125"><ele>12.999999999999998</ele><time>2026-04-26T15:09:43.003Z</time></trkpt><trkpt lat="44.36292841473119" lon="11.975453744139328"><ele>13.0</ele><time>2026-04-26T15:09:45.003Z</time></trkpt><trkpt lat="44.362961881989875" lon="11.975554876128044"><ele>13.0</ele><time>2026-04-26T15:09:47.003Z</time></trkpt><trkpt lat="44.362997973669174" lon="11.975657559009555"><ele>13.0</ele><time>2026-04-26T15:09:49.003Z</time></trkpt><trkpt lat="44.36303546667813" lon="11.975767085551462"><ele>12.999999999999998</ele><time>2026-04-26T15:09:51.003Z</time></trkpt><trkpt lat="44.36307275383161" lon="11.975870364237728"><ele>13.0</ele><time>2026-04-26T15:09:53.003Z</time></trkpt><trkpt lat="44.36311173612824" lon="11.97596821297081"><ele>12.999999999999998</ele><time>2026-04-26T15:09:55.001Z</time></trkpt><trkpt lat="44.36315018848498" lon="11.976077001174286"><ele>13.0</ele><time>2026-04-26T15:09:57.001Z</time></trkpt><trkpt lat="44.363193099412044" lon="11.976163435677753"><ele>13.0</ele><time>2026-04-26T15:09:59Z</time></trkpt><trkpt lat="44.363234079018646" lon="11.97626066826142"><ele>13.0</ele><time>2026-04-26T15:10:01Z</time></trkpt><trkpt lat="44.36327719382491" lon="11.976353020090025"><ele>12.999999999999998</ele><time>2026-04-26T15:10:03Z</time></trkpt><trkpt lat="44.36332585276938" lon="11.97645058500745"><ele>13.0</ele><time>2026-04-26T15:10:05Z</time></trkpt><trkpt lat="44.36338386375989" lon="11.97654016158489"><ele>12.999999999999998</ele><time>2026-04-26T15:10:07Z</time></trkpt><trkpt lat="44.36344648429342" lon="11.976622836715654"><ele>13.0</ele><time>2026-04-26T15:10:09Z</time></trkpt><trkpt lat="44.36352010615132" lon="11.976694847904389"><ele>13.0</ele><time>2026-04-26T15:10:11Z</time></trkpt><trkpt lat="44.36358982292112" lon="11.976756784299129"><ele>13.0</ele><time>2026-04-26T15:10:13Z</time></trkpt><trkpt lat="44.36366195470447" lon="11.976810899801883"><ele>12.999999999999998</ele><time>2026-04-26T15:10:15Z</time></trkpt><trkpt lat="44.3637426909244" lon="11.97685880028724"><ele>13.0</ele><time>2026-04-26T15:10:17.001Z</time></trkpt><trkpt lat="44.363826540201316" lon="11.97689790221688"><ele>12.666666666666666</ele><time>2026-04-26T15:10:19.001Z</time></trkpt><trkpt lat="44.363903877309085" lon="11.976930252654268"><ele>12.333333333333332</ele><time>2026-04-26T15:10:21.001Z</time></trkpt><trkpt lat="44.363987699333755" lon="11.976966790448937"><ele>12.0</ele><time>2026-04-26T15:10:23.001Z</time></trkpt><trkpt lat="44.36406836840848" lon="11.977000934362094"><ele>11.666666666666666</ele><time>2026-04-26T15:10:25.001Z</time></trkpt><trkpt lat="44.36415355052574" lon="11.977040361435"><ele>11.333333333333332</ele><time>2026-04-26T15:10:27.001Z</time></trkpt><trkpt lat="44.36423796413197" lon="11.977075614770035"><ele>11.0</ele><time>2026-04-26T15:10:29.001Z</time></trkpt><trkpt lat="44.36432499983774" lon="11.977110248810389"><ele>11.0</ele><time>2026-04-26T15:10:31.001Z</time></trkpt><trkpt lat="44.36440972739431" lon="11.977145314198436"><ele>11.0</ele><time>2026-04-26T15:10:33.001Z</time></trkpt><trkpt lat="44.364497190953784" lon="11.977181324466896"><ele>11.0</ele><time>2026-04-26T15:10:35.001Z</time></trkpt><trkpt lat="44.36457875173101" lon="11.97721982652157"><ele>11.0</ele><time>2026-04-26T15:10:37.001Z</time></trkpt><trkpt lat="44.3646621527171" lon="11.977253444049833"><ele>11.0</ele><time>2026-04-26T15:10:39.001Z</time></trkpt><trkpt lat="44.36474406810397" lon="11.977294402912232"><ele>11.0</ele><time>2026-04-26T15:10:41.001Z</time></trkpt><trkpt lat="44.364824771012806" lon="11.97733395754188"><ele>11.166666666666666</ele><time>2026-04-26T15:10:43.001Z</time></trkpt><trkpt lat="44.364903035743325" lon="11.977380688605272"><ele>11.333333333333332</ele><time>2026-04-26T15:10:45.001Z</time></trkpt><trkpt lat="44.364980257484156" lon="11.977425014831143"><ele>11.5</ele><time>2026-04-26T15:10:47.001Z</time></trkpt><trkpt lat="44.36505475718353" lon="11.977469341225916"><ele>11.666666666666666</ele><time>2026-04-26T15:10:49.001Z</time></trkpt><trkpt lat="44.36513783646255" lon="11.977518773160698"><ele>11.833333333333334</ele><time>2026-04-26T15:10:51.001Z</time></trkpt><trkpt lat="44.365219703521596" lon="11.977569397964123"><ele>12.0</ele><time>2026-04-26T15:10:53.001Z</time></trkpt><trkpt lat="44.36530562605849" lon="11.977625957351801"><ele>12.2</ele><time>2026-04-26T15:10:55.001Z</time></trkpt><trkpt lat="44.36539263627425" lon="11.977668335721342"><ele>12.399999999999999</ele><time>2026-04-26T15:10:57.001Z</time></trkpt><trkpt lat="44.36548230732115" lon="11.977704428395512"><ele>12.600000000000001</ele><time>2026-04-26T15:10:59.001Z</time></trkpt><trkpt lat="44.36556698449724" lon="11.977739358967924"><ele>12.8</ele><time>2026-04-26T15:11:01.001Z</time></trkpt><trkpt lat="44.365657680007445" lon="11.977772223553956"><ele>13.0</ele><time>2026-04-26T15:11:03.002Z</time></trkpt><trkpt lat="44.3657443571365" lon="11.977806516291286"><ele>13.0</ele><time>2026-04-26T15:11:05.002Z</time></trkpt><trkpt lat="44.36583089270298" lon="11.977839054098753"><ele>13.0</ele><time>2026-04-26T15:11:07.002Z</time></trkpt><trkpt lat="44.36591924131031" lon="11.977874970201823"><ele>13.0</ele><time>2026-04-26T15:11:09.002Z</time></trkpt><trkpt lat="44.36600754895094" lon="11.977909398730525"><ele>13.0</ele><time>2026-04-26T15:11:11.002Z</time></trkpt><trkpt lat="44.36609818220569" lon="11.977941357671174"><ele>13.0</ele><time>2026-04-26T15:11:13.002Z</time></trkpt><trkpt lat="44.36618728254831" lon="11.977965556908142"><ele>13.0</ele><time>2026-04-26T15:11:15.002Z</time></trkpt><trkpt lat="44.36627167326328" lon="11.977999763647205"><ele>13.0</ele><time>2026-04-26T15:11:17.002Z</time></trkpt><trkpt lat="44.36636470973991" lon="11.978031977036757"><ele>13.0</ele><time>2026-04-26T15:11:19.002Z</time></trkpt><trkpt lat="44.36645477329415" lon="11.978060920093684"><ele>13.0</ele><time>2026-04-26T15:11:21.002Z</time></trkpt><trkpt lat="44.36654597140676" lon="11.978086140282576"><ele>13.0</ele><time>2026-04-26T15:11:23.002Z</time></trkpt><trkpt lat="44.36662617488903" lon="11.978109735675623"><ele>12.8</ele><time>2026-04-26T15:11:25.002Z</time></trkpt><trkpt lat="44.366707380721735" lon="11.978126329871774"><ele>12.600000000000001</ele><time>2026-04-26T15:11:27.002Z</time></trkpt><trkpt lat="44.36679978679452" lon="11.978137736338988"><ele>12.399999999999999</ele><time>2026-04-26T15:11:29.002Z</time></trkpt><trkpt lat="44.366896892146094" lon="11.978143327199165"><ele>12.2</ele><time>2026-04-26T15:11:31.002Z</time></trkpt><trkpt lat="44.36698979536318" lon="11.978141832966543"><ele>12.0</ele><time>2026-04-26T15:11:33.002Z</time></trkpt><trkpt lat="44.367086260087184" lon="11.978137710718473"><ele>12.0</ele><time>2026-04-26T15:11:35.002Z</time></trkpt><trkpt lat="44.36717815011519" lon="11.97813476690005"><ele>12.0</ele><time>2026-04-26T15:11:37.002Z</time></trkpt><trkpt lat="44.36727094753167" lon="11.978130691443685"><ele>12.0</ele><time>2026-04-26T15:11:39.002Z</time></trkpt><trkpt lat="44.367364959922" lon="11.978129697903569"><ele>12.0</ele><time>2026-04-26T15:11:41.002Z</time></trkpt><trkpt lat="44.36745659146106" lon="11.978127160140115"><ele>12.0</ele><time>2026-04-26T15:11:43.002Z</time></trkpt><trkpt lat="44.36754578840884" lon="11.978120758495352"><ele>12.0</ele><time>2026-04-26T15:11:45.003Z</time></trkpt><trkpt lat="44.367636948794065" lon="11.978120577034865"><ele>12.0</ele><time>2026-04-26T15:11:47.003Z</time></trkpt><trkpt lat="44.36772204733586" lon="11.97811900110779"><ele>12.0</ele><time>2026-04-26T15:11:49.003Z</time></trkpt><trkpt lat="44.367793561283214" lon="11.978120336695971"><ele>12.0</ele><time>2026-04-26T15:11:51.003Z</time></trkpt><trkpt lat="44.36787269089694" lon="11.978124028465794"><ele>12.0</ele><time>2026-04-26T15:11:54.003Z</time></trkpt><trkpt lat="44.36794645256983" lon="11.978102445101777"><ele>12.0</ele><time>2026-04-26T15:11:58.003Z</time></trkpt><trkpt lat="44.36802128420174" lon="11.978105546445903"><ele>12.0</ele><time>2026-04-26T15:12:01Z</time></trkpt><trkpt lat="44.36811083160685" lon="11.978099464290102"><ele>12.0</ele><time>2026-04-26T15:12:04Z</time></trkpt><trkpt lat="44.36817848489578" lon="11.978095060519252"><ele>12.0</ele><time>2026-04-26T15:12:06Z</time></trkpt><trkpt lat="44.3682566589965" lon="11.978087719363765"><ele>12.0</ele><time>2026-04-26T15:12:08Z</time></trkpt><trkpt lat="44.368334462263626" lon="11.978083856140707"><ele>12.0</ele><time>2026-04-26T15:12:10Z</time></trkpt><trkpt lat="44.36840646029489" lon="11.978082439282687"><ele>12.0</ele><time>2026-04-26T15:12:12Z</time></trkpt><trkpt lat="44.368473208938674" lon="11.978081552452254"><ele>12.0</ele><time>2026-04-26T15:12:14Z</time></trkpt><trkpt lat="44.368542482954034" lon="11.978077605707174"><ele>12.0</ele><time>2026-04-26T15:12:16Z</time></trkpt><trkpt lat="44.368633792558384" lon="11.978079933166889"><ele>12.0</ele><time>2026-04-26T15:12:19Z</time></trkpt><trkpt lat="44.368699896538786" lon="11.978078022614918"><ele>12.0</ele><time>2026-04-26T15:12:21Z</time></trkpt><trkpt lat="44.368783596413344" lon="11.978076688349967"><ele>12.0</ele><time>2026-04-26T15:12:24Z</time></trkpt><trkpt lat="44.368855557351125" lon="11.978072003407283"><ele>12.0</ele><time>2026-04-26T15:12:27Z</time></trkpt><trkpt lat="44.36893360209344" lon="11.978077995828746"><ele>12.0</ele><time>2026-04-26T15:12:31Z</time></trkpt><trkpt lat="44.368865265263246" lon="11.978093469229508"><ele>12.0</ele><time>2026-04-26T15:12:59.001Z</time></trkpt><trkpt lat="44.3687650661723" lon="11.97809930232597"><ele>12.0</ele><time>2026-04-26T15:13:01.001Z</time></trkpt><trkpt lat="44.368666052281846" lon="11.978100650715286"><ele>12.0</ele><time>2026-04-26T15:13:03.001Z</time></trkpt><trkpt lat="44.36856880951589" lon="11.978096641294455"><ele>12.0</ele><time>2026-04-26T15:13:05.001Z</time></trkpt><trkpt lat="44.36847468998448" lon="11.978095512952034"><ele>12.0</ele><time>2026-04-26T15:13:07.001Z</time></trkpt><trkpt lat="44.36837805013643" lon="11.978099567523644"><ele>12.0</ele><time>2026-04-26T15:13:09.001Z</time></trkpt><trkpt lat="44.3682827427959" lon="11.978106507683917"><ele>12.0</ele><time>2026-04-26T15:13:11.001Z</time></trkpt><trkpt lat="44.36818444553333" lon="11.978108440542274"><ele>12.0</ele><time>2026-04-26T15:13:13.001Z</time></trkpt><trkpt lat="44.36809364250664" lon="11.97811416699425"><ele>12.0</ele><time>2026-04-26T15:13:15.001Z</time></trkpt><trkpt lat="44.36800703873539" lon="11.978119148961952"><ele>12.0</ele><time>2026-04-26T15:13:17.001Z</time></trkpt><trkpt lat="44.36793005861251" lon="11.978131115180465"><ele>12.0</ele><time>2026-04-26T15:13:19.002Z</time></trkpt><trkpt lat="44.36785133577813" lon="11.978168466903227"><ele>12.0</ele><time>2026-04-26T15:13:22.002Z</time></trkpt><trkpt lat="44.3677646249208" lon="11.978205804157696"><ele>12.0</ele><time>2026-04-26T15:13:25.002Z</time></trkpt><trkpt lat="44.36770076581346" lon="11.978231574431163"><ele>12.0</ele><time>2026-04-26T15:13:27.002Z</time></trkpt><trkpt lat="44.36763683619267" lon="11.97825086849711"><ele>12.0</ele><time>2026-04-26T15:13:29.002Z</time></trkpt><trkpt lat="44.36755597746632" lon="11.978270572030045"><ele>12.0</ele><time>2026-04-26T15:13:32.002Z</time></trkpt><trkpt lat="44.3676276487887" lon="11.97831412542834"><ele>12.0</ele><time>2026-04-26T15:13:39.002Z</time></trkpt><trkpt lat="44.36770878003624" lon="11.97828967894405"><ele>12.0</ele><time>2026-04-26T15:13:41.002Z</time></trkpt><trkpt lat="44.367786472231806" lon="11.97828755705764"><ele>12.0</ele><time>2026-04-26T15:13:43.002Z</time></trkpt><trkpt lat="44.36786712555745" lon="11.978273611520864"><ele>12.0</ele><time>2026-04-26T15:13:45.002Z</time></trkpt><trkpt lat="44.36795810556327" lon="11.978245586554895"><ele>12.0</ele><time>2026-04-26T15:13:47.002Z</time></trkpt><trkpt lat="44.368038270031164" lon="11.978231548836968"><ele>12.0</ele><time>2026-04-26T15:13:49.002Z</time></trkpt><trkpt lat="44.36812325494687" lon="11.978227502016832"><ele>12.0</ele><time>2026-04-26T15:13:51.002Z</time></trkpt><trkpt lat="44.368205247387486" lon="11.978227974508654"><ele>12.0</ele><time>2026-04-26T15:13:53.002Z</time></trkpt><trkpt lat="44.36828180777507" lon="11.97822614013469"><ele>12.0</ele><time>2026-04-26T15:13:55.002Z</time></trkpt><trkpt lat="44.3683692291143" lon="11.978218333057155"><ele>12.0</ele><time>2026-04-26T15:13:57.002Z</time></trkpt><trkpt lat="44.368448444744956" lon="11.978222929626535"><ele>12.0</ele><time>2026-04-26T15:13:59.002Z</time></trkpt><trkpt lat="44.36852796038565" lon="11.978218817982661"><ele>11.999999999999998</ele><time>2026-04-26T15:14:01.003Z</time></trkpt><trkpt lat="44.368601368074955" lon="11.978219945865462"><ele>12.0</ele><time>2026-04-26T15:14:03.003Z</time></trkpt><trkpt lat="44.368674671930926" lon="11.978220530689326"><ele>12.0</ele><time>2026-04-26T15:14:05.003Z</time></trkpt><trkpt lat="44.368745145546804" lon="11.97822129331626"><ele>12.0</ele><time>2026-04-26T15:14:06.999Z</time></trkpt><trkpt lat="44.36881392300097" lon="11.978221199381492"><ele>12.0</ele><time>2026-04-26T15:14:08.999Z</time></trkpt><trkpt lat="44.36888606418237" lon="11.978213268220863"><ele>11.999999999999998</ele><time>2026-04-26T15:14:10.999Z</time></trkpt><trkpt lat="44.368952154441516" lon="11.978211781541034"><ele>12.0</ele><time>2026-04-26T15:14:13Z</time></trkpt><trkpt lat="44.36903737850525" lon="11.978214607246796"><ele>12.142857142857142</ele><time>2026-04-26T15:14:16Z</time></trkpt><trkpt lat="44.36910137625784" lon="11.97823941376825"><ele>12.285714285714285</ele><time>2026-04-26T15:14:19Z</time></trkpt><trkpt lat="44.369168079005945" lon="11.978230237542636"><ele>12.428571428571427</ele><time>2026-04-26T15:14:22Z</time></trkpt><trkpt lat="44.36923204258193" lon="11.978164734863562"><ele>12.571428571428571</ele><time>2026-04-26T15:14:25Z</time></trkpt><trkpt lat="44.36930367252613" lon="11.978154476387958"><ele>12.714285714285715</ele><time>2026-04-26T15:14:27Z</time></trkpt><trkpt lat="44.369385533521275" lon="11.978196467107422"><ele>12.857142857142856</ele><time>2026-04-26T15:14:30Z</time></trkpt><trkpt lat="44.369451402411244" lon="11.978159939230398"><ele>13.0</ele><time>2026-04-26T15:14:32Z</time></trkpt><trkpt lat="44.36952074740099" lon="11.978129350902556"><ele>12.999999999999998</ele><time>2026-04-26T15:14:34Z</time></trkpt><trkpt lat="44.369590023663605" lon="11.978103763028708"><ele>13.0</ele><time>2026-04-26T15:14:36Z</time></trkpt><trkpt lat="44.36966674454196" lon="11.978087551067864"><ele>13.0</ele><time>2026-04-26T15:14:38Z</time></trkpt><trkpt lat="44.3697535949617" lon="11.978084638882097"><ele>13.0</ele><time>2026-04-26T15:14:40Z</time></trkpt><trkpt lat="44.36984570751425" lon="11.978066750919908"><ele>12.999999999999998</ele><time>2026-04-26T15:14:42Z</time></trkpt><trkpt lat="44.36994046702387" lon="11.978045557015868"><ele>13.0</ele><time>2026-04-26T15:14:44Z</time></trkpt><trkpt lat="44.37003057728282" lon="11.9780282162294"><ele>13.4</ele><time>2026-04-26T15:14:46Z</time></trkpt><trkpt lat="44.37012495347579" lon="11.977989020930432"><ele>13.8</ele><time>2026-04-26T15:14:48Z</time></trkpt><trkpt lat="44.37021431247846" lon="11.977938576803465"><ele>14.2</ele><time>2026-04-26T15:14:50.001Z</time></trkpt><trkpt lat="44.37030976486138" lon="11.977892509405889"><ele>14.6</ele><time>2026-04-26T15:14:52.001Z</time></trkpt><trkpt lat="44.37039930198487" lon="11.97785064811845"><ele>15.0</ele><time>2026-04-26T15:14:54.001Z</time></trkpt><trkpt lat="44.37047668586649" lon="11.977819216489547"><ele>15.142857142857142</ele><time>2026-04-26T15:14:56.001Z</time></trkpt><trkpt lat="44.370544641050394" lon="11.977810789757445"><ele>15.285714285714285</ele><time>2026-04-26T15:14:58.001Z</time></trkpt><trkpt lat="44.3706093031359" lon="11.977826014068281"><ele>15.428571428571427</ele><time>2026-04-26T15:15:00.001Z</time></trkpt><trkpt lat="44.37068330359631" lon="11.977843020716932"><ele>15.571428571428571</ele><time>2026-04-26T15:15:02.001Z</time></trkpt><trkpt lat="44.37074718264239" lon="11.977853686274086"><ele>15.714285714285712</ele><time>2026-04-26T15:15:04.001Z</time></trkpt><trkpt lat="44.370812055379304" lon="11.977865815510231"><ele>15.857142857142856</ele><time>2026-04-26T15:15:06.001Z</time></trkpt><trkpt lat="44.370892390937236" lon="11.977880723531198"><ele>16.0</ele><time>2026-04-26T15:15:09.001Z</time></trkpt><trkpt lat="44.37096341131738" lon="11.977892625667653"><ele>16.0</ele><time>2026-04-26T15:15:13.001Z</time></trkpt><trkpt lat="44.37103755560817" lon="11.977909949518937"><ele>15.999999999999998</ele><time>2026-04-26T15:15:37.002Z</time></trkpt><trkpt lat="44.37109372234572" lon="11.977982710397315"><ele>16.0</ele><time>2026-04-26T15:15:39.002Z</time></trkpt><trkpt lat="44.37116185757123" lon="11.978016241865422"><ele>16.0</ele><time>2026-04-26T15:15:41.002Z</time></trkpt><trkpt lat="44.37123292103568" lon="11.978051214432318"><ele>15.999999999999998</ele><time>2026-04-26T15:15:43.002Z</time></trkpt><trkpt lat="44.37129866238256" lon="11.978083567848369"><ele>16.0</ele><time>2026-04-26T15:15:45.002Z</time></trkpt><trkpt lat="44.371368839518695" lon="11.978045552434194"><ele>16.0</ele><time>2026-04-26T15:15:47.002Z</time></trkpt><trkpt lat="44.37143872505671" lon="11.978077717704746"><ele>15.833333333333332</ele><time>2026-04-26T15:15:50.002Z</time></trkpt><trkpt lat="44.37149161975536" lon="11.978148907293344"><ele>15.666666666666666</ele><time>2026-04-26T15:15:53.002Z</time></trkpt><trkpt lat="44.37155988575865" lon="11.978178581697815"><ele>15.5</ele><time>2026-04-26T15:15:56.002Z</time></trkpt><trkpt lat="44.37164642066964" lon="11.978237570861983"><ele>15.333333333333332</ele><time>2026-04-26T15:15:59.002Z</time></trkpt><trkpt lat="44.37171185549486" lon="11.978309032013918"><ele>15.166666666666666</ele><time>2026-04-26T15:16:01.002Z</time></trkpt><trkpt lat="44.37179073318745" lon="11.978383195215958"><ele>15.0</ele><time>2026-04-26T15:16:03.002Z</time></trkpt><trkpt lat="44.371883245329236" lon="11.978451953207694"><ele>15.0</ele><time>2026-04-26T15:16:05.003Z</time></trkpt><trkpt lat="44.37197322114413" lon="11.978530452073732"><ele>15.0</ele><time>2026-04-26T15:16:07.003Z</time></trkpt><trkpt lat="44.3720740672619" lon="11.978611631500028"><ele>15.0</ele><time>2026-04-26T15:16:09.003Z</time></trkpt><trkpt lat="44.37217750125632" lon="11.97869672549365"><ele>15.0</ele><time>2026-04-26T15:16:11.003Z</time></trkpt><trkpt lat="44.37228136682675" lon="11.978777564426672"><ele>14.75</ele><time>2026-04-26T15:16:12.999Z</time></trkpt><trkpt lat="44.37238937183804" lon="11.9788613584371"><ele>14.5</ele><time>2026-04-26T15:16:14.999Z</time></trkpt><trkpt lat="44.37249624347424" lon="11.978935301606764"><ele>14.25</ele><time>2026-04-26T15:16:16.999Z</time></trkpt><trkpt lat="44.372592045142945" lon="11.978994205877596"><ele>14.0</ele><time>2026-04-26T15:16:18.999Z</time></trkpt><trkpt lat="44.37269191430104" lon="11.979046982012296"><ele>14.0</ele><time>2026-04-26T15:16:21Z</time></trkpt><trkpt lat="44.37279068099776" lon="11.979101728140936"><ele>13.999999999999998</ele><time>2026-04-26T15:16:23Z</time></trkpt><trkpt lat="44.372891991544094" lon="11.979144707255974"><ele>13.999999999999998</ele><time>2026-04-26T15:16:25Z</time></trkpt><trkpt lat="44.37299433726287" lon="11.979178830057782"><ele>14.0</ele><time>2026-04-26T15:16:27Z</time></trkpt><trkpt lat="44.37309072990647" lon="11.979195960970623"><ele>14.0</ele><time>2026-04-26T15:16:29Z</time></trkpt><trkpt lat="44.3731902260229" lon="11.97919860084918"><ele>14.0</ele><time>2026-04-26T15:16:31Z</time></trkpt><trkpt lat="44.37328851774401" lon="11.979200577788882"><ele>13.999999999999998</ele><time>2026-04-26T15:16:33Z</time></trkpt><trkpt lat="44.37338936967221" lon="11.979214582012606"><ele>13.999999999999998</ele><time>2026-04-26T15:16:35Z</time></trkpt><trkpt lat="44.37348643617312" lon="11.979230652337437"><ele>14.0</ele><time>2026-04-26T15:16:37Z</time></trkpt><trkpt lat="44.37358113824986" lon="11.979263113895605"><ele>14.0</ele><time>2026-04-26T15:16:39Z</time></trkpt><trkpt lat="44.373662740144695" lon="11.979345922744429"><ele>14.0</ele><time>2026-04-26T15:16:41Z</time></trkpt><trkpt lat="44.3737363728942" lon="11.979442539543193"><ele>13.999999999999998</ele><time>2026-04-26T15:16:43Z</time></trkpt><trkpt lat="44.373807931088145" lon="11.979545379708894"><ele>13.999999999999998</ele><time>2026-04-26T15:16:45Z</time></trkpt><trkpt lat="44.373886385365395" lon="11.979646448724328"><ele>14.0</ele><time>2026-04-26T15:16:47Z</time></trkpt><trkpt lat="44.373971259505055" lon="11.97974045039996"><ele>14.0</ele><time>2026-04-26T15:16:49Z</time></trkpt><trkpt lat="44.374048754126136" lon="11.979842139008971"><ele>13.799999999999999</ele><time>2026-04-26T15:16:51Z</time></trkpt><trkpt lat="44.374124905489154" lon="11.979947988834871"><ele>13.599999999999998</ele><time>2026-04-26T15:16:53Z</time></trkpt><trkpt lat="44.374191517376325" lon="11.980055325465045"><ele>13.4</ele><time>2026-04-26T15:16:55Z</time></trkpt><trkpt lat="44.37425957370373" lon="11.98016506780823"><ele>13.2</ele><time>2026-04-26T15:16:57.001Z</time></trkpt><trkpt lat="44.374315460137595" lon="11.980285085988838"><ele>13.0</ele><time>2026-04-26T15:16:59.001Z</time></trkpt><trkpt lat="44.374374002161794" lon="11.980402124058745"><ele>13.0</ele><time>2026-04-26T15:17:01.001Z</time></trkpt><trkpt lat="44.37442532344423" lon="11.98052427325497"><ele>13.0</ele><time>2026-04-26T15:17:03.001Z</time></trkpt><trkpt lat="44.374465076327716" lon="11.980653333312759"><ele>13.0</ele><time>2026-04-26T15:17:05.001Z</time></trkpt><trkpt lat="44.374512709654304" lon="11.980779344562915"><ele>13.0</ele><time>2026-04-26T15:17:07.001Z</time></trkpt><trkpt lat="44.37456299209944" lon="11.980900848978939"><ele>13.0</ele><time>2026-04-26T15:17:09.001Z</time></trkpt><trkpt lat="44.37459015565211" lon="11.981037707369463"><ele>13.0</ele><time>2026-04-26T15:17:11.001Z</time></trkpt><trkpt lat="44.374623386860264" lon="11.981168520080164"><ele>13.0</ele><time>2026-04-26T15:17:13.001Z</time></trkpt><trkpt lat="44.3746554343189" lon="11.981304512805062"><ele>13.0</ele><time>2026-04-26T15:17:15.001Z</time></trkpt><trkpt lat="44.37468244174897" lon="11.981438395867205"><ele>13.0</ele><time>2026-04-26T15:17:17.001Z</time></trkpt><trkpt lat="44.37471307016883" lon="11.98156637588667"><ele>13.0</ele><time>2026-04-26T15:17:19.001Z</time></trkpt><trkpt lat="44.37474771604254" lon="11.981689707237223"><ele>12.8</ele><time>2026-04-26T15:17:21.001Z</time></trkpt><trkpt lat="44.374783527276" lon="11.981811238899372"><ele>12.600000000000001</ele><time>2026-04-26T15:17:23.001Z</time></trkpt><trkpt lat="44.37482510611248" lon="11.981932909946872"><ele>12.399999999999999</ele><time>2026-04-26T15:17:25.001Z</time></trkpt><trkpt lat="44.374877307142484" lon="11.98204733669015"><ele>12.2</ele><time>2026-04-26T15:17:27.001Z</time></trkpt><trkpt lat="44.37493776755637" lon="11.982154295710076"><ele>12.0</ele><time>2026-04-26T15:17:29.001Z</time></trkpt><trkpt lat="44.37499826692923" lon="11.982264247527104"><ele>12.0</ele><time>2026-04-26T15:17:31.001Z</time></trkpt><trkpt lat="44.37506615444957" lon="11.98236679739184"><ele>12.0</ele><time>2026-04-26T15:17:33.002Z</time></trkpt><trkpt lat="44.37514177816178" lon="11.98245782130292"><ele>12.0</ele><time>2026-04-26T15:17:35.002Z</time></trkpt><trkpt lat="44.3752187742921" lon="11.982542913698099"><ele>12.0</ele><time>2026-04-26T15:17:37.002Z</time></trkpt><trkpt lat="44.3753008849053" lon="11.98261677643571"><ele>12.0</ele><time>2026-04-26T15:17:39.002Z</time></trkpt><trkpt lat="44.37538146935318" lon="11.982686263734275"><ele>12.2</ele><time>2026-04-26T15:17:41.002Z</time></trkpt><trkpt lat="44.37546855439704" lon="11.98274962471607"><ele>12.399999999999999</ele><time>2026-04-26T15:17:43.002Z</time></trkpt><trkpt lat="44.37555278556341" lon="11.982806702626776"><ele>12.600000000000001</ele><time>2026-04-26T15:17:45.002Z</time></trkpt><trkpt lat="44.375644442219844" lon="11.982862141607292"><ele>12.8</ele><time>2026-04-26T15:17:47.002Z</time></trkpt><trkpt lat="44.37573057030224" lon="11.982906663152606"><ele>13.0</ele><time>2026-04-26T15:17:49.002Z</time></trkpt><trkpt lat="44.375819829876164" lon="11.982938141227066"><ele>13.0</ele><time>2026-04-26T15:17:51.002Z</time></trkpt><trkpt lat="44.37591373090547" lon="11.98296334478694"><ele>13.0</ele><time>2026-04-26T15:17:53.002Z</time></trkpt><trkpt lat="44.37600975887137" lon="11.982980640379523"><ele>13.0</ele><time>2026-04-26T15:17:55.002Z</time></trkpt><trkpt lat="44.37610723554315" lon="11.982996613797006"><ele>13.0</ele><time>2026-04-26T15:17:57.002Z</time></trkpt><trkpt lat="44.37620304057351" lon="11.983015804269055"><ele>13.0</ele><time>2026-04-26T15:17:59.002Z</time></trkpt><trkpt lat="44.37629816499056" lon="11.983023927865013"><ele>12.999999999999998</ele><time>2026-04-26T15:18:01.002Z</time></trkpt><trkpt lat="44.37638430247755" lon="11.983027734469292"><ele>13.0</ele><time>2026-04-26T15:18:03.002Z</time></trkpt><trkpt lat="44.37647174261423" lon="11.983040048585199"><ele>13.0</ele><time>2026-04-26T15:18:05.002Z</time></trkpt><trkpt lat="44.376554737431746" lon="11.983054916508667"><ele>13.0</ele><time>2026-04-26T15:18:07.002Z</time></trkpt><trkpt lat="44.37663882082118" lon="11.983058912275027"><ele>12.999999999999998</ele><time>2026-04-26T15:18:09.003Z</time></trkpt><trkpt lat="44.37672682209091" lon="11.983073590258584"><ele>13.0</ele><time>2026-04-26T15:18:11.003Z</time></trkpt><trkpt lat="44.37681640686305" lon="11.983089514869949"><ele>12.999999999999998</ele><time>2026-04-26T15:18:13.003Z</time></trkpt><trkpt lat="44.37690638135321" lon="11.98310506495246"><ele>13.0</ele><time>2026-04-26T15:18:15.003Z</time></trkpt><trkpt lat="44.37699360834674" lon="11.983115919104916"><ele>13.0</ele><time>2026-04-26T15:18:17.003Z</time></trkpt><trkpt lat="44.377075461521756" lon="11.983122459648058"><ele>13.0</ele><time>2026-04-26T15:18:19Z</time></trkpt><trkpt lat="44.37714605443753" lon="11.983131754310424"><ele>12.999999999999998</ele><time>2026-04-26T15:18:21Z</time></trkpt><trkpt lat="44.37721192368669" lon="11.98313921653566"><ele>13.0</ele><time>2026-04-26T15:18:23Z</time></trkpt><trkpt lat="44.37728597063329" lon="11.983158034728007"><ele>12.999999999999998</ele><time>2026-04-26T15:18:26Z</time></trkpt><trkpt lat="44.377345483751945" lon="11.983187337651247"><ele>13.0</ele><time>2026-04-26T15:18:35Z</time></trkpt><trkpt lat="44.377415057398295" lon="11.983167418798004"><ele>13.0</ele><time>2026-04-26T15:18:38Z</time></trkpt><trkpt lat="44.37747822950446" lon="11.983198497542611"><ele>13.0</ele><time>2026-04-26T15:18:40Z</time></trkpt><trkpt lat="44.3775612376164" lon="11.983226181668503"><ele>12.999999999999998</ele><time>2026-04-26T15:18:43Z</time></trkpt><trkpt lat="44.37763930943473" lon="11.98329973392593"><ele>13.0</ele><time>2026-04-26T15:18:46Z</time></trkpt><trkpt lat="44.37770696322128" lon="11.983365821363906"><ele>12.75</ele><time>2026-04-26T15:18:48Z</time></trkpt><trkpt lat="44.37779421495594" lon="11.983447672958551"><ele>12.5</ele><time>2026-04-26T15:18:50Z</time></trkpt><trkpt lat="44.37789017731374" lon="11.98353843199844"><ele>12.25</ele><time>2026-04-26T15:18:52Z</time></trkpt><trkpt lat="44.37799219121173" lon="11.983614765381795"><ele>12.0</ele><time>2026-04-26T15:18:54Z</time></trkpt><trkpt lat="44.37808521100016" lon="11.983715637415226"><ele>11.75</ele><time>2026-04-26T15:18:56.001Z</time></trkpt><trkpt lat="44.37818173099683" lon="11.98381888048274"><ele>11.5</ele><time>2026-04-26T15:18:58.001Z</time></trkpt><trkpt lat="44.37827351597431" lon="11.983926562056881"><ele>11.25</ele><time>2026-04-26T15:19:00.001Z</time></trkpt><trkpt lat="44.37836655494096" lon="11.984040312110572"><ele>11.0</ele><time>2026-04-26T15:19:02.001Z</time></trkpt><trkpt lat="44.378457494495244" lon="11.984164773862464"><ele>11.0</ele><time>2026-04-26T15:19:04.001Z</time></trkpt><trkpt lat="44.37852880439572" lon="11.984297100646709"><ele>11.0</ele><time>2026-04-26T15:19:06.001Z</time></trkpt><trkpt lat="44.37859913419623" lon="11.98442922196233"><ele>11.0</ele><time>2026-04-26T15:19:08.001Z</time></trkpt><trkpt lat="44.37865639670449" lon="11.984567532327395"><ele>11.0</ele><time>2026-04-26T15:19:10.001Z</time></trkpt><trkpt lat="44.37870679934745" lon="11.984708026757495"><ele>11.0</ele><time>2026-04-26T15:19:12.001Z</time></trkpt><trkpt lat="44.37875002413973" lon="11.984847037804002"><ele>11.0</ele><time>2026-04-26T15:19:14.001Z</time></trkpt><trkpt lat="44.378768764244256" lon="11.98499169928969"><ele>11.0</ele><time>2026-04-26T15:19:16.001Z</time></trkpt><trkpt lat="44.37880031224691" lon="11.985129478899964"><ele>11.0</ele><time>2026-04-26T15:19:18.001Z</time></trkpt><trkpt lat="44.378806355465855" lon="11.985260604830334"><ele>11.0</ele><time>2026-04-26T15:19:20.001Z</time></trkpt><trkpt lat="44.378807551633635" lon="11.985367749849704"><ele>11.200000000000001</ele><time>2026-04-26T15:19:22.001Z</time></trkpt><trkpt lat="44.37881222315559" lon="11.985459288652931"><ele>11.4</ele><time>2026-04-26T15:19:24.001Z</time></trkpt><trkpt lat="44.37882979497367" lon="11.985555817770072"><ele>11.6</ele><time>2026-04-26T15:19:27.001Z</time></trkpt><trkpt lat="44.37882667914646" lon="11.985705081845143"><ele>11.8</ele><time>2026-04-26T15:20:29Z</time></trkpt><trkpt lat="44.37884494475216" lon="11.98583750972655"><ele>12.0</ele><time>2026-04-26T15:20:32Z</time></trkpt><trkpt lat="44.378661660454426" lon="11.986179086244167"><ele>12.2</ele><time>2026-04-26T15:20:37Z</time></trkpt><trkpt lat="44.37862541678634" lon="11.98630765744774"><ele>12.399999999999999</ele><time>2026-04-26T15:20:39Z</time></trkpt><trkpt lat="44.37859773515436" lon="11.986441571421844"><ele>12.600000000000001</ele><time>2026-04-26T15:20:41Z</time></trkpt><trkpt lat="44.37856250181473" lon="11.986576786131527"><ele>12.8</ele><time>2026-04-26T15:20:43Z</time></trkpt><trkpt lat="44.378524050212754" lon="11.986720872117692"><ele>13.0</ele><time>2026-04-26T15:20:45Z</time></trkpt><trkpt lat="44.37848524275376" lon="11.986858763876862"><ele>13.0</ele><time>2026-04-26T15:20:47Z</time></trkpt><trkpt lat="44.378443504909065" lon="11.987007121117603"><ele>13.0</ele><time>2026-04-26T15:20:49Z</time></trkpt><trkpt lat="44.37841340455269" lon="11.987153173946618"><ele>13.0</ele><time>2026-04-26T15:20:51.001Z</time></trkpt><trkpt lat="44.378385376511964" lon="11.987293360463523"><ele>13.0</ele><time>2026-04-26T15:20:53.001Z</time></trkpt><trkpt lat="44.37836415133271" lon="11.987443530239462"><ele>13.0</ele><time>2026-04-26T15:20:55.001Z</time></trkpt><trkpt lat="44.37835355855103" lon="11.987591559576725"><ele>12.600000000000001</ele><time>2026-04-26T15:20:57.001Z</time></trkpt><trkpt lat="44.37834703474584" lon="11.98773325649451"><ele>12.200000000000001</ele><time>2026-04-26T15:20:59.001Z</time></trkpt><trkpt lat="44.378338042656864" lon="11.987877602161497"><ele>11.8</ele><time>2026-04-26T15:21:01.001Z</time></trkpt><trkpt lat="44.378334235263885" lon="11.988020952597546"><ele>11.4</ele><time>2026-04-26T15:21:03.001Z</time></trkpt><trkpt lat="44.37834087328513" lon="11.9881638786821"><ele>11.0</ele><time>2026-04-26T15:21:05.001Z</time></trkpt><trkpt lat="44.378344093648494" lon="11.988316152156084"><ele>11.0</ele><time>2026-04-26T15:21:07.001Z</time></trkpt><trkpt lat="44.378352294381465" lon="11.988462146519455"><ele>11.0</ele><time>2026-04-26T15:21:09.001Z</time></trkpt><trkpt lat="44.37836581461373" lon="11.988608094895172"><ele>11.0</ele><time>2026-04-26T15:21:11.001Z</time></trkpt><trkpt lat="44.378387418752325" lon="11.988752665986954"><ele>11.0</ele><time>2026-04-26T15:21:13.001Z</time></trkpt><trkpt lat="44.37841012426786" lon="11.988893188854329"><ele>11.0</ele><time>2026-04-26T15:21:15.001Z</time></trkpt><trkpt lat="44.378431572599396" lon="11.989029784830077"><ele>11.0</ele><time>2026-04-26T15:21:17.001Z</time></trkpt><trkpt lat="44.37845658583758" lon="11.98916130222697"><ele>11.0</ele><time>2026-04-26T15:21:19.001Z</time></trkpt><trkpt lat="44.378484812489866" lon="11.989290580037904"><ele>11.0</ele><time>2026-04-26T15:21:21.001Z</time></trkpt><trkpt lat="44.378513371720864" lon="11.989416498961775"><ele>11.0</ele><time>2026-04-26T15:21:23.001Z</time></trkpt><trkpt lat="44.378546364451964" lon="11.989537185904792"><ele>11.0</ele><time>2026-04-26T15:21:25.001Z</time></trkpt><trkpt lat="44.37857714171541" lon="11.989663694389726"><ele>11.200000000000001</ele><time>2026-04-26T15:21:27.001Z</time></trkpt><trkpt lat="44.37861000356209" lon="11.98978702493293"><ele>11.4</ele><time>2026-04-26T15:21:29.002Z</time></trkpt><trkpt lat="44.378647098767786" lon="11.989909780526649"><ele>11.6</ele><time>2026-04-26T15:21:31.002Z</time></trkpt><trkpt lat="44.378682157041794" lon="11.990031895761378"><ele>11.8</ele><time>2026-04-26T15:21:33.002Z</time></trkpt><trkpt lat="44.37871793266358" lon="11.99015208102206"><ele>12.0</ele><time>2026-04-26T15:21:35.002Z</time></trkpt><trkpt lat="44.37876323594411" lon="11.990268103025613"><ele>12.2</ele><time>2026-04-26T15:21:37.002Z</time></trkpt><trkpt lat="44.378805404365885" lon="11.990395685405344"><ele>12.399999999999999</ele><time>2026-04-26T15:21:39.002Z</time></trkpt><trkpt lat="44.378848633081304" lon="11.99052857111363"><ele>12.600000000000001</ele><time>2026-04-26T15:21:41.002Z</time></trkpt><trkpt lat="44.37889742395183" lon="11.990659203575824"><ele>12.8</ele><time>2026-04-26T15:21:43.002Z</time></trkpt><trkpt lat="44.37894262436022" lon="11.990787934064205"><ele>13.0</ele><time>2026-04-26T15:21:45.002Z</time></trkpt><trkpt lat="44.37898470138719" lon="11.990915155863947"><ele>13.0</ele><time>2026-04-26T15:21:47.002Z</time></trkpt><trkpt lat="44.37902299671322" lon="11.991045220789875"><ele>13.0</ele><time>2026-04-26T15:21:49.002Z</time></trkpt><trkpt lat="44.37906373258959" lon="11.991174833230142"><ele>13.0</ele><time>2026-04-26T15:21:51.002Z</time></trkpt><trkpt lat="44.37910626438481" lon="11.991302949026844"><ele>13.0</ele><time>2026-04-26T15:21:53.002Z</time></trkpt><trkpt lat="44.379142650273934" lon="11.991427488266364"><ele>13.0</ele><time>2026-04-26T15:21:55.002Z</time></trkpt><trkpt lat="44.37917431981153" lon="11.991554416381774"><ele>12.8</ele><time>2026-04-26T15:21:57.002Z</time></trkpt><trkpt lat="44.37920502017375" lon="11.991683764940255"><ele>12.600000000000001</ele><time>2026-04-26T15:21:59.002Z</time></trkpt><trkpt lat="44.379242998187536" lon="11.991813614790782"><ele>12.399999999999999</ele><time>2026-04-26T15:22:01.002Z</time></trkpt><trkpt lat="44.37927453709829" lon="11.991938476446542"><ele>12.2</ele><time>2026-04-26T15:22:03.002Z</time></trkpt><trkpt lat="44.37930588192494" lon="11.992067535884223"><ele>12.0</ele><time>2026-04-26T15:22:05.003Z</time></trkpt><trkpt lat="44.37934734283448" lon="11.992194114639801"><ele>12.0</ele><time>2026-04-26T15:22:07.003Z</time></trkpt><trkpt lat="44.37938262664747" lon="11.992315392801403"><ele>12.0</ele><time>2026-04-26T15:22:09.003Z</time></trkpt><trkpt lat="44.37941004859459" lon="11.992438722650787"><ele>12.0</ele><time>2026-04-26T15:22:11.003Z</time></trkpt><trkpt lat="44.379448031816125" lon="11.992558465955462"><ele>12.0</ele><time>2026-04-26T15:22:13.003Z</time></trkpt><trkpt lat="44.37948130929845" lon="11.992679103727351"><ele>12.0</ele><time>2026-04-26T15:22:15.003Z</time></trkpt><trkpt lat="44.379511002413516" lon="11.992808471927813"><ele>12.0</ele><time>2026-04-26T15:22:17.003Z</time></trkpt><trkpt lat="44.37953413123619" lon="11.992942839851287"><ele>12.0</ele><time>2026-04-26T15:22:19.003Z</time></trkpt><trkpt lat="44.379556470826806" lon="11.993079010584509"><ele>12.0</ele><time>2026-04-26T15:22:21.003Z</time></trkpt><trkpt lat="44.379574949829625" lon="11.993207434324836"><ele>12.0</ele><time>2026-04-26T15:22:23.003Z</time></trkpt><trkpt lat="44.3795934131408" lon="11.993330649463527"><ele>12.0</ele><time>2026-04-26T15:22:25.003Z</time></trkpt><trkpt lat="44.37960395545437" lon="11.993452239345212"><ele>11.833333333333334</ele><time>2026-04-26T15:22:27.003Z</time></trkpt><trkpt lat="44.37960884642874" lon="11.993567695134248"><ele>11.666666666666666</ele><time>2026-04-26T15:22:29.003Z</time></trkpt><trkpt lat="44.379608434453914" lon="11.993686444661455"><ele>11.5</ele><time>2026-04-26T15:22:31Z</time></trkpt><trkpt lat="44.379612581022" lon="11.993803286687632"><ele>11.333333333333332</ele><time>2026-04-26T15:22:33Z</time></trkpt><trkpt lat="44.37961143127223" lon="11.993927347352132"><ele>11.166666666666666</ele><time>2026-04-26T15:22:35Z</time></trkpt><trkpt lat="44.37959847049319" lon="11.994063794662926"><ele>11.0</ele><time>2026-04-26T15:22:37Z</time></trkpt><trkpt lat="44.379579204479285" lon="11.994202989418076"><ele>10.8</ele><time>2026-04-26T15:22:39Z</time></trkpt><trkpt lat="44.379551665450386" lon="11.994333241180826"><ele>10.600000000000001</ele><time>2026-04-26T15:22:41Z</time></trkpt><trkpt lat="44.379518748593185" lon="11.994461859311526"><ele>10.4</ele><time>2026-04-26T15:22:43Z</time></trkpt><trkpt lat="44.3794721575471" lon="11.9945772557574"><ele>10.2</ele><time>2026-04-26T15:22:45Z</time></trkpt><trkpt lat="44.379423994374356" lon="11.994687480075918"><ele>10.0</ele><time>2026-04-26T15:22:47Z</time></trkpt><trkpt lat="44.37936551918972" lon="11.99478624665201"><ele>10.0</ele><time>2026-04-26T15:22:49Z</time></trkpt><trkpt lat="44.37931006488803" lon="11.994881540901524"><ele>10.0</ele><time>2026-04-26T15:22:51Z</time></trkpt><trkpt lat="44.37925156680262" lon="11.994973130129988"><ele>10.0</ele><time>2026-04-26T15:22:53Z</time></trkpt><trkpt lat="44.37919311738735" lon="11.995073094842525"><ele>10.0</ele><time>2026-04-26T15:22:55.001Z</time></trkpt><trkpt lat="44.379133669899105" lon="11.995170047387425"><ele>10.0</ele><time>2026-04-26T15:22:57.001Z</time></trkpt><trkpt lat="44.37906796905193" lon="11.995266986737837"><ele>10.0</ele><time>2026-04-26T15:22:59.001Z</time></trkpt><trkpt lat="44.379011461776365" lon="11.99536251921995"><ele>10.0</ele><time>2026-04-26T15:23:01.001Z</time></trkpt><trkpt lat="44.378955282844544" lon="11.995461156762373"><ele>10.0</ele><time>2026-04-26T15:23:03.001Z</time></trkpt><trkpt lat="44.37890261999945" lon="11.995560911848475"><ele>10.0</ele><time>2026-04-26T15:23:05.001Z</time></trkpt><trkpt lat="44.37885874095251" lon="11.995669130803847"><ele>10.0</ele><time>2026-04-26T15:23:07.001Z</time></trkpt><trkpt lat="44.378815379336906" lon="11.99577591857264"><ele>10.0</ele><time>2026-04-26T15:23:09.001Z</time></trkpt><trkpt lat="44.37877559844713" lon="11.995890944713265"><ele>10.166666666666668</ele><time>2026-04-26T15:23:11.001Z</time></trkpt><trkpt lat="44.3787325515894" lon="11.995996098248016"><ele>10.333333333333334</ele><time>2026-04-26T15:23:13.001Z</time></trkpt><trkpt lat="44.37870634673528" lon="11.996105396599123"><ele>10.5</ele><time>2026-04-26T15:23:15.001Z</time></trkpt><trkpt lat="44.378684109223585" lon="11.99621850275613"><ele>10.666666666666666</ele><time>2026-04-26T15:23:17.001Z</time></trkpt><trkpt lat="44.37865738849042" lon="11.996331018450244"><ele>10.833333333333332</ele><time>2026-04-26T15:23:19.001Z</time></trkpt><trkpt lat="44.37864492039826" lon="11.996456420916486"><ele>11.0</ele><time>2026-04-26T15:23:21.001Z</time></trkpt><trkpt lat="44.378644431935726" lon="11.996583238853836"><ele>11.166666666666666</ele><time>2026-04-26T15:23:23.001Z</time></trkpt><trkpt lat="44.37865096428802" lon="11.996705176083504"><ele>11.333333333333332</ele><time>2026-04-26T15:23:25.001Z</time></trkpt><trkpt lat="44.37865894440146" lon="11.996823569783436"><ele>11.5</ele><time>2026-04-26T15:23:27.001Z</time></trkpt><trkpt lat="44.378683952259934" lon="11.996926709526697"><ele>11.666666666666666</ele><time>2026-04-26T15:23:29.001Z</time></trkpt><trkpt lat="44.378714256877814" lon="11.997053010101427"><ele>11.833333333333334</ele><time>2026-04-26T15:23:31.001Z</time></trkpt><trkpt lat="44.37874329012866" lon="11.997176765935464"><ele>12.0</ele><time>2026-04-26T15:23:33.001Z</time></trkpt><trkpt lat="44.37877727617396" lon="11.997294539677068"><ele>12.0</ele><time>2026-04-26T15:23:35.002Z</time></trkpt><trkpt lat="44.37881496636445" lon="11.997409684459994"><ele>12.0</ele><time>2026-04-26T15:23:37.002Z</time></trkpt><trkpt lat="44.37885575954229" lon="11.997532043033429"><ele>12.0</ele><time>2026-04-26T15:23:39.002Z</time></trkpt><trkpt lat="44.37890421439264" lon="11.99765147562142"><ele>12.0</ele><time>2026-04-26T15:23:41.002Z</time></trkpt><trkpt lat="44.37895309687939" lon="11.99777151668801"><ele>12.0</ele><time>2026-04-26T15:23:43.002Z</time></trkpt><trkpt lat="44.379004037434136" lon="11.997895081875308"><ele>12.0</ele><time>2026-04-26T15:23:45.002Z</time></trkpt><trkpt lat="44.37905490824048" lon="11.998024750097997"><ele>12.0</ele><time>2026-04-26T15:23:47.002Z</time></trkpt><trkpt lat="44.37910333593332" lon="11.998146393233668"><ele>12.0</ele><time>2026-04-26T15:23:49.002Z</time></trkpt><trkpt lat="44.379151726037136" lon="11.998262047750375"><ele>12.0</ele><time>2026-04-26T15:23:51.002Z</time></trkpt><trkpt lat="44.379198718317944" lon="11.99837831505321"><ele>12.0</ele><time>2026-04-26T15:23:53.002Z</time></trkpt><trkpt lat="44.37924667455373" lon="11.998501993221039"><ele>12.2</ele><time>2026-04-26T15:23:55.002Z</time></trkpt><trkpt lat="44.37929385578308" lon="11.998622275726753"><ele>12.399999999999999</ele><time>2026-04-26T15:23:57.002Z</time></trkpt><trkpt lat="44.379340673587414" lon="11.998746998683288"><ele>12.600000000000001</ele><time>2026-04-26T15:23:59.002Z</time></trkpt><trkpt lat="44.37938832590991" lon="11.998871496246679"><ele>12.8</ele><time>2026-04-26T15:24:01.002Z</time></trkpt><trkpt lat="44.379433738905114" lon="11.998996194715136"><ele>13.0</ele><time>2026-04-26T15:24:03.002Z</time></trkpt><trkpt lat="44.37948087943499" lon="11.999117932342761"><ele>13.0</ele><time>2026-04-26T15:24:05.002Z</time></trkpt><trkpt lat="44.37952058990427" lon="11.99923964020195"><ele>13.0</ele><time>2026-04-26T15:24:07.002Z</time></trkpt><trkpt lat="44.379554227542386" lon="11.999361460580083"><ele>13.0</ele><time>2026-04-26T15:24:09.002Z</time></trkpt><trkpt lat="44.37959251343384" lon="11.999483820620977"><ele>13.0</ele><time>2026-04-26T15:24:11.002Z</time></trkpt><trkpt lat="44.37962509166268" lon="11.999607396118968"><ele>13.0</ele><time>2026-04-26T15:24:13.003Z</time></trkpt><trkpt lat="44.3796664095835" lon="11.999743404730943"><ele>12.600000000000001</ele><time>2026-04-26T15:24:15.003Z</time></trkpt><trkpt lat="44.37970034297213" lon="11.99987619923464"><ele>12.200000000000001</ele><time>2026-04-26T15:24:17.003Z</time></trkpt><trkpt lat="44.37973724886051" lon="12.000007325351715"><ele>11.8</ele><time>2026-04-26T15:24:19.003Z</time></trkpt><trkpt lat="44.37977172598621" lon="12.000139238184884"><ele>11.4</ele><time>2026-04-26T15:24:21.003Z</time></trkpt><trkpt lat="44.37979442572598" lon="12.000271342582133"><ele>11.0</ele><time>2026-04-26T15:24:23.003Z</time></trkpt><trkpt lat="44.37982392280415" lon="12.000396882149259"><ele>11.0</ele><time>2026-04-26T15:24:25.003Z</time></trkpt><trkpt lat="44.37985043048154" lon="12.000524430332415"><ele>11.0</ele><time>2026-04-26T15:24:27.003Z</time></trkpt><trkpt lat="44.37987939833232" lon="12.000655496176464"><ele>11.0</ele><time>2026-04-26T15:24:29.003Z</time></trkpt><trkpt lat="44.379907862716145" lon="12.000786791550139"><ele>11.0</ele><time>2026-04-26T15:24:31.003Z</time></trkpt><trkpt lat="44.37993606416939" lon="12.000918730399997"><ele>11.0</ele><time>2026-04-26T15:24:33.003Z</time></trkpt><trkpt lat="44.379958219810554" lon="12.001053463613902"><ele>11.0</ele><time>2026-04-26T15:24:35.003Z</time></trkpt><trkpt lat="44.37998485090459" lon="12.001186081472966"><ele>11.0</ele><time>2026-04-26T15:24:37Z</time></trkpt><trkpt lat="44.38001155055319" lon="12.0013152699868"><ele>11.0</ele><time>2026-04-26T15:24:39Z</time></trkpt><trkpt lat="44.38003299054529" lon="12.001443180195587"><ele>11.0</ele><time>2026-04-26T15:24:41Z</time></trkpt><trkpt lat="44.380056305720686" lon="12.001578758681708"><ele>11.0</ele><time>2026-04-26T15:24:43Z</time></trkpt><trkpt lat="44.38007965128861" lon="12.001712958881136"><ele>11.4</ele><time>2026-04-26T15:24:45Z</time></trkpt><trkpt lat="44.38010544397926" lon="12.001853072656866"><ele>11.8</ele><time>2026-04-26T15:24:47Z</time></trkpt><trkpt lat="44.38013113373789" lon="12.00198854425699"><ele>12.200000000000001</ele><time>2026-04-26T15:24:49Z</time></trkpt><trkpt lat="44.380159225429736" lon="12.002119609280546"><ele>12.600000000000001</ele><time>2026-04-26T15:24:51Z</time></trkpt><trkpt lat="44.380186479934615" lon="12.002249920952917"><ele>13.0</ele><time>2026-04-26T15:24:53Z</time></trkpt><trkpt lat="44.38021978188213" lon="12.00238265383688"><ele>13.0</ele><time>2026-04-26T15:24:55Z</time></trkpt><trkpt lat="44.38025255077002" lon="12.002507560683442"><ele>13.0</ele><time>2026-04-26T15:24:57Z</time></trkpt><trkpt lat="44.380287092334605" lon="12.00262878378997"><ele>13.0</ele><time>2026-04-26T15:24:59Z</time></trkpt><trkpt lat="44.38032395461021" lon="12.00274503934641"><ele>13.0</ele><time>2026-04-26T15:25:01Z</time></trkpt><trkpt lat="44.38036688449659" lon="12.002860118160775"><ele>13.0</ele><time>2026-04-26T15:25:03Z</time></trkpt><trkpt lat="44.38041129489417" lon="12.002978059556387"><ele>12.999999999999998</ele><time>2026-04-26T15:25:05.001Z</time></trkpt><trkpt lat="44.38046136612245" lon="12.003086329863748"><ele>13.0</ele><time>2026-04-26T15:25:07.001Z</time></trkpt><trkpt lat="44.380512575306774" lon="12.003189133418308"><ele>13.0</ele><time>2026-04-26T15:25:09.001Z</time></trkpt><trkpt lat="44.38056000211903" lon="12.003298731315638"><ele>13.0</ele><time>2026-04-26T15:25:11.001Z</time></trkpt><trkpt lat="44.38060596427366" lon="12.00339724063301"><ele>12.999999999999998</ele><time>2026-04-26T15:25:13.001Z</time></trkpt><trkpt lat="44.380653263304616" lon="12.003479398701131"><ele>13.0</ele><time>2026-04-26T15:25:15.001Z</time></trkpt><trkpt lat="44.38071073765776" lon="12.003554402436418"><ele>13.166666666666666</ele><time>2026-04-26T15:25:18.001Z</time></trkpt><trkpt lat="44.380770952046184" lon="12.003595606323133"><ele>13.333333333333332</ele><time>2026-04-26T15:25:20.001Z</time></trkpt><trkpt lat="44.38085084315837" lon="12.00364363871368"><ele>13.5</ele><time>2026-04-26T15:25:22.001Z</time></trkpt><trkpt lat="44.380914582149515" lon="12.003702821830155"><ele>13.666666666666668</ele><time>2026-04-26T15:25:24.001Z</time></trkpt><trkpt lat="44.38097737337826" lon="12.003763333227107"><ele>13.833333333333334</ele><time>2026-04-26T15:25:26.001Z</time></trkpt><trkpt lat="44.38103409519147" lon="12.0038399344999"><ele>14.0</ele><time>2026-04-26T15:25:28.001Z</time></trkpt><trkpt lat="44.38108785744924" lon="12.00392467513635"><ele>14.000000000000002</ele><time>2026-04-26T15:25:30.001Z</time></trkpt><trkpt lat="44.381144234309374" lon="12.004015637161583"><ele>14.0</ele><time>2026-04-26T15:25:32.001Z</time></trkpt><trkpt lat="44.38119759474353" lon="12.004084024524202"><ele>14.0</ele><time>2026-04-26T15:25:34.001Z</time></trkpt><trkpt lat="44.38123960976758" lon="12.004161939693127"><ele>14.0</ele><time>2026-04-26T15:25:36.001Z</time></trkpt><trkpt lat="44.38130669121215" lon="12.004207275843777"><ele>14.000000000000002</ele><time>2026-04-26T15:25:38.001Z</time></trkpt><trkpt lat="44.38139563407992" lon="12.004237144935459"><ele>14.0</ele><time>2026-04-26T15:25:40.001Z</time></trkpt><trkpt lat="44.38149278248522" lon="12.004239631115276"><ele>14.0</ele><time>2026-04-26T15:25:42.001Z</time></trkpt><trkpt lat="44.38159709844475" lon="12.004222928216274"><ele>14.0</ele><time>2026-04-26T15:25:44.002Z</time></trkpt><trkpt lat="44.38170767609341" lon="12.004202502996211"><ele>14.0</ele><time>2026-04-26T15:25:46.002Z</time></trkpt><trkpt lat="44.38182327881731" lon="12.004164803804732"><ele>14.0</ele><time>2026-04-26T15:25:48.002Z</time></trkpt><trkpt lat="44.381937706465294" lon="12.004116342533216"><ele>14.0</ele><time>2026-04-26T15:25:50.002Z</time></trkpt><trkpt lat="44.381995370813954" lon="12.004080605070948"><ele>13.999999999999998</ele><time>2026-04-26T15:25:51.002Z</time></trkpt><trkpt lat="44.38209684813431" lon="12.0040103284799"><ele>13.999999999999998</ele><time>2026-04-26T15:25:53.002Z</time></trkpt><trkpt lat="44.38219053415097" lon="12.00393077059202"><ele>14.0</ele><time>2026-04-26T15:25:55.002Z</time></trkpt><trkpt lat="44.38228043204782" lon="12.003830200543815"><ele>14.0</ele><time>2026-04-26T15:25:57.002Z</time></trkpt><trkpt lat="44.3823615094043" lon="12.00371034967242"><ele>13.799999999999999</ele><time>2026-04-26T15:25:59.002Z</time></trkpt><trkpt lat="44.3824024145392" lon="12.003642840097307"><ele>13.599999999999998</ele><time>2026-04-26T15:26:00.002Z</time></trkpt><trkpt lat="44.3824642053382" lon="12.003502520799598"><ele>13.4</ele><time>2026-04-26T15:26:02.002Z</time></trkpt><trkpt lat="44.38251432076078" lon="12.003359757704901"><ele>13.2</ele><time>2026-04-26T15:26:04.002Z</time></trkpt><trkpt lat="44.38256848288099" lon="12.003232079828454"><ele>13.0</ele><time>2026-04-26T15:26:06.002Z</time></trkpt><trkpt lat="44.38262008727987" lon="12.003088145469716"><ele>12.8</ele><time>2026-04-26T15:26:08.002Z</time></trkpt><trkpt lat="44.38266908677704" lon="12.002955855654998"><ele>12.600000000000001</ele><time>2026-04-26T15:26:10.002Z</time></trkpt><trkpt lat="44.38271511468496" lon="12.002816160328814"><ele>12.399999999999999</ele><time>2026-04-26T15:26:12.002Z</time></trkpt><trkpt lat="44.3827570575935" lon="12.002677162018472"><ele>12.2</ele><time>2026-04-26T15:26:14.002Z</time></trkpt><trkpt lat="44.38280236662597" lon="12.002532194773192"><ele>12.0</ele><time>2026-04-26T15:26:16.002Z</time></trkpt><trkpt lat="44.38285069989402" lon="12.002398835022275"><ele>11.8</ele><time>2026-04-26T15:26:18.002Z</time></trkpt><trkpt lat="44.38289960519015" lon="12.002251680540548"><ele>11.6</ele><time>2026-04-26T15:26:20.002Z</time></trkpt><trkpt lat="44.38294369547951" lon="12.002116854058235"><ele>11.4</ele><time>2026-04-26T15:26:22.003Z</time></trkpt><trkpt lat="44.382984184354996" lon="12.001978192685456"><ele>11.200000000000001</ele><time>2026-04-26T15:26:24.003Z</time></trkpt><trkpt lat="44.383024825851564" lon="12.001836875716261"><ele>11.0</ele><time>2026-04-26T15:26:26.003Z</time></trkpt><trkpt lat="44.38307617297385" lon="12.001713022381647"><ele>10.600000000000001</ele><time>2026-04-26T15:26:28.003Z</time></trkpt><trkpt lat="44.38314389995871" lon="12.001612297970384"><ele>10.200000000000001</ele><time>2026-04-26T15:26:30.003Z</time></trkpt><trkpt lat="44.383212450616085" lon="12.001503755736094"><ele>9.8</ele><time>2026-04-26T15:26:32.003Z</time></trkpt><trkpt lat="44.38329411035199" lon="12.00141447586335"><ele>9.4</ele><time>2026-04-26T15:26:34.003Z</time></trkpt><trkpt lat="44.38338709542659" lon="12.00135493177471"><ele>9.0</ele><time>2026-04-26T15:26:36.003Z</time></trkpt><trkpt lat="44.383485070536935" lon="12.0013200637899"><ele>9.0</ele><time>2026-04-26T15:26:38.003Z</time></trkpt><trkpt lat="44.383586350197604" lon="12.001284278913868"><ele>9.0</ele><time>2026-04-26T15:26:40.003Z</time></trkpt><trkpt lat="44.38368727346309" lon="12.001286141921511"><ele>9.0</ele><time>2026-04-26T15:26:42.003Z</time></trkpt><trkpt lat="44.38378739172379" lon="12.001312297780228"><ele>9.0</ele><time>2026-04-26T15:26:44Z</time></trkpt><trkpt lat="44.383887778053335" lon="12.001352451470426"><ele>9.0</ele><time>2026-04-26T15:26:46Z</time></trkpt><trkpt lat="44.38397178287411" lon="12.001426420432672"><ele>9.2</ele><time>2026-04-26T15:26:48Z</time></trkpt><trkpt lat="44.38405564284774" lon="12.001509084736291"><ele>9.4</ele><time>2026-04-26T15:26:50Z</time></trkpt><trkpt lat="44.38414026534109" lon="12.001592076767508"><ele>9.6</ele><time>2026-04-26T15:26:52Z</time></trkpt><trkpt lat="44.384215127462724" lon="12.001672813940433"><ele>9.8</ele><time>2026-04-26T15:26:54Z</time></trkpt><trkpt lat="44.38428962495908" lon="12.001756025812291"><ele>10.0</ele><time>2026-04-26T15:26:56Z</time></trkpt><trkpt lat="44.384364842740865" lon="12.001840534694724"><ele>9.8</ele><time>2026-04-26T15:26:58Z</time></trkpt><trkpt lat="44.38443821614089" lon="12.001928428408025"><ele>9.6</ele><time>2026-04-26T15:27:00Z</time></trkpt><trkpt lat="44.384510162169384" lon="12.002007483128986"><ele>9.4</ele><time>2026-04-26T15:27:02Z</time></trkpt><trkpt lat="44.38458285804869" lon="12.002095844434445"><ele>9.2</ele><time>2026-04-26T15:27:04Z</time></trkpt><trkpt lat="44.384641562210184" lon="12.002194792053144"><ele>9.0</ele><time>2026-04-26T15:27:06Z</time></trkpt><trkpt lat="44.384695542213464" lon="12.002297824313008"><ele>9.0</ele><time>2026-04-26T15:27:08Z</time></trkpt><trkpt lat="44.38474337323784" lon="12.002406718964757"><ele>9.0</ele><time>2026-04-26T15:27:10Z</time></trkpt><trkpt lat="44.38478561290269" lon="12.002517218349869"><ele>9.0</ele><time>2026-04-26T15:27:12Z</time></trkpt><trkpt lat="44.384826354608535" lon="12.002619973756188"><ele>9.0</ele><time>2026-04-26T15:27:14.001Z</time></trkpt><trkpt lat="44.384864538217556" lon="12.002725373224555"><ele>9.0</ele><time>2026-04-26T15:27:16.001Z</time></trkpt><trkpt lat="44.384899979416375" lon="12.002837163541539"><ele>9.0</ele><time>2026-04-26T15:27:18.001Z</time></trkpt><trkpt lat="44.38493721654306" lon="12.002958674752927"><ele>9.4</ele><time>2026-04-26T15:27:20.001Z</time></trkpt><trkpt lat="44.38497393075918" lon="12.003088580239101"><ele>9.8</ele><time>2026-04-26T15:27:22.001Z</time></trkpt><trkpt lat="44.385008203246585" lon="12.0032221758993"><ele>10.200000000000001</ele><time>2026-04-26T15:27:24.001Z</time></trkpt><trkpt lat="44.385040652728414" lon="12.003356759492883"><ele>10.600000000000001</ele><time>2026-04-26T15:27:26.001Z</time></trkpt><trkpt lat="44.385070845201824" lon="12.003496867863431"><ele>11.0</ele><time>2026-04-26T15:27:28.001Z</time></trkpt><trkpt lat="44.38509890850517" lon="12.00363651366593"><ele>11.4</ele><time>2026-04-26T15:27:30.001Z</time></trkpt><trkpt lat="44.38512763608324" lon="12.003775813062942"><ele>11.8</ele><time>2026-04-26T15:27:32.001Z</time></trkpt><trkpt lat="44.385156378446844" lon="12.003912989340977"><ele>12.200000000000001</ele><time>2026-04-26T15:27:34.001Z</time></trkpt><trkpt lat="44.38518407025713" lon="12.004056890752441"><ele>12.600000000000001</ele><time>2026-04-26T15:27:36.001Z</time></trkpt><trkpt lat="44.38521001606556" lon="12.00419861202519"><ele>13.0</ele><time>2026-04-26T15:27:38.001Z</time></trkpt><trkpt lat="44.3852379248598" lon="12.004341699803483"><ele>13.0</ele><time>2026-04-26T15:27:40.001Z</time></trkpt><trkpt lat="44.38526358344913" lon="12.004486166737042"><ele>13.0</ele><time>2026-04-26T15:27:42.001Z</time></trkpt><trkpt lat="44.385293551799194" lon="12.00462304555998"><ele>13.0</ele><time>2026-04-26T15:27:44.001Z</time></trkpt><trkpt lat="44.38532468902438" lon="12.004761270291164"><ele>13.0</ele><time>2026-04-26T15:27:46.001Z</time></trkpt><trkpt lat="44.38536001907326" lon="12.004903738495711"><ele>13.0</ele><time>2026-04-26T15:27:48.001Z</time></trkpt><trkpt lat="44.38539467483111" lon="12.005047125368272"><ele>13.0</ele><time>2026-04-26T15:27:50.001Z</time></trkpt><trkpt lat="44.385428718295586" lon="12.005193921009425"><ele>13.0</ele><time>2026-04-26T15:27:52.002Z</time></trkpt><trkpt lat="44.38546213909556" lon="12.005333885900923"><ele>13.0</ele><time>2026-04-26T15:27:54.002Z</time></trkpt><trkpt lat="44.38549352997499" lon="12.005474737761848"><ele>13.0</ele><time>2026-04-26T15:27:56.002Z</time></trkpt><trkpt lat="44.38553003340577" lon="12.005617776445161"><ele>13.0</ele><time>2026-04-26T15:27:58.002Z</time></trkpt><trkpt lat="44.38556219550191" lon="12.005754626860236"><ele>12.8</ele><time>2026-04-26T15:28:00.002Z</time></trkpt><trkpt lat="44.38559135053068" lon="12.005880269157386"><ele>12.600000000000001</ele><time>2026-04-26T15:28:02.002Z</time></trkpt><trkpt lat="44.38561816959105" lon="12.006003024732486"><ele>12.399999999999999</ele><time>2026-04-26T15:28:04.002Z</time></trkpt><trkpt lat="44.385648510987686" lon="12.006132210223898"><ele>12.2</ele><time>2026-04-26T15:28:06.002Z</time></trkpt><trkpt lat="44.38568408022365" lon="12.006268074958015"><ele>12.0</ele><time>2026-04-26T15:28:08.002Z</time></trkpt><trkpt lat="44.385721165349956" lon="12.006399920512598"><ele>12.0</ele><time>2026-04-26T15:28:10.002Z</time></trkpt><trkpt lat="44.38575664112158" lon="12.006533917417867"><ele>12.0</ele><time>2026-04-26T15:28:12.002Z</time></trkpt><trkpt lat="44.38580047774444" lon="12.006666882554446"><ele>12.0</ele><time>2026-04-26T15:28:14.002Z</time></trkpt><trkpt lat="44.38585336137705" lon="12.00680372735928"><ele>12.0</ele><time>2026-04-26T15:28:16.002Z</time></trkpt><trkpt lat="44.38590917669172" lon="12.006934809193352"><ele>12.0</ele><time>2026-04-26T15:28:18.002Z</time></trkpt><trkpt lat="44.385961060859294" lon="12.007062009667031"><ele>11.8</ele><time>2026-04-26T15:28:20.002Z</time></trkpt><trkpt lat="44.386020812223094" lon="12.00718510867736"><ele>11.6</ele><time>2026-04-26T15:28:22.002Z</time></trkpt><trkpt lat="44.38607333723141" lon="12.007296376210437"><ele>11.4</ele><time>2026-04-26T15:28:24.002Z</time></trkpt><trkpt lat="44.38611548944826" lon="12.007389690876296"><ele>11.200000000000001</ele><time>2026-04-26T15:28:26.002Z</time></trkpt><trkpt lat="44.38617290307848" lon="12.007490392189734"><ele>11.0</ele><time>2026-04-26T15:28:29.002Z</time></trkpt><trkpt lat="44.38623908443449" lon="12.007569403272909"><ele>11.0</ele><time>2026-04-26T15:28:32.003Z</time></trkpt><trkpt lat="44.38630001508367" lon="12.007610429837724"><ele>11.0</ele><time>2026-04-26T15:28:35.003Z</time></trkpt><trkpt lat="44.38639508155869" lon="12.007640844587158"><ele>11.0</ele><time>2026-04-26T15:28:38.003Z</time></trkpt><trkpt lat="44.38646553151826" lon="12.007638530839822"><ele>11.0</ele><time>2026-04-26T15:28:40.003Z</time></trkpt><trkpt lat="44.38653799983939" lon="12.007646303166284"><ele>11.0</ele><time>2026-04-26T15:28:42.003Z</time></trkpt><trkpt lat="44.38660583376461" lon="12.007636765834242"><ele>11.0</ele><time>2026-04-26T15:30:03.002Z</time></trkpt><trkpt lat="44.3866819353324" lon="12.00765702883968"><ele>11.0</ele><time>2026-04-26T15:30:05.002Z</time></trkpt><trkpt lat="44.38676555655956" lon="12.00767511563135"><ele>11.0</ele><time>2026-04-26T15:30:07.002Z</time></trkpt><trkpt lat="44.38685637095081" lon="12.007709357532319"><ele>11.0</ele><time>2026-04-26T15:30:09.002Z</time></trkpt><trkpt lat="44.38695320942885" lon="12.007754315616129"><ele>11.0</ele><time>2026-04-26T15:30:11.002Z</time></trkpt><trkpt lat="44.38705027494911" lon="12.007806271906277"><ele>11.0</ele><time>2026-04-26T15:30:13.002Z</time></trkpt><trkpt lat="44.387147366573096" lon="12.007857376345902"><ele>11.0</ele><time>2026-04-26T15:30:15.002Z</time></trkpt><trkpt lat="44.3872444085956" lon="12.007907922279443"><ele>11.0</ele><time>2026-04-26T15:30:17.002Z</time></trkpt><trkpt lat="44.387338439572" lon="12.007959387555587"><ele>11.0</ele><time>2026-04-26T15:30:19.002Z</time></trkpt><trkpt lat="44.387429940275105" lon="12.00800988136762"><ele>11.0</ele><time>2026-04-26T15:30:21.002Z</time></trkpt><trkpt lat="44.38752571664396" lon="12.008056066654728"><ele>11.0</ele><time>2026-04-26T15:30:23.002Z</time></trkpt><trkpt lat="44.387613382070555" lon="12.008106482487964"><ele>11.0</ele><time>2026-04-26T15:30:25.002Z</time></trkpt><trkpt lat="44.38769820587208" lon="12.00815739831935"><ele>11.0</ele><time>2026-04-26T15:30:27.002Z</time></trkpt><trkpt lat="44.38779131975978" lon="12.008198631812531"><ele>11.0</ele><time>2026-04-26T15:30:29.002Z</time></trkpt><trkpt lat="44.387877492539246" lon="12.008242473619495"><ele>11.0</ele><time>2026-04-26T15:30:31.002Z</time></trkpt><trkpt lat="44.38795199045959" lon="12.008280658432923"><ele>11.0</ele><time>2026-04-26T15:30:33.002Z</time></trkpt><trkpt lat="44.38804168502016" lon="12.008334621664597"><ele>10.571428571428571</ele><time>2026-04-26T15:30:36.002Z</time></trkpt><trkpt lat="44.38811343493389" lon="12.008372357302955"><ele>10.142857142857142</ele><time>2026-04-26T15:30:38.003Z</time></trkpt><trkpt lat="44.38818076362642" lon="12.008397453119878"><ele>9.714285714285714</ele><time>2026-04-26T15:30:40.003Z</time></trkpt><trkpt lat="44.38824612107816" lon="12.008430504465425"><ele>9.285714285714285</ele><time>2026-04-26T15:30:42.003Z</time></trkpt><trkpt lat="44.38831387505685" lon="12.008474364226998"><ele>8.857142857142856</ele><time>2026-04-26T15:30:44.003Z</time></trkpt><trkpt lat="44.38838295753284" lon="12.008513029552887"><ele>8.428571428571429</ele><time>2026-04-26T15:30:46.003Z</time></trkpt><trkpt lat="44.38844287754603" lon="12.008554530065046"><ele>8.0</ele><time>2026-04-26T15:30:48.003Z</time></trkpt><trkpt lat="44.38849837236296" lon="12.008596123885972"><ele>8.0</ele><time>2026-04-26T15:30:50.003Z</time></trkpt><trkpt lat="44.388609818774455" lon="12.008469459820752"><ele>8.0</ele><time>2026-04-26T15:30:51.003Z</time></trkpt><trkpt lat="44.38867241713759" lon="12.008535999875491"><ele>8.0</ele><time>2026-04-26T15:30:54.003Z</time></trkpt><trkpt lat="44.38874236313015" lon="12.008609572364294"><ele>8.0</ele><time>2026-04-26T15:30:57.001Z</time></trkpt><trkpt lat="44.3887969152685" lon="12.008667878661077"><ele>8.0</ele><time>2026-04-26T15:31:00.001Z</time></trkpt><trkpt lat="44.388869434372175" lon="12.008746990418162"><ele>7.999999999999999</ele><time>2026-04-26T15:31:09Z</time></trkpt><trkpt lat="44.38892699450284" lon="12.00880978329512"><ele>8.0</ele><time>2026-04-26T15:31:11.001Z</time></trkpt><trkpt lat="44.38899998695903" lon="12.008889411437071"><ele>8.0</ele><time>2026-04-26T15:31:13.001Z</time></trkpt><trkpt lat="44.389070565283305" lon="12.008968238865105"><ele>8.0</ele><time>2026-04-26T15:31:15.001Z</time></trkpt><trkpt lat="44.38914133350059" lon="12.009048273441824"><ele>7.999999999999999</ele><time>2026-04-26T15:31:17.001Z</time></trkpt><trkpt lat="44.38920490189706" lon="12.009127534143548"><ele>8.0</ele><time>2026-04-26T15:31:19.001Z</time></trkpt><trkpt lat="44.38926447461792" lon="12.009209985458435"><ele>7.833333333333333</ele><time>2026-04-26T15:31:21.001Z</time></trkpt><trkpt lat="44.38932278104208" lon="12.009291893014263"><ele>7.666666666666666</ele><time>2026-04-26T15:31:23.001Z</time></trkpt><trkpt lat="44.389389998683626" lon="12.00938921011826"><ele>7.5</ele><time>2026-04-26T15:31:25.001Z</time></trkpt><trkpt lat="44.38944132007936" lon="12.00946881088993"><ele>7.333333333333334</ele><time>2026-04-26T15:31:27.001Z</time></trkpt><trkpt lat="44.389478403351156" lon="12.009576567376115"><ele>7.166666666666667</ele><time>2026-04-26T15:31:29.001Z</time></trkpt><trkpt lat="44.389510539302194" lon="12.009687462258679"><ele>7.0</ele><time>2026-04-26T15:31:31.001Z</time></trkpt><trkpt lat="44.389172134234286" lon="12.010257475254413"><ele>7.3999999999999995</ele><time>2026-04-26T15:31:33.001Z</time></trkpt><trkpt lat="44.38918782448184" lon="12.010388882543994"><ele>7.799999999999999</ele><time>2026-04-26T15:31:35.001Z</time></trkpt><trkpt lat="44.38919928157606" lon="12.01051183132919"><ele>8.2</ele><time>2026-04-26T15:31:37.001Z</time></trkpt><trkpt lat="44.38921674161298" lon="12.010638800087653"><ele>8.6</ele><time>2026-04-26T15:31:39.001Z</time></trkpt><trkpt lat="44.389235405544895" lon="12.010771168160364"><ele>9.0</ele><time>2026-04-26T15:31:41.001Z</time></trkpt><trkpt lat="44.389244517960925" lon="12.010888654918386"><ele>9.333333333333334</ele><time>2026-04-26T15:31:43.001Z</time></trkpt><trkpt lat="44.389258097774274" lon="12.011007847002759"><ele>9.666666666666666</ele><time>2026-04-26T15:31:45.001Z</time></trkpt><trkpt lat="44.389274640612015" lon="12.011129141006926"><ele>10.0</ele><time>2026-04-26T15:31:47.001Z</time></trkpt><trkpt lat="44.38928272178927" lon="12.011248618560565"><ele>10.333333333333332</ele><time>2026-04-26T15:31:49.001Z</time></trkpt><trkpt lat="44.38929134258281" lon="12.011362344635508"><ele>10.666666666666666</ele><time>2026-04-26T15:31:51.001Z</time></trkpt><trkpt lat="44.38930237032883" lon="12.011479279355994"><ele>11.0</ele><time>2026-04-26T15:31:53.001Z</time></trkpt><trkpt lat="44.38931490893754" lon="12.011603865642845"><ele>11.166666666666666</ele><time>2026-04-26T15:31:55.001Z</time></trkpt><trkpt lat="44.38932489644606" lon="12.011725795633337"><ele>11.333333333333332</ele><time>2026-04-26T15:31:57.001Z</time></trkpt><trkpt lat="44.38933574262973" lon="12.01184461627359"><ele>11.5</ele><time>2026-04-26T15:31:59.001Z</time></trkpt><trkpt lat="44.38935295758383" lon="12.011963318105852"><ele>11.666666666666666</ele><time>2026-04-26T15:32:01.002Z</time></trkpt><trkpt lat="44.38938154550748" lon="12.012077379685168"><ele>11.833333333333334</ele><time>2026-04-26T15:32:03.002Z</time></trkpt><trkpt lat="44.38941918180353" lon="12.012192574849578"><ele>12.0</ele><time>2026-04-26T15:32:05.002Z</time></trkpt><trkpt lat="44.38946804166073" lon="12.012307733422007"><ele>12.0</ele><time>2026-04-26T15:32:07.002Z</time></trkpt><trkpt lat="44.389504005919534" lon="12.012423423061225"><ele>12.0</ele><time>2026-04-26T15:32:09.002Z</time></trkpt><trkpt lat="44.389557339898936" lon="12.01252992486792"><ele>12.0</ele><time>2026-04-26T15:32:11.002Z</time></trkpt><trkpt lat="44.389616598096445" lon="12.012628744770604"><ele>12.0</ele><time>2026-04-26T15:32:13.002Z</time></trkpt><trkpt lat="44.389667743966676" lon="12.01272529629057"><ele>12.0</ele><time>2026-04-26T15:32:15.002Z</time></trkpt><trkpt lat="44.38972918674295" lon="12.01280371434842"><ele>12.0</ele><time>2026-04-26T15:32:17.002Z</time></trkpt><trkpt lat="44.38980784598429" lon="12.012873387366001"><ele>11.6</ele><time>2026-04-26T15:32:19.002Z</time></trkpt><trkpt lat="44.38988393152569" lon="12.012930962577958"><ele>11.2</ele><time>2026-04-26T15:32:21.002Z</time></trkpt><trkpt lat="44.389962359697016" lon="12.012987475978939"><ele>10.8</ele><time>2026-04-26T15:32:23.002Z</time></trkpt><trkpt lat="44.39004553805253" lon="12.01303598695878"><ele>10.4</ele><time>2026-04-26T15:32:25.002Z</time></trkpt><trkpt lat="44.39013311705986" lon="12.01308811327899"><ele>10.0</ele><time>2026-04-26T15:32:27.002Z</time></trkpt><trkpt lat="44.3902208892011" lon="12.013138855476498"><ele>10.0</ele><time>2026-04-26T15:32:29.002Z</time></trkpt><trkpt lat="44.3903042012447" lon="12.013175063894208"><ele>10.0</ele><time>2026-04-26T15:32:31.002Z</time></trkpt><trkpt lat="44.39039810884205" lon="12.0131854624599"><ele>10.0</ele><time>2026-04-26T15:32:33.002Z</time></trkpt><trkpt lat="44.390490103783385" lon="12.013193087187132"><ele>10.0</ele><time>2026-04-26T15:32:35.002Z</time></trkpt><trkpt lat="44.390580166085755" lon="12.013190148010834"><ele>10.0</ele><time>2026-04-26T15:32:37.002Z</time></trkpt><trkpt lat="44.390644949534504" lon="12.013183220148841"><ele>10.0</ele><time>2026-04-26T15:32:39.002Z</time></trkpt><trkpt lat="44.39073845019474" lon="12.013222798440514"><ele>10.0</ele><time>2026-04-26T15:32:42.003Z</time></trkpt><trkpt lat="44.39082251115543" lon="12.013268619818374"><ele>10.0</ele><time>2026-04-26T15:32:44.003Z</time></trkpt><trkpt lat="44.39091933587129" lon="12.01330771545276"><ele>10.0</ele><time>2026-04-26T15:32:46.003Z</time></trkpt><trkpt lat="44.39102390769628" lon="12.013342682974363"><ele>10.0</ele><time>2026-04-26T15:32:48.003Z</time></trkpt><trkpt lat="44.391133145079785" lon="12.013389150025807"><ele>10.0</ele><time>2026-04-26T15:32:50.003Z</time></trkpt><trkpt lat="44.391244318791294" lon="12.013433069778392"><ele>9.6</ele><time>2026-04-26T15:32:52.003Z</time></trkpt><trkpt lat="44.39135327989853" lon="12.013477352602312"><ele>9.2</ele><time>2026-04-26T15:32:54.003Z</time></trkpt><trkpt lat="44.39145260636882" lon="12.013525923706586"><ele>8.8</ele><time>2026-04-26T15:32:56.003Z</time></trkpt><trkpt lat="44.39155663724402" lon="12.013578526790601"><ele>8.4</ele><time>2026-04-26T15:32:58.003Z</time></trkpt><trkpt lat="44.39166189244883" lon="12.01363323026733"><ele>8.0</ele><time>2026-04-26T15:33:00.003Z</time></trkpt><trkpt lat="44.391763147612686" lon="12.0136845017285"><ele>8.0</ele><time>2026-04-26T15:33:02Z</time></trkpt><trkpt lat="44.391862949690065" lon="12.01373823793033"><ele>8.0</ele><time>2026-04-26T15:33:04Z</time></trkpt><trkpt lat="44.39196317791171" lon="12.013790358835486"><ele>8.0</ele><time>2026-04-26T15:33:06Z</time></trkpt><trkpt lat="44.39206515028955" lon="12.013847595810041"><ele>8.0</ele><time>2026-04-26T15:33:08Z</time></trkpt><trkpt lat="44.39216928685615" lon="12.0139063058954"><ele>8.0</ele><time>2026-04-26T15:33:10Z</time></trkpt><trkpt lat="44.39227248120319" lon="12.013961578789557"><ele>7.800000000000001</ele><time>2026-04-26T15:33:12Z</time></trkpt><trkpt lat="44.39237114957338" lon="12.014022182533918"><ele>7.6000000000000005</ele><time>2026-04-26T15:33:14Z</time></trkpt><trkpt lat="44.392461252707605" lon="12.014088330251246"><ele>7.3999999999999995</ele><time>2026-04-26T15:33:16Z</time></trkpt><trkpt lat="44.39255318559738" lon="12.01415122159501"><ele>7.199999999999999</ele><time>2026-04-26T15:33:18Z</time></trkpt><trkpt lat="44.392644781717586" lon="12.014217417027396"><ele>7.0</ele><time>2026-04-26T15:33:20Z</time></trkpt><trkpt lat="44.3927334874589" lon="12.014285659283555"><ele>7.0</ele><time>2026-04-26T15:33:22Z</time></trkpt><trkpt lat="44.392824305304366" lon="12.014354571790273"><ele>6.999999999999999</ele><time>2026-04-26T15:33:24Z</time></trkpt><trkpt lat="44.392911547828" lon="12.014423879746092"><ele>6.999999999999999</ele><time>2026-04-26T15:33:26Z</time></trkpt><trkpt lat="44.39299749730655" lon="12.014491654099228"><ele>7.0</ele><time>2026-04-26T15:33:28Z</time></trkpt><trkpt lat="44.39307548636819" lon="12.014558217395717"><ele>7.0</ele><time>2026-04-26T15:33:30Z</time></trkpt><trkpt lat="44.39315157688718" lon="12.014626682784534"><ele>7.199999999999999</ele><time>2026-04-26T15:33:32Z</time></trkpt><trkpt lat="44.39323290774308" lon="12.014692213107427"><ele>7.3999999999999995</ele><time>2026-04-26T15:33:34Z</time></trkpt><trkpt lat="44.39331007163717" lon="12.014757545216344"><ele>7.6000000000000005</ele><time>2026-04-26T15:33:36.001Z</time></trkpt><trkpt lat="44.393393912417174" lon="12.0148251854321"><ele>7.800000000000001</ele><time>2026-04-26T15:33:38.001Z</time></trkpt><trkpt lat="44.39347865676559" lon="12.014893108527962"><ele>8.0</ele><time>2026-04-26T15:33:40.001Z</time></trkpt><trkpt lat="44.39355682823837" lon="12.014962590050647"><ele>7.999999999999999</ele><time>2026-04-26T15:33:42.001Z</time></trkpt><trkpt lat="44.393641109401806" lon="12.015031614152404"><ele>8.0</ele><time>2026-04-26T15:33:44.001Z</time></trkpt><trkpt lat="44.39371857677151" lon="12.015099809823127"><ele>8.0</ele><time>2026-04-26T15:33:46.001Z</time></trkpt><trkpt lat="44.39379240121327" lon="12.015162932302204"><ele>8.0</ele><time>2026-04-26T15:33:48.001Z</time></trkpt><trkpt lat="44.39386468880167" lon="12.015225317430279"><ele>7.999999999999999</ele><time>2026-04-26T15:33:50.001Z</time></trkpt><trkpt lat="44.39392801959561" lon="12.01528506676841"><ele>8.0</ele><time>2026-04-26T15:33:52.001Z</time></trkpt><trkpt lat="44.3940056250803" lon="12.01532103029132"><ele>8.0</ele><time>2026-04-26T15:33:54.001Z</time></trkpt><trkpt lat="44.39407808682803" lon="12.015380735697436"><ele>8.0</ele><time>2026-04-26T15:33:56.001Z</time></trkpt><trkpt lat="44.39415083242723" lon="12.015451647984706"><ele>8.0</ele><time>2026-04-26T15:33:58.001Z</time></trkpt><trkpt lat="44.39422822440533" lon="12.015519711899152"><ele>8.0</ele><time>2026-04-26T15:34:00.001Z</time></trkpt><trkpt lat="44.394310588394" lon="12.015588537946057"><ele>8.0</ele><time>2026-04-26T15:34:02.001Z</time></trkpt><trkpt lat="44.39438531658854" lon="12.015657466474952"><ele>8.0</ele><time>2026-04-26T15:34:04.001Z</time></trkpt><trkpt lat="44.39446872094183" lon="12.015725969300712"><ele>8.0</ele><time>2026-04-26T15:34:06.001Z</time></trkpt><trkpt lat="44.394548647297434" lon="12.01579420469391"><ele>8.0</ele><time>2026-04-26T15:34:08.001Z</time></trkpt><trkpt lat="44.39462405393127" lon="12.01586099023158"><ele>8.0</ele><time>2026-04-26T15:34:10.001Z</time></trkpt><trkpt lat="44.39469850954308" lon="12.01592892108021"><ele>8.0</ele><time>2026-04-26T15:34:12.001Z</time></trkpt><trkpt lat="44.39477607495181" lon="12.015994368339085"><ele>8.200000000000001</ele><time>2026-04-26T15:34:14.001Z</time></trkpt><trkpt lat="44.39485533123799" lon="12.016059775750726"><ele>8.4</ele><time>2026-04-26T15:34:16.002Z</time></trkpt><trkpt lat="44.394932054485956" lon="12.016132625031672"><ele>8.600000000000001</ele><time>2026-04-26T15:34:18.002Z</time></trkpt><trkpt lat="44.39500757539429" lon="12.016203001659646"><ele>8.8</ele><time>2026-04-26T15:34:20.002Z</time></trkpt><trkpt lat="44.3950881497157" lon="12.01626341149255"><ele>9.0</ele><time>2026-04-26T15:34:22.002Z</time></trkpt><trkpt lat="44.39516916072006" lon="12.016332087436576"><ele>9.0</ele><time>2026-04-26T15:34:24.002Z</time></trkpt><trkpt lat="44.395248329748455" lon="12.016399118566392"><ele>9.0</ele><time>2026-04-26T15:34:26.002Z</time></trkpt><trkpt lat="44.395325676557874" lon="12.016468473901822"><ele>9.0</ele><time>2026-04-26T15:34:28.002Z</time></trkpt><trkpt lat="44.39540266419346" lon="12.016535957564365"><ele>9.0</ele><time>2026-04-26T15:34:30.002Z</time></trkpt><trkpt lat="44.395485887209084" lon="12.016599354978123"><ele>9.0</ele><time>2026-04-26T15:34:32.002Z</time></trkpt><trkpt lat="44.3955568361037" lon="12.016678365039134"><ele>9.2</ele><time>2026-04-26T15:34:34.002Z</time></trkpt><trkpt lat="44.395640947201926" lon="12.016750754696657"><ele>9.4</ele><time>2026-04-26T15:34:36.002Z</time></trkpt><trkpt lat="44.395724945472544" lon="12.016817357333881"><ele>9.6</ele><time>2026-04-26T15:34:38.002Z</time></trkpt><trkpt lat="44.39581489382066" lon="12.016891610950298"><ele>9.8</ele><time>2026-04-26T15:34:40.002Z</time></trkpt><trkpt lat="44.3958985815089" lon="12.016963967329746"><ele>10.0</ele><time>2026-04-26T15:34:42.002Z</time></trkpt><trkpt lat="44.39598580369722" lon="12.017040621278474"><ele>10.0</ele><time>2026-04-26T15:34:44.002Z</time></trkpt><trkpt lat="44.39607015845085" lon="12.017116425045247"><ele>10.0</ele><time>2026-04-26T15:34:46.002Z</time></trkpt><trkpt lat="44.396149886741554" lon="12.017191431898711"><ele>10.0</ele><time>2026-04-26T15:34:48.002Z</time></trkpt><trkpt lat="44.396237601760966" lon="12.017268694864988"><ele>10.0</ele><time>2026-04-26T15:34:50.002Z</time></trkpt><trkpt lat="44.396319784958365" lon="12.01734519461609"><ele>10.0</ele><time>2026-04-26T15:34:52.002Z</time></trkpt><trkpt lat="44.39640134084548" lon="12.017423494763506"><ele>10.0</ele><time>2026-04-26T15:34:54.002Z</time></trkpt><trkpt lat="44.39648510444501" lon="12.017497796508486"><ele>10.0</ele><time>2026-04-26T15:34:56.003Z</time></trkpt><trkpt lat="44.39656303095938" lon="12.01756694595007"><ele>10.0</ele><time>2026-04-26T15:34:58.003Z</time></trkpt><trkpt lat="44.39663797613245" lon="12.017637502475555"><ele>10.0</ele><time>2026-04-26T15:35:00.003Z</time></trkpt><trkpt lat="44.39671426863458" lon="12.017705158255511"><ele>10.0</ele><time>2026-04-26T15:35:02.003Z</time></trkpt><trkpt lat="44.39679058398635" lon="12.017777983251387"><ele>10.0</ele><time>2026-04-26T15:35:04.003Z</time></trkpt><trkpt lat="44.39686703749494" lon="12.017857402049993"><ele>10.0</ele><time>2026-04-26T15:35:06.003Z</time></trkpt><trkpt lat="44.39694628175233" lon="12.017933295134421"><ele>10.0</ele><time>2026-04-26T15:35:08Z</time></trkpt><trkpt lat="44.39702852852586" lon="12.018013174009859"><ele>10.0</ele><time>2026-04-26T15:35:10Z</time></trkpt><trkpt lat="44.39710693907037" lon="12.018102687558018"><ele>10.0</ele><time>2026-04-26T15:35:12Z</time></trkpt><trkpt lat="44.397174263479364" lon="12.018202139869922"><ele>10.0</ele><time>2026-04-26T15:35:14Z</time></trkpt><trkpt lat="44.39723818253924" lon="12.018304644412623"><ele>10.0</ele><time>2026-04-26T15:35:16Z</time></trkpt><trkpt lat="44.39730230651019" lon="12.018411134828053"><ele>10.0</ele><time>2026-04-26T15:35:18Z</time></trkpt><trkpt lat="44.39736202314958" lon="12.018517425666545"><ele>10.0</ele><time>2026-04-26T15:35:20Z</time></trkpt><trkpt lat="44.39741542214724" lon="12.018623288362368"><ele>10.0</ele><time>2026-04-26T15:35:22Z</time></trkpt><trkpt lat="44.39747574395496" lon="12.018732093355991"><ele>9.8</ele><time>2026-04-26T15:35:24Z</time></trkpt><trkpt lat="44.397531442239796" lon="12.018839742278864"><ele>9.6</ele><time>2026-04-26T15:35:26Z</time></trkpt><trkpt lat="44.39759012741766" lon="12.018947579348865"><ele>9.4</ele><time>2026-04-26T15:35:28Z</time></trkpt><trkpt lat="44.39764454950887" lon="12.019051181303723"><ele>9.2</ele><time>2026-04-26T15:35:30Z</time></trkpt><trkpt lat="44.39770725077324" lon="12.019155674920878"><ele>9.0</ele><time>2026-04-26T15:35:32Z</time></trkpt><trkpt lat="44.39776981373203" lon="12.019259432882498"><ele>9.0</ele><time>2026-04-26T15:35:34Z</time></trkpt><trkpt lat="44.39783479286481" lon="12.01936146845589"><ele>9.0</ele><time>2026-04-26T15:35:36Z</time></trkpt><trkpt lat="44.397899839758985" lon="12.019457471094762"><ele>9.0</ele><time>2026-04-26T15:35:38Z</time></trkpt><trkpt lat="44.397969761221226" lon="12.019545505999433"><ele>9.0</ele><time>2026-04-26T15:35:40Z</time></trkpt><trkpt lat="44.39804290849774" lon="12.019637040991674"><ele>9.0</ele><time>2026-04-26T15:35:42Z</time></trkpt><trkpt lat="44.398121454439455" lon="12.01972174650828"><ele>9.0</ele><time>2026-04-26T15:35:44Z</time></trkpt><trkpt lat="44.39820000991068" lon="12.019803586503341"><ele>9.0</ele><time>2026-04-26T15:35:46.001Z</time></trkpt><trkpt lat="44.39828816694818" lon="12.019878561441997"><ele>9.0</ele><time>2026-04-26T15:35:48.001Z</time></trkpt><trkpt lat="44.39837014428096" lon="12.01994691385441"><ele>9.0</ele><time>2026-04-26T15:35:50.001Z</time></trkpt><trkpt lat="44.39845832032691" lon="12.020022298992302"><ele>9.0</ele><time>2026-04-26T15:35:52.001Z</time></trkpt><trkpt lat="44.39855401972634" lon="12.020096392131913"><ele>9.2</ele><time>2026-04-26T15:35:54.001Z</time></trkpt><trkpt lat="44.39864689317585" lon="12.020167687770124"><ele>9.4</ele><time>2026-04-26T15:35:56.001Z</time></trkpt><trkpt lat="44.39873789144946" lon="12.020246271940687"><ele>9.6</ele><time>2026-04-26T15:35:58.001Z</time></trkpt><trkpt lat="44.39883200955619" lon="12.02032057451494"><ele>9.8</ele><time>2026-04-26T15:36:00.001Z</time></trkpt><trkpt lat="44.398922239218386" lon="12.020392346731901"><ele>10.0</ele><time>2026-04-26T15:36:02.001Z</time></trkpt><trkpt lat="44.399012019633965" lon="12.020465831197901"><ele>10.0</ele><time>2026-04-26T15:36:04.001Z</time></trkpt><trkpt lat="44.39910017851112" lon="12.020541019275184"><ele>10.0</ele><time>2026-04-26T15:36:06.001Z</time></trkpt><trkpt lat="44.39918877671738" lon="12.020610021571198"><ele>10.0</ele><time>2026-04-26T15:36:08.001Z</time></trkpt><trkpt lat="44.399277780617325" lon="12.020679493687256"><ele>10.0</ele><time>2026-04-26T15:36:10.001Z</time></trkpt><trkpt lat="44.39936323546938" lon="12.020749343375476"><ele>10.0</ele><time>2026-04-26T15:36:12.001Z</time></trkpt><trkpt lat="44.39944962893561" lon="12.020818552468667"><ele>9.8</ele><time>2026-04-26T15:36:14.001Z</time></trkpt><trkpt lat="44.399542355520985" lon="12.02089018480032"><ele>9.6</ele><time>2026-04-26T15:36:16.001Z</time></trkpt><trkpt lat="44.39963120798019" lon="12.020959671547265"><ele>9.4</ele><time>2026-04-26T15:36:18.001Z</time></trkpt><trkpt lat="44.39971443434316" lon="12.02102684796097"><ele>9.2</ele><time>2026-04-26T15:36:20.001Z</time></trkpt><trkpt lat="44.399797092461064" lon="12.021089063476364"><ele>9.0</ele><time>2026-04-26T15:36:22.001Z</time></trkpt><trkpt lat="44.399877229994495" lon="12.021169570583448"><ele>9.0</ele><time>2026-04-26T15:36:24.002Z</time></trkpt><trkpt lat="44.39995469440388" lon="12.021240147149777"><ele>9.0</ele><time>2026-04-26T15:36:26.002Z</time></trkpt><trkpt lat="44.40003763991361" lon="12.021318184067901"><ele>9.0</ele><time>2026-04-26T15:36:28.002Z</time></trkpt><trkpt lat="44.400116854031204" lon="12.021393206838466"><ele>9.0</ele><time>2026-04-26T15:36:30.002Z</time></trkpt><trkpt lat="44.4001958749921" lon="12.02147681400537"><ele>9.0</ele><time>2026-04-26T15:36:32.002Z</time></trkpt><trkpt lat="44.40027708507174" lon="12.021561220700582"><ele>9.0</ele><time>2026-04-26T15:36:34.002Z</time></trkpt><trkpt lat="44.400353793415846" lon="12.02164299849411"><ele>9.0</ele><time>2026-04-26T15:36:36.002Z</time></trkpt><trkpt lat="44.40042614902495" lon="12.021728896523332"><ele>9.0</ele><time>2026-04-26T15:36:38.002Z</time></trkpt><trkpt lat="44.40049897307208" lon="12.021809562480543"><ele>9.0</ele><time>2026-04-26T15:36:40.002Z</time></trkpt><trkpt lat="44.40056450509681" lon="12.021890388850183"><ele>9.0</ele><time>2026-04-26T15:36:42.002Z</time></trkpt><trkpt lat="44.400620850746726" lon="12.021957725646992"><ele>9.0</ele><time>2026-04-26T15:36:44.002Z</time></trkpt><trkpt lat="44.400688524355516" lon="12.022037744309662"><ele>8.833333333333334</ele><time>2026-04-26T15:36:47.002Z</time></trkpt><trkpt lat="44.40073889187043" lon="12.022110946467281"><ele>8.666666666666666</ele><time>2026-04-26T15:36:49.002Z</time></trkpt><trkpt lat="44.4008016759633" lon="12.02219492925079"><ele>8.5</ele><time>2026-04-26T15:36:51.002Z</time></trkpt><trkpt lat="44.40085820820348" lon="12.022287234031861"><ele>8.333333333333332</ele><time>2026-04-26T15:36:53.002Z</time></trkpt><trkpt lat="44.40091725615201" lon="12.022384276067049"><ele>8.166666666666666</ele><time>2026-04-26T15:36:55.002Z</time></trkpt><trkpt lat="44.400982086722166" lon="12.02248292660588"><ele>8.0</ele><time>2026-04-26T15:36:57.002Z</time></trkpt><trkpt lat="44.4010419513614" lon="12.022578934347907"><ele>7.999999999999999</ele><time>2026-04-26T15:36:59.002Z</time></trkpt><trkpt lat="44.40109860088252" lon="12.022675007275835"><ele>8.0</ele><time>2026-04-26T15:37:01.002Z</time></trkpt><trkpt lat="44.401160044828245" lon="12.022770500732161"><ele>8.0</ele><time>2026-04-26T15:37:03.003Z</time></trkpt><trkpt lat="44.401218242266324" lon="12.022867071044287"><ele>8.0</ele><time>2026-04-26T15:37:05.003Z</time></trkpt><trkpt lat="44.401275673501246" lon="12.02296274492472"><ele>7.999999999999999</ele><time>2026-04-26T15:37:07.003Z</time></trkpt><trkpt lat="44.40133160789237" lon="12.023053791859317"><ele>8.0</ele><time>2026-04-26T15:37:09.003Z</time></trkpt><trkpt lat="44.4013805216299" lon="12.023144399991622"><ele>8.200000000000001</ele><time>2026-04-26T15:37:12.003Z</time></trkpt><trkpt lat="44.401431407720615" lon="12.023224928519989"><ele>8.4</ele><time>2026-04-26T15:37:15.999Z</time></trkpt><trkpt lat="44.401439115384235" lon="12.023331492373547"><ele>8.600000000000001</ele><time>2026-04-26T15:37:25Z</time></trkpt><trkpt lat="44.40141274919502" lon="12.02344512977644"><ele>8.8</ele><time>2026-04-26T15:37:27Z</time></trkpt><trkpt lat="44.40138303617039" lon="12.023586099330482"><ele>9.0</ele><time>2026-04-26T15:37:29Z</time></trkpt><trkpt lat="44.401354334321184" lon="12.023732919194853"><ele>9.166666666666666</ele><time>2026-04-26T15:37:31Z</time></trkpt><trkpt lat="44.40133068697347" lon="12.023871128448718"><ele>9.333333333333334</ele><time>2026-04-26T15:37:33Z</time></trkpt><trkpt lat="44.401307329177996" lon="12.023982351509492"><ele>9.5</ele><time>2026-04-26T15:37:35Z</time></trkpt><trkpt lat="44.40128856835703" lon="12.024069713737227"><ele>9.666666666666668</ele><time>2026-04-26T15:37:37Z</time></trkpt><trkpt lat="44.401268126800325" lon="12.024165594188501"><ele>9.833333333333334</ele><time>2026-04-26T15:37:40Z</time></trkpt><trkpt lat="44.40120596343618" lon="12.024142602441529"><ele>10.0</ele><time>2026-04-26T15:37:43Z</time></trkpt><trkpt lat="44.401162367299825" lon="12.024064575119667"><ele>10.0</ele><time>2026-04-26T15:37:45Z</time></trkpt><trkpt lat="44.40111543758703" lon="12.02397255320662"><ele>10.0</ele><time>2026-04-26T15:37:47Z</time></trkpt><trkpt lat="44.40105630346495" lon="12.023880466032908"><ele>10.0</ele><time>2026-04-26T15:37:49Z</time></trkpt><trkpt lat="44.400979351615014" lon="12.02378155125997"><ele>10.0</ele><time>2026-04-26T15:37:51Z</time></trkpt><trkpt lat="44.4009023929111" lon="12.02366805663104"><ele>10.0</ele><time>2026-04-26T15:37:53Z</time></trkpt><trkpt lat="44.400824481216596" lon="12.023539917150037"><ele>10.0</ele><time>2026-04-26T15:37:55.001Z</time></trkpt><trkpt lat="44.40078526712319" lon="12.02346996561496"><ele>10.0</ele><time>2026-04-26T15:37:56.001Z</time></trkpt><trkpt lat="44.40070531690498" lon="12.023352075180695"><ele>10.0</ele><time>2026-04-26T15:37:58.001Z</time></trkpt><trkpt lat="44.40062505735289" lon="12.023233468299809"><ele>10.0</ele><time>2026-04-26T15:38:00.001Z</time></trkpt><trkpt lat="44.40054959548846" lon="12.023111901740682"><ele>10.0</ele><time>2026-04-26T15:38:02.001Z</time></trkpt><trkpt lat="44.40046903626068" lon="12.023001282459584"><ele>9.8</ele><time>2026-04-26T15:38:04.001Z</time></trkpt><trkpt lat="44.40039254059205" lon="12.022884361898306"><ele>9.6</ele><time>2026-04-26T15:38:06.001Z</time></trkpt><trkpt lat="44.40031554324691" lon="12.022770400395228"><ele>9.4</ele><time>2026-04-26T15:38:08.001Z</time></trkpt><trkpt lat="44.40023735212514" lon="12.022661695313147"><ele>9.2</ele><time>2026-04-26T15:38:10.001Z</time></trkpt><trkpt lat="44.40016290584154" lon="12.022551608188989"><ele>9.0</ele><time>2026-04-26T15:38:12.001Z</time></trkpt><trkpt lat="44.40008282167125" lon="12.022454347828303"><ele>9.0</ele><time>2026-04-26T15:38:14.001Z</time></trkpt><trkpt lat="44.40000366647763" lon="12.022368844020328"><ele>9.0</ele><time>2026-04-26T15:38:16.001Z</time></trkpt><trkpt lat="44.39992484125175" lon="12.022276909987484"><ele>9.0</ele><time>2026-04-26T15:38:18.001Z</time></trkpt><trkpt lat="44.39983308677412" lon="12.02218514297871"><ele>9.0</ele><time>2026-04-26T15:38:20.001Z</time></trkpt><trkpt lat="44.39973291656027" lon="12.022092750697361"><ele>9.0</ele><time>2026-04-26T15:38:22.001Z</time></trkpt><trkpt lat="44.39963090826306" lon="12.021991717898837"><ele>9.0</ele><time>2026-04-26T15:38:24.001Z</time></trkpt><trkpt lat="44.39958113542645" lon="12.021937746700992"><ele>9.0</ele><time>2026-04-26T15:38:25.001Z</time></trkpt><trkpt lat="44.39952582750665" lon="12.021891043817712"><ele>9.0</ele><time>2026-04-26T15:38:26.001Z</time></trkpt><trkpt lat="44.399472233983005" lon="12.021842272601505"><ele>9.0</ele><time>2026-04-26T15:38:27.001Z</time></trkpt><trkpt lat="44.39936207284254" lon="12.02174973456353"><ele>9.0</ele><time>2026-04-26T15:38:29.002Z</time></trkpt><trkpt lat="44.39925451621014" lon="12.021661595036903"><ele>9.0</ele><time>2026-04-26T15:38:31.002Z</time></trkpt><trkpt lat="44.3992028127838" lon="12.021609366346292"><ele>9.0</ele><time>2026-04-26T15:38:32.002Z</time></trkpt><trkpt lat="44.39909397886608" lon="12.021522232831174"><ele>9.0</ele><time>2026-04-26T15:38:34.002Z</time></trkpt><trkpt lat="44.398985923722634" lon="12.021434403338823"><ele>9.0</ele><time>2026-04-26T15:38:36.002Z</time></trkpt><trkpt lat="44.3989287798911" lon="12.021394477906284"><ele>9.0</ele><time>2026-04-26T15:38:37.002Z</time></trkpt><trkpt lat="44.39887253910777" lon="12.021350765097694"><ele>9.0</ele><time>2026-04-26T15:38:38.002Z</time></trkpt><trkpt lat="44.39881620545517" lon="12.02130857213409"><ele>9.0</ele><time>2026-04-26T15:38:39.002Z</time></trkpt><trkpt lat="44.39875878025338" lon="12.021265217573706"><ele>9.000000000000002</ele><time>2026-04-26T15:38:40.002Z</time></trkpt><trkpt lat="44.39865423542038" lon="12.02118004747936"><ele>9.0</ele><time>2026-04-26T15:38:42.002Z</time></trkpt><trkpt lat="44.3985979282211" lon="12.02113844855079"><ele>9.0</ele><time>2026-04-26T15:38:43.002Z</time></trkpt><trkpt lat="44.398541333212776" lon="12.021096831849514"><ele>9.0</ele><time>2026-04-26T15:38:44.002Z</time></trkpt><trkpt lat="44.398483343393785" lon="12.021052432107028"><ele>9.0</ele><time>2026-04-26T15:38:45.002Z</time></trkpt><trkpt lat="44.398425735169006" lon="12.021008092540264"><ele>9.000000000000002</ele><time>2026-04-26T15:38:46.002Z</time></trkpt><trkpt lat="44.39836903215426" lon="12.020961345922828"><ele>9.0</ele><time>2026-04-26T15:38:47.002Z</time></trkpt><trkpt lat="44.398311071333744" lon="12.020918243394993"><ele>9.0</ele><time>2026-04-26T15:38:48.002Z</time></trkpt><trkpt lat="44.39825758168756" lon="12.020869160953511"><ele>9.0</ele><time>2026-04-26T15:38:49.002Z</time></trkpt><trkpt lat="44.39814729618612" lon="12.020778326238371"><ele>9.0</ele><time>2026-04-26T15:38:51.002Z</time></trkpt><trkpt lat="44.398089030492" lon="12.02073548145789"><ele>9.0</ele><time>2026-04-26T15:38:52.002Z</time></trkpt><trkpt lat="44.398037147351694" lon="12.020684260953413"><ele>9.0</ele><time>2026-04-26T15:38:53.002Z</time></trkpt><trkpt lat="44.39797776920439" lon="12.02063714536709"><ele>9.0</ele><time>2026-04-26T15:38:54.002Z</time></trkpt><trkpt lat="44.39792748270847" lon="12.020576937499298"><ele>9.000000000000002</ele><time>2026-04-26T15:38:55.002Z</time></trkpt><trkpt lat="44.39787479488581" lon="12.020519803426174"><ele>9.0</ele><time>2026-04-26T15:38:56.002Z</time></trkpt><trkpt lat="44.397821802390105" lon="12.020464836531495"><ele>9.0</ele><time>2026-04-26T15:38:57.002Z</time></trkpt><trkpt lat="44.39776921229199" lon="12.020409172689146"><ele>9.0</ele><time>2026-04-26T15:38:58.002Z</time></trkpt><trkpt lat="44.397713524865836" lon="12.02035491970129"><ele>9.0</ele><time>2026-04-26T15:38:59.002Z</time></trkpt><trkpt lat="44.39766672519126" lon="12.020295151633563"><ele>9.000000000000002</ele><time>2026-04-26T15:39:00.002Z</time></trkpt><trkpt lat="44.39761139531649" lon="12.020239071739011"><ele>9.0</ele><time>2026-04-26T15:39:01.002Z</time></trkpt><trkpt lat="44.397564381679985" lon="12.02017841265688"><ele>9.0</ele><time>2026-04-26T15:39:02.002Z</time></trkpt><trkpt lat="44.39746638262257" lon="12.020064100697782"><ele>9.0</ele><time>2026-04-26T15:39:04.002Z</time></trkpt><trkpt lat="44.39741674123461" lon="12.020003486053708"><ele>9.0</ele><time>2026-04-26T15:39:05.002Z</time></trkpt><trkpt lat="44.397328221928205" lon="12.01988233227707"><ele>9.0</ele><time>2026-04-26T15:39:07.003Z</time></trkpt><trkpt lat="44.39728287193806" lon="12.019820909194715"><ele>9.0</ele><time>2026-04-26T15:39:08.003Z</time></trkpt><trkpt lat="44.39723149023924" lon="12.019768838737278"><ele>9.0</ele><time>2026-04-26T15:39:09.003Z</time></trkpt><trkpt lat="44.397153912050804" lon="12.019640374852155"><ele>9.0</ele><time>2026-04-26T15:39:11.003Z</time></trkpt><trkpt lat="44.39706839511861" lon="12.019523193632601"><ele>9.0</ele><time>2026-04-26T15:39:13.003Z</time></trkpt><trkpt lat="44.396981984671115" lon="12.019401652400184"><ele>9.0</ele><time>2026-04-26T15:39:15.003Z</time></trkpt><trkpt lat="44.39690025355125" lon="12.019283005987077"><ele>9.0</ele><time>2026-04-26T15:39:17.003Z</time></trkpt><trkpt lat="44.39681843002345" lon="12.019159446292253"><ele>9.2</ele><time>2026-04-26T15:39:19Z</time></trkpt><trkpt lat="44.39674145398841" lon="12.019035177252558"><ele>9.4</ele><time>2026-04-26T15:39:21Z</time></trkpt><trkpt lat="44.396657758771724" lon="12.018918905536502"><ele>9.6</ele><time>2026-04-26T15:39:23Z</time></trkpt><trkpt lat="44.39657735346223" lon="12.018801924030853"><ele>9.8</ele><time>2026-04-26T15:39:25Z</time></trkpt><trkpt lat="44.396532634577824" lon="12.018738670131839"><ele>10.0</ele><time>2026-04-26T15:39:26Z</time></trkpt><trkpt lat="44.39644866264883" lon="12.018618074555448"><ele>10.0</ele><time>2026-04-26T15:39:28Z</time></trkpt><trkpt lat="44.39635851751586" lon="12.018505906797333"><ele>10.0</ele><time>2026-04-26T15:39:30Z</time></trkpt><trkpt lat="44.39627065255781" lon="12.018389590515207"><ele>10.0</ele><time>2026-04-26T15:39:32Z</time></trkpt><trkpt lat="44.39617072187084" lon="12.018298768226142"><ele>10.0</ele><time>2026-04-26T15:39:34Z</time></trkpt><trkpt lat="44.39607755180044" lon="12.018202435089423"><ele>9.75</ele><time>2026-04-26T15:39:36Z</time></trkpt><trkpt lat="44.39597870338332" lon="12.018112858466328"><ele>9.5</ele><time>2026-04-26T15:39:38Z</time></trkpt><trkpt lat="44.39588024725327" lon="12.018026951899508"><ele>9.25</ele><time>2026-04-26T15:39:40Z</time></trkpt><trkpt lat="44.39578228552345" lon="12.017945002150194"><ele>9.0</ele><time>2026-04-26T15:39:42Z</time></trkpt><trkpt lat="44.39568686269671" lon="12.017863138309703"><ele>9.0</ele><time>2026-04-26T15:39:44Z</time></trkpt><trkpt lat="44.395589600331874" lon="12.017782074680719"><ele>9.0</ele><time>2026-04-26T15:39:46Z</time></trkpt><trkpt lat="44.395494194967526" lon="12.017699507350088"><ele>9.0</ele><time>2026-04-26T15:39:48Z</time></trkpt><trkpt lat="44.39539219024455" lon="12.017618770200768"><ele>9.0</ele><time>2026-04-26T15:39:50Z</time></trkpt><trkpt lat="44.395296221594315" lon="12.017529626401648"><ele>9.0</ele><time>2026-04-26T15:39:52Z</time></trkpt><trkpt lat="44.395201362120055" lon="12.017443369357272"><ele>9.0</ele><time>2026-04-26T15:39:54Z</time></trkpt><trkpt lat="44.39509714830196" lon="12.017360358791665"><ele>9.0</ele><time>2026-04-26T15:39:56.001Z</time></trkpt><trkpt lat="44.39499362245958" lon="12.017273508045367"><ele>9.0</ele><time>2026-04-26T15:39:58.001Z</time></trkpt><trkpt lat="44.39489240779801" lon="12.017172995671874"><ele>9.0</ele><time>2026-04-26T15:40:00.001Z</time></trkpt><trkpt lat="44.394787944618585" lon="12.017076343469464"><ele>9.0</ele><time>2026-04-26T15:40:02.001Z</time></trkpt><trkpt lat="44.394685168008316" lon="12.016980130363697"><ele>9.0</ele><time>2026-04-26T15:40:04.001Z</time></trkpt><trkpt lat="44.39463794065568" lon="12.016915047112535"><ele>9.0</ele><time>2026-04-26T15:40:05.001Z</time></trkpt><trkpt lat="44.39452935157448" lon="12.016829082528611"><ele>9.0</ele><time>2026-04-26T15:40:07.001Z</time></trkpt><trkpt lat="44.39447295738043" lon="12.01678014163917"><ele>9.2</ele><time>2026-04-26T15:40:08.001Z</time></trkpt><trkpt lat="44.39436753600304" lon="12.016686081359177"><ele>9.4</ele><time>2026-04-26T15:40:10.001Z</time></trkpt><trkpt lat="44.394263804896944" lon="12.016594795896328"><ele>9.6</ele><time>2026-04-26T15:40:12.001Z</time></trkpt><trkpt lat="44.394216935038905" lon="12.01653108253528"><ele>9.8</ele><time>2026-04-26T15:40:13.001Z</time></trkpt><trkpt lat="44.39416090490896" lon="12.016481182928317"><ele>10.0</ele><time>2026-04-26T15:40:14.001Z</time></trkpt><trkpt lat="44.3940461698273" lon="12.016399152512067"><ele>10.142857142857142</ele><time>2026-04-26T15:40:16.001Z</time></trkpt><trkpt lat="44.39399125582606" lon="12.016350688197836"><ele>10.285714285714286</ele><time>2026-04-26T15:40:17.001Z</time></trkpt><trkpt lat="44.39388407959327" lon="12.016259531999715"><ele>10.428571428571429</ele><time>2026-04-26T15:40:19.001Z</time></trkpt><trkpt lat="44.393831295124976" lon="12.01620715242874"><ele>10.571428571428571</ele><time>2026-04-26T15:40:20.001Z</time></trkpt><trkpt lat="44.39377489276282" lon="12.016167889323249"><ele>10.714285714285714</ele><time>2026-04-26T15:40:21.001Z</time></trkpt><trkpt lat="44.393721800049626" lon="12.01611508613995"><ele>10.857142857142858</ele><time>2026-04-26T15:40:22.001Z</time></trkpt><trkpt lat="44.39366510717596" lon="12.016073871008937"><ele>11.0</ele><time>2026-04-26T15:40:23.001Z</time></trkpt><trkpt lat="44.393612347312065" lon="12.016025093118177"><ele>11.0</ele><time>2026-04-26T15:40:24.001Z</time></trkpt><trkpt lat="44.39350615664877" lon="12.01594763923961"><ele>11.0</ele><time>2026-04-26T15:40:26.001Z</time></trkpt><trkpt lat="44.393403782387566" lon="12.015858910039016"><ele>11.0</ele><time>2026-04-26T15:40:28.001Z</time></trkpt><trkpt lat="44.393297182708295" lon="12.015780788270504"><ele>11.0</ele><time>2026-04-26T15:40:30.002Z</time></trkpt><trkpt lat="44.39319244058986" lon="12.015692261946382"><ele>10.600000000000001</ele><time>2026-04-26T15:40:32.002Z</time></trkpt><trkpt lat="44.39309034600201" lon="12.015611540956474"><ele>10.200000000000001</ele><time>2026-04-26T15:40:34.002Z</time></trkpt><trkpt lat="44.392983773531874" lon="12.015525031477138"><ele>9.8</ele><time>2026-04-26T15:40:36.002Z</time></trkpt><trkpt lat="44.39288077971493" lon="12.015440477376902"><ele>9.4</ele><time>2026-04-26T15:40:38.002Z</time></trkpt><trkpt lat="44.39282527507275" lon="12.015393462000324"><ele>9.0</ele><time>2026-04-26T15:40:39.002Z</time></trkpt><trkpt lat="44.392771054824685" lon="12.015347817432621"><ele>9.0</ele><time>2026-04-26T15:40:40.002Z</time></trkpt><trkpt lat="44.39266519796465" lon="12.015257321940004"><ele>9.0</ele><time>2026-04-26T15:40:42.002Z</time></trkpt><trkpt lat="44.3925608385861" lon="12.015168626045458"><ele>9.0</ele><time>2026-04-26T15:40:44.002Z</time></trkpt><trkpt lat="44.392506753029366" lon="12.015122552480976"><ele>9.0</ele><time>2026-04-26T15:40:45.002Z</time></trkpt><trkpt lat="44.39240230101765" lon="12.015028408466337"><ele>9.0</ele><time>2026-04-26T15:40:47.002Z</time></trkpt><trkpt lat="44.39234801158643" lon="12.014983599675894"><ele>9.0</ele><time>2026-04-26T15:40:48.002Z</time></trkpt><trkpt lat="44.392294699087664" lon="12.014934909746362"><ele>9.0</ele><time>2026-04-26T15:40:49.002Z</time></trkpt><trkpt lat="44.3921918024115" lon="12.014834463961087"><ele>9.0</ele><time>2026-04-26T15:40:51.002Z</time></trkpt><trkpt lat="44.39208902283404" lon="12.01475612857232"><ele>9.0</ele><time>2026-04-26T15:40:53.002Z</time></trkpt><trkpt lat="44.3919854498068" lon="12.014681737692392"><ele>9.0</ele><time>2026-04-26T15:40:55.002Z</time></trkpt><trkpt lat="44.391880936714394" lon="12.014613382101183"><ele>9.0</ele><time>2026-04-26T15:40:57.002Z</time></trkpt><trkpt lat="44.391772475138026" lon="12.014554260714498"><ele>9.0</ele><time>2026-04-26T15:40:59.002Z</time></trkpt><trkpt lat="44.39165962448021" lon="12.014507753313312"><ele>9.0</ele><time>2026-04-26T15:41:01.002Z</time></trkpt><trkpt lat="44.391547859910915" lon="12.01446302189023"><ele>9.0</ele><time>2026-04-26T15:41:03.002Z</time></trkpt><trkpt lat="44.39143498601523" lon="12.014418631110905"><ele>9.2</ele><time>2026-04-26T15:41:05.003Z</time></trkpt><trkpt lat="44.391322790688506" lon="12.014379813507514"><ele>9.4</ele><time>2026-04-26T15:41:07.003Z</time></trkpt><trkpt lat="44.391215947606774" lon="12.014346903932811"><ele>9.6</ele><time>2026-04-26T15:41:09.003Z</time></trkpt><trkpt lat="44.39110900958676" lon="12.014308624257444"><ele>9.8</ele><time>2026-04-26T15:41:11.003Z</time></trkpt><trkpt lat="44.39100377033404" lon="12.014273778644489"><ele>10.0</ele><time>2026-04-26T15:41:13.003Z</time></trkpt><trkpt lat="44.3909157128662" lon="12.014241919350484"><ele>10.0</ele><time>2026-04-26T15:41:15.003Z</time></trkpt><trkpt lat="44.39084640513641" lon="12.014210426404675"><ele>10.0</ele><time>2026-04-26T15:41:17.003Z</time></trkpt><trkpt lat="44.39076926836383" lon="12.014184602676547"><ele>10.0</ele><time>2026-04-26T15:41:20.003Z</time></trkpt><trkpt lat="44.390704413496366" lon="12.014164006909613"><ele>10.0</ele><time>2026-04-26T15:41:23.003Z</time></trkpt><trkpt lat="44.390638199521646" lon="12.01412908569231"><ele>10.0</ele><time>2026-04-26T15:41:26Z</time></trkpt><trkpt lat="44.39058206067508" lon="12.014077414801154"><ele>10.0</ele><time>2026-04-26T15:41:29Z</time></trkpt><trkpt lat="44.390515588121275" lon="12.01406640733291"><ele>10.0</ele><time>2026-04-26T15:41:32Z</time></trkpt><trkpt lat="44.39044090615997" lon="12.014053185144382"><ele>9.833333333333334</ele><time>2026-04-26T15:41:36Z</time></trkpt><trkpt lat="44.39037303930727" lon="12.01403207940214"><ele>9.666666666666668</ele><time>2026-04-26T15:41:41Z</time></trkpt><trkpt lat="44.390288544352565" lon="12.013987859854863"><ele>9.5</ele><time>2026-04-26T15:41:46Z</time></trkpt><trkpt lat="44.39021804939749" lon="12.01398307361992"><ele>9.333333333333334</ele><time>2026-04-26T15:41:48Z</time></trkpt><trkpt lat="44.390143630894755" lon="12.013958555107633"><ele>9.166666666666666</ele><time>2026-04-26T15:41:50Z</time></trkpt><trkpt lat="44.39006232029156" lon="12.013932950314603"><ele>9.0</ele><time>2026-04-26T15:41:52Z</time></trkpt><trkpt lat="44.389977731052554" lon="12.01391439174479"><ele>9.0</ele><time>2026-04-26T15:41:54Z</time></trkpt><trkpt lat="44.389890505387854" lon="12.013901085738974"><ele>9.0</ele><time>2026-04-26T15:41:56Z</time></trkpt><trkpt lat="44.38981198811345" lon="12.013915762318131"><ele>9.0</ele><time>2026-04-26T15:41:58.001Z</time></trkpt><trkpt lat="44.3897307871257" lon="12.013915762317461"><ele>9.0</ele><time>2026-04-26T15:42:00.001Z</time></trkpt><trkpt lat="44.38965042651881" lon="12.013662513460046"><ele>9.0</ele><time>2026-04-26T15:42:02.001Z</time></trkpt><trkpt lat="44.389567600476575" lon="12.01359375950142"><ele>9.6</ele><time>2026-04-26T15:42:04.001Z</time></trkpt><trkpt lat="44.389494757169665" lon="12.013524651587137"><ele>10.2</ele><time>2026-04-26T15:42:06.001Z</time></trkpt><trkpt lat="44.38942143515219" lon="12.013445802368768"><ele>10.799999999999999</ele><time>2026-04-26T15:42:08.001Z</time></trkpt><trkpt lat="44.389349929485164" lon="12.013361417502216"><ele>11.4</ele><time>2026-04-26T15:42:10.001Z</time></trkpt><trkpt lat="44.38928316961985" lon="12.013270748174333"><ele>12.0</ele><time>2026-04-26T15:42:12.001Z</time></trkpt><trkpt lat="44.389227170404354" lon="12.013180684969733"><ele>12.0</ele><time>2026-04-26T15:42:14.001Z</time></trkpt><trkpt lat="44.38917405717145" lon="12.013090880003304"><ele>12.0</ele><time>2026-04-26T15:42:16.001Z</time></trkpt><trkpt lat="44.38912391284984" lon="12.013001199467427"><ele>12.0</ele><time>2026-04-26T15:42:18.001Z</time></trkpt><trkpt lat="44.38908118489938" lon="12.012910906066772"><ele>12.0</ele><time>2026-04-26T15:42:20.001Z</time></trkpt><trkpt lat="44.389040835779014" lon="12.012824878249585"><ele>12.0</ele><time>2026-04-26T15:42:22.001Z</time></trkpt><trkpt lat="44.389007658687916" lon="12.01274401014003"><ele>12.0</ele><time>2026-04-26T15:42:24.001Z</time></trkpt><trkpt lat="44.38897613750941" lon="12.012656955009252"><ele>12.0</ele><time>2026-04-26T15:42:26.001Z</time></trkpt><trkpt lat="44.388946552118384" lon="12.01256838665112"><ele>12.0</ele><time>2026-04-26T15:42:28.001Z</time></trkpt><trkpt lat="44.388916930646666" lon="12.01248438531954"><ele>12.0</ele><time>2026-04-26T15:42:30.001Z</time></trkpt><trkpt lat="44.3888831634074" lon="12.012359482823049"><ele>12.0</ele><time>2026-04-26T15:42:33.002Z</time></trkpt><trkpt lat="44.388867638459715" lon="12.012270416476694"><ele>12.0</ele><time>2026-04-26T15:42:35.002Z</time></trkpt><trkpt lat="44.38885223429634" lon="12.012177323681291"><ele>12.0</ele><time>2026-04-26T15:42:37.002Z</time></trkpt><trkpt lat="44.38883425014106" lon="12.012054974720026"><ele>11.999999999999998</ele><time>2026-04-26T15:42:40.002Z</time></trkpt><trkpt lat="44.388823252956" lon="12.011956907466908"><ele>12.0</ele><time>2026-04-26T15:42:43.002Z</time></trkpt><trkpt lat="44.388799575892165" lon="12.011870734531778"><ele>12.0</ele><time>2026-04-26T15:42:51.002Z</time></trkpt><trkpt lat="44.38883512821493" lon="12.011777142927222"><ele>12.0</ele><time>2026-04-26T15:42:56.002Z</time></trkpt><trkpt lat="44.38886945894777" lon="12.01168660928474"><ele>12.0</ele><time>2026-04-26T15:42:59.002Z</time></trkpt><trkpt lat="44.38889069476364" lon="12.01158548821835"><ele>11.999999999999998</ele><time>2026-04-26T15:43:01.002Z</time></trkpt><trkpt lat="44.38890454398734" lon="12.011487521139562"><ele>12.0</ele><time>2026-04-26T15:43:03.002Z</time></trkpt><trkpt lat="44.38891715538312" lon="12.011395807909345"><ele>12.0</ele><time>2026-04-26T15:43:05.002Z</time></trkpt><trkpt lat="44.38888588166032" lon="12.011266318173941"><ele>12.0</ele><time>2026-04-26T15:43:08.003Z</time></trkpt><trkpt lat="44.38884425435087" lon="12.011177591568977"><ele>12.0</ele><time>2026-04-26T15:43:10.003Z</time></trkpt><trkpt lat="44.388791922417965" lon="12.01110326517949"><ele>12.0</ele><time>2026-04-26T15:43:12.003Z</time></trkpt><trkpt lat="44.388750540083024" lon="12.011033128761877"><ele>12.0</ele><time>2026-04-26T15:43:14.003Z</time></trkpt><trkpt lat="44.38871794081335" lon="12.010936108109494"><ele>12.0</ele><time>2026-04-26T15:43:16.003Z</time></trkpt><trkpt lat="44.388693394930044" lon="12.010808584917607"><ele>12.0</ele><time>2026-04-26T15:43:19.003Z</time></trkpt><trkpt lat="44.38868410338751" lon="12.010699320779018"><ele>12.0</ele><time>2026-04-26T15:43:21.003Z</time></trkpt><trkpt lat="44.388660576516635" lon="12.01058325906829"><ele>12.0</ele><time>2026-04-26T15:43:23.003Z</time></trkpt><trkpt lat="44.38863288392704" lon="12.01047753348678"><ele>12.0</ele><time>2026-04-26T15:43:25.003Z</time></trkpt><trkpt lat="44.38860052022217" lon="12.010372841156036"><ele>12.0</ele><time>2026-04-26T15:43:27.003Z</time></trkpt><trkpt lat="44.388569629810085" lon="12.01028520340909"><ele>12.0</ele><time>2026-04-26T15:43:29.003Z</time></trkpt><trkpt lat="44.38853800296345" lon="12.010205481161513"><ele>12.0</ele><time>2026-04-26T15:43:31Z</time></trkpt><trkpt lat="44.38850392419377" lon="12.01012816893001"><ele>12.0</ele><time>2026-04-26T15:43:33Z</time></trkpt><trkpt lat="44.38846365666873" lon="12.010056916061188"><ele>12.0</ele><time>2026-04-26T15:43:35Z</time></trkpt><trkpt lat="44.38841151107222" lon="12.009963727187856"><ele>12.0</ele><time>2026-04-26T15:43:38Z</time></trkpt><trkpt lat="44.38835386172049" lon="12.009874304627767"><ele>12.0</ele><time>2026-04-26T15:43:41Z</time></trkpt><trkpt lat="44.38828540514486" lon="12.009786670786815"><ele>12.0</ele><time>2026-04-26T15:43:44Z</time></trkpt><trkpt lat="44.388223290878635" lon="12.009725336861807"><ele>11.833333333333334</ele><time>2026-04-26T15:43:46Z</time></trkpt><trkpt lat="44.38817126091158" lon="12.009666824838"><ele>11.666666666666666</ele><time>2026-04-26T15:43:48Z</time></trkpt><trkpt lat="44.388108230622954" lon="12.00960272124455"><ele>11.5</ele><time>2026-04-26T15:43:50Z</time></trkpt><trkpt lat="44.388046920787254" lon="12.009540599950247"><ele>11.333333333333332</ele><time>2026-04-26T15:43:52Z</time></trkpt><trkpt lat="44.38796624147382" lon="12.009475806314798"><ele>11.166666666666666</ele><time>2026-04-26T15:43:55Z</time></trkpt><trkpt lat="44.38790299241776" lon="12.009424442993906"><ele>11.0</ele><time>2026-04-26T15:43:57Z</time></trkpt><trkpt lat="44.38783870762737" lon="12.009380172461649"><ele>11.0</ele><time>2026-04-26T15:43:59Z</time></trkpt><trkpt lat="44.3877547435433" lon="12.009334842501312"><ele>11.0</ele><time>2026-04-26T15:44:01Z</time></trkpt><trkpt lat="44.38767556899704" lon="12.00931000921389"><ele>11.0</ele><time>2026-04-26T15:44:03.001Z</time></trkpt><trkpt lat="44.387587082295134" lon="12.009271229560328"><ele>11.0</ele><time>2026-04-26T15:44:05.001Z</time></trkpt><trkpt lat="44.387496572661796" lon="12.009251507869692"><ele>11.0</ele><time>2026-04-26T15:44:07.001Z</time></trkpt><trkpt lat="44.38740499468734" lon="12.009220987910583"><ele>11.0</ele><time>2026-04-26T15:44:09.001Z</time></trkpt><trkpt lat="44.3873030637147" lon="12.009191878441252"><ele>11.0</ele><time>2026-04-26T15:44:11.001Z</time></trkpt><trkpt lat="44.387202864465834" lon="12.009158713919671"><ele>11.0</ele><time>2026-04-26T15:44:13.001Z</time></trkpt><trkpt lat="44.38710140744565" lon="12.00913182498641"><ele>11.0</ele><time>2026-04-26T15:44:15.001Z</time></trkpt><trkpt lat="44.386997967797896" lon="12.009100683874328"><ele>11.0</ele><time>2026-04-26T15:44:17.001Z</time></trkpt><trkpt lat="44.38689626078018" lon="12.009062751082594"><ele>10.8</ele><time>2026-04-26T15:44:19.001Z</time></trkpt><trkpt lat="44.386794371825694" lon="12.009038227447432"><ele>10.600000000000001</ele><time>2026-04-26T15:44:21.001Z</time></trkpt><trkpt lat="44.3866967269766" lon="12.009006030034955"><ele>10.4</ele><time>2026-04-26T15:44:23.001Z</time></trkpt><trkpt lat="44.386602005935025" lon="12.008974256180712"><ele>10.2</ele><time>2026-04-26T15:44:25.001Z</time></trkpt><trkpt lat="44.38650623260048" lon="12.00894311282638"><ele>10.0</ele><time>2026-04-26T15:44:27.001Z</time></trkpt><trkpt lat="44.386410160085546" lon="12.008879359121373"><ele>10.4</ele><time>2026-04-26T15:44:29.001Z</time></trkpt><trkpt lat="44.38631892227981" lon="12.008786100600313"><ele>10.8</ele><time>2026-04-26T15:44:31.001Z</time></trkpt><trkpt lat="44.38624172544805" lon="12.008672196931274"><ele>11.2</ele><time>2026-04-26T15:44:33.001Z</time></trkpt><trkpt lat="44.38616708033015" lon="12.00855516344366"><ele>11.6</ele><time>2026-04-26T15:44:35.001Z</time></trkpt><trkpt lat="44.3860926369567" lon="12.008446253651249"><ele>12.0</ele><time>2026-04-26T15:44:37.001Z</time></trkpt><trkpt lat="44.38601030310581" lon="12.008352525631476"><ele>11.6</ele><time>2026-04-26T15:44:39.002Z</time></trkpt><trkpt lat="44.38592183679015" lon="12.008261910008631"><ele>11.2</ele><time>2026-04-26T15:44:41.002Z</time></trkpt><trkpt lat="44.38583634330859" lon="12.008167951409582"><ele>10.8</ele><time>2026-04-26T15:44:43.002Z</time></trkpt><trkpt lat="44.38575252384816" lon="12.008055961027022"><ele>10.4</ele><time>2026-04-26T15:44:45.002Z</time></trkpt><trkpt lat="44.385675658902514" lon="12.007942385422174"><ele>10.0</ele><time>2026-04-26T15:44:47.002Z</time></trkpt><trkpt lat="44.38559823551668" lon="12.007800963202527"><ele>10.0</ele><time>2026-04-26T15:44:49.002Z</time></trkpt><trkpt lat="44.38553132460038" lon="12.007658719865878"><ele>10.0</ele><time>2026-04-26T15:44:51.002Z</time></trkpt><trkpt lat="44.385463791578026" lon="12.007511641990806"><ele>10.0</ele><time>2026-04-26T15:44:53.002Z</time></trkpt><trkpt lat="44.385431794349394" lon="12.007431791767324"><ele>10.0</ele><time>2026-04-26T15:44:54.002Z</time></trkpt><trkpt lat="44.38537362310717" lon="12.00728082171899"><ele>10.0</ele><time>2026-04-26T15:44:56.002Z</time></trkpt><trkpt lat="44.38531448327159" lon="12.007122620057393"><ele>10.333333333333334</ele><time>2026-04-26T15:44:58.002Z</time></trkpt><trkpt lat="44.385261720034634" lon="12.006967166311368"><ele>10.666666666666668</ele><time>2026-04-26T15:45:00.002Z</time></trkpt><trkpt lat="44.38523832528619" lon="12.00688183263909"><ele>11.0</ele><time>2026-04-26T15:45:01.002Z</time></trkpt><trkpt lat="44.3851968855217" lon="12.006713954112715"><ele>11.333333333333334</ele><time>2026-04-26T15:45:03.002Z</time></trkpt><trkpt lat="44.38517794533096" lon="12.006626998314227"><ele>11.666666666666666</ele><time>2026-04-26T15:45:04.002Z</time></trkpt><trkpt lat="44.38516149329706" lon="12.00654120347925"><ele>12.0</ele><time>2026-04-26T15:45:05.002Z</time></trkpt><trkpt lat="44.38513068222693" lon="12.00636845327722"><ele>12.2</ele><time>2026-04-26T15:45:07.002Z</time></trkpt><trkpt lat="44.38509409321027" lon="12.006200429647723"><ele>12.399999999999999</ele><time>2026-04-26T15:45:09.002Z</time></trkpt><trkpt lat="44.38505938910166" lon="12.006030198522565"><ele>12.600000000000001</ele><time>2026-04-26T15:45:11.002Z</time></trkpt><trkpt lat="44.38503949293844" lon="12.005941240205896"><ele>12.8</ele><time>2026-04-26T15:45:12.002Z</time></trkpt><trkpt lat="44.384995240493446" lon="12.005782855330839"><ele>13.0</ele><time>2026-04-26T15:45:14.003Z</time></trkpt><trkpt lat="44.38495746962394" lon="12.005617079302597"><ele>13.0</ele><time>2026-04-26T15:45:16.003Z</time></trkpt><trkpt lat="44.384924497508955" lon="12.005460228573734"><ele>13.0</ele><time>2026-04-26T15:45:18.003Z</time></trkpt><trkpt lat="44.38488584949383" lon="12.005293787196212"><ele>13.0</ele><time>2026-04-26T15:45:20.003Z</time></trkpt><trkpt lat="44.38484667831779" lon="12.005128806333127"><ele>13.0</ele><time>2026-04-26T15:45:22.003Z</time></trkpt><trkpt lat="44.384798966917444" lon="12.004963116557034"><ele>13.0</ele><time>2026-04-26T15:45:24.003Z</time></trkpt><trkpt lat="44.384742945221966" lon="12.00481029202795"><ele>13.0</ele><time>2026-04-26T15:45:26.003Z</time></trkpt><trkpt lat="44.384677621042414" lon="12.004665939184315"><ele>13.0</ele><time>2026-04-26T15:45:28.003Z</time></trkpt><trkpt lat="44.38461718800148" lon="12.004526831761678"><ele>13.0</ele><time>2026-04-26T15:45:30.003Z</time></trkpt><trkpt lat="44.38455503189814" lon="12.004397498217534"><ele>12.75</ele><time>2026-04-26T15:45:32.003Z</time></trkpt><trkpt lat="44.3844776822199" lon="12.004273356369731"><ele>12.5</ele><time>2026-04-26T15:45:34.003Z</time></trkpt><trkpt lat="44.38439121822693" lon="12.004157580560355"><ele>12.25</ele><time>2026-04-26T15:45:36.003Z</time></trkpt><trkpt lat="44.38429762987619" lon="12.004055352858305"><ele>12.0</ele><time>2026-04-26T15:45:38Z</time></trkpt><trkpt lat="44.38419977174408" lon="12.003975467277968"><ele>12.0</ele><time>2026-04-26T15:45:40Z</time></trkpt><trkpt lat="44.384100395426195" lon="12.003915987325989"><ele>12.0</ele><time>2026-04-26T15:45:42Z</time></trkpt><trkpt lat="44.38400685658747" lon="12.00388814459863"><ele>12.0</ele><time>2026-04-26T15:45:44Z</time></trkpt><trkpt lat="44.38391559134386" lon="12.003859992408916"><ele>12.0</ele><time>2026-04-26T15:45:46Z</time></trkpt><trkpt lat="44.38381892674756" lon="12.003844199171612"><ele>12.0</ele><time>2026-04-26T15:45:48Z</time></trkpt><trkpt lat="44.38371838592873" lon="12.003844543943897"><ele>12.0</ele><time>2026-04-26T15:45:50Z</time></trkpt><trkpt lat="44.383611640464466" lon="12.003862927846026"><ele>12.0</ele><time>2026-04-26T15:45:52Z</time></trkpt><trkpt lat="44.38350371229358" lon="12.00388747162578"><ele>12.0</ele><time>2026-04-26T15:45:54Z</time></trkpt><trkpt lat="44.38339718565024" lon="12.003929534922543"><ele>12.0</ele><time>2026-04-26T15:45:56Z</time></trkpt><trkpt lat="44.383304345389234" lon="12.003996687834734"><ele>12.0</ele><time>2026-04-26T15:45:58Z</time></trkpt><trkpt lat="44.383219742888926" lon="12.004054824974242"><ele>12.0</ele><time>2026-04-26T15:46:00Z</time></trkpt><trkpt lat="44.383125254889265" lon="12.00410904154607"><ele>12.0</ele><time>2026-04-26T15:46:02Z</time></trkpt><trkpt lat="44.38303723354756" lon="12.004166986903616"><ele>12.0</ele><time>2026-04-26T15:46:04Z</time></trkpt><trkpt lat="44.382952537434214" lon="12.004230449985776"><ele>12.0</ele><time>2026-04-26T15:46:06Z</time></trkpt><trkpt lat="44.382874394787926" lon="12.004299535860339"><ele>12.0</ele><time>2026-04-26T15:46:08Z</time></trkpt><trkpt lat="44.38279645648119" lon="12.004371591995142"><ele>12.0</ele><time>2026-04-26T15:46:10Z</time></trkpt><trkpt lat="44.3827136276784" lon="12.004449154380396"><ele>12.0</ele><time>2026-04-26T15:46:12.001Z</time></trkpt><trkpt lat="44.38262817560041" lon="12.004516083955906"><ele>12.0</ele><time>2026-04-26T15:46:14.001Z</time></trkpt><trkpt lat="44.382549077031065" lon="12.004574249111286"><ele>12.0</ele><time>2026-04-26T15:46:16.001Z</time></trkpt><trkpt lat="44.38245894498412" lon="12.004650457644466"><ele>12.0</ele><time>2026-04-26T15:46:18.001Z</time></trkpt><trkpt lat="44.38236755935336" lon="12.004724942112356"><ele>12.0</ele><time>2026-04-26T15:46:20.001Z</time></trkpt><trkpt lat="44.38227278837554" lon="12.004791071469272"><ele>12.0</ele><time>2026-04-26T15:46:22.001Z</time></trkpt><trkpt lat="44.382177183441065" lon="12.004849920346444"><ele>12.0</ele><time>2026-04-26T15:46:24.001Z</time></trkpt><trkpt lat="44.382080199607366" lon="12.004901519358878"><ele>12.0</ele><time>2026-04-26T15:46:26.001Z</time></trkpt><trkpt lat="44.381986041945176" lon="12.004940842765809"><ele>12.0</ele><time>2026-04-26T15:46:28.001Z</time></trkpt><trkpt lat="44.38189899291814" lon="12.004973347743416"><ele>12.0</ele><time>2026-04-26T15:46:30.001Z</time></trkpt><trkpt lat="44.381801952446025" lon="12.00500063584649"><ele>12.0</ele><time>2026-04-26T15:46:32.001Z</time></trkpt><trkpt lat="44.381705101895484" lon="12.005017386598444"><ele>12.0</ele><time>2026-04-26T15:46:34.001Z</time></trkpt><trkpt lat="44.38160918845008" lon="12.005027183364843"><ele>12.0</ele><time>2026-04-26T15:46:36.001Z</time></trkpt><trkpt lat="44.38150541231903" lon="12.005031083424122"><ele>12.0</ele><time>2026-04-26T15:46:38.001Z</time></trkpt><trkpt lat="44.38140234789684" lon="12.005019803503206"><ele>12.2</ele><time>2026-04-26T15:46:40.001Z</time></trkpt><trkpt lat="44.38129677975275" lon="12.005001820937656"><ele>12.399999999999999</ele><time>2026-04-26T15:46:42.001Z</time></trkpt><trkpt lat="44.3811909255512" lon="12.004969578244328"><ele>12.600000000000001</ele><time>2026-04-26T15:46:44.001Z</time></trkpt><trkpt lat="44.381092364547" lon="12.004926841811962"><ele>12.8</ele><time>2026-04-26T15:46:46.002Z</time></trkpt><trkpt lat="44.38099180981647" lon="12.004882289202119"><ele>13.0</ele><time>2026-04-26T15:46:48.002Z</time></trkpt><trkpt lat="44.380894696512584" lon="12.004828978564602"><ele>13.2</ele><time>2026-04-26T15:46:50.002Z</time></trkpt><trkpt lat="44.38079990261289" lon="12.004776155245093"><ele>13.4</ele><time>2026-04-26T15:46:52.002Z</time></trkpt><trkpt lat="44.38070701427151" lon="12.004722893762075"><ele>13.599999999999998</ele><time>2026-04-26T15:46:54.002Z</time></trkpt><trkpt lat="44.38062001582853" lon="12.004662969753165"><ele>13.799999999999999</ele><time>2026-04-26T15:46:56.002Z</time></trkpt><trkpt lat="44.38053704385809" lon="12.004608782364434"><ele>14.0</ele><time>2026-04-26T15:46:58.002Z</time></trkpt><trkpt lat="44.38047549636893" lon="12.004549220194585"><ele>14.0</ele><time>2026-04-26T15:47:00.002Z</time></trkpt><trkpt lat="44.380422829210566" lon="12.004473492622193"><ele>13.999999999999998</ele><time>2026-04-26T15:47:02.002Z</time></trkpt><trkpt lat="44.380381284175854" lon="12.004377779677409"><ele>13.999999999999998</ele><time>2026-04-26T15:47:04.002Z</time></trkpt><trkpt lat="44.380337003186376" lon="12.00426840426302"><ele>14.0</ele><time>2026-04-26T15:47:06.002Z</time></trkpt><trkpt lat="44.38028400722492" lon="12.00414456890349"><ele>14.0</ele><time>2026-04-26T15:47:08.002Z</time></trkpt><trkpt lat="44.38022770410678" lon="12.004022759164446"><ele>13.833333333333334</ele><time>2026-04-26T15:47:10.002Z</time></trkpt><trkpt lat="44.38017613349724" lon="12.003915862702643"><ele>13.666666666666668</ele><time>2026-04-26T15:47:12.002Z</time></trkpt><trkpt lat="44.380128932689665" lon="12.003804633930292"><ele>13.5</ele><time>2026-04-26T15:47:14.002Z</time></trkpt><trkpt lat="44.38008073745018" lon="12.003697546028942"><ele>13.333333333333332</ele><time>2026-04-26T15:47:16.002Z</time></trkpt><trkpt lat="44.38003763537344" lon="12.0035927759438"><ele>13.166666666666666</ele><time>2026-04-26T15:47:18.002Z</time></trkpt><trkpt lat="44.37999737578103" lon="12.003496203036343"><ele>13.0</ele><time>2026-04-26T15:47:20.003Z</time></trkpt><trkpt lat="44.37996479098072" lon="12.003397419701981"><ele>12.999999999999998</ele><time>2026-04-26T15:47:22.003Z</time></trkpt><trkpt lat="44.37992670303552" lon="12.003286088852748"><ele>13.0</ele><time>2026-04-26T15:47:25.003Z</time></trkpt><trkpt lat="44.37989979165248" lon="12.00320257792608"><ele>13.0</ele><time>2026-04-26T15:47:28.003Z</time></trkpt><trkpt lat="44.379868194520824" lon="12.003102503933826"><ele>13.0</ele><time>2026-04-26T15:47:46Z</time></trkpt><trkpt lat="44.37983193152872" lon="12.002986555509803"><ele>12.999999999999998</ele><time>2026-04-26T15:47:49Z</time></trkpt><trkpt lat="44.37979570521835" lon="12.002889758218767"><ele>13.0</ele><time>2026-04-26T15:47:51Z</time></trkpt><trkpt lat="44.37978000725097" lon="12.002772810214902"><ele>13.0</ele><time>2026-04-26T15:47:53Z</time></trkpt><trkpt lat="44.37975761050394" lon="12.002638256310112"><ele>13.0</ele><time>2026-04-26T15:47:55Z</time></trkpt><trkpt lat="44.379715811487074" lon="12.00248654327047"><ele>13.0</ele><time>2026-04-26T15:47:57Z</time></trkpt><trkpt lat="44.37964737262726" lon="12.002343421183316"><ele>13.0</ele><time>2026-04-26T15:47:59Z</time></trkpt><trkpt lat="44.3796240875511" lon="12.002259013073898"><ele>13.0</ele><time>2026-04-26T15:48:00Z</time></trkpt><trkpt lat="44.379601930864474" lon="12.002169518708504"><ele>13.0</ele><time>2026-04-26T15:48:01Z</time></trkpt><trkpt lat="44.37957768251684" lon="12.002077602755303"><ele>13.0</ele><time>2026-04-26T15:48:02Z</time></trkpt><trkpt lat="44.379556411937564" lon="12.00198518009959"><ele>13.0</ele><time>2026-04-26T15:48:03Z</time></trkpt><trkpt lat="44.37953483031592" lon="12.00188779693595"><ele>13.0</ele><time>2026-04-26T15:48:04Z</time></trkpt><trkpt lat="44.37951288523945" lon="12.00179037773071"><ele>13.0</ele><time>2026-04-26T15:48:05Z</time></trkpt><trkpt lat="44.37949067303565" lon="12.001692339295818"><ele>13.0</ele><time>2026-04-26T15:48:06Z</time></trkpt><trkpt lat="44.37946923428804" lon="12.001598338277773"><ele>13.0</ele><time>2026-04-26T15:48:07Z</time></trkpt><trkpt lat="44.379447964037205" lon="12.001494928941794"><ele>13.0</ele><time>2026-04-26T15:48:08Z</time></trkpt><trkpt lat="44.379428720725244" lon="12.001399898623676"><ele>13.0</ele><time>2026-04-26T15:48:09Z</time></trkpt><trkpt lat="44.37940725048289" lon="12.001298476981606"><ele>13.0</ele><time>2026-04-26T15:48:10Z</time></trkpt><trkpt lat="44.379385817260044" lon="12.001205123761983"><ele>13.0</ele><time>2026-04-26T15:48:11Z</time></trkpt><trkpt lat="44.37936605896552" lon="12.00109879846836"><ele>13.0</ele><time>2026-04-26T15:48:12Z</time></trkpt><trkpt lat="44.37934516965358" lon="12.001013675734056"><ele>13.0</ele><time>2026-04-26T15:48:13Z</time></trkpt><trkpt lat="44.379325904781346" lon="12.000925913537385"><ele>13.0</ele><time>2026-04-26T15:48:14Z</time></trkpt><trkpt lat="44.37933556028213" lon="12.000819130103485"><ele>13.0</ele><time>2026-04-26T15:48:15Z</time></trkpt><trkpt lat="44.37931634069265" lon="12.00073106124261"><ele>13.0</ele><time>2026-04-26T15:48:16.001Z</time></trkpt><trkpt lat="44.37929754474331" lon="12.000645360972008"><ele>13.0</ele><time>2026-04-26T15:48:17.001Z</time></trkpt><trkpt lat="44.37927763700707" lon="12.000554591514096"><ele>13.0</ele><time>2026-04-26T15:48:18.001Z</time></trkpt><trkpt lat="44.37925777535469" lon="12.00046403196226"><ele>13.0</ele><time>2026-04-26T15:48:19.001Z</time></trkpt><trkpt lat="44.37923686419015" lon="12.000370427251616"><ele>13.0</ele><time>2026-04-26T15:48:20.001Z</time></trkpt><trkpt lat="44.3792166417037" lon="12.000280783911423"><ele>13.0</ele><time>2026-04-26T15:48:21.001Z</time></trkpt><trkpt lat="44.37919461431576" lon="12.000183139689875"><ele>13.0</ele><time>2026-04-26T15:48:22.001Z</time></trkpt><trkpt lat="44.379174487632795" lon="12.000093921061367"><ele>13.0</ele><time>2026-04-26T15:48:23.001Z</time></trkpt><trkpt lat="44.37915199019139" lon="11.999994193156047"><ele>13.0</ele><time>2026-04-26T15:48:24.001Z</time></trkpt><trkpt lat="44.37913201905228" lon="11.999905664012672"><ele>13.0</ele><time>2026-04-26T15:48:25.001Z</time></trkpt><trkpt lat="44.37911213500679" lon="11.999817520860612"><ele>13.0</ele><time>2026-04-26T15:48:26.001Z</time></trkpt><trkpt lat="44.37909278347069" lon="11.999731737326652"><ele>13.0</ele><time>2026-04-26T15:48:27.001Z</time></trkpt><trkpt lat="44.37907360539826" lon="11.999646719295505"><ele>13.0</ele><time>2026-04-26T15:48:28.001Z</time></trkpt><trkpt lat="44.3790476849321" lon="11.999557089758065"><ele>13.0</ele><time>2026-04-26T15:48:29.001Z</time></trkpt><trkpt lat="44.37900062408172" lon="11.999478485296358"><ele>13.0</ele><time>2026-04-26T15:48:30.001Z</time></trkpt><trkpt lat="44.37897491267068" lon="11.999389815555412"><ele>13.0</ele><time>2026-04-26T15:48:31.001Z</time></trkpt><trkpt lat="44.37894954953936" lon="11.999307181128865"><ele>13.0</ele><time>2026-04-26T15:48:32.001Z</time></trkpt><trkpt lat="44.37892079172844" lon="11.999216970443184"><ele>13.0</ele><time>2026-04-26T15:48:33.001Z</time></trkpt><trkpt lat="44.3789151964805" lon="11.999120389556607"><ele>13.0</ele><time>2026-04-26T15:48:34.001Z</time></trkpt><trkpt lat="44.37886712079686" lon="11.999050109957876"><ele>13.0</ele><time>2026-04-26T15:48:35.001Z</time></trkpt><trkpt lat="44.37883506987875" lon="11.998968720978059"><ele>13.142857142857142</ele><time>2026-04-26T15:48:36.001Z</time></trkpt><trkpt lat="44.37880524183885" lon="11.998887638283847"><ele>13.285714285714286</ele><time>2026-04-26T15:48:37.001Z</time></trkpt><trkpt lat="44.378776204177505" lon="11.998806035211778"><ele>13.428571428571429</ele><time>2026-04-26T15:48:38.001Z</time></trkpt><trkpt lat="44.37874630070803" lon="11.998723893522985"><ele>13.571428571428571</ele><time>2026-04-26T15:48:39.001Z</time></trkpt><trkpt lat="44.37871414965095" lon="11.998646191006026"><ele>13.714285714285715</ele><time>2026-04-26T15:48:40.001Z</time></trkpt><trkpt lat="44.37868138990311" lon="11.998567385841776"><ele>13.857142857142858</ele><time>2026-04-26T15:48:41.001Z</time></trkpt><trkpt lat="44.378643112620786" lon="11.998489268901697"><ele>14.0</ele><time>2026-04-26T15:48:42.001Z</time></trkpt><trkpt lat="44.37861209285569" lon="11.998411629385842"><ele>13.833333333333334</ele><time>2026-04-26T15:48:43.001Z</time></trkpt><trkpt lat="44.378578437444006" lon="11.998328864446142"><ele>13.666666666666668</ele><time>2026-04-26T15:48:44.001Z</time></trkpt><trkpt lat="44.378547764060535" lon="11.998249000729967"><ele>13.5</ele><time>2026-04-26T15:48:45.001Z</time></trkpt><trkpt lat="44.37851477193835" lon="11.99817324946694"><ele>13.333333333333332</ele><time>2026-04-26T15:48:46.001Z</time></trkpt><trkpt lat="44.37848278027539" lon="11.998094990424024"><ele>13.166666666666666</ele><time>2026-04-26T15:48:47.001Z</time></trkpt><trkpt lat="44.37844645191696" lon="11.998017691831866"><ele>13.0</ele><time>2026-04-26T15:48:48.001Z</time></trkpt><trkpt lat="44.37837460817873" lon="11.99786305538287"><ele>13.0</ele><time>2026-04-26T15:48:50.002Z</time></trkpt><trkpt lat="44.37830890702398" lon="11.99771715710678"><ele>13.0</ele><time>2026-04-26T15:48:52.002Z</time></trkpt><trkpt lat="44.37827665311096" lon="11.997553734270136"><ele>13.0</ele><time>2026-04-26T15:48:54.002Z</time></trkpt><trkpt lat="44.37821313657985" lon="11.997413259621664"><ele>13.0</ele><time>2026-04-26T15:48:56.002Z</time></trkpt><trkpt lat="44.37817705561283" lon="11.99733260037186"><ele>13.0</ele><time>2026-04-26T15:48:57.002Z</time></trkpt><trkpt lat="44.378118560446914" lon="11.997193627216541"><ele>12.8</ele><time>2026-04-26T15:48:59.002Z</time></trkpt><trkpt lat="44.37805648293228" lon="11.997143958252165"><ele>12.600000000000001</ele><time>2026-04-26T15:49:00.002Z</time></trkpt><trkpt lat="44.37800674145107" lon="11.9969999590652"><ele>12.399999999999999</ele><time>2026-04-26T15:49:02.002Z</time></trkpt><trkpt lat="44.377965735069" lon="11.996848667124965"><ele>12.2</ele><time>2026-04-26T15:49:04.002Z</time></trkpt><trkpt lat="44.37792953286932" lon="11.996691801088009"><ele>12.0</ele><time>2026-04-26T15:49:06.002Z</time></trkpt><trkpt lat="44.37791175912925" lon="11.99653030630081"><ele>11.75</ele><time>2026-04-26T15:49:08.002Z</time></trkpt><trkpt lat="44.3778975841114" lon="11.996369411999577"><ele>11.5</ele><time>2026-04-26T15:49:10.002Z</time></trkpt><trkpt lat="44.37789181870602" lon="11.996206266838977"><ele>11.25</ele><time>2026-04-26T15:49:12.002Z</time></trkpt><trkpt lat="44.37791356273442" lon="11.996045304811291"><ele>11.0</ele><time>2026-04-26T15:49:14.002Z</time></trkpt><trkpt lat="44.377928622234265" lon="11.995879491505526"><ele>11.142857142857142</ele><time>2026-04-26T15:49:16.002Z</time></trkpt><trkpt lat="44.377960821815925" lon="11.995714034440908"><ele>11.285714285714285</ele><time>2026-04-26T15:49:18.002Z</time></trkpt><trkpt lat="44.377980478059804" lon="11.99562925129816"><ele>11.428571428571427</ele><time>2026-04-26T15:49:19.002Z</time></trkpt><trkpt lat="44.37799992800877" lon="11.995544814065546"><ele>11.571428571428571</ele><time>2026-04-26T15:49:20.002Z</time></trkpt><trkpt lat="44.37802786920113" lon="11.995465019542827"><ele>11.714285714285714</ele><time>2026-04-26T15:49:21.002Z</time></trkpt><trkpt lat="44.378035669995946" lon="11.9953711859364"><ele>11.857142857142856</ele><time>2026-04-26T15:49:22.002Z</time></trkpt><trkpt lat="44.378062736839524" lon="11.995289321691262"><ele>12.0</ele><time>2026-04-26T15:49:23.003Z</time></trkpt><trkpt lat="44.378092061951236" lon="11.995207655998172"><ele>11.857142857142856</ele><time>2026-04-26T15:49:24.003Z</time></trkpt><trkpt lat="44.37812094221734" lon="11.99512572521956"><ele>11.714285714285714</ele><time>2026-04-26T15:49:25.003Z</time></trkpt><trkpt lat="44.378153400996794" lon="11.995040921248902"><ele>11.571428571428571</ele><time>2026-04-26T15:49:26.003Z</time></trkpt><trkpt lat="44.37818408069599" lon="11.994960531843361"><ele>11.428571428571427</ele><time>2026-04-26T15:49:27.003Z</time></trkpt><trkpt lat="44.378213163760776" lon="11.994881908953522"><ele>11.285714285714285</ele><time>2026-04-26T15:49:28.003Z</time></trkpt><trkpt lat="44.378247729920965" lon="11.994799948666463"><ele>11.142857142857142</ele><time>2026-04-26T15:49:29.003Z</time></trkpt><trkpt lat="44.37828229671192" lon="11.994726028645925"><ele>11.0</ele><time>2026-04-26T15:49:30.003Z</time></trkpt><trkpt lat="44.37832374797891" lon="11.99465466653666"><ele>11.0</ele><time>2026-04-26T15:49:31.003Z</time></trkpt><trkpt lat="44.378382442825746" lon="11.994610561171209"><ele>11.0</ele><time>2026-04-26T15:49:32.003Z</time></trkpt><trkpt lat="44.378424590330006" lon="11.994544738577698"><ele>11.0</ele><time>2026-04-26T15:49:33.003Z</time></trkpt><trkpt lat="44.378468490403705" lon="11.99447750599155"><ele>11.0</ele><time>2026-04-26T15:49:34.003Z</time></trkpt><trkpt lat="44.37851165313315" lon="11.994412289335244"><ele>11.0</ele><time>2026-04-26T15:49:35.003Z</time></trkpt><trkpt lat="44.37860041579452" lon="11.994280076800782"><ele>11.0</ele><time>2026-04-26T15:49:37.003Z</time></trkpt><trkpt lat="44.37864701739946" lon="11.994209530437592"><ele>11.0</ele><time>2026-04-26T15:49:38.003Z</time></trkpt><trkpt lat="44.378690328677074" lon="11.99413932804541"><ele>11.0</ele><time>2026-04-26T15:49:39.003Z</time></trkpt><trkpt lat="44.37873261237476" lon="11.9940698716497"><ele>11.0</ele><time>2026-04-26T15:49:40.003Z</time></trkpt><trkpt lat="44.378758812905296" lon="11.993989029248647"><ele>11.0</ele><time>2026-04-26T15:49:41.003Z</time></trkpt><trkpt lat="44.378811685898526" lon="11.993925690222515"><ele>11.0</ele><time>2026-04-26T15:49:42.003Z</time></trkpt><trkpt lat="44.37884859877131" lon="11.993850717594045"><ele>11.0</ele><time>2026-04-26T15:49:43.003Z</time></trkpt><trkpt lat="44.37890925737344" lon="11.993697428716494"><ele>11.0</ele><time>2026-04-26T15:49:45.003Z</time></trkpt><trkpt lat="44.37895758064567" lon="11.993541368530282"><ele>11.0</ele><time>2026-04-26T15:49:47.003Z</time></trkpt><trkpt lat="44.37899009442248" lon="11.993379637348188"><ele>11.0</ele><time>2026-04-26T15:49:49Z</time></trkpt><trkpt lat="44.37900562562544" lon="11.993210783049081"><ele>11.0</ele><time>2026-04-26T15:49:51Z</time></trkpt><trkpt lat="44.37898532393047" lon="11.993041013400045"><ele>11.25</ele><time>2026-04-26T15:49:53Z</time></trkpt><trkpt lat="44.37897803380898" lon="11.992874189449648"><ele>11.5</ele><time>2026-04-26T15:49:55Z</time></trkpt><trkpt lat="44.37894406283853" lon="11.992708921109852"><ele>11.75</ele><time>2026-04-26T15:49:57Z</time></trkpt><trkpt lat="44.37890271381135" lon="11.992542765041854"><ele>12.0</ele><time>2026-04-26T15:49:59Z</time></trkpt><trkpt lat="44.3788555374057" lon="11.992376169389727"><ele>11.999999999999998</ele><time>2026-04-26T15:50:01Z</time></trkpt><trkpt lat="44.37882979478434" lon="11.992293958462257"><ele>12.0</ele><time>2026-04-26T15:50:02Z</time></trkpt><trkpt lat="44.37880281780795" lon="11.992210630890126"><ele>12.0</ele><time>2026-04-26T15:50:03Z</time></trkpt><trkpt lat="44.378773507149035" lon="11.992122608928602"><ele>12.0</ele><time>2026-04-26T15:50:04Z</time></trkpt><trkpt lat="44.37874637352672" lon="11.992042024889187"><ele>12.0</ele><time>2026-04-26T15:50:05Z</time></trkpt><trkpt lat="44.37871611904978" lon="11.991955819425323"><ele>11.999999999999998</ele><time>2026-04-26T15:50:06Z</time></trkpt><trkpt lat="44.3786849384095" lon="11.991866974825596"><ele>12.0</ele><time>2026-04-26T15:50:07Z</time></trkpt><trkpt lat="44.37865705414612" lon="11.99178752295009"><ele>12.0</ele><time>2026-04-26T15:50:08Z</time></trkpt><trkpt lat="44.37862779804553" lon="11.99170416197565"><ele>12.0</ele><time>2026-04-26T15:50:09Z</time></trkpt><trkpt lat="44.37859754256779" lon="11.991617953628035"><ele>12.0</ele><time>2026-04-26T15:50:10Z</time></trkpt><trkpt lat="44.37856924065421" lon="11.991537311624661"><ele>12.0</ele><time>2026-04-26T15:50:11Z</time></trkpt><trkpt lat="44.37854054918542" lon="11.991455789477342"><ele>12.0</ele><time>2026-04-26T15:50:12Z</time></trkpt><trkpt lat="44.37848284480491" lon="11.991294331719045"><ele>12.0</ele><time>2026-04-26T15:50:14Z</time></trkpt><trkpt lat="44.37845460628266" lon="11.991215320215197"><ele>12.0</ele><time>2026-04-26T15:50:15Z</time></trkpt><trkpt lat="44.37842401010208" lon="11.991129711581566"><ele>12.0</ele><time>2026-04-26T15:50:16.001Z</time></trkpt><trkpt lat="44.37835117445751" lon="11.99098745206399"><ele>12.0</ele><time>2026-04-26T15:50:18.001Z</time></trkpt><trkpt lat="44.37830522255421" lon="11.990820439689676"><ele>12.0</ele><time>2026-04-26T15:50:20.001Z</time></trkpt><trkpt lat="44.378274030256556" lon="11.99074140618433"><ele>12.0</ele><time>2026-04-26T15:50:21.001Z</time></trkpt><trkpt lat="44.37820928115063" lon="11.990590179444078"><ele>12.0</ele><time>2026-04-26T15:50:23.001Z</time></trkpt><trkpt lat="44.37817611089999" lon="11.99051492284641"><ele>12.0</ele><time>2026-04-26T15:50:24.001Z</time></trkpt><trkpt lat="44.3781419864474" lon="11.99043750134751"><ele>12.0</ele><time>2026-04-26T15:50:25.001Z</time></trkpt><trkpt lat="44.37807532188633" lon="11.990286252979415"><ele>12.0</ele><time>2026-04-26T15:50:27.001Z</time></trkpt><trkpt lat="44.37804081113515" lon="11.990207955088689"><ele>12.0</ele><time>2026-04-26T15:50:28.001Z</time></trkpt><trkpt lat="44.37797590033202" lon="11.990056710186982"><ele>12.0</ele><time>2026-04-26T15:50:30.001Z</time></trkpt><trkpt lat="44.37794424840882" lon="11.989980331342482"><ele>12.2</ele><time>2026-04-26T15:50:31.001Z</time></trkpt><trkpt lat="44.377883923672066" lon="11.989827006063853"><ele>12.399999999999999</ele><time>2026-04-26T15:50:33.001Z</time></trkpt><trkpt lat="44.37785533890854" lon="11.989748407923061"><ele>12.600000000000001</ele><time>2026-04-26T15:50:34.001Z</time></trkpt><trkpt lat="44.37780299185112" lon="11.989593239635877"><ele>12.8</ele><time>2026-04-26T15:50:36.001Z</time></trkpt><trkpt lat="44.377752426008804" lon="11.989432479993988"><ele>13.0</ele><time>2026-04-26T15:50:38.001Z</time></trkpt><trkpt lat="44.377702276138926" lon="11.98927104154701"><ele>12.999999999999998</ele><time>2026-04-26T15:50:40.001Z</time></trkpt><trkpt lat="44.377657682177436" lon="11.989108075857487"><ele>13.0</ele><time>2026-04-26T15:50:42.001Z</time></trkpt><trkpt lat="44.3776357131087" lon="11.989021343865737"><ele>13.0</ele><time>2026-04-26T15:50:43.001Z</time></trkpt><trkpt lat="44.37761601506874" lon="11.988934919009848"><ele>13.0</ele><time>2026-04-26T15:50:44.001Z</time></trkpt><trkpt lat="44.37755486177456" lon="11.98877997893048"><ele>12.999999999999998</ele><time>2026-04-26T15:50:46.001Z</time></trkpt><trkpt lat="44.37753904536157" lon="11.988692777401347"><ele>13.0</ele><time>2026-04-26T15:50:47.001Z</time></trkpt><trkpt lat="44.37752447630934" lon="11.988606753642221"><ele>12.999999999999998</ele><time>2026-04-26T15:50:48.001Z</time></trkpt><trkpt lat="44.37750611667866" lon="11.988518722143906"><ele>13.0</ele><time>2026-04-26T15:50:49.001Z</time></trkpt><trkpt lat="44.37748970476904" lon="11.988430371351402"><ele>13.0</ele><time>2026-04-26T15:50:50.002Z</time></trkpt><trkpt lat="44.377470565636585" lon="11.988340755596846"><ele>13.0</ele><time>2026-04-26T15:50:51.002Z</time></trkpt><trkpt lat="44.37745469716833" lon="11.988249221571337"><ele>12.999999999999998</ele><time>2026-04-26T15:50:52.002Z</time></trkpt><trkpt lat="44.37743680986773" lon="11.988157076585798"><ele>13.0</ele><time>2026-04-26T15:50:53.002Z</time></trkpt><trkpt lat="44.377391329933396" lon="11.987990368217693"><ele>13.0</ele><time>2026-04-26T15:50:55.002Z</time></trkpt><trkpt lat="44.377369529749096" lon="11.987904733758048"><ele>13.0</ele><time>2026-04-26T15:50:56.002Z</time></trkpt><trkpt lat="44.3773419652026" lon="11.987819529124756"><ele>13.0</ele><time>2026-04-26T15:50:57.002Z</time></trkpt><trkpt lat="44.377331687007086" lon="11.987723232258551"><ele>13.0</ele><time>2026-04-26T15:50:58.002Z</time></trkpt><trkpt lat="44.37729954930463" lon="11.987639172614768"><ele>13.0</ele><time>2026-04-26T15:50:59.002Z</time></trkpt><trkpt lat="44.377267065048045" lon="11.987554140266107"><ele>13.0</ele><time>2026-04-26T15:51:00.002Z</time></trkpt><trkpt lat="44.3772358235372" lon="11.98747224184089"><ele>13.0</ele><time>2026-04-26T15:51:01.002Z</time></trkpt><trkpt lat="44.3772053320223" lon="11.98739197605784"><ele>12.857142857142856</ele><time>2026-04-26T15:51:02.002Z</time></trkpt><trkpt lat="44.37717287724138" lon="11.987306542744543"><ele>12.714285714285715</ele><time>2026-04-26T15:51:03.002Z</time></trkpt><trkpt lat="44.37714563298677" lon="11.987220906073278"><ele>12.571428571428571</ele><time>2026-04-26T15:51:04.002Z</time></trkpt><trkpt lat="44.37712246772924" lon="11.987138690616765"><ele>12.428571428571427</ele><time>2026-04-26T15:51:05.002Z</time></trkpt><trkpt lat="44.37710138165508" lon="11.987049451863866"><ele>12.285714285714285</ele><time>2026-04-26T15:51:06.002Z</time></trkpt><trkpt lat="44.37708547537395" lon="11.986962092760784"><ele>12.142857142857142</ele><time>2026-04-26T15:51:07.002Z</time></trkpt><trkpt lat="44.377075822316165" lon="11.986873052959137"><ele>12.0</ele><time>2026-04-26T15:51:08.002Z</time></trkpt><trkpt lat="44.37707542926748" lon="11.986781219032567"><ele>11.999999999999998</ele><time>2026-04-26T15:51:09.002Z</time></trkpt><trkpt lat="44.37707961387609" lon="11.986688329193939"><ele>12.0</ele><time>2026-04-26T15:51:10.002Z</time></trkpt><trkpt lat="44.37708819365437" lon="11.986589768110004"><ele>12.0</ele><time>2026-04-26T15:51:11.002Z</time></trkpt><trkpt lat="44.37709845717834" lon="11.986500134233898"><ele>12.0</ele><time>2026-04-26T15:51:12.002Z</time></trkpt><trkpt lat="44.37711156946372" lon="11.98640145160776"><ele>12.0</ele><time>2026-04-26T15:51:13.002Z</time></trkpt><trkpt lat="44.37712983840673" lon="11.986314338022051"><ele>11.999999999999998</ele><time>2026-04-26T15:51:14.002Z</time></trkpt><trkpt lat="44.37715514831963" lon="11.986228940250427"><ele>12.0</ele><time>2026-04-26T15:51:15.002Z</time></trkpt><trkpt lat="44.37718548097019" lon="11.986142491236109"><ele>12.333333333333334</ele><time>2026-04-26T15:51:16.002Z</time></trkpt><trkpt lat="44.37722292386935" lon="11.986067365547543"><ele>12.666666666666668</ele><time>2026-04-26T15:51:17.002Z</time></trkpt><trkpt lat="44.37726412377362" lon="11.985992648176925"><ele>13.0</ele><time>2026-04-26T15:51:18.002Z</time></trkpt><trkpt lat="44.37730650342071" lon="11.985911680318369"><ele>13.333333333333334</ele><time>2026-04-26T15:51:19.002Z</time></trkpt><trkpt lat="44.377349667826756" lon="11.985840914104157"><ele>13.666666666666668</ele><time>2026-04-26T15:51:20.002Z</time></trkpt><trkpt lat="44.377396233728206" lon="11.985764509976612"><ele>14.0</ele><time>2026-04-26T15:51:21.002Z</time></trkpt><trkpt lat="44.377476935120555" lon="11.985632097304089"><ele>14.166666666666668</ele><time>2026-04-26T15:51:23.002Z</time></trkpt><trkpt lat="44.3775209117069" lon="11.985559941853518"><ele>14.333333333333334</ele><time>2026-04-26T15:51:24.003Z</time></trkpt><trkpt lat="44.37756437359792" lon="11.985488630702177"><ele>14.5</ele><time>2026-04-26T15:51:25.003Z</time></trkpt><trkpt lat="44.37763644924264" lon="11.98536553597921"><ele>14.666666666666668</ele><time>2026-04-26T15:51:27.003Z</time></trkpt><trkpt lat="44.37767465690029" lon="11.985211302697161"><ele>14.833333333333334</ele><time>2026-04-26T15:51:29.003Z</time></trkpt><trkpt lat="44.37766458361348" lon="11.985112694326212"><ele>15.0</ele><time>2026-04-26T15:51:30.003Z</time></trkpt><trkpt lat="44.37764971064851" lon="11.985025413911055"><ele>14.5</ele><time>2026-04-26T15:51:31.003Z</time></trkpt><trkpt lat="44.37758825920969" lon="11.984885229663979"><ele>14.0</ele><time>2026-04-26T15:51:33.003Z</time></trkpt><trkpt lat="44.377512388457426" lon="11.984752520450273"><ele>13.5</ele><time>2026-04-26T15:51:35.003Z</time></trkpt><trkpt lat="44.37743105422998" lon="11.984626870137369"><ele>13.0</ele><time>2026-04-26T15:51:37.003Z</time></trkpt><trkpt lat="44.37734581609615" lon="11.984510353283133"><ele>12.999999999999998</ele><time>2026-04-26T15:51:39.003Z</time></trkpt><trkpt lat="44.3772569452522" lon="11.984391890838884"><ele>13.0</ele><time>2026-04-26T15:51:41.003Z</time></trkpt><trkpt lat="44.377165416352824" lon="11.984281552278402"><ele>13.0</ele><time>2026-04-26T15:51:43.003Z</time></trkpt><trkpt lat="44.37711302875256" lon="11.98422527756537"><ele>13.0</ele><time>2026-04-26T15:51:44.003Z</time></trkpt><trkpt lat="44.3770560922809" lon="11.98417320118732"><ele>12.999999999999998</ele><time>2026-04-26T15:51:45.003Z</time></trkpt><trkpt lat="44.37699308257097" lon="11.98415117947775"><ele>13.0</ele><time>2026-04-26T15:51:46.003Z</time></trkpt><trkpt lat="44.37693596140127" lon="11.984110199067315"><ele>12.999999999999998</ele><time>2026-04-26T15:51:47.003Z</time></trkpt><trkpt lat="44.37682964870162" lon="11.98401560231835"><ele>13.0</ele><time>2026-04-26T15:51:49.003Z</time></trkpt><trkpt lat="44.376771910051" lon="11.983978229938659"><ele>13.0</ele><time>2026-04-26T15:51:50.003Z</time></trkpt><trkpt lat="44.376707411421414" lon="11.983939513516539"><ele>13.0</ele><time>2026-04-26T15:51:51.003Z</time></trkpt><trkpt lat="44.37664322314037" lon="11.983908929792987"><ele>12.999999999999998</ele><time>2026-04-26T15:51:52.003Z</time></trkpt><trkpt lat="44.376582090392304" lon="11.983881463885892"><ele>13.0</ele><time>2026-04-26T15:51:53.003Z</time></trkpt><trkpt lat="44.37651460276873" lon="11.9838523515106"><ele>13.0</ele><time>2026-04-26T15:51:54.003Z</time></trkpt><trkpt lat="44.376452548532676" lon="11.983828488879334"><ele>13.0</ele><time>2026-04-26T15:51:55Z</time></trkpt><trkpt lat="44.37638590219942" lon="11.983804138520712"><ele>13.0</ele><time>2026-04-26T15:51:56Z</time></trkpt><trkpt lat="44.37632052292724" lon="11.983784332296151"><ele>13.0</ele><time>2026-04-26T15:51:57Z</time></trkpt><trkpt lat="44.37625470032159" lon="11.983764412550242"><ele>13.0</ele><time>2026-04-26T15:51:58Z</time></trkpt><trkpt lat="44.37618153580898" lon="11.983753126697373"><ele>13.0</ele><time>2026-04-26T15:51:59Z</time></trkpt><trkpt lat="44.37611229306901" lon="11.983759670440927"><ele>13.0</ele><time>2026-04-26T15:52:00Z</time></trkpt><trkpt lat="44.37605162276494" lon="11.983717705332477"><ele>13.142857142857142</ele><time>2026-04-26T15:52:01Z</time></trkpt><trkpt lat="44.375979167275965" lon="11.983694333108277"><ele>13.285714285714286</ele><time>2026-04-26T15:52:02Z</time></trkpt><trkpt lat="44.375908459961686" lon="11.983676627608734"><ele>13.428571428571429</ele><time>2026-04-26T15:52:03Z</time></trkpt><trkpt lat="44.37583804762057" lon="11.98365994237219"><ele>13.571428571428571</ele><time>2026-04-26T15:52:04Z</time></trkpt><trkpt lat="44.37576910568371" lon="11.983643605579873"><ele>13.714285714285715</ele><time>2026-04-26T15:52:05Z</time></trkpt><trkpt lat="44.37569972043371" lon="11.983625722254436"><ele>13.857142857142858</ele><time>2026-04-26T15:52:06Z</time></trkpt><trkpt lat="44.37563001890989" lon="11.983607168947202"><ele>14.0</ele><time>2026-04-26T15:52:07Z</time></trkpt><trkpt lat="44.37556209349064" lon="11.983587159190982"><ele>13.666666666666668</ele><time>2026-04-26T15:52:08Z</time></trkpt><trkpt lat="44.37549356297721" lon="11.983565248276395"><ele>13.333333333333334</ele><time>2026-04-26T15:52:09Z</time></trkpt><trkpt lat="44.37543087894306" lon="11.98353876899285"><ele>13.0</ele><time>2026-04-26T15:52:10Z</time></trkpt><trkpt lat="44.37536359345369" lon="11.983508623784386"><ele>12.666666666666668</ele><time>2026-04-26T15:52:11Z</time></trkpt><trkpt lat="44.3753001939809" lon="11.983479250404084"><ele>12.333333333333334</ele><time>2026-04-26T15:52:12Z</time></trkpt><trkpt lat="44.375232810307445" lon="11.98344555942933"><ele>12.0</ele><time>2026-04-26T15:52:13Z</time></trkpt><trkpt lat="44.37512894848658" lon="11.983368177496864"><ele>12.399999999999999</ele><time>2026-04-26T15:52:15Z</time></trkpt><trkpt lat="44.37507079658283" lon="11.983322100586015"><ele>12.799999999999999</ele><time>2026-04-26T15:52:16Z</time></trkpt><trkpt lat="44.37495975391778" lon="11.983230090862516"><ele>13.2</ele><time>2026-04-26T15:52:18.001Z</time></trkpt><trkpt lat="44.37485910857764" lon="11.983125696972166"><ele>13.6</ele><time>2026-04-26T15:52:20.001Z</time></trkpt><trkpt lat="44.37480999258742" lon="11.983066694364283"><ele>14.0</ele><time>2026-04-26T15:52:21.001Z</time></trkpt><trkpt lat="44.37475919174312" lon="11.983004269129797"><ele>14.0</ele><time>2026-04-26T15:52:22.001Z</time></trkpt><trkpt lat="44.37471063904862" lon="11.982936121162112"><ele>14.0</ele><time>2026-04-26T15:52:23.001Z</time></trkpt><trkpt lat="44.37466089118901" lon="11.982860231223887"><ele>14.0</ele><time>2026-04-26T15:52:24.001Z</time></trkpt><trkpt lat="44.374612172727794" lon="11.982782887377939"><ele>14.0</ele><time>2026-04-26T15:52:25.001Z</time></trkpt><trkpt lat="44.374564959977455" lon="11.9827010711711"><ele>14.0</ele><time>2026-04-26T15:52:26.001Z</time></trkpt><trkpt lat="44.374517282469164" lon="11.982614497473064"><ele>14.0</ele><time>2026-04-26T15:52:27.001Z</time></trkpt><trkpt lat="44.37447311475576" lon="11.982527455374024"><ele>14.0</ele><time>2026-04-26T15:52:28.001Z</time></trkpt><trkpt lat="44.37442943711712" lon="11.982433853157108"><ele>14.000000000000002</ele><time>2026-04-26T15:52:29.001Z</time></trkpt><trkpt lat="44.37438585504459" lon="11.982339067311129"><ele>14.0</ele><time>2026-04-26T15:52:30.001Z</time></trkpt><trkpt lat="44.37434503846192" lon="11.9822474249732"><ele>14.0</ele><time>2026-04-26T15:52:31.001Z</time></trkpt><trkpt lat="44.37430276752094" lon="11.98215251691925"><ele>14.0</ele><time>2026-04-26T15:52:32.001Z</time></trkpt><trkpt lat="44.37426323613152" lon="11.982063759690867"><ele>14.000000000000002</ele><time>2026-04-26T15:52:33.001Z</time></trkpt><trkpt lat="44.37421929006228" lon="11.981966189391068"><ele>14.0</ele><time>2026-04-26T15:52:34.001Z</time></trkpt><trkpt lat="44.37417770505057" lon="11.981873872119813"><ele>14.000000000000002</ele><time>2026-04-26T15:52:35.001Z</time></trkpt><trkpt lat="44.37413657903424" lon="11.981782574210943"><ele>14.0</ele><time>2026-04-26T15:52:36.001Z</time></trkpt><trkpt lat="44.374095458759435" lon="11.981688347786344"><ele>14.0</ele><time>2026-04-26T15:52:37.001Z</time></trkpt><trkpt lat="44.374054773816546" lon="11.981594611441308"><ele>14.0</ele><time>2026-04-26T15:52:38.001Z</time></trkpt><trkpt lat="44.37401429863129" lon="11.981501639655905"><ele>14.000000000000002</ele><time>2026-04-26T15:52:39.001Z</time></trkpt><trkpt lat="44.37397444584835" lon="11.981412063682702"><ele>14.0</ele><time>2026-04-26T15:52:40.001Z</time></trkpt><trkpt lat="44.37393473462728" lon="11.98132280583209"><ele>14.000000000000002</ele><time>2026-04-26T15:52:41.001Z</time></trkpt><trkpt lat="44.37389490978628" lon="11.981230941927443"><ele>14.0</ele><time>2026-04-26T15:52:42.001Z</time></trkpt><trkpt lat="44.37385399446273" lon="11.98113333762684"><ele>14.0</ele><time>2026-04-26T15:52:43.001Z</time></trkpt><trkpt lat="44.37381418057844" lon="11.98103836054927"><ele>14.0</ele><time>2026-04-26T15:52:44.001Z</time></trkpt><trkpt lat="44.37377994236208" lon="11.980941346932847"><ele>14.000000000000002</ele><time>2026-04-26T15:52:45.001Z</time></trkpt><trkpt lat="44.37374523014915" lon="11.980844712013187"><ele>14.0</ele><time>2026-04-26T15:52:46.001Z</time></trkpt><trkpt lat="44.3737102802091" lon="11.980746829798342"><ele>14.000000000000002</ele><time>2026-04-26T15:52:47.001Z</time></trkpt><trkpt lat="44.373676430691354" lon="11.980646000194133"><ele>14.0</ele><time>2026-04-26T15:52:48.001Z</time></trkpt><trkpt lat="44.37364074762111" lon="11.980547901676807"><ele>14.0</ele><time>2026-04-26T15:52:49.001Z</time></trkpt><trkpt lat="44.37359923584235" lon="11.980455324946414"><ele>14.0</ele><time>2026-04-26T15:52:50.001Z</time></trkpt><trkpt lat="44.373550856748246" lon="11.980371379542293"><ele>14.000000000000002</ele><time>2026-04-26T15:52:51.001Z</time></trkpt><trkpt lat="44.373492385082024" lon="11.980297860143441"><ele>14.0</ele><time>2026-04-26T15:52:52.001Z</time></trkpt><trkpt lat="44.37341764975321" lon="11.98023648528287"><ele>14.000000000000002</ele><time>2026-04-26T15:52:53.001Z</time></trkpt><trkpt lat="44.37333729000718" lon="11.980194329660646"><ele>14.0</ele><time>2026-04-26T15:52:54.001Z</time></trkpt><trkpt lat="44.37325543481483" lon="11.98016587200843"><ele>14.0</ele><time>2026-04-26T15:52:55.002Z</time></trkpt><trkpt lat="44.37317592729989" lon="11.980140062726816"><ele>14.0</ele><time>2026-04-26T15:52:56.002Z</time></trkpt><trkpt lat="44.37309322532345" lon="11.980118342299319"><ele>14.000000000000002</ele><time>2026-04-26T15:52:57.002Z</time></trkpt><trkpt lat="44.37301295901433" lon="11.980097352689297"><ele>14.0</ele><time>2026-04-26T15:52:58.002Z</time></trkpt><trkpt lat="44.372933364712786" lon="11.98007653702089"><ele>14.000000000000002</ele><time>2026-04-26T15:52:59.002Z</time></trkpt><trkpt lat="44.37285195604361" lon="11.980055246837853"><ele>14.0</ele><time>2026-04-26T15:53:00.002Z</time></trkpt><trkpt lat="44.372773971449284" lon="11.980034286465589"><ele>14.0</ele><time>2026-04-26T15:53:01.002Z</time></trkpt><trkpt lat="44.372695067113725" lon="11.980011479636866"><ele>14.0</ele><time>2026-04-26T15:53:02.002Z</time></trkpt><trkpt lat="44.37261870365072" lon="11.979989407238497"><ele>14.000000000000002</ele><time>2026-04-26T15:53:03.002Z</time></trkpt><trkpt lat="44.37254107987867" lon="11.979962862419589"><ele>14.0</ele><time>2026-04-26T15:53:04.002Z</time></trkpt><trkpt lat="44.37246280130956" lon="11.979949051531744"><ele>14.000000000000002</ele><time>2026-04-26T15:53:05.002Z</time></trkpt><trkpt lat="44.37239739711303" lon="11.979893500471832"><ele>14.0</ele><time>2026-04-26T15:53:06.002Z</time></trkpt><trkpt lat="44.37232488197226" lon="11.979847725297404"><ele>14.0</ele><time>2026-04-26T15:53:07.002Z</time></trkpt><trkpt lat="44.372259069088365" lon="11.979796835708152"><ele>14.0</ele><time>2026-04-26T15:53:08.002Z</time></trkpt><trkpt lat="44.37219373971214" lon="11.979741186234685"><ele>14.000000000000002</ele><time>2026-04-26T15:53:09.002Z</time></trkpt><trkpt lat="44.372124132662115" lon="11.9796819703401"><ele>14.0</ele><time>2026-04-26T15:53:10.002Z</time></trkpt><trkpt lat="44.37205812731494" lon="11.979622810134465"><ele>14.000000000000002</ele><time>2026-04-26T15:53:11.002Z</time></trkpt><trkpt lat="44.371989398464976" lon="11.979560625270283"><ele>14.0</ele><time>2026-04-26T15:53:12.002Z</time></trkpt><trkpt lat="44.371920752233294" lon="11.979498515184526"><ele>14.0</ele><time>2026-04-26T15:53:13.002Z</time></trkpt><trkpt lat="44.37185069424199" lon="11.979436393364306"><ele>14.0</ele><time>2026-04-26T15:53:14.002Z</time></trkpt><trkpt lat="44.371777469029794" lon="11.979376285334707"><ele>14.000000000000002</ele><time>2026-04-26T15:53:15.002Z</time></trkpt><trkpt lat="44.37170534419651" lon="11.979318320027694"><ele>14.0</ele><time>2026-04-26T15:53:16.002Z</time></trkpt><trkpt lat="44.37163635417165" lon="11.979262873944995"><ele>14.000000000000002</ele><time>2026-04-26T15:53:17.002Z</time></trkpt><trkpt lat="44.371571389407514" lon="11.979211966892457"><ele>14.0</ele><time>2026-04-26T15:53:18.002Z</time></trkpt><trkpt lat="44.37150857821208" lon="11.979163098200848"><ele>14.0</ele><time>2026-04-26T15:53:19.002Z</time></trkpt><trkpt lat="44.3714489178371" lon="11.979116680901948"><ele>14.0</ele><time>2026-04-26T15:53:20.002Z</time></trkpt><trkpt lat="44.371390526861425" lon="11.979074091331746"><ele>14.000000000000002</ele><time>2026-04-26T15:53:21.002Z</time></trkpt><trkpt lat="44.371331357300235" lon="11.979031283434583"><ele>14.0</ele><time>2026-04-26T15:53:22.002Z</time></trkpt><trkpt lat="44.3712243452952" lon="11.978962382601946"><ele>14.333333333333334</ele><time>2026-04-26T15:53:24.002Z</time></trkpt><trkpt lat="44.37113288465044" lon="11.978938210522013"><ele>14.666666666666668</ele><time>2026-04-26T15:53:26.002Z</time></trkpt><trkpt lat="44.37106306297555" lon="11.978897786167297"><ele>15.0</ele><time>2026-04-26T15:53:28.002Z</time></trkpt><trkpt lat="44.3709843193832" lon="11.978848107268384"><ele>15.333333333333332</ele><time>2026-04-26T15:53:31.003Z</time></trkpt><trkpt lat="44.37091488249361" lon="11.978817355670506"><ele>15.666666666666666</ele><time>2026-04-26T15:53:35.003Z</time></trkpt><trkpt lat="44.37082276238115" lon="11.978787212570314"><ele>16.0</ele><time>2026-04-26T15:53:41.003Z</time></trkpt><trkpt lat="44.37073730151594" lon="11.978728289652294"><ele>15.999999999999998</ele><time>2026-04-26T15:53:43.003Z</time></trkpt><trkpt lat="44.370621693655735" lon="11.97869573814644"><ele>16.0</ele><time>2026-04-26T15:53:45.003Z</time></trkpt><trkpt lat="44.37055804809559" lon="11.978687348974946"><ele>16.0</ele><time>2026-04-26T15:53:46.003Z</time></trkpt><trkpt lat="44.37049028503853" lon="11.978679816540167"><ele>16.0</ele><time>2026-04-26T15:53:47.003Z</time></trkpt><trkpt lat="44.370418808753676" lon="11.978672441845017"><ele>15.999999999999998</ele><time>2026-04-26T15:53:48.003Z</time></trkpt><trkpt lat="44.37034684899342" lon="11.978665686231611"><ele>16.0</ele><time>2026-04-26T15:53:49.003Z</time></trkpt><trkpt lat="44.37027314901137" lon="11.978660731401222"><ele>15.666666666666666</ele><time>2026-04-26T15:53:50.003Z</time></trkpt><trkpt lat="44.37019575271821" lon="11.978657491276234"><ele>15.333333333333332</ele><time>2026-04-26T15:53:51.003Z</time></trkpt><trkpt lat="44.37011632173861" lon="11.978659298177773"><ele>15.0</ele><time>2026-04-26T15:53:52.003Z</time></trkpt><trkpt lat="44.37003567054646" lon="11.97866356512331"><ele>14.666666666666668</ele><time>2026-04-26T15:53:53.003Z</time></trkpt><trkpt lat="44.36995208090266" lon="11.978672580974065"><ele>14.333333333333334</ele><time>2026-04-26T15:53:54.003Z</time></trkpt><trkpt lat="44.3698737035973" lon="11.978710374747843"><ele>14.0</ele><time>2026-04-26T15:53:55.003Z</time></trkpt><trkpt lat="44.36979162836859" lon="11.978729406098736"><ele>14.000000000000002</ele><time>2026-04-26T15:53:56.003Z</time></trkpt><trkpt lat="44.369709989439244" lon="11.978747749686477"><ele>14.0</ele><time>2026-04-26T15:53:57.003Z</time></trkpt><trkpt lat="44.369630648994935" lon="11.978766572502165"><ele>14.0</ele><time>2026-04-26T15:53:58.003Z</time></trkpt><trkpt lat="44.369552507119934" lon="11.978798027801282"><ele>14.0</ele><time>2026-04-26T15:53:59.003Z</time></trkpt><trkpt lat="44.369478718774495" lon="11.978817899082125"><ele>14.000000000000002</ele><time>2026-04-26T15:54:00.001Z</time></trkpt><trkpt lat="44.36941029792655" lon="11.978841139656609"><ele>14.0</ele><time>2026-04-26T15:54:01Z</time></trkpt><trkpt lat="44.369308146635014" lon="11.978872556096487"><ele>14.0</ele><time>2026-04-26T15:54:03Z</time></trkpt><trkpt lat="44.36922832790105" lon="11.97889470862374"><ele>13.999999999999998</ele><time>2026-04-26T15:54:05Z</time></trkpt><trkpt lat="44.36915899280306" lon="11.978914799867878"><ele>13.999999999999998</ele><time>2026-04-26T15:54:07Z</time></trkpt><trkpt lat="44.369054846806534" lon="11.978937741816523"><ele>14.0</ele><time>2026-04-26T15:54:09Z</time></trkpt><trkpt lat="44.36893004901699" lon="11.978965826626345"><ele>14.0</ele><time>2026-04-26T15:54:11Z</time></trkpt><trkpt lat="44.36885614388253" lon="11.978976210633798"><ele>13.666666666666668</ele><time>2026-04-26T15:54:12Z</time></trkpt><trkpt lat="44.36878382436049" lon="11.978995082286964"><ele>13.333333333333334</ele><time>2026-04-26T15:54:13Z</time></trkpt><trkpt lat="44.36870777632431" lon="11.979005127679164"><ele>13.0</ele><time>2026-04-26T15:54:14Z</time></trkpt><trkpt lat="44.36862629259151" lon="11.979000723897993"><ele>12.666666666666668</ele><time>2026-04-26T15:54:15Z</time></trkpt><trkpt lat="44.36854780068371" lon="11.978991124884878"><ele>12.333333333333334</ele><time>2026-04-26T15:54:16Z</time></trkpt><trkpt lat="44.36846664995219" lon="11.978980824952995"><ele>12.0</ele><time>2026-04-26T15:54:17Z</time></trkpt><trkpt lat="44.368386060664164" lon="11.978971520847816"><ele>12.0</ele><time>2026-04-26T15:54:18Z</time></trkpt><trkpt lat="44.36830101573537" lon="11.978960435319467"><ele>12.0</ele><time>2026-04-26T15:54:19.001Z</time></trkpt><trkpt lat="44.36821896489387" lon="11.978960834345605"><ele>12.0</ele><time>2026-04-26T15:54:20.001Z</time></trkpt><trkpt lat="44.36813299217035" lon="11.978959546218091"><ele>12.0</ele><time>2026-04-26T15:54:21.001Z</time></trkpt><trkpt lat="44.36804799006467" lon="11.978952762470836"><ele>12.0</ele><time>2026-04-26T15:54:22.001Z</time></trkpt><trkpt lat="44.367962537186365" lon="11.978960726862805"><ele>12.0</ele><time>2026-04-26T15:54:23.001Z</time></trkpt><trkpt lat="44.36787959420369" lon="11.978961370435174"><ele>12.166666666666666</ele><time>2026-04-26T15:54:24.001Z</time></trkpt><trkpt lat="44.36779881938277" lon="11.978963997436269"><ele>12.333333333333332</ele><time>2026-04-26T15:54:25.001Z</time></trkpt><trkpt lat="44.36771381587822" lon="11.978964985165158"><ele>12.5</ele><time>2026-04-26T15:54:26.001Z</time></trkpt><trkpt lat="44.36763093344685" lon="11.978967384949035"><ele>12.666666666666666</ele><time>2026-04-26T15:54:27.001Z</time></trkpt><trkpt lat="44.36755019631235" lon="11.978968093000383"><ele>12.833333333333332</ele><time>2026-04-26T15:54:28.001Z</time></trkpt><trkpt lat="44.36747257074242" lon="11.97894108856623"><ele>13.0</ele><time>2026-04-26T15:54:29.001Z</time></trkpt><trkpt lat="44.36739462620749" lon="11.978934143737494"><ele>12.999999999999998</ele><time>2026-04-26T15:54:30.001Z</time></trkpt><trkpt lat="44.367316048537916" lon="11.97894902352278"><ele>13.0</ele><time>2026-04-26T15:54:31.001Z</time></trkpt><trkpt lat="44.36723638792922" lon="11.978935370929806"><ele>13.0</ele><time>2026-04-26T15:54:32.001Z</time></trkpt><trkpt lat="44.36715939865395" lon="11.978922341863436"><ele>13.0</ele><time>2026-04-26T15:54:33.001Z</time></trkpt><trkpt lat="44.36708160467184" lon="11.978907654368124"><ele>12.999999999999998</ele><time>2026-04-26T15:54:34.001Z</time></trkpt><trkpt lat="44.36700602979437" lon="11.978894800720202"><ele>13.0</ele><time>2026-04-26T15:54:35.001Z</time></trkpt><trkpt lat="44.36693058487627" lon="11.97887531603569"><ele>12.999999999999998</ele><time>2026-04-26T15:54:36.001Z</time></trkpt><trkpt lat="44.36685036186382" lon="11.978870944918498"><ele>13.0</ele><time>2026-04-26T15:54:37.001Z</time></trkpt><trkpt lat="44.36677360345428" lon="11.978853804037966"><ele>13.0</ele><time>2026-04-26T15:54:38.001Z</time></trkpt><trkpt lat="44.36669576017594" lon="11.97884158657345"><ele>13.0</ele><time>2026-04-26T15:54:39.001Z</time></trkpt><trkpt lat="44.36661939993217" lon="11.978829428041474"><ele>12.999999999999998</ele><time>2026-04-26T15:54:40.001Z</time></trkpt><trkpt lat="44.366545835295696" lon="11.978811200188293"><ele>13.0</ele><time>2026-04-26T15:54:41.001Z</time></trkpt><trkpt lat="44.36646963800162" lon="11.978806047615768"><ele>12.999999999999998</ele><time>2026-04-26T15:54:42.001Z</time></trkpt><trkpt lat="44.36639724599003" lon="11.978790922006059"><ele>13.0</ele><time>2026-04-26T15:54:43.001Z</time></trkpt><trkpt lat="44.366323749985945" lon="11.978778358056081"><ele>13.0</ele><time>2026-04-26T15:54:44.001Z</time></trkpt><trkpt lat="44.36624682456229" lon="11.97876235657292"><ele>13.0</ele><time>2026-04-26T15:54:45.001Z</time></trkpt><trkpt lat="44.366171035807376" lon="11.978754471106372"><ele>12.999999999999998</ele><time>2026-04-26T15:54:46.001Z</time></trkpt><trkpt lat="44.36609458620226" lon="11.978743772673395"><ele>13.0</ele><time>2026-04-26T15:54:47.001Z</time></trkpt><trkpt lat="44.36601845696727" lon="11.978731078310709"><ele>13.166666666666666</ele><time>2026-04-26T15:54:48.001Z</time></trkpt><trkpt lat="44.36594600520622" lon="11.978710543019615"><ele>13.333333333333332</ele><time>2026-04-26T15:54:49.001Z</time></trkpt><trkpt lat="44.36586706022643" lon="11.978696917949073"><ele>13.5</ele><time>2026-04-26T15:54:50.001Z</time></trkpt><trkpt lat="44.36579272811151" lon="11.978669545157642"><ele>13.666666666666668</ele><time>2026-04-26T15:54:51.001Z</time></trkpt><trkpt lat="44.3657213298061" lon="11.978649994724556"><ele>13.833333333333334</ele><time>2026-04-26T15:54:52.001Z</time></trkpt><trkpt lat="44.365647960901285" lon="11.978604418901767"><ele>14.0</ele><time>2026-04-26T15:54:53.001Z</time></trkpt><trkpt lat="44.36557040981466" lon="11.978576522392991"><ele>14.166666666666668</ele><time>2026-04-26T15:54:54.001Z</time></trkpt><trkpt lat="44.365493393817474" lon="11.978567039877415"><ele>14.333333333333334</ele><time>2026-04-26T15:54:55.001Z</time></trkpt><trkpt lat="44.36541971391184" lon="11.978535793405719"><ele>14.5</ele><time>2026-04-26T15:54:56.001Z</time></trkpt><trkpt lat="44.365344316731566" lon="11.978504816867526"><ele>14.666666666666668</ele><time>2026-04-26T15:54:57.001Z</time></trkpt><trkpt lat="44.365271528914214" lon="11.978472055301884"><ele>14.833333333333334</ele><time>2026-04-26T15:54:58.001Z</time></trkpt><trkpt lat="44.365198356848914" lon="11.978437863239828"><ele>15.0</ele><time>2026-04-26T15:54:59.001Z</time></trkpt><trkpt lat="44.36512404824869" lon="11.97840787530736"><ele>15.0</ele><time>2026-04-26T15:55:00.001Z</time></trkpt><trkpt lat="44.365050965173545" lon="11.978367692211657"><ele>15.0</ele><time>2026-04-26T15:55:01.002Z</time></trkpt><trkpt lat="44.364971443674015" lon="11.9783386593765"><ele>15.0</ele><time>2026-04-26T15:55:02.002Z</time></trkpt><trkpt lat="44.36490231032752" lon="11.978301546112801"><ele>15.0</ele><time>2026-04-26T15:55:03.002Z</time></trkpt><trkpt lat="44.36483009883249" lon="11.978262850176687"><ele>15.0</ele><time>2026-04-26T15:55:04.002Z</time></trkpt><trkpt lat="44.36475702918783" lon="11.97823627794493"><ele>15.0</ele><time>2026-04-26T15:55:05.002Z</time></trkpt><trkpt lat="44.364688525740135" lon="11.978197183960258"><ele>14.714285714285715</ele><time>2026-04-26T15:55:06.002Z</time></trkpt><trkpt lat="44.364615829263506" lon="11.97817136546413"><ele>14.428571428571427</ele><time>2026-04-26T15:55:07.002Z</time></trkpt><trkpt lat="44.3645474685996" lon="11.978135874469794"><ele>14.142857142857142</ele><time>2026-04-26T15:55:08.002Z</time></trkpt><trkpt lat="44.36447984723334" lon="11.97809839759817"><ele>13.857142857142858</ele><time>2026-04-26T15:55:09.002Z</time></trkpt><trkpt lat="44.36440944969767" lon="11.978071324264192"><ele>13.571428571428573</ele><time>2026-04-26T15:55:10.002Z</time></trkpt><trkpt lat="44.36433879191421" lon="11.978040291820257"><ele>13.285714285714285</ele><time>2026-04-26T15:55:11.002Z</time></trkpt><trkpt lat="44.36426933840951" lon="11.978011171238753"><ele>13.0</ele><time>2026-04-26T15:55:12.002Z</time></trkpt><trkpt lat="44.36420230872641" lon="11.977974674439091"><ele>12.999999999999998</ele><time>2026-04-26T15:55:13.002Z</time></trkpt><trkpt lat="44.364133564992606" lon="11.977952087866012"><ele>13.0</ele><time>2026-04-26T15:55:14.002Z</time></trkpt><trkpt lat="44.36406239250974" lon="11.977918769528442"><ele>13.0</ele><time>2026-04-26T15:55:15.002Z</time></trkpt><trkpt lat="44.363995103433744" lon="11.977879350971973"><ele>13.0</ele><time>2026-04-26T15:55:16.002Z</time></trkpt><trkpt lat="44.36392761194337" lon="11.977854641084427"><ele>12.999999999999998</ele><time>2026-04-26T15:55:17.002Z</time></trkpt><trkpt lat="44.363864484244985" lon="11.97782361504042"><ele>13.0</ele><time>2026-04-26T15:55:18.002Z</time></trkpt><trkpt lat="44.3637548138667" lon="11.977748909403731"><ele>13.2</ele><time>2026-04-26T15:55:20.002Z</time></trkpt><trkpt lat="44.36364590721665" lon="11.977711902115315"><ele>13.4</ele><time>2026-04-26T15:55:22.002Z</time></trkpt><trkpt lat="44.363543380246725" lon="11.97765456245845"><ele>13.599999999999998</ele><time>2026-04-26T15:55:24.002Z</time></trkpt><trkpt lat="44.36347335908243" lon="11.977577500078386"><ele>13.799999999999999</ele><time>2026-04-26T15:55:26.002Z</time></trkpt><trkpt lat="44.36340124372518" lon="11.977554443076198"><ele>14.0</ele><time>2026-04-26T15:55:28.002Z</time></trkpt><trkpt lat="44.363333590758366" lon="11.977503290611665"><ele>14.0</ele><time>2026-04-26T15:55:31.002Z</time></trkpt><trkpt lat="44.36327027778473" lon="11.977532608697333"><ele>14.0</ele><time>2026-04-26T15:55:35.002Z</time></trkpt><trkpt lat="44.363082318290004" lon="11.977246443658348"><ele>14.0</ele><time>2026-04-26T15:55:54.003Z</time></trkpt><trkpt lat="44.363017597164585" lon="11.977157208324508"><ele>14.0</ele><time>2026-04-26T15:55:56.003Z</time></trkpt><trkpt lat="44.36294153266235" lon="11.977068228826292"><ele>14.0</ele><time>2026-04-26T15:55:58.003Z</time></trkpt><trkpt lat="44.362863611028985" lon="11.976960654933976"><ele>14.0</ele><time>2026-04-26T15:56:00.003Z</time></trkpt><trkpt lat="44.362778809701354" lon="11.976854918841902"><ele>14.0</ele><time>2026-04-26T15:56:02.003Z</time></trkpt><trkpt lat="44.36269342594795" lon="11.976748989249435"><ele>14.0</ele><time>2026-04-26T15:56:04.003Z</time></trkpt><trkpt lat="44.36261185089747" lon="11.976622551362771"><ele>14.0</ele><time>2026-04-26T15:56:06.001Z</time></trkpt><trkpt lat="44.36255204867576" lon="11.97647163257958"><ele>13.999999999999998</ele><time>2026-04-26T15:56:08.001Z</time></trkpt><trkpt lat="44.362526832986774" lon="11.97638863188362"><ele>13.999999999999998</ele><time>2026-04-26T15:56:09.001Z</time></trkpt><trkpt lat="44.36250240939269" lon="11.976306420081995"><ele>14.0</ele><time>2026-04-26T15:56:10.001Z</time></trkpt><trkpt lat="44.3624516354612" lon="11.9761552915907"><ele>14.0</ele><time>2026-04-26T15:56:12.001Z</time></trkpt><trkpt lat="44.36240734209653" lon="11.975998784376426"><ele>13.799999999999999</ele><time>2026-04-26T15:56:14.001Z</time></trkpt><trkpt lat="44.362358857162874" lon="11.97583779003164"><ele>13.599999999999998</ele><time>2026-04-26T15:56:16.001Z</time></trkpt><trkpt lat="44.36233350702335" lon="11.975756823321992"><ele>13.4</ele><time>2026-04-26T15:56:17.001Z</time></trkpt><trkpt lat="44.36230772532644" lon="11.975676128632875"><ele>13.2</ele><time>2026-04-26T15:56:18.001Z</time></trkpt><trkpt lat="44.362257628367175" lon="11.97551086505955"><ele>13.0</ele><time>2026-04-26T15:56:20.001Z</time></trkpt><trkpt lat="44.36220995341233" lon="11.97535819399489"><ele>13.25</ele><time>2026-04-26T15:56:22.001Z</time></trkpt><trkpt lat="44.362161007155436" lon="11.975203116296347"><ele>13.5</ele><time>2026-04-26T15:56:24.001Z</time></trkpt><trkpt lat="44.36210828803751" lon="11.975051462214866"><ele>13.75</ele><time>2026-04-26T15:56:26.001Z</time></trkpt><trkpt lat="44.36206022707658" lon="11.974903139542487"><ele>14.0</ele><time>2026-04-26T15:56:28.001Z</time></trkpt><trkpt lat="44.362012453535925" lon="11.974763735059431"><ele>14.0</ele><time>2026-04-26T15:56:30.001Z</time></trkpt><trkpt lat="44.361963409480474" lon="11.974636524114182"><ele>13.999999999999998</ele><time>2026-04-26T15:56:32.001Z</time></trkpt><trkpt lat="44.36190185972069" lon="11.974507609785412"><ele>13.999999999999998</ele><time>2026-04-26T15:56:34.001Z</time></trkpt><trkpt lat="44.36183092004555" lon="11.974422666551103"><ele>14.0</ele><time>2026-04-26T15:56:36.001Z</time></trkpt><trkpt lat="44.3617518236042" lon="11.974351844455226"><ele>14.0</ele><time>2026-04-26T15:56:38.001Z</time></trkpt><trkpt lat="44.36167406071111" lon="11.974262863141002"><ele>13.799999999999999</ele><time>2026-04-26T15:56:40.001Z</time></trkpt><trkpt lat="44.36159221251719" lon="11.974150493519142"><ele>13.599999999999998</ele><time>2026-04-26T15:56:42.001Z</time></trkpt><trkpt lat="44.361514395678086" lon="11.974027996423837"><ele>13.4</ele><time>2026-04-26T15:56:44.001Z</time></trkpt><trkpt lat="44.361472593793856" lon="11.973960469457744"><ele>13.2</ele><time>2026-04-26T15:56:45.001Z</time></trkpt><trkpt lat="44.36142742239836" lon="11.973892431678046"><ele>13.0</ele><time>2026-04-26T15:56:46.001Z</time></trkpt><trkpt lat="44.3613324370346" lon="11.973765552286613"><ele>13.142857142857142</ele><time>2026-04-26T15:56:48.001Z</time></trkpt><trkpt lat="44.3612839849648" lon="11.973697828111279"><ele>13.285714285714286</ele><time>2026-04-26T15:56:49.001Z</time></trkpt><trkpt lat="44.36123771357634" lon="11.973637154570351"><ele>13.428571428571429</ele><time>2026-04-26T15:56:50.001Z</time></trkpt><trkpt lat="44.36118717173886" lon="11.97357561218971"><ele>13.571428571428571</ele><time>2026-04-26T15:56:51.001Z</time></trkpt><trkpt lat="44.3611391803345" lon="11.973515767125875"><ele>13.714285714285715</ele><time>2026-04-26T15:56:52.001Z</time></trkpt><trkpt lat="44.361090969688064" lon="11.9734561814675"><ele>13.857142857142858</ele><time>2026-04-26T15:56:53.001Z</time></trkpt><trkpt lat="44.36103988540858" lon="11.97340037062354"><ele>14.0</ele><time>2026-04-26T15:56:54.001Z</time></trkpt><trkpt lat="44.36098648543495" lon="11.973344377606333"><ele>14.000000000000002</ele><time>2026-04-26T15:56:55.001Z</time></trkpt><trkpt lat="44.36093347987854" lon="11.973289252546447"><ele>14.0</ele><time>2026-04-26T15:56:56.001Z</time></trkpt><trkpt lat="44.36088144355348" lon="11.973233042120171"><ele>14.0</ele><time>2026-04-26T15:56:57.001Z</time></trkpt><trkpt lat="44.36077999406003" lon="11.973124044596867"><ele>14.0</ele><time>2026-04-26T15:56:59.001Z</time></trkpt><trkpt lat="44.36072661134265" lon="11.973068087237245"><ele>14.000000000000002</ele><time>2026-04-26T15:57:00.001Z</time></trkpt><trkpt lat="44.36067376707618" lon="11.97301513387672"><ele>14.0</ele><time>2026-04-26T15:57:01.001Z</time></trkpt><trkpt lat="44.36061929419224" lon="11.972963823260523"><ele>14.000000000000002</ele><time>2026-04-26T15:57:02.001Z</time></trkpt><trkpt lat="44.36056242922306" lon="11.972913147341476"><ele>14.0</ele><time>2026-04-26T15:57:03.001Z</time></trkpt><trkpt lat="44.36050834210537" lon="11.97286423576005"><ele>14.0</ele><time>2026-04-26T15:57:04.001Z</time></trkpt><trkpt lat="44.360449253586935" lon="11.972814759194494"><ele>14.0</ele><time>2026-04-26T15:57:05.001Z</time></trkpt><trkpt lat="44.36033329529369" lon="11.972746909998227"><ele>14.000000000000002</ele><time>2026-04-26T15:57:07.001Z</time></trkpt><trkpt lat="44.36027227002636" lon="11.972723243586954"><ele>14.0</ele><time>2026-04-26T15:57:08.001Z</time></trkpt><trkpt lat="44.36020603282347" lon="11.97270548867732"><ele>14.166666666666668</ele><time>2026-04-26T15:57:09.002Z</time></trkpt><trkpt lat="44.360141146150376" lon="11.972694532799116"><ele>14.333333333333334</ele><time>2026-04-26T15:57:10.002Z</time></trkpt><trkpt lat="44.36001657593473" lon="11.972688321586736"><ele>14.5</ele><time>2026-04-26T15:57:12.002Z</time></trkpt><trkpt lat="44.359952496169875" lon="11.97269088097012"><ele>14.666666666666668</ele><time>2026-04-26T15:57:13.002Z</time></trkpt><trkpt lat="44.359827522807585" lon="11.97272832864059"><ele>14.833333333333334</ele><time>2026-04-26T15:57:15.002Z</time></trkpt><trkpt lat="44.3597692225043" lon="11.972761920135502"><ele>15.0</ele><time>2026-04-26T15:57:16.002Z</time></trkpt><trkpt lat="44.35966109113568" lon="11.972839328501196"><ele>14.6</ele><time>2026-04-26T15:57:18.002Z</time></trkpt><trkpt lat="44.35955789208885" lon="11.97293875501557"><ele>14.2</ele><time>2026-04-26T15:57:20.002Z</time></trkpt><trkpt lat="44.359507734542134" lon="11.973000179916413"><ele>13.8</ele><time>2026-04-26T15:57:21.002Z</time></trkpt><trkpt lat="44.35941568610515" lon="11.973129259108932"><ele>13.4</ele><time>2026-04-26T15:57:23.002Z</time></trkpt><trkpt lat="44.35936987476891" lon="11.973196533695623"><ele>13.0</ele><time>2026-04-26T15:57:24.002Z</time></trkpt><trkpt lat="44.35932337034571" lon="11.973260276979817"><ele>13.0</ele><time>2026-04-26T15:57:25.002Z</time></trkpt><trkpt lat="44.35927781143158" lon="11.973326961526078"><ele>13.0</ele><time>2026-04-26T15:57:26.002Z</time></trkpt><trkpt lat="44.35922998535315" lon="11.973400871675484"><ele>13.0</ele><time>2026-04-26T15:57:27.002Z</time></trkpt><trkpt lat="44.359185621858906" lon="11.973472800832251"><ele>13.0</ele><time>2026-04-26T15:57:28.002Z</time></trkpt><trkpt lat="44.35913829463056" lon="11.973541093847153"><ele>13.0</ele><time>2026-04-26T15:57:29.002Z</time></trkpt><trkpt lat="44.35908932444534" lon="11.973611755715208"><ele>13.0</ele><time>2026-04-26T15:57:30.002Z</time></trkpt><trkpt lat="44.35903846171086" lon="11.973685901046649"><ele>13.0</ele><time>2026-04-26T15:57:31.002Z</time></trkpt><trkpt lat="44.358992888930366" lon="11.973755919851097"><ele>13.0</ele><time>2026-04-26T15:57:32.002Z</time></trkpt><trkpt lat="44.35894820341837" lon="11.973824635525675"><ele>13.0</ele><time>2026-04-26T15:57:33.002Z</time></trkpt><trkpt lat="44.35889837131659" lon="11.973898243836368"><ele>13.0</ele><time>2026-04-26T15:57:34.002Z</time></trkpt><trkpt lat="44.35885247189726" lon="11.973966737964181"><ele>13.0</ele><time>2026-04-26T15:57:35.002Z</time></trkpt><trkpt lat="44.35880344057461" lon="11.974037279742218"><ele>13.0</ele><time>2026-04-26T15:57:36.002Z</time></trkpt><trkpt lat="44.358759643777184" lon="11.9741018941044"><ele>13.0</ele><time>2026-04-26T15:57:37.002Z</time></trkpt><trkpt lat="44.35871194109515" lon="11.974171372573192"><ele>13.0</ele><time>2026-04-26T15:57:38.002Z</time></trkpt><trkpt lat="44.358615885945575" lon="11.974304481703271"><ele>13.0</ele><time>2026-04-26T15:57:40.002Z</time></trkpt><trkpt lat="44.358571327004036" lon="11.974367978322801"><ele>13.0</ele><time>2026-04-26T15:57:41.002Z</time></trkpt><trkpt lat="44.35852609713006" lon="11.974436060793945"><ele>13.0</ele><time>2026-04-26T15:57:42.002Z</time></trkpt><trkpt lat="44.3584803924936" lon="11.974501489567299"><ele>13.0</ele><time>2026-04-26T15:57:43.002Z</time></trkpt><trkpt lat="44.35843562461729" lon="11.974563638596749"><ele>13.0</ele><time>2026-04-26T15:57:44.002Z</time></trkpt><trkpt lat="44.35838635103375" lon="11.97462861748201"><ele>13.0</ele><time>2026-04-26T15:57:45.002Z</time></trkpt><trkpt lat="44.35829861936569" lon="11.974743563138219"><ele>13.0</ele><time>2026-04-26T15:57:47.002Z</time></trkpt><trkpt lat="44.358201877354794" lon="11.974863659157105"><ele>13.0</ele><time>2026-04-26T15:57:49.003Z</time></trkpt><trkpt lat="44.35810418878128" lon="11.974975136241898"><ele>13.0</ele><time>2026-04-26T15:57:51.003Z</time></trkpt><trkpt lat="44.35805313498585" lon="11.975032617088539"><ele>13.0</ele><time>2026-04-26T15:57:52.003Z</time></trkpt><trkpt lat="44.357955989885525" lon="11.975134811009793"><ele>13.0</ele><time>2026-04-26T15:57:54.003Z</time></trkpt><trkpt lat="44.357850624338454" lon="11.975234788121517"><ele>13.0</ele><time>2026-04-26T15:57:56.003Z</time></trkpt><trkpt lat="44.357795090319485" lon="11.975278312064232"><ele>13.142857142857142</ele><time>2026-04-26T15:57:57.003Z</time></trkpt><trkpt lat="44.35773668046254" lon="11.975315539011785"><ele>13.285714285714286</ele><time>2026-04-26T15:57:58.003Z</time></trkpt><trkpt lat="44.35767655352798" lon="11.97534967077029"><ele>13.428571428571429</ele><time>2026-04-26T15:57:59.003Z</time></trkpt><trkpt lat="44.35761292776924" lon="11.975376806950589"><ele>13.571428571428571</ele><time>2026-04-26T15:58:00.003Z</time></trkpt><trkpt lat="44.35749546144512" lon="11.975428357433804"><ele>13.714285714285715</ele><time>2026-04-26T15:58:02.003Z</time></trkpt><trkpt lat="44.35743232753848" lon="11.97544569983865"><ele>13.857142857142858</ele><time>2026-04-26T15:58:03.003Z</time></trkpt><trkpt lat="44.35736980063049" lon="11.975459575507404"><ele>14.0</ele><time>2026-04-26T15:58:04.003Z</time></trkpt><trkpt lat="44.35725108732818" lon="11.97548251913012"><ele>13.799999999999999</ele><time>2026-04-26T15:58:06.003Z</time></trkpt><trkpt lat="44.35718537746394" lon="11.975484787284383"><ele>13.599999999999998</ele><time>2026-04-26T15:58:07.003Z</time></trkpt><trkpt lat="44.35705648425047" lon="11.975478016552467"><ele>13.4</ele><time>2026-04-26T15:58:09.003Z</time></trkpt><trkpt lat="44.35692891368597" lon="11.97545964944777"><ele>13.2</ele><time>2026-04-26T15:58:11.003Z</time></trkpt><trkpt lat="44.35686247885519" lon="11.975441498500526"><ele>13.0</ele><time>2026-04-26T15:58:12Z</time></trkpt><trkpt lat="44.35679655100875" lon="11.975423218026632"><ele>13.0</ele><time>2026-04-26T15:58:13Z</time></trkpt><trkpt lat="44.35673162633026" lon="11.975405155711488"><ele>13.0</ele><time>2026-04-26T15:58:14Z</time></trkpt><trkpt lat="44.35666640635147" lon="11.975382824311428"><ele>13.0</ele><time>2026-04-26T15:58:15Z</time></trkpt><trkpt lat="44.356601962635956" lon="11.975356672365326"><ele>13.0</ele><time>2026-04-26T15:58:16Z</time></trkpt><trkpt lat="44.356537411933" lon="11.975321995878927"><ele>13.0</ele><time>2026-04-26T15:58:17Z</time></trkpt><trkpt lat="44.35647677956466" lon="11.975286627695159"><ele>13.0</ele><time>2026-04-26T15:58:18Z</time></trkpt><trkpt lat="44.35641866054902" lon="11.975240788304495"><ele>13.0</ele><time>2026-04-26T15:58:19Z</time></trkpt><trkpt lat="44.35636702690205" lon="11.975183784450975"><ele>12.999999999999998</ele><time>2026-04-26T15:58:20Z</time></trkpt><trkpt lat="44.35631877948636" lon="11.975125354375445"><ele>13.0</ele><time>2026-04-26T15:58:21Z</time></trkpt><trkpt lat="44.35622799918538" lon="11.975003310880698"><ele>13.0</ele><time>2026-04-26T15:58:23Z</time></trkpt><trkpt lat="44.35618747831418" lon="11.97492953464046"><ele>13.0</ele><time>2026-04-26T15:58:24Z</time></trkpt><trkpt lat="44.3561457435778" lon="11.974853684475901"><ele>12.999999999999998</ele><time>2026-04-26T15:58:25Z</time></trkpt><trkpt lat="44.35610587844755" lon="11.974764023661503"><ele>13.0</ele><time>2026-04-26T15:58:26Z</time></trkpt><trkpt lat="44.356041572218906" lon="11.974604928800575"><ele>13.166666666666666</ele><time>2026-04-26T15:58:28Z</time></trkpt><trkpt lat="44.356012402382625" lon="11.974526096769068"><ele>13.333333333333332</ele><time>2026-04-26T15:58:29Z</time></trkpt><trkpt lat="44.3559816184721" lon="11.97444406121391"><ele>13.5</ele><time>2026-04-26T15:58:30Z</time></trkpt><trkpt lat="44.35591885787923" lon="11.974284536739242"><ele>13.666666666666668</ele><time>2026-04-26T15:58:32Z</time></trkpt><trkpt lat="44.355894042561786" lon="11.974199601072687"><ele>13.833333333333334</ele><time>2026-04-26T15:58:33Z</time></trkpt><trkpt lat="44.35587011860065" lon="11.974116641965656"><ele>14.0</ele><time>2026-04-26T15:58:34Z</time></trkpt><trkpt lat="44.35585088823048" lon="11.974029305752369"><ele>14.0</ele><time>2026-04-26T15:58:35Z</time></trkpt><trkpt lat="44.355830640190014" lon="11.97393303014976"><ele>14.0</ele><time>2026-04-26T15:58:36Z</time></trkpt><trkpt lat="44.35581103235572" lon="11.973836798700757"><ele>14.0</ele><time>2026-04-26T15:58:37Z</time></trkpt><trkpt lat="44.35579167247583" lon="11.97374803920616"><ele>14.0</ele><time>2026-04-26T15:58:38Z</time></trkpt><trkpt lat="44.3557718718015" lon="11.973655420916465"><ele>14.0</ele><time>2026-04-26T15:58:39Z</time></trkpt><trkpt lat="44.35575336956956" lon="11.973557147145371"><ele>14.0</ele><time>2026-04-26T15:58:40Z</time></trkpt><trkpt lat="44.35573660983445" lon="11.973459990231552"><ele>14.0</ele><time>2026-04-26T15:58:41.001Z</time></trkpt><trkpt lat="44.355719299634835" lon="11.97336173763789"><ele>14.0</ele><time>2026-04-26T15:58:42.001Z</time></trkpt><trkpt lat="44.35569988780943" lon="11.973264836373469"><ele>14.0</ele><time>2026-04-26T15:58:43.001Z</time></trkpt><trkpt lat="44.35568292047761" lon="11.973174801641413"><ele>14.0</ele><time>2026-04-26T15:58:44.001Z</time></trkpt><trkpt lat="44.35566273669151" lon="11.973079409627468"><ele>14.0</ele><time>2026-04-26T15:58:45.001Z</time></trkpt><trkpt lat="44.355639402302586" lon="11.972987347302709"><ele>14.0</ele><time>2026-04-26T15:58:46.001Z</time></trkpt><trkpt lat="44.3556100957228" lon="11.9729034250089"><ele>14.0</ele><time>2026-04-26T15:58:47.001Z</time></trkpt><trkpt lat="44.35557557382902" lon="11.972823864448705"><ele>14.0</ele><time>2026-04-26T15:58:48.001Z</time></trkpt><trkpt lat="44.35549308367837" lon="11.97270471925271"><ele>14.000000000000002</ele><time>2026-04-26T15:58:50.001Z</time></trkpt><trkpt lat="44.355439843151174" lon="11.97265485004164"><ele>14.0</ele><time>2026-04-26T15:58:51.001Z</time></trkpt><trkpt lat="44.35532754173195" lon="11.972582085861807"><ele>14.0</ele><time>2026-04-26T15:58:53.001Z</time></trkpt><trkpt lat="44.35526151782389" lon="11.972567125982946"><ele>14.0</ele><time>2026-04-26T15:58:54.001Z</time></trkpt><trkpt lat="44.35519511550185" lon="11.972570084787758"><ele>14.000000000000002</ele><time>2026-04-26T15:58:55.001Z</time></trkpt><trkpt lat="44.35507319030523" lon="11.972589970780207"><ele>14.0</ele><time>2026-04-26T15:58:57.001Z</time></trkpt><trkpt lat="44.35494787491376" lon="11.9726297626"><ele>14.0</ele><time>2026-04-26T15:58:59.001Z</time></trkpt><trkpt lat="44.35488460038441" lon="11.97264883684265"><ele>14.0</ele><time>2026-04-26T15:59:00.001Z</time></trkpt><trkpt lat="44.35481889961099" lon="11.972671171216716"><ele>14.0</ele><time>2026-04-26T15:59:01.001Z</time></trkpt><trkpt lat="44.35475236201296" lon="11.972692530796712"><ele>14.0</ele><time>2026-04-26T15:59:02.001Z</time></trkpt><trkpt lat="44.35468275566221" lon="11.9727139770286"><ele>14.0</ele><time>2026-04-26T15:59:03.001Z</time></trkpt><trkpt lat="44.35461778761093" lon="11.972730198402129"><ele>14.0</ele><time>2026-04-26T15:59:04.001Z</time></trkpt><trkpt lat="44.35455446339495" lon="11.972725963778807"><ele>14.0</ele><time>2026-04-26T15:59:05.001Z</time></trkpt><trkpt lat="44.3544821167917" lon="11.972758155342092"><ele>13.857142857142858</ele><time>2026-04-26T15:59:06.001Z</time></trkpt><trkpt lat="44.35441699783683" lon="11.972773350926255"><ele>13.714285714285715</ele><time>2026-04-26T15:59:07.001Z</time></trkpt><trkpt lat="44.354353160232215" lon="11.972787821645156"><ele>13.571428571428571</ele><time>2026-04-26T15:59:08.001Z</time></trkpt><trkpt lat="44.35428957670952" lon="11.972804594143565"><ele>13.428571428571429</ele><time>2026-04-26T15:59:09.001Z</time></trkpt><trkpt lat="44.35422558371181" lon="11.972825569973429"><ele>13.285714285714286</ele><time>2026-04-26T15:59:10.001Z</time></trkpt><trkpt lat="44.354160793321824" lon="11.972840523105393"><ele>13.142857142857142</ele><time>2026-04-26T15:59:11.001Z</time></trkpt><trkpt lat="44.354095761738854" lon="11.972854569145694"><ele>13.0</ele><time>2026-04-26T15:59:12.001Z</time></trkpt><trkpt lat="44.354029314544654" lon="11.97287027012399"><ele>13.0</ele><time>2026-04-26T15:59:13.001Z</time></trkpt><trkpt lat="44.353904115294036" lon="11.972883397039581"><ele>13.0</ele><time>2026-04-26T15:59:15.001Z</time></trkpt><trkpt lat="44.353777933437364" lon="11.9729086597976"><ele>13.0</ele><time>2026-04-26T15:59:17.001Z</time></trkpt><trkpt lat="44.35371452743718" lon="11.972919471518955"><ele>13.0</ele><time>2026-04-26T15:59:18.001Z</time></trkpt><trkpt lat="44.35364991238957" lon="11.972931627458381"><ele>13.0</ele><time>2026-04-26T15:59:19.001Z</time></trkpt><trkpt lat="44.353583166036046" lon="11.972948060090834"><ele>13.142857142857142</ele><time>2026-04-26T15:59:20.001Z</time></trkpt><trkpt lat="44.35351697138911" lon="11.972959394175012"><ele>13.285714285714286</ele><time>2026-04-26T15:59:21.001Z</time></trkpt><trkpt lat="44.35345218783575" lon="11.972967889828194"><ele>13.428571428571429</ele><time>2026-04-26T15:59:22.001Z</time></trkpt><trkpt lat="44.35338480531886" lon="11.97297808479781"><ele>13.571428571428571</ele><time>2026-04-26T15:59:23.001Z</time></trkpt><trkpt lat="44.353321314364905" lon="11.972990604752212"><ele>13.714285714285715</ele><time>2026-04-26T15:59:24.002Z</time></trkpt><trkpt lat="44.35325216441883" lon="11.973010131161093"><ele>13.857142857142858</ele><time>2026-04-26T15:59:25.002Z</time></trkpt><trkpt lat="44.35318668721555" lon="11.973021222192589"><ele>14.0</ele><time>2026-04-26T15:59:26.002Z</time></trkpt><trkpt lat="44.353120028335724" lon="11.973034512858648"><ele>14.0</ele><time>2026-04-26T15:59:27.002Z</time></trkpt><trkpt lat="44.35305146559404" lon="11.973051447377095"><ele>14.0</ele><time>2026-04-26T15:59:28.002Z</time></trkpt><trkpt lat="44.35298526108085" lon="11.9730662456272"><ele>14.0</ele><time>2026-04-26T15:59:29.002Z</time></trkpt><trkpt lat="44.352916169227434" lon="11.973079448928099"><ele>14.0</ele><time>2026-04-26T15:59:30.002Z</time></trkpt><trkpt lat="44.35284716695066" lon="11.973091923288361"><ele>14.0</ele><time>2026-04-26T15:59:31.002Z</time></trkpt><trkpt lat="44.3527803224765" lon="11.973105008535912"><ele>14.0</ele><time>2026-04-26T15:59:32.002Z</time></trkpt><trkpt lat="44.352714468454536" lon="11.973116086844682"><ele>14.0</ele><time>2026-04-26T15:59:33.002Z</time></trkpt><trkpt lat="44.35265024136082" lon="11.973125268189822"><ele>14.000000000000002</ele><time>2026-04-26T15:59:34.002Z</time></trkpt><trkpt lat="44.352583343521545" lon="11.973135249635396"><ele>14.0</ele><time>2026-04-26T15:59:35.002Z</time></trkpt><trkpt lat="44.35245899956164" lon="11.9731421191022"><ele>14.0</ele><time>2026-04-26T15:59:37.002Z</time></trkpt><trkpt lat="44.3523912761484" lon="11.973143881433735"><ele>14.0</ele><time>2026-04-26T15:59:38.002Z</time></trkpt><trkpt lat="44.352327634824256" lon="11.97313595527096"><ele>14.000000000000002</ele><time>2026-04-26T15:59:39.002Z</time></trkpt><trkpt lat="44.352261271839005" lon="11.973130836964222"><ele>14.0</ele><time>2026-04-26T15:59:40.002Z</time></trkpt><trkpt lat="44.352181606866985" lon="11.973262222685856"><ele>14.333333333333334</ele><time>2026-04-26T15:59:41.002Z</time></trkpt><trkpt lat="44.35211352121797" lon="11.973248951040647"><ele>14.666666666666668</ele><time>2026-04-26T15:59:42.002Z</time></trkpt><trkpt lat="44.35205088974145" lon="11.97323676709257"><ele>15.0</ele><time>2026-04-26T15:59:43.002Z</time></trkpt><trkpt lat="44.35198196896433" lon="11.973223518446817"><ele>15.333333333333332</ele><time>2026-04-26T15:59:44.002Z</time></trkpt><trkpt lat="44.35182414921287" lon="11.973214389554997"><ele>15.666666666666666</ele><time>2026-04-26T15:59:46.002Z</time></trkpt><trkpt lat="44.35174518411314" lon="11.973169855305645"><ele>16.0</ele><time>2026-04-26T15:59:47.002Z</time></trkpt><trkpt lat="44.351675823329856" lon="11.973118175027038"><ele>16.0</ele><time>2026-04-26T15:59:48.002Z</time></trkpt><trkpt lat="44.35161745695399" lon="11.973075483518956"><ele>15.999999999999998</ele><time>2026-04-26T15:59:49.002Z</time></trkpt><trkpt lat="44.35155342669329" lon="11.973022253196625"><ele>16.0</ele><time>2026-04-26T15:59:50.002Z</time></trkpt><trkpt lat="44.351493256466014" lon="11.972973174600032"><ele>16.0</ele><time>2026-04-26T15:59:51.002Z</time></trkpt><trkpt lat="44.35143523280585" lon="11.972925846879017"><ele>15.999999999999998</ele><time>2026-04-26T15:59:52.002Z</time></trkpt><trkpt lat="44.351375257959866" lon="11.972876927649388"><ele>16.0</ele><time>2026-04-26T15:59:53.002Z</time></trkpt><trkpt lat="44.351319628576896" lon="11.972831552850613"><ele>16.0</ele><time>2026-04-26T15:59:54.002Z</time></trkpt><trkpt lat="44.35128418672542" lon="11.972732747543477"><ele>15.857142857142856</ele><time>2026-04-26T15:59:55.002Z</time></trkpt><trkpt lat="44.35122539989339" lon="11.972699507646434"><ele>15.714285714285712</ele><time>2026-04-26T15:59:56.002Z</time></trkpt><trkpt lat="44.35115935014833" lon="11.972669104390093"><ele>15.571428571428571</ele><time>2026-04-26T15:59:57.002Z</time></trkpt><trkpt lat="44.35109398279983" lon="11.972642974267993"><ele>15.428571428571427</ele><time>2026-04-26T15:59:58.002Z</time></trkpt><trkpt lat="44.35102877535304" lon="11.97261952241115"><ele>15.285714285714285</ele><time>2026-04-26T15:59:59.002Z</time></trkpt><trkpt lat="44.35096403115227" lon="11.97259361422713"><ele>15.142857142857142</ele><time>2026-04-26T16:00:00.002Z</time></trkpt><trkpt lat="44.350899748937096" lon="11.972568057358979"><ele>15.0</ele><time>2026-04-26T16:00:01.002Z</time></trkpt><trkpt lat="44.35083742559704" lon="11.97254815842758"><ele>15.0</ele><time>2026-04-26T16:00:02.002Z</time></trkpt><trkpt lat="44.350763841875676" lon="11.972535823776619"><ele>15.0</ele><time>2026-04-26T16:00:03.002Z</time></trkpt><trkpt lat="44.35069212630318" lon="11.97253404989087"><ele>15.0</ele><time>2026-04-26T16:00:04.003Z</time></trkpt><trkpt lat="44.350621051232" lon="11.972546760294946"><ele>15.0</ele><time>2026-04-26T16:00:05.003Z</time></trkpt><trkpt lat="44.35054990351954" lon="11.97258072810901"><ele>15.0</ele><time>2026-04-26T16:00:06.003Z</time></trkpt><trkpt lat="44.35048346866041" lon="11.97263075894323"><ele>15.0</ele><time>2026-04-26T16:00:07.003Z</time></trkpt><trkpt lat="44.35042584581305" lon="11.972686778759313"><ele>15.0</ele><time>2026-04-26T16:00:08.003Z</time></trkpt><trkpt lat="44.350371417716886" lon="11.972744785107903"><ele>15.142857142857142</ele><time>2026-04-26T16:00:09.003Z</time></trkpt><trkpt lat="44.35031891078181" lon="11.972812558888899"><ele>15.285714285714285</ele><time>2026-04-26T16:00:10.003Z</time></trkpt><trkpt lat="44.35027566471606" lon="11.972880433797007"><ele>15.428571428571427</ele><time>2026-04-26T16:00:11.003Z</time></trkpt><trkpt lat="44.35023468579733" lon="11.972960649046517"><ele>15.571428571428571</ele><time>2026-04-26T16:00:12.003Z</time></trkpt><trkpt lat="44.350199618542625" lon="11.973046612712068"><ele>15.714285714285712</ele><time>2026-04-26T16:00:13.003Z</time></trkpt><trkpt lat="44.35017294654444" lon="11.973128459223393"><ele>15.857142857142856</ele><time>2026-04-26T16:00:14.003Z</time></trkpt><trkpt lat="44.35014530497772" lon="11.973214523835253"><ele>16.0</ele><time>2026-04-26T16:00:15.003Z</time></trkpt><trkpt lat="44.350118124274374" lon="11.973304584872501"><ele>15.857142857142856</ele><time>2026-04-26T16:00:16.003Z</time></trkpt><trkpt lat="44.3500899701032" lon="11.973389230143805"><ele>15.714285714285712</ele><time>2026-04-26T16:00:17.003Z</time></trkpt><trkpt lat="44.350064363698564" lon="11.973475603820262"><ele>15.571428571428571</ele><time>2026-04-26T16:00:18Z</time></trkpt><trkpt lat="44.350039169316005" lon="11.97355771059877"><ele>15.428571428571427</ele><time>2026-04-26T16:00:19Z</time></trkpt><trkpt lat="44.35001024267331" lon="11.973645215815322"><ele>15.285714285714285</ele><time>2026-04-26T16:00:20Z</time></trkpt><trkpt lat="44.34998533945595" lon="11.97372853412391"><ele>15.142857142857142</ele><time>2026-04-26T16:00:21Z</time></trkpt><trkpt lat="44.349958830438524" lon="11.97381404903325"><ele>15.0</ele><time>2026-04-26T16:00:22Z</time></trkpt><trkpt lat="44.349928307067614" lon="11.973891590733624"><ele>15.0</ele><time>2026-04-26T16:00:23Z</time></trkpt><trkpt lat="44.34989125357229" lon="11.973968860237854"><ele>15.0</ele><time>2026-04-26T16:00:24Z</time></trkpt><trkpt lat="44.34982632792278" lon="11.97410994569553"><ele>15.0</ele><time>2026-04-26T16:00:26Z</time></trkpt><trkpt lat="44.3497650270851" lon="11.97424970033595"><ele>15.0</ele><time>2026-04-26T16:00:28Z</time></trkpt><trkpt lat="44.349679208181726" lon="11.97436596018611"><ele>15.0</ele><time>2026-04-26T16:00:30Z</time></trkpt><trkpt lat="44.34957816781168" lon="11.974470983759787"><ele>15.0</ele><time>2026-04-26T16:00:32Z</time></trkpt><trkpt lat="44.34952229615739" lon="11.974519085860383"><ele>15.0</ele><time>2026-04-26T16:00:33Z</time></trkpt><trkpt lat="44.3494622265432" lon="11.974561963644575"><ele>15.0</ele><time>2026-04-26T16:00:34Z</time></trkpt><trkpt lat="44.349399947326276" lon="11.974599938791346"><ele>15.0</ele><time>2026-04-26T16:00:35Z</time></trkpt><trkpt lat="44.349334157581765" lon="11.974633971198518"><ele>15.0</ele><time>2026-04-26T16:00:36Z</time></trkpt><trkpt lat="44.34927205230437" lon="11.974660116762392"><ele>15.0</ele><time>2026-04-26T16:00:37Z</time></trkpt><trkpt lat="44.349205657923065" lon="11.974689715751103"><ele>15.0</ele><time>2026-04-26T16:00:38Z</time></trkpt><trkpt lat="44.34913580798882" lon="11.974716540224378"><ele>15.0</ele><time>2026-04-26T16:00:39Z</time></trkpt><trkpt lat="44.34907302521146" lon="11.974737462172607"><ele>15.0</ele><time>2026-04-26T16:00:40Z</time></trkpt><trkpt lat="44.34900207010542" lon="11.974758394020823"><ele>15.0</ele><time>2026-04-26T16:00:41Z</time></trkpt><trkpt lat="44.348933337442766" lon="11.974772828764905"><ele>15.0</ele><time>2026-04-26T16:00:42Z</time></trkpt><trkpt lat="44.34886672212984" lon="11.974778688380301"><ele>15.0</ele><time>2026-04-26T16:00:43Z</time></trkpt><trkpt lat="44.348794919410075" lon="11.974783832606576"><ele>15.0</ele><time>2026-04-26T16:00:44Z</time></trkpt><trkpt lat="44.348731222020916" lon="11.974783735932826"><ele>15.0</ele><time>2026-04-26T16:00:45Z</time></trkpt><trkpt lat="44.34860327429208" lon="11.974788275096278"><ele>15.0</ele><time>2026-04-26T16:00:47Z</time></trkpt><trkpt lat="44.348479784285175" lon="11.974785781895136"><ele>15.0</ele><time>2026-04-26T16:00:49Z</time></trkpt><trkpt lat="44.34841294686519" lon="11.974784456987726"><ele>15.0</ele><time>2026-04-26T16:00:50Z</time></trkpt><trkpt lat="44.34834978571147" lon="11.974785167074199"><ele>15.0</ele><time>2026-04-26T16:00:51.001Z</time></trkpt><trkpt lat="44.34828644854945" lon="11.97478424718154"><ele>15.0</ele><time>2026-04-26T16:00:52.001Z</time></trkpt><trkpt lat="44.348223271393444" lon="11.974784271395263"><ele>15.0</ele><time>2026-04-26T16:00:53.001Z</time></trkpt><trkpt lat="44.34810454606724" lon="11.974783574542908"><ele>15.166666666666666</ele><time>2026-04-26T16:00:55.001Z</time></trkpt><trkpt lat="44.348002853472615" lon="11.974851812025399"><ele>15.333333333333332</ele><time>2026-04-26T16:00:57.001Z</time></trkpt><trkpt lat="44.347938871601606" lon="11.974832104187007"><ele>15.5</ele><time>2026-04-26T16:00:59.001Z</time></trkpt><trkpt lat="44.34787019049964" lon="11.974800798107506"><ele>15.666666666666666</ele><time>2026-04-26T16:01:02.001Z</time></trkpt><trkpt lat="44.34780768456467" lon="11.974817504137905"><ele>15.833333333333332</ele><time>2026-04-26T16:01:11.001Z</time></trkpt><trkpt lat="44.34773977893429" lon="11.974764362718545"><ele>16.0</ele><time>2026-04-26T16:01:13.001Z</time></trkpt><trkpt lat="44.34764206532607" lon="11.9747374439308"><ele>16.0</ele><time>2026-04-26T16:01:15.001Z</time></trkpt><trkpt lat="44.34752633919288" lon="11.974721196539326"><ele>15.999999999999998</ele><time>2026-04-26T16:01:17.001Z</time></trkpt><trkpt lat="44.34746240372596" lon="11.974716569301743"><ele>16.0</ele><time>2026-04-26T16:01:18.001Z</time></trkpt><trkpt lat="44.3473977150493" lon="11.97471211132838"><ele>16.0</ele><time>2026-04-26T16:01:19.001Z</time></trkpt><trkpt lat="44.34732601203912" lon="11.9747075537342"><ele>15.999999999999998</ele><time>2026-04-26T16:01:20.001Z</time></trkpt><trkpt lat="44.34726301657728" lon="11.974703549612222"><ele>16.0</ele><time>2026-04-26T16:01:21.001Z</time></trkpt><trkpt lat="44.34719744172477" lon="11.974699381537453"><ele>16.0</ele><time>2026-04-26T16:01:22.001Z</time></trkpt><trkpt lat="44.347129951472425" lon="11.974695091716686"><ele>15.999999999999998</ele><time>2026-04-26T16:01:23.001Z</time></trkpt><trkpt lat="44.34706188004025" lon="11.974690764952035"><ele>16.0</ele><time>2026-04-26T16:01:24.001Z</time></trkpt><trkpt lat="44.346998670012034" lon="11.974686747191445"><ele>16.0</ele><time>2026-04-26T16:01:25.001Z</time></trkpt><trkpt lat="44.3469352030631" lon="11.97468271309829"><ele>16.0</ele><time>2026-04-26T16:01:26.001Z</time></trkpt><trkpt lat="44.34687092244641" lon="11.974678627288387"><ele>15.999999999999998</ele><time>2026-04-26T16:01:27.001Z</time></trkpt><trkpt lat="44.34674545200332" lon="11.974669119572747"><ele>16.0</ele><time>2026-04-26T16:01:29.001Z</time></trkpt><trkpt lat="44.34661953985813" lon="11.97465777299055"><ele>16.0</ele><time>2026-04-26T16:01:31.002Z</time></trkpt><trkpt lat="44.346554878130014" lon="11.974651431648557"><ele>15.999999999999998</ele><time>2026-04-26T16:01:32.002Z</time></trkpt><trkpt lat="44.346487231197806" lon="11.974644797546876"><ele>16.0</ele><time>2026-04-26T16:01:33.002Z</time></trkpt><trkpt lat="44.34642039206331" lon="11.974638242666769"><ele>16.0</ele><time>2026-04-26T16:01:34.002Z</time></trkpt><trkpt lat="44.346354659108975" lon="11.974631796250977"><ele>15.999999999999998</ele><time>2026-04-26T16:01:35.002Z</time></trkpt><trkpt lat="44.346285952559185" lon="11.974624331574367"><ele>16.0</ele><time>2026-04-26T16:01:36.002Z</time></trkpt><trkpt lat="44.34621970967796" lon="11.974615487568702"><ele>16.0</ele><time>2026-04-26T16:01:37.002Z</time></trkpt><trkpt lat="44.34615314224343" lon="11.974601615025032"><ele>16.142857142857142</ele><time>2026-04-26T16:01:38.002Z</time></trkpt><trkpt lat="44.34608826253789" lon="11.974583376849038"><ele>16.285714285714285</ele><time>2026-04-26T16:01:39.002Z</time></trkpt><trkpt lat="44.34602572807952" lon="11.974562997376093"><ele>16.428571428571427</ele><time>2026-04-26T16:01:40.002Z</time></trkpt><trkpt lat="44.34596199562218" lon="11.974537366758428"><ele>16.57142857142857</ele><time>2026-04-26T16:01:41.002Z</time></trkpt><trkpt lat="44.3459008604359" lon="11.974507676644757"><ele>16.714285714285715</ele><time>2026-04-26T16:01:42.002Z</time></trkpt><trkpt lat="44.34584111504139" lon="11.974469827350497"><ele>16.857142857142854</ele><time>2026-04-26T16:01:43.002Z</time></trkpt><trkpt lat="44.34578543420217" lon="11.974426750157283"><ele>17.0</ele><time>2026-04-26T16:01:44.002Z</time></trkpt><trkpt lat="44.345729226662485" lon="11.97437738572097"><ele>16.999999999999996</ele><time>2026-04-26T16:01:45.002Z</time></trkpt><trkpt lat="44.345676501773625" lon="11.974324476326816"><ele>17.0</ele><time>2026-04-26T16:01:46.002Z</time></trkpt><trkpt lat="44.34562357985242" lon="11.974263221261143"><ele>17.0</ele><time>2026-04-26T16:01:47.002Z</time></trkpt><trkpt lat="44.3455725775706" lon="11.97419944496013"><ele>17.0</ele><time>2026-04-26T16:01:48.002Z</time></trkpt><trkpt lat="44.34552771711601" lon="11.974129936330211"><ele>17.0</ele><time>2026-04-26T16:01:49.002Z</time></trkpt><trkpt lat="44.345487244089625" lon="11.974057062303764"><ele>16.999999999999996</ele><time>2026-04-26T16:01:50.002Z</time></trkpt><trkpt lat="44.34544773470594" lon="11.97398250389401"><ele>17.0</ele><time>2026-04-26T16:01:51.002Z</time></trkpt><trkpt lat="44.34541014011562" lon="11.973910768653198"><ele>17.0</ele><time>2026-04-26T16:01:52.002Z</time></trkpt><trkpt lat="44.34537058528724" lon="11.973835292981263"><ele>17.0</ele><time>2026-04-26T16:01:53.002Z</time></trkpt><trkpt lat="44.34528753241102" lon="11.973707473711338"><ele>17.0</ele><time>2026-04-26T16:01:55.002Z</time></trkpt><trkpt lat="44.345200192918085" lon="11.973601266132802"><ele>17.0</ele><time>2026-04-26T16:01:57.002Z</time></trkpt><trkpt lat="44.34509873414073" lon="11.973511932490895"><ele>17.0</ele><time>2026-04-26T16:01:59.002Z</time></trkpt><trkpt lat="44.344986550106555" lon="11.97346610420906"><ele>17.0</ele><time>2026-04-26T16:02:01.002Z</time></trkpt><trkpt lat="44.34486809507569" lon="11.973458244670143"><ele>17.0</ele><time>2026-04-26T16:02:03.002Z</time></trkpt><trkpt lat="44.344808760726835" lon="11.973489525130434"><ele>17.0</ele><time>2026-04-26T16:02:04.002Z</time></trkpt><trkpt lat="44.34468880451321" lon="11.973452475919453"><ele>17.0</ele><time>2026-04-26T16:02:06.002Z</time></trkpt><trkpt lat="44.34455530773696" lon="11.973452111888934"><ele>17.0</ele><time>2026-04-26T16:02:08.002Z</time></trkpt><trkpt lat="44.34448159208134" lon="11.97346272512466"><ele>17.0</ele><time>2026-04-26T16:02:09.002Z</time></trkpt><trkpt lat="44.34440299651233" lon="11.973483926964935"><ele>17.0</ele><time>2026-04-26T16:02:10.003Z</time></trkpt><trkpt lat="44.344319870339866" lon="11.973514990351164"><ele>17.0</ele><time>2026-04-26T16:02:11.003Z</time></trkpt><trkpt lat="44.34423992466316" lon="11.973555725363399"><ele>17.0</ele><time>2026-04-26T16:02:12.003Z</time></trkpt><trkpt lat="44.34416704629061" lon="11.973622985001594"><ele>17.0</ele><time>2026-04-26T16:02:13.003Z</time></trkpt><trkpt lat="44.34408649535716" lon="11.9736717820922"><ele>17.0</ele><time>2026-04-26T16:02:14.003Z</time></trkpt><trkpt lat="44.3440100484076" lon="11.973720121658719"><ele>17.0</ele><time>2026-04-26T16:02:15.003Z</time></trkpt><trkpt lat="44.343934682215576" lon="11.973765993664164"><ele>17.0</ele><time>2026-04-26T16:02:16.003Z</time></trkpt><trkpt lat="44.34385942798498" lon="11.97381580007706"><ele>17.0</ele><time>2026-04-26T16:02:17.003Z</time></trkpt><trkpt lat="44.343782883319804" lon="11.973867490986684"><ele>17.0</ele><time>2026-04-26T16:02:18.003Z</time></trkpt><trkpt lat="44.34370003805711" lon="11.973893583933535"><ele>17.0</ele><time>2026-04-26T16:02:19.003Z</time></trkpt><trkpt lat="44.34363088826207" lon="11.973960703179042"><ele>17.0</ele><time>2026-04-26T16:02:20.003Z</time></trkpt><trkpt lat="44.34355266826029" lon="11.974010802547694"><ele>16.833333333333336</ele><time>2026-04-26T16:02:21.003Z</time></trkpt><trkpt lat="44.343470012014166" lon="11.974037865467455"><ele>16.666666666666668</ele><time>2026-04-26T16:02:22.003Z</time></trkpt><trkpt lat="44.34339359765662" lon="11.974085208952753"><ele>16.5</ele><time>2026-04-26T16:02:23.003Z</time></trkpt><trkpt lat="44.343318189125625" lon="11.97413235394511"><ele>16.333333333333332</ele><time>2026-04-26T16:02:24Z</time></trkpt><trkpt lat="44.34324012312779" lon="11.974183285948854"><ele>16.166666666666664</ele><time>2026-04-26T16:02:25Z</time></trkpt><trkpt lat="44.34316979824518" lon="11.974256212436481"><ele>16.0</ele><time>2026-04-26T16:02:26Z</time></trkpt><trkpt lat="44.34309244291849" lon="11.974307954346855"><ele>16.333333333333332</ele><time>2026-04-26T16:02:27Z</time></trkpt><trkpt lat="44.34301391658366" lon="11.974367021338914"><ele>16.666666666666664</ele><time>2026-04-26T16:02:28Z</time></trkpt><trkpt lat="44.34294694777175" lon="11.974434830117753"><ele>17.0</ele><time>2026-04-26T16:02:29Z</time></trkpt><trkpt lat="44.34287785541144" lon="11.974510733582997"><ele>17.333333333333332</ele><time>2026-04-26T16:02:30Z</time></trkpt><trkpt lat="44.342809736606526" lon="11.974576625946279"><ele>17.666666666666668</ele><time>2026-04-26T16:02:31Z</time></trkpt><trkpt lat="44.342740621659644" lon="11.974644361453487"><ele>18.0</ele><time>2026-04-26T16:02:32Z</time></trkpt><trkpt lat="44.34267005748879" lon="11.974714310347228"><ele>18.0</ele><time>2026-04-26T16:02:33Z</time></trkpt><trkpt lat="44.34260195531778" lon="11.974789175169347"><ele>18.0</ele><time>2026-04-26T16:02:34Z</time></trkpt><trkpt lat="44.342534450798055" lon="11.974854319121228"><ele>18.0</ele><time>2026-04-26T16:02:35Z</time></trkpt><trkpt lat="44.342460723621784" lon="11.974918846816932"><ele>18.0</ele><time>2026-04-26T16:02:36Z</time></trkpt><trkpt lat="44.34238742615264" lon="11.97497035638107"><ele>18.0</ele><time>2026-04-26T16:02:37Z</time></trkpt><trkpt lat="44.3423264101182" lon="11.975056263700406"><ele>18.0</ele><time>2026-04-26T16:02:38Z</time></trkpt><trkpt lat="44.342254457379894" lon="11.975121335312249"><ele>17.833333333333332</ele><time>2026-04-26T16:02:39Z</time></trkpt><trkpt lat="44.34218289359819" lon="11.975184045899425"><ele>17.666666666666668</ele><time>2026-04-26T16:02:40Z</time></trkpt><trkpt lat="44.342114786770324" lon="11.975249887546145"><ele>17.5</ele><time>2026-04-26T16:02:41Z</time></trkpt><trkpt lat="44.34204765249891" lon="11.975317188981538"><ele>17.333333333333336</ele><time>2026-04-26T16:02:42Z</time></trkpt><trkpt lat="44.34198249050237" lon="11.975383813515808"><ele>17.166666666666668</ele><time>2026-04-26T16:02:43Z</time></trkpt><trkpt lat="44.341913209458475" lon="11.975447144343466"><ele>17.0</ele><time>2026-04-26T16:02:44Z</time></trkpt><trkpt lat="44.341847153187686" lon="11.97551444214975"><ele>17.0</ele><time>2026-04-26T16:02:45Z</time></trkpt><trkpt lat="44.34178092446276" lon="11.975574007300498"><ele>17.0</ele><time>2026-04-26T16:02:46Z</time></trkpt><trkpt lat="44.34171651829175" lon="11.975643135793755"><ele>17.0</ele><time>2026-04-26T16:02:47Z</time></trkpt><trkpt lat="44.34164843001846" lon="11.975706820750558"><ele>17.0</ele><time>2026-04-26T16:02:48Z</time></trkpt><trkpt lat="44.34157910394548" lon="11.975764870000662"><ele>17.0</ele><time>2026-04-26T16:02:49Z</time></trkpt><trkpt lat="44.341508832273654" lon="11.97582683344644"><ele>17.0</ele><time>2026-04-26T16:02:50Z</time></trkpt><trkpt lat="44.34143769155822" lon="11.975881008397192"><ele>16.833333333333336</ele><time>2026-04-26T16:02:51Z</time></trkpt><trkpt lat="44.34136042174784" lon="11.975928820607557"><ele>16.666666666666668</ele><time>2026-04-26T16:02:52Z</time></trkpt><trkpt lat="44.34128466881335" lon="11.975964214334832"><ele>16.5</ele><time>2026-04-26T16:02:53Z</time></trkpt><trkpt lat="44.34120636158136" lon="11.97599303102141"><ele>16.333333333333332</ele><time>2026-04-26T16:02:54Z</time></trkpt><trkpt lat="44.341123263420734" lon="11.975986238927225"><ele>16.166666666666664</ele><time>2026-04-26T16:02:55Z</time></trkpt><trkpt lat="44.34104298352803" lon="11.975990037207158"><ele>16.0</ele><time>2026-04-26T16:02:56Z</time></trkpt><trkpt lat="44.34096219083353" lon="11.975986888313756"><ele>15.999999999999998</ele><time>2026-04-26T16:02:57Z</time></trkpt><trkpt lat="44.34088143935968" lon="11.975980906114614"><ele>16.0</ele><time>2026-04-26T16:02:58Z</time></trkpt><trkpt lat="44.34080044030453" lon="11.975960296307838"><ele>16.0</ele><time>2026-04-26T16:02:59Z</time></trkpt><trkpt lat="44.340725873932975" lon="11.975930448995125"><ele>16.0</ele><time>2026-04-26T16:03:00.001Z</time></trkpt><trkpt lat="44.340649760212344" lon="11.975897022159547"><ele>15.999999999999998</ele><time>2026-04-26T16:03:01.001Z</time></trkpt><trkpt lat="44.340575336594846" lon="11.975852272914345"><ele>16.0</ele><time>2026-04-26T16:03:02.001Z</time></trkpt><trkpt lat="44.34050628420123" lon="11.975798908778573"><ele>15.999999999999998</ele><time>2026-04-26T16:03:03.001Z</time></trkpt><trkpt lat="44.34043609582074" lon="11.975737909050377"><ele>16.0</ele><time>2026-04-26T16:03:04.001Z</time></trkpt><trkpt lat="44.34036741434886" lon="11.975671596398382"><ele>16.0</ele><time>2026-04-26T16:03:05.001Z</time></trkpt><trkpt lat="44.34030479020031" lon="11.975603083394848"><ele>16.0</ele><time>2026-04-26T16:03:06.001Z</time></trkpt><trkpt lat="44.34024023450802" lon="11.975526646191733"><ele>15.999999999999998</ele><time>2026-04-26T16:03:07.001Z</time></trkpt><trkpt lat="44.3401817042313" lon="11.975446547997636"><ele>16.0</ele><time>2026-04-26T16:03:08.001Z</time></trkpt><trkpt lat="44.34012105387578" lon="11.975359473150762"><ele>15.999999999999998</ele><time>2026-04-26T16:03:09.001Z</time></trkpt><trkpt lat="44.34006846569484" lon="11.97527308941148"><ele>16.0</ele><time>2026-04-26T16:03:10.001Z</time></trkpt><trkpt lat="44.34002248930938" lon="11.975184602069449"><ele>16.0</ele><time>2026-04-26T16:03:11.001Z</time></trkpt><trkpt lat="44.3399795919865" lon="11.9750974966826"><ele>16.0</ele><time>2026-04-26T16:03:12.001Z</time></trkpt><trkpt lat="44.339915707481715" lon="11.974955963958609"><ele>15.999999999999998</ele><time>2026-04-26T16:03:14.001Z</time></trkpt><trkpt lat="44.3398535605196" lon="11.974861934898735"><ele>16.0</ele><time>2026-04-26T16:03:16.001Z</time></trkpt><trkpt lat="44.33981983679994" lon="11.974774638844249"><ele>16.0</ele><time>2026-04-26T16:03:18.001Z</time></trkpt><trkpt lat="44.33978672444101" lon="11.974667898032335"><ele>16.0</ele><time>2026-04-26T16:03:20.001Z</time></trkpt><trkpt lat="44.33975310688757" lon="11.974558210937454"><ele>16.0</ele><time>2026-04-26T16:03:22.001Z</time></trkpt><trkpt lat="44.33969788958004" lon="11.974442148307945"><ele>16.0</ele><time>2026-04-26T16:03:24.001Z</time></trkpt><trkpt lat="44.33963605803024" lon="11.974322614710815"><ele>16.0</ele><time>2026-04-26T16:03:26.001Z</time></trkpt><trkpt lat="44.339567282327636" lon="11.974230961487947"><ele>16.25</ele><time>2026-04-26T16:03:28.001Z</time></trkpt><trkpt lat="44.33949784261686" lon="11.9741445595256"><ele>16.5</ele><time>2026-04-26T16:03:30.001Z</time></trkpt><trkpt lat="44.33943259237294" lon="11.97411657277937"><ele>16.75</ele><time>2026-04-26T16:03:32.001Z</time></trkpt><trkpt lat="44.339365579720955" lon="11.974076713848572"><ele>17.0</ele><time>2026-04-26T16:03:34.001Z</time></trkpt><trkpt lat="44.339434342874604" lon="11.973504335597122"><ele>17.25</ele><time>2026-04-26T16:03:37.001Z</time></trkpt><trkpt lat="44.3393997488696" lon="11.97335059228709"><ele>17.5</ele><time>2026-04-26T16:03:39.002Z</time></trkpt><trkpt lat="44.33936172141318" lon="11.973202418104592"><ele>17.75</ele><time>2026-04-26T16:03:41.002Z</time></trkpt><trkpt lat="44.33932102696601" lon="11.9730434077061"><ele>18.0</ele><time>2026-04-26T16:03:43.002Z</time></trkpt><trkpt lat="44.33928795833785" lon="11.972888988582811"><ele>18.0</ele><time>2026-04-26T16:03:45.002Z</time></trkpt><trkpt lat="44.33924474448418" lon="11.972730157929425"><ele>18.0</ele><time>2026-04-26T16:03:47.002Z</time></trkpt><trkpt lat="44.339209804351206" lon="11.972587821623806"><ele>18.0</ele><time>2026-04-26T16:03:49.002Z</time></trkpt><trkpt lat="44.339169093445584" lon="11.972434954925891"><ele>18.0</ele><time>2026-04-26T16:03:51.002Z</time></trkpt><trkpt lat="44.33912247523222" lon="11.97227619631059"><ele>18.0</ele><time>2026-04-26T16:03:53.002Z</time></trkpt><trkpt lat="44.339075012923864" lon="11.972122095443044"><ele>18.0</ele><time>2026-04-26T16:03:55.002Z</time></trkpt><trkpt lat="44.339051576109405" lon="11.972036752333054"><ele>18.0</ele><time>2026-04-26T16:03:56.002Z</time></trkpt><trkpt lat="44.339004890751085" lon="11.971889173497763"><ele>18.0</ele><time>2026-04-26T16:03:58.002Z</time></trkpt><trkpt lat="44.338959131879264" lon="11.971732915413765"><ele>18.0</ele><time>2026-04-26T16:04:00.002Z</time></trkpt><trkpt lat="44.338907911769844" lon="11.971594320083485"><ele>18.0</ele><time>2026-04-26T16:04:02.002Z</time></trkpt><trkpt lat="44.33885402880926" lon="11.971444065564146"><ele>18.0</ele><time>2026-04-26T16:04:04.002Z</time></trkpt><trkpt lat="44.338824360663786" lon="11.971366000411606"><ele>18.0</ele><time>2026-04-26T16:04:05.002Z</time></trkpt><trkpt lat="44.33876899512707" lon="11.971217565614628"><ele>18.0</ele><time>2026-04-26T16:04:07.002Z</time></trkpt><trkpt lat="44.33870506545936" lon="11.971069707920078"><ele>18.0</ele><time>2026-04-26T16:04:09.002Z</time></trkpt><trkpt lat="44.33863488317571" lon="11.970935661679517"><ele>18.2</ele><time>2026-04-26T16:04:11.002Z</time></trkpt><trkpt lat="44.33856655566889" lon="11.970800921722125"><ele>18.4</ele><time>2026-04-26T16:04:13.002Z</time></trkpt><trkpt lat="44.33852876614533" lon="11.970730430401664"><ele>18.599999999999998</ele><time>2026-04-26T16:04:14.002Z</time></trkpt><trkpt lat="44.33845536452558" lon="11.970590181759118"><ele>18.8</ele><time>2026-04-26T16:04:16.002Z</time></trkpt><trkpt lat="44.338381932122644" lon="11.970454317269493"><ele>19.0</ele><time>2026-04-26T16:04:18.003Z</time></trkpt><trkpt lat="44.338344122759906" lon="11.970377717525473"><ele>19.0</ele><time>2026-04-26T16:04:19.003Z</time></trkpt><trkpt lat="44.338269993254556" lon="11.970238521632679"><ele>19.0</ele><time>2026-04-26T16:04:21.003Z</time></trkpt><trkpt lat="44.33822772818054" lon="11.97015964910403"><ele>19.0</ele><time>2026-04-26T16:04:22.003Z</time></trkpt><trkpt lat="44.3381893185139" lon="11.970087676721088"><ele>19.0</ele><time>2026-04-26T16:04:23.003Z</time></trkpt><trkpt lat="44.33811453655853" lon="11.96995060666531"><ele>19.0</ele><time>2026-04-26T16:04:25.003Z</time></trkpt><trkpt lat="44.338072791830335" lon="11.969875254279671"><ele>18.833333333333332</ele><time>2026-04-26T16:04:26.003Z</time></trkpt><trkpt lat="44.33799394407968" lon="11.969734997438898"><ele>18.666666666666664</ele><time>2026-04-26T16:04:28.003Z</time></trkpt><trkpt lat="44.3379512000286" lon="11.969665449900623"><ele>18.5</ele><time>2026-04-26T16:04:29.003Z</time></trkpt><trkpt lat="44.33790916822135" lon="11.969597275412653"><ele>18.333333333333332</ele><time>2026-04-26T16:04:30Z</time></trkpt><trkpt lat="44.33786604739036" lon="11.969528819779253"><ele>18.166666666666668</ele><time>2026-04-26T16:04:31Z</time></trkpt><trkpt lat="44.33782038859403" lon="11.969457235840606"><ele>18.0</ele><time>2026-04-26T16:04:32Z</time></trkpt><trkpt lat="44.337734891392806" lon="11.969324436122733"><ele>18.0</ele><time>2026-04-26T16:04:34Z</time></trkpt><trkpt lat="44.337692236842194" lon="11.969257036296778"><ele>18.0</ele><time>2026-04-26T16:04:35Z</time></trkpt><trkpt lat="44.33764526431362" lon="11.969186048124575"><ele>18.0</ele><time>2026-04-26T16:04:36Z</time></trkpt><trkpt lat="44.33755750019119" lon="11.969068713003521"><ele>18.0</ele><time>2026-04-26T16:04:38Z</time></trkpt><trkpt lat="44.337467650443244" lon="11.968953700903135"><ele>18.0</ele><time>2026-04-26T16:04:40Z</time></trkpt><trkpt lat="44.337377906354114" lon="11.968824421200527"><ele>18.166666666666668</ele><time>2026-04-26T16:04:42Z</time></trkpt><trkpt lat="44.33733199126153" lon="11.96876185215219"><ele>18.333333333333332</ele><time>2026-04-26T16:04:43Z</time></trkpt><trkpt lat="44.337279643073835" lon="11.968695114322141"><ele>18.5</ele><time>2026-04-26T16:04:44Z</time></trkpt><trkpt lat="44.3372322757726" lon="11.968632038158168"><ele>18.666666666666664</ele><time>2026-04-26T16:04:45Z</time></trkpt><trkpt lat="44.337136826901784" lon="11.968505803498415"><ele>18.833333333333332</ele><time>2026-04-26T16:04:47Z</time></trkpt><trkpt lat="44.33708801156562" lon="11.96844202298448"><ele>19.0</ele><time>2026-04-26T16:04:48Z</time></trkpt><trkpt lat="44.33703676292435" lon="11.968385236473052"><ele>18.599999999999998</ele><time>2026-04-26T16:04:49Z</time></trkpt><trkpt lat="44.33694543981264" lon="11.968296194175355"><ele>18.2</ele><time>2026-04-26T16:04:51Z</time></trkpt><trkpt lat="44.33682806876778" lon="11.96825170886385"><ele>17.799999999999997</ele><time>2026-04-26T16:04:53Z</time></trkpt><trkpt lat="44.336720104477436" lon="11.96824833594903"><ele>17.4</ele><time>2026-04-26T16:04:55Z</time></trkpt><trkpt lat="44.33661836741716" lon="11.968273149334882"><ele>17.0</ele><time>2026-04-26T16:04:57Z</time></trkpt><trkpt lat="44.33652128488394" lon="11.968339364361936"><ele>17.0</ele><time>2026-04-26T16:04:59Z</time></trkpt><trkpt lat="44.33642611911136" lon="11.968436945956151"><ele>17.0</ele><time>2026-04-26T16:05:01Z</time></trkpt><trkpt lat="44.33634363651697" lon="11.968534975291202"><ele>17.0</ele><time>2026-04-26T16:05:03Z</time></trkpt><trkpt lat="44.3362596986339" lon="11.968633755137885"><ele>17.0</ele><time>2026-04-26T16:05:05Z</time></trkpt><trkpt lat="44.336170765945184" lon="11.968743426104584"><ele>16.8</ele><time>2026-04-26T16:05:07.001Z</time></trkpt><trkpt lat="44.33607626609429" lon="11.96885210820996"><ele>16.6</ele><time>2026-04-26T16:05:09.001Z</time></trkpt><trkpt lat="44.335983168085235" lon="11.968954107756975"><ele>16.400000000000002</ele><time>2026-04-26T16:05:11.001Z</time></trkpt><trkpt lat="44.33593254970639" lon="11.969009723452047"><ele>16.2</ele><time>2026-04-26T16:05:12.001Z</time></trkpt><trkpt lat="44.33583856596861" lon="11.969096589097378"><ele>16.0</ele><time>2026-04-26T16:05:14.001Z</time></trkpt><trkpt lat="44.33573013116103" lon="11.969177757763976"><ele>16.25</ele><time>2026-04-26T16:05:16.001Z</time></trkpt><trkpt lat="44.33560972919008" lon="11.969245970496312"><ele>16.5</ele><time>2026-04-26T16:05:18.001Z</time></trkpt><trkpt lat="44.33549309732781" lon="11.969284688075069"><ele>16.75</ele><time>2026-04-26T16:05:20.001Z</time></trkpt><trkpt lat="44.33537028400149" lon="11.96930971863912"><ele>17.0</ele><time>2026-04-26T16:05:22.001Z</time></trkpt><trkpt lat="44.33524733866072" lon="11.969302506150756"><ele>17.0</ele><time>2026-04-26T16:05:24.001Z</time></trkpt><trkpt lat="44.335177931762935" lon="11.969290443532607"><ele>17.0</ele><time>2026-04-26T16:05:25.001Z</time></trkpt><trkpt lat="44.335051116239775" lon="11.969255270621755"><ele>17.0</ele><time>2026-04-26T16:05:27.001Z</time></trkpt><trkpt lat="44.334989235832396" lon="11.96923611284171"><ele>17.0</ele><time>2026-04-26T16:05:28.001Z</time></trkpt><trkpt lat="44.33492327445629" lon="11.9692117470513"><ele>17.0</ele><time>2026-04-26T16:05:29.001Z</time></trkpt><trkpt lat="44.33485989194788" lon="11.96918052899129"><ele>17.0</ele><time>2026-04-26T16:05:30.001Z</time></trkpt><trkpt lat="44.334792956321316" lon="11.969144949267761"><ele>16.999999999999996</ele><time>2026-04-26T16:05:31.001Z</time></trkpt><trkpt lat="44.334731920419344" lon="11.969108086040956"><ele>17.0</ele><time>2026-04-26T16:05:32.001Z</time></trkpt><trkpt lat="44.334669283331706" lon="11.969063277950633"><ele>17.0</ele><time>2026-04-26T16:05:33.001Z</time></trkpt><trkpt lat="44.33461063086846" lon="11.969018450706558"><ele>17.0</ele><time>2026-04-26T16:05:34.001Z</time></trkpt><trkpt lat="44.33455548512003" lon="11.968973324158371"><ele>17.0</ele><time>2026-04-26T16:05:35.001Z</time></trkpt><trkpt lat="44.33449616377326" lon="11.968924718348655"><ele>16.999999999999996</ele><time>2026-04-26T16:05:36.001Z</time></trkpt><trkpt lat="44.33442118099121" lon="11.968922283855818"><ele>17.0</ele><time>2026-04-26T16:05:37.001Z</time></trkpt><trkpt lat="44.334361301290166" lon="11.968837997077397"><ele>17.0</ele><time>2026-04-26T16:05:39.001Z</time></trkpt><trkpt lat="44.334317219881655" lon="11.96877040093192"><ele>17.0</ele><time>2026-04-26T16:05:41.001Z</time></trkpt><trkpt lat="44.33425547048072" lon="11.968729807714919"><ele>17.0</ele><time>2026-04-26T16:05:44.002Z</time></trkpt><trkpt lat="44.33419486265421" lon="11.968648486633198"><ele>17.0</ele><time>2026-04-26T16:06:01.002Z</time></trkpt><trkpt lat="44.33413018165032" lon="11.968553727925661"><ele>17.0</ele><time>2026-04-26T16:06:04.002Z</time></trkpt><trkpt lat="44.334065906476184" lon="11.968474109520463"><ele>17.0</ele><time>2026-04-26T16:06:06.002Z</time></trkpt><trkpt lat="44.3339784729349" lon="11.968386713931523"><ele>17.142857142857142</ele><time>2026-04-26T16:06:08.002Z</time></trkpt><trkpt lat="44.333925094900025" lon="11.968336876702862"><ele>17.285714285714285</ele><time>2026-04-26T16:06:09.002Z</time></trkpt><trkpt lat="44.333866914872445" lon="11.968284027872723"><ele>17.42857142857143</ele><time>2026-04-26T16:06:10.002Z</time></trkpt><trkpt lat="44.33381171886389" lon="11.96823388969258"><ele>17.57142857142857</ele><time>2026-04-26T16:06:11.002Z</time></trkpt><trkpt lat="44.3337553249895" lon="11.968180554313697"><ele>17.714285714285715</ele><time>2026-04-26T16:06:12.002Z</time></trkpt><trkpt lat="44.333703175822826" lon="11.968122613662583"><ele>17.857142857142858</ele><time>2026-04-26T16:06:13.002Z</time></trkpt><trkpt lat="44.33365258118537" lon="11.968063511871158"><ele>18.0</ele><time>2026-04-26T16:06:14.002Z</time></trkpt><trkpt lat="44.333599720320976" lon="11.967998774722954"><ele>18.000000000000004</ele><time>2026-04-26T16:06:15.002Z</time></trkpt><trkpt lat="44.33354913358686" lon="11.967932474651713"><ele>18.0</ele><time>2026-04-26T16:06:16.002Z</time></trkpt><trkpt lat="44.33349657885344" lon="11.967863595082278"><ele>18.0</ele><time>2026-04-26T16:06:17.002Z</time></trkpt><trkpt lat="44.33344364187299" lon="11.967794214498277"><ele>18.0</ele><time>2026-04-26T16:06:18.002Z</time></trkpt><trkpt lat="44.33339374452076" lon="11.967728817900483"><ele>18.0</ele><time>2026-04-26T16:06:19.002Z</time></trkpt><trkpt lat="44.33333855188482" lon="11.967660498455345"><ele>18.000000000000004</ele><time>2026-04-26T16:06:20.002Z</time></trkpt><trkpt lat="44.3332790859353" lon="11.967592891752155"><ele>18.0</ele><time>2026-04-26T16:06:21.002Z</time></trkpt><trkpt lat="44.33322000979447" lon="11.967531746823022"><ele>18.142857142857146</ele><time>2026-04-26T16:06:22.003Z</time></trkpt><trkpt lat="44.33316378290223" lon="11.967476668005386"><ele>18.285714285714285</ele><time>2026-04-26T16:06:23.003Z</time></trkpt><trkpt lat="44.333092523958776" lon="11.967442229585625"><ele>18.42857142857143</ele><time>2026-04-26T16:06:24.003Z</time></trkpt><trkpt lat="44.333035502489274" lon="11.967369454264263"><ele>18.571428571428573</ele><time>2026-04-26T16:06:25.003Z</time></trkpt><trkpt lat="44.33297108106885" lon="11.96731932278749"><ele>18.714285714285715</ele><time>2026-04-26T16:06:26.003Z</time></trkpt><trkpt lat="44.33290779344528" lon="11.967271832474896"><ele>18.857142857142858</ele><time>2026-04-26T16:06:27.003Z</time></trkpt><trkpt lat="44.33283271320058" lon="11.96724373719768"><ele>19.0</ele><time>2026-04-26T16:06:28.003Z</time></trkpt><trkpt lat="44.33277313923825" lon="11.967194665693873"><ele>19.0</ele><time>2026-04-26T16:06:29.003Z</time></trkpt><trkpt lat="44.33270488710366" lon="11.967160117193467"><ele>19.0</ele><time>2026-04-26T16:06:30.003Z</time></trkpt><trkpt lat="44.33263916968962" lon="11.96712403023721"><ele>19.0</ele><time>2026-04-26T16:06:31.003Z</time></trkpt><trkpt lat="44.332567656083874" lon="11.967089275173565"><ele>19.0</ele><time>2026-04-26T16:06:32.003Z</time></trkpt><trkpt lat="44.33249837523886" lon="11.967061527145102"><ele>19.0</ele><time>2026-04-26T16:06:33.003Z</time></trkpt><trkpt lat="44.33242862860546" lon="11.967043691380594"><ele>19.0</ele><time>2026-04-26T16:06:34.003Z</time></trkpt><trkpt lat="44.33235549790686" lon="11.967033235227156"><ele>19.0</ele><time>2026-04-26T16:06:35.003Z</time></trkpt><trkpt lat="44.332281799525674" lon="11.96702871857277"><ele>18.857142857142858</ele><time>2026-04-26T16:06:36Z</time></trkpt><trkpt lat="44.33221055437664" lon="11.967029818082205"><ele>18.714285714285715</ele><time>2026-04-26T16:06:37Z</time></trkpt><trkpt lat="44.33213671298665" lon="11.967034036988533"><ele>18.571428571428573</ele><time>2026-04-26T16:06:38Z</time></trkpt><trkpt lat="44.33206771390523" lon="11.967038100748788"><ele>18.42857142857143</ele><time>2026-04-26T16:06:39Z</time></trkpt><trkpt lat="44.331997030569546" lon="11.967046292292624"><ele>18.285714285714285</ele><time>2026-04-26T16:06:40Z</time></trkpt><trkpt lat="44.33193260474333" lon="11.967056334301407"><ele>18.142857142857146</ele><time>2026-04-26T16:06:41Z</time></trkpt><trkpt lat="44.33187013451278" lon="11.967069056705107"><ele>18.0</ele><time>2026-04-26T16:06:42Z</time></trkpt><trkpt lat="44.331765546028564" lon="11.96708629733632"><ele>18.0</ele><time>2026-04-26T16:06:44Z</time></trkpt><trkpt lat="44.331676654114865" lon="11.967106327229498"><ele>18.0</ele><time>2026-04-26T16:06:46Z</time></trkpt><trkpt lat="44.33161439324984" lon="11.967123514356043"><ele>18.0</ele><time>2026-04-26T16:06:48Z</time></trkpt><trkpt lat="44.331536607487806" lon="11.967140058560226"><ele>18.0</ele><time>2026-04-26T16:06:51Z</time></trkpt><trkpt lat="44.331456484239666" lon="11.96714824437749"><ele>18.0</ele><time>2026-04-26T16:07:04Z</time></trkpt><trkpt lat="44.33138986891176" lon="11.967160040680461"><ele>18.0</ele><time>2026-04-26T16:07:06Z</time></trkpt><trkpt lat="44.33128849877569" lon="11.967171385199036"><ele>18.0</ele><time>2026-04-26T16:07:08Z</time></trkpt><trkpt lat="44.331168537087514" lon="11.967166655474054"><ele>18.0</ele><time>2026-04-26T16:07:10Z</time></trkpt><trkpt lat="44.33110369141698" lon="11.967167664455864"><ele>18.0</ele><time>2026-04-26T16:07:11Z</time></trkpt><trkpt lat="44.33103441080771" lon="11.967172486291524"><ele>18.0</ele><time>2026-04-26T16:07:12Z</time></trkpt><trkpt lat="44.330960376448644" lon="11.96717859007641"><ele>18.0</ele><time>2026-04-26T16:07:13.001Z</time></trkpt><trkpt lat="44.33088429592229" lon="11.967177685962374"><ele>18.0</ele><time>2026-04-26T16:07:14.001Z</time></trkpt><trkpt lat="44.33080637129313" lon="11.96717836642131"><ele>18.0</ele><time>2026-04-26T16:07:15.001Z</time></trkpt><trkpt lat="44.33072699725174" lon="11.967182587401505"><ele>18.0</ele><time>2026-04-26T16:07:16.001Z</time></trkpt><trkpt lat="44.33064413215171" lon="11.967188998851523"><ele>18.0</ele><time>2026-04-26T16:07:17.001Z</time></trkpt><trkpt lat="44.33056088473032" lon="11.967198004705073"><ele>18.0</ele><time>2026-04-26T16:07:18.001Z</time></trkpt><trkpt lat="44.33047509280016" lon="11.967180423209106"><ele>18.0</ele><time>2026-04-26T16:07:19.001Z</time></trkpt><trkpt lat="44.330392574209284" lon="11.96720447537914"><ele>18.0</ele><time>2026-04-26T16:07:20.001Z</time></trkpt><trkpt lat="44.330309866185836" lon="11.967199178004774"><ele>18.166666666666668</ele><time>2026-04-26T16:07:21.001Z</time></trkpt><trkpt lat="44.330228539140116" lon="11.967191391896643"><ele>18.333333333333332</ele><time>2026-04-26T16:07:22.001Z</time></trkpt><trkpt lat="44.330144699013985" lon="11.967186922583977"><ele>18.5</ele><time>2026-04-26T16:07:23.001Z</time></trkpt><trkpt lat="44.330061942920864" lon="11.96717948519291"><ele>18.666666666666664</ele><time>2026-04-26T16:07:24.001Z</time></trkpt><trkpt lat="44.3299786645269" lon="11.967167992720597"><ele>18.833333333333332</ele><time>2026-04-26T16:07:25.001Z</time></trkpt><trkpt lat="44.32989707473923" lon="11.96715655039981"><ele>19.0</ele><time>2026-04-26T16:07:26.001Z</time></trkpt><trkpt lat="44.32981333815476" lon="11.967140852190283"><ele>19.0</ele><time>2026-04-26T16:07:27.001Z</time></trkpt><trkpt lat="44.32973485084833" lon="11.96712067141679"><ele>19.0</ele><time>2026-04-26T16:07:28.001Z</time></trkpt><trkpt lat="44.329653236193806" lon="11.967100994506078"><ele>19.0</ele><time>2026-04-26T16:07:29.001Z</time></trkpt><trkpt lat="44.32957461027336" lon="11.967083207343876"><ele>19.0</ele><time>2026-04-26T16:07:30.001Z</time></trkpt><trkpt lat="44.329495000618884" lon="11.967055933109798"><ele>19.0</ele><time>2026-04-26T16:07:31.001Z</time></trkpt><trkpt lat="44.32942179934473" lon="11.967001611349632"><ele>19.0</ele><time>2026-04-26T16:07:32.001Z</time></trkpt><trkpt lat="44.329345336350976" lon="11.966965122188828"><ele>19.0</ele><time>2026-04-26T16:07:33.001Z</time></trkpt><trkpt lat="44.329261692649645" lon="11.966947892868614"><ele>19.0</ele><time>2026-04-26T16:07:34.001Z</time></trkpt><trkpt lat="44.32918582461174" lon="11.96690500227167"><ele>19.0</ele><time>2026-04-26T16:07:35.001Z</time></trkpt><trkpt lat="44.32911141536614" lon="11.96686325521995"><ele>19.0</ele><time>2026-04-26T16:07:36.001Z</time></trkpt><trkpt lat="44.32903551331598" lon="11.966817693579065"><ele>19.0</ele><time>2026-04-26T16:07:37.001Z</time></trkpt><trkpt lat="44.32896190710997" lon="11.966770862303969"><ele>19.0</ele><time>2026-04-26T16:07:38.001Z</time></trkpt><trkpt lat="44.328885656449096" lon="11.966723129052728"><ele>18.833333333333332</ele><time>2026-04-26T16:07:39.001Z</time></trkpt><trkpt lat="44.328810845274475" lon="11.966681305642167"><ele>18.666666666666664</ele><time>2026-04-26T16:07:40.001Z</time></trkpt><trkpt lat="44.32873631861731" lon="11.96663258511971"><ele>18.5</ele><time>2026-04-26T16:07:41.001Z</time></trkpt><trkpt lat="44.32866171378641" lon="11.966578539164212"><ele>18.333333333333332</ele><time>2026-04-26T16:07:42.001Z</time></trkpt><trkpt lat="44.328587151260855" lon="11.966520157210862"><ele>18.166666666666668</ele><time>2026-04-26T16:07:43.001Z</time></trkpt><trkpt lat="44.32851528719199" lon="11.966471612062854"><ele>18.0</ele><time>2026-04-26T16:07:44.001Z</time></trkpt><trkpt lat="44.32843946524846" lon="11.966415277521955"><ele>18.0</ele><time>2026-04-26T16:07:45.001Z</time></trkpt><trkpt lat="44.32836805300942" lon="11.966360809596145"><ele>18.0</ele><time>2026-04-26T16:07:46.001Z</time></trkpt><trkpt lat="44.328295465227995" lon="11.966299246704942"><ele>18.0</ele><time>2026-04-26T16:07:47.001Z</time></trkpt><trkpt lat="44.3282236948171" lon="11.966239506508552"><ele>18.0</ele><time>2026-04-26T16:07:48.002Z</time></trkpt><trkpt lat="44.328150365924955" lon="11.966179467812733"><ele>18.0</ele><time>2026-04-26T16:07:49.002Z</time></trkpt><trkpt lat="44.32807994501302" lon="11.96611374391672"><ele>18.0</ele><time>2026-04-26T16:07:50.002Z</time></trkpt><trkpt lat="44.32800758022302" lon="11.96605182038253"><ele>18.0</ele><time>2026-04-26T16:07:51.002Z</time></trkpt><trkpt lat="44.327937807600044" lon="11.965988044796967"><ele>18.0</ele><time>2026-04-26T16:07:52.002Z</time></trkpt><trkpt lat="44.32786820660556" lon="11.965918706391442"><ele>18.0</ele><time>2026-04-26T16:07:53.002Z</time></trkpt><trkpt lat="44.327801659743066" lon="11.96585195225523"><ele>18.0</ele><time>2026-04-26T16:07:54.002Z</time></trkpt><trkpt lat="44.32773355606468" lon="11.965784640256956"><ele>18.0</ele><time>2026-04-26T16:07:55.002Z</time></trkpt><trkpt lat="44.32766227490148" lon="11.965716997968693"><ele>18.0</ele><time>2026-04-26T16:07:56.002Z</time></trkpt><trkpt lat="44.327591537614296" lon="11.965646522620053"><ele>18.166666666666668</ele><time>2026-04-26T16:07:57.002Z</time></trkpt><trkpt lat="44.327520230454695" lon="11.965576738617724"><ele>18.333333333333332</ele><time>2026-04-26T16:07:58.002Z</time></trkpt><trkpt lat="44.32744941813909" lon="11.965506840265949"><ele>18.5</ele><time>2026-04-26T16:07:59.002Z</time></trkpt><trkpt lat="44.3273781386034" lon="11.965435635622306"><ele>18.666666666666664</ele><time>2026-04-26T16:08:00.002Z</time></trkpt><trkpt lat="44.3273068171999" lon="11.965370556617712"><ele>18.833333333333332</ele><time>2026-04-26T16:08:01.002Z</time></trkpt><trkpt lat="44.32723404476666" lon="11.965301757645463"><ele>19.0</ele><time>2026-04-26T16:08:02.002Z</time></trkpt><trkpt lat="44.327165114398916" lon="11.965234017137838"><ele>19.166666666666664</ele><time>2026-04-26T16:08:03.002Z</time></trkpt><trkpt lat="44.32709261182601" lon="11.96516186028344"><ele>19.333333333333332</ele><time>2026-04-26T16:08:04.002Z</time></trkpt><trkpt lat="44.32702247949262" lon="11.965088773026375"><ele>19.5</ele><time>2026-04-26T16:08:05.002Z</time></trkpt><trkpt lat="44.3269538993728" lon="11.96501462328776"><ele>19.666666666666668</ele><time>2026-04-26T16:08:06.002Z</time></trkpt><trkpt lat="44.326888245529794" lon="11.964937783292957"><ele>19.833333333333336</ele><time>2026-04-26T16:08:07.002Z</time></trkpt><trkpt lat="44.32682120549434" lon="11.964860357032451"><ele>20.0</ele><time>2026-04-26T16:08:08.002Z</time></trkpt><trkpt lat="44.326771227879625" lon="11.964759201758321"><ele>20.0</ele><time>2026-04-26T16:08:09.002Z</time></trkpt><trkpt lat="44.326710740903636" lon="11.964672017404004"><ele>20.0</ele><time>2026-04-26T16:08:10.002Z</time></trkpt><trkpt lat="44.32665025476368" lon="11.964585914133128"><ele>20.0</ele><time>2026-04-26T16:08:11.002Z</time></trkpt><trkpt lat="44.326583463406344" lon="11.964505164002361"><ele>20.0</ele><time>2026-04-26T16:08:12.002Z</time></trkpt><trkpt lat="44.32651102476353" lon="11.964434047710183"><ele>20.0</ele><time>2026-04-26T16:08:13.002Z</time></trkpt><trkpt lat="44.32643363459545" lon="11.964369405772441"><ele>20.0</ele><time>2026-04-26T16:08:14.002Z</time></trkpt><trkpt lat="44.32634800456911" lon="11.964321555301689"><ele>19.833333333333336</ele><time>2026-04-26T16:08:15.002Z</time></trkpt><trkpt lat="44.32625671091096" lon="11.964288891144832"><ele>19.666666666666668</ele><time>2026-04-26T16:08:16.002Z</time></trkpt><trkpt lat="44.3261669532476" lon="11.96426828925295"><ele>19.5</ele><time>2026-04-26T16:08:17.002Z</time></trkpt><trkpt lat="44.32608745538809" lon="11.964259621471593"><ele>19.333333333333332</ele><time>2026-04-26T16:08:18.002Z</time></trkpt><trkpt lat="44.326015290471325" lon="11.964255540526505"><ele>19.166666666666664</ele><time>2026-04-26T16:08:19.002Z</time></trkpt><trkpt lat="44.32593744129488" lon="11.964254546069405"><ele>19.0</ele><time>2026-04-26T16:08:20.002Z</time></trkpt><trkpt lat="44.325862783417485" lon="11.964257310384177"><ele>19.0</ele><time>2026-04-26T16:08:21.002Z</time></trkpt><trkpt lat="44.32579268721097" lon="11.964264017205277"><ele>19.0</ele><time>2026-04-26T16:08:22.002Z</time></trkpt><trkpt lat="44.32572235093023" lon="11.964274274790148"><ele>19.0</ele><time>2026-04-26T16:08:23.002Z</time></trkpt><trkpt lat="44.3256278745686" lon="11.964294519762923"><ele>19.0</ele><time>2026-04-26T16:08:25.003Z</time></trkpt><trkpt lat="44.32556409679564" lon="11.964313884315143"><ele>19.0</ele><time>2026-04-26T16:08:35.003Z</time></trkpt><trkpt lat="44.32545852579672" lon="11.964352442814906"><ele>19.0</ele><time>2026-04-26T16:08:37.003Z</time></trkpt><trkpt lat="44.3253987962204" lon="11.964398886086894"><ele>19.0</ele><time>2026-04-26T16:08:38.003Z</time></trkpt><trkpt lat="44.32532719925262" lon="11.964432711851222"><ele>19.0</ele><time>2026-04-26T16:08:39.003Z</time></trkpt><trkpt lat="44.325254172323916" lon="11.964464529636047"><ele>19.0</ele><time>2026-04-26T16:08:40.003Z</time></trkpt><trkpt lat="44.325180574817125" lon="11.964504007267982"><ele>19.0</ele><time>2026-04-26T16:08:41.003Z</time></trkpt><trkpt lat="44.32510212643541" lon="11.964540880401616"><ele>19.0</ele><time>2026-04-26T16:08:42.001Z</time></trkpt><trkpt lat="44.32502123886055" lon="11.964577104453214"><ele>19.0</ele><time>2026-04-26T16:08:43.001Z</time></trkpt><trkpt lat="44.324939714954425" lon="11.964624225955783"><ele>19.0</ele><time>2026-04-26T16:08:44.001Z</time></trkpt><trkpt lat="44.32485614213229" lon="11.964663155541448"><ele>19.0</ele><time>2026-04-26T16:08:45.001Z</time></trkpt><trkpt lat="44.32476998797605" lon="11.964705601035964"><ele>19.0</ele><time>2026-04-26T16:08:46.001Z</time></trkpt><trkpt lat="44.32468727479586" lon="11.96474952496547"><ele>19.0</ele><time>2026-04-26T16:08:47.001Z</time></trkpt><trkpt lat="44.32460494339369" lon="11.96479029953112"><ele>19.0</ele><time>2026-04-26T16:08:48.001Z</time></trkpt><trkpt lat="44.324522081454255" lon="11.96483364937126"><ele>19.0</ele><time>2026-04-26T16:08:49.001Z</time></trkpt><trkpt lat="44.32443974264743" lon="11.96487100669591"><ele>19.0</ele><time>2026-04-26T16:08:50.001Z</time></trkpt><trkpt lat="44.32435472812707" lon="11.96491174689295"><ele>19.0</ele><time>2026-04-26T16:08:51.001Z</time></trkpt><trkpt lat="44.324268309842125" lon="11.964950588767993"><ele>19.0</ele><time>2026-04-26T16:08:52.001Z</time></trkpt><trkpt lat="44.32417945367082" lon="11.964980797539068"><ele>19.0</ele><time>2026-04-26T16:08:53.001Z</time></trkpt><trkpt lat="44.32408761303529" lon="11.96497476542768"><ele>19.0</ele><time>2026-04-26T16:08:54.001Z</time></trkpt><trkpt lat="44.32399696073801" lon="11.964979971784839"><ele>19.0</ele><time>2026-04-26T16:08:55.001Z</time></trkpt><trkpt lat="44.323911104404864" lon="11.964978587570137"><ele>19.0</ele><time>2026-04-26T16:08:56.001Z</time></trkpt><trkpt lat="44.323839452871766" lon="11.964994278446683"><ele>19.0</ele><time>2026-04-26T16:08:57.001Z</time></trkpt><trkpt lat="44.32372537436743" lon="11.964978166473184"><ele>19.0</ele><time>2026-04-26T16:08:59.001Z</time></trkpt><trkpt lat="44.32364402189729" lon="11.964941700344445"><ele>19.0</ele><time>2026-04-26T16:09:01.001Z</time></trkpt><trkpt lat="44.32355682643687" lon="11.964923500321033"><ele>19.0</ele><time>2026-04-26T16:09:03.001Z</time></trkpt><trkpt lat="44.323465876889756" lon="11.964896961733409"><ele>19.0</ele><time>2026-04-26T16:09:05.001Z</time></trkpt><trkpt lat="44.323370521061804" lon="11.964842264153415"><ele>19.0</ele><time>2026-04-26T16:09:07.001Z</time></trkpt><trkpt lat="44.32326336486721" lon="11.964758692839675"><ele>19.0</ele><time>2026-04-26T16:09:09.001Z</time></trkpt><trkpt lat="44.32316542937657" lon="11.964653006292123"><ele>19.0</ele><time>2026-04-26T16:09:11.001Z</time></trkpt><trkpt lat="44.32307373448324" lon="11.964582124343098"><ele>19.0</ele><time>2026-04-26T16:09:13.001Z</time></trkpt><trkpt lat="44.32297511929248" lon="11.964508067064962"><ele>19.0</ele><time>2026-04-26T16:09:15.001Z</time></trkpt><trkpt lat="44.322958259462474" lon="11.96422542945777"><ele>19.0</ele><time>2026-04-26T16:09:17.001Z</time></trkpt><trkpt lat="44.32288756865476" lon="11.964096024699806"><ele>19.0</ele><time>2026-04-26T16:09:19.001Z</time></trkpt><trkpt lat="44.322815949957075" lon="11.963960679147"><ele>19.0</ele><time>2026-04-26T16:09:21.001Z</time></trkpt><trkpt lat="44.322759856248034" lon="11.963820090623507"><ele>19.0</ele><time>2026-04-26T16:09:23.001Z</time></trkpt><trkpt lat="44.322699821826006" lon="11.963671937431673"><ele>19.0</ele><time>2026-04-26T16:09:25.001Z</time></trkpt><trkpt lat="44.32264932224921" lon="11.963514318866402"><ele>19.0</ele><time>2026-04-26T16:09:27.001Z</time></trkpt><trkpt lat="44.3226010636371" lon="11.963353558235506"><ele>19.142857142857142</ele><time>2026-04-26T16:09:29.001Z</time></trkpt><trkpt lat="44.32257612289878" lon="11.963271036230227"><ele>19.28571428571429</ele><time>2026-04-26T16:09:30.001Z</time></trkpt><trkpt lat="44.32255272913171" lon="11.963185746263239"><ele>19.42857142857143</ele><time>2026-04-26T16:09:31.001Z</time></trkpt><trkpt lat="44.32252866247017" lon="11.963098976850432"><ele>19.57142857142857</ele><time>2026-04-26T16:09:32.001Z</time></trkpt><trkpt lat="44.32250885658466" lon="11.96301443380841"><ele>19.714285714285715</ele><time>2026-04-26T16:09:33.001Z</time></trkpt><trkpt lat="44.32248336629633" lon="11.962927559281608"><ele>19.857142857142858</ele><time>2026-04-26T16:09:34.001Z</time></trkpt><trkpt lat="44.32246484210201" lon="11.96284112397384"><ele>20.0</ele><time>2026-04-26T16:09:35.001Z</time></trkpt><trkpt lat="44.32244736813025" lon="11.962754601884443"><ele>20.0</ele><time>2026-04-26T16:09:36.001Z</time></trkpt><trkpt lat="44.32240653740964" lon="11.962580434850885"><ele>20.0</ele><time>2026-04-26T16:09:38.001Z</time></trkpt><trkpt lat="44.3223896361352" lon="11.962489865099762"><ele>20.0</ele><time>2026-04-26T16:09:39.001Z</time></trkpt><trkpt lat="44.322364886057" lon="11.962313718207753"><ele>20.0</ele><time>2026-04-26T16:09:41.001Z</time></trkpt><trkpt lat="44.3223496679248" lon="11.962219507975393"><ele>20.0</ele><time>2026-04-26T16:09:42.002Z</time></trkpt><trkpt lat="44.322337602657335" lon="11.962128536154609"><ele>20.0</ele><time>2026-04-26T16:09:43.002Z</time></trkpt><trkpt lat="44.322329738617604" lon="11.962039349248496"><ele>20.0</ele><time>2026-04-26T16:09:44.002Z</time></trkpt><trkpt lat="44.32231764652947" lon="11.96186241084681"><ele>20.0</ele><time>2026-04-26T16:09:46.002Z</time></trkpt><trkpt lat="44.322308614602164" lon="11.961770248883939"><ele>20.0</ele><time>2026-04-26T16:09:47.002Z</time></trkpt><trkpt lat="44.32229853109161" lon="11.96167648036098"><ele>20.0</ele><time>2026-04-26T16:09:48.002Z</time></trkpt><trkpt lat="44.32228955461731" lon="11.961583153480612"><ele>20.0</ele><time>2026-04-26T16:09:49.002Z</time></trkpt><trkpt lat="44.32228185745913" lon="11.961490834803614"><ele>20.142857142857142</ele><time>2026-04-26T16:09:50.002Z</time></trkpt><trkpt lat="44.322274359489796" lon="11.961395004869768"><ele>20.285714285714285</ele><time>2026-04-26T16:09:51.002Z</time></trkpt><trkpt lat="44.32227493099784" lon="11.961306690935954"><ele>20.42857142857143</ele><time>2026-04-26T16:09:52.002Z</time></trkpt><trkpt lat="44.322265106391825" lon="11.96120770245694"><ele>20.57142857142857</ele><time>2026-04-26T16:09:53.002Z</time></trkpt><trkpt lat="44.32225994480659" lon="11.9611143267006"><ele>20.714285714285715</ele><time>2026-04-26T16:09:54.002Z</time></trkpt><trkpt lat="44.32225388072342" lon="11.961019670393116"><ele>20.857142857142858</ele><time>2026-04-26T16:09:55.002Z</time></trkpt><trkpt lat="44.322249062982664" lon="11.960927081186888"><ele>21.0</ele><time>2026-04-26T16:09:56.002Z</time></trkpt><trkpt lat="44.32224160274764" lon="11.960830937606937"><ele>21.0</ele><time>2026-04-26T16:09:57.002Z</time></trkpt><trkpt lat="44.32223227128841" lon="11.960734194968913"><ele>21.0</ele><time>2026-04-26T16:09:58.002Z</time></trkpt><trkpt lat="44.3222230998337" lon="11.96063459441398"><ele>21.0</ele><time>2026-04-26T16:09:59.002Z</time></trkpt><trkpt lat="44.32221632607721" lon="11.960539478905591"><ele>21.0</ele><time>2026-04-26T16:10:00.002Z</time></trkpt><trkpt lat="44.32220788317789" lon="11.960443033897015"><ele>21.0</ele><time>2026-04-26T16:10:01.002Z</time></trkpt><trkpt lat="44.322200058874365" lon="11.960350030819827"><ele>21.0</ele><time>2026-04-26T16:10:02.002Z</time></trkpt><trkpt lat="44.32218839040261" lon="11.960252167518844"><ele>21.0</ele><time>2026-04-26T16:10:03.002Z</time></trkpt><trkpt lat="44.32217760703901" lon="11.960157506343453"><ele>20.857142857142858</ele><time>2026-04-26T16:10:04.002Z</time></trkpt><trkpt lat="44.32217069738556" lon="11.960065927679967"><ele>20.714285714285715</ele><time>2026-04-26T16:10:05.002Z</time></trkpt><trkpt lat="44.32215759388246" lon="11.959963949125198"><ele>20.57142857142857</ele><time>2026-04-26T16:10:06.002Z</time></trkpt><trkpt lat="44.32214478272961" lon="11.959866909405918"><ele>20.42857142857143</ele><time>2026-04-26T16:10:07.002Z</time></trkpt><trkpt lat="44.32213458373831" lon="11.95977360334635"><ele>20.285714285714285</ele><time>2026-04-26T16:10:08.002Z</time></trkpt><trkpt lat="44.32212556897763" lon="11.959681229989847"><ele>20.142857142857142</ele><time>2026-04-26T16:10:09.002Z</time></trkpt><trkpt lat="44.32211485388972" lon="11.959591750369428"><ele>20.0</ele><time>2026-04-26T16:10:10.002Z</time></trkpt><trkpt lat="44.32210329028235" lon="11.959503513650578"><ele>20.0</ele><time>2026-04-26T16:10:11.002Z</time></trkpt><trkpt lat="44.32207815070865" lon="11.959333044290606"><ele>20.0</ele><time>2026-04-26T16:10:13.002Z</time></trkpt><trkpt lat="44.32205903502776" lon="11.959221946468801"><ele>20.0</ele><time>2026-04-26T16:10:33.003Z</time></trkpt><trkpt lat="44.322036362207186" lon="11.959117598195867"><ele>20.0</ele><time>2026-04-26T16:10:35.003Z</time></trkpt><trkpt lat="44.32200208560986" lon="11.958981321705746"><ele>20.0</ele><time>2026-04-26T16:10:37.003Z</time></trkpt><trkpt lat="44.32195531048566" lon="11.958821249036797"><ele>20.0</ele><time>2026-04-26T16:10:39.003Z</time></trkpt><trkpt lat="44.32192350986459" lon="11.95873567106535"><ele>20.0</ele><time>2026-04-26T16:10:40.003Z</time></trkpt><trkpt lat="44.32188973308953" lon="11.958647894483319"><ele>20.0</ele><time>2026-04-26T16:10:41.003Z</time></trkpt><trkpt lat="44.321855251042294" lon="11.95856155101707"><ele>20.0</ele><time>2026-04-26T16:10:42.003Z</time></trkpt><trkpt lat="44.321816864932906" lon="11.958474024455521"><ele>20.0</ele><time>2026-04-26T16:10:43.003Z</time></trkpt><trkpt lat="44.32177714207278" lon="11.958385460438397"><ele>20.0</ele><time>2026-04-26T16:10:44.003Z</time></trkpt><trkpt lat="44.32173763270411" lon="11.958302187384836"><ele>20.0</ele><time>2026-04-26T16:10:45.003Z</time></trkpt><trkpt lat="44.32169458003537" lon="11.958218902130213"><ele>20.0</ele><time>2026-04-26T16:10:46.003Z</time></trkpt><trkpt lat="44.32165506812087" lon="11.958141201703203"><ele>20.0</ele><time>2026-04-26T16:10:47.003Z</time></trkpt><trkpt lat="44.321615360342605" lon="11.958064242025722"><ele>20.0</ele><time>2026-04-26T16:10:48.001Z</time></trkpt><trkpt lat="44.32157001899148" lon="11.95798395553834"><ele>20.0</ele><time>2026-04-26T16:10:49.001Z</time></trkpt><trkpt lat="44.32152958407376" lon="11.95791159927913"><ele>20.0</ele><time>2026-04-26T16:10:50.001Z</time></trkpt><trkpt lat="44.321487361546545" lon="11.957831653603554"><ele>20.0</ele><time>2026-04-26T16:10:51.001Z</time></trkpt><trkpt lat="44.32144327062893" lon="11.95775540532472"><ele>20.0</ele><time>2026-04-26T16:10:52.001Z</time></trkpt><trkpt lat="44.32140139043716" lon="11.9576766926342"><ele>20.0</ele><time>2026-04-26T16:10:53.001Z</time></trkpt><trkpt lat="44.321358991977" lon="11.957607806208467"><ele>20.0</ele><time>2026-04-26T16:10:54.001Z</time></trkpt><trkpt lat="44.3213157511051" lon="11.957536415922007"><ele>20.0</ele><time>2026-04-26T16:10:55.001Z</time></trkpt><trkpt lat="44.32126922570959" lon="11.957460491089611"><ele>20.0</ele><time>2026-04-26T16:10:56.001Z</time></trkpt><trkpt lat="44.32122289534307" lon="11.957384060701216"><ele>20.0</ele><time>2026-04-26T16:10:57.001Z</time></trkpt><trkpt lat="44.321181618977754" lon="11.957317083524769"><ele>20.0</ele><time>2026-04-26T16:10:58.001Z</time></trkpt><trkpt lat="44.32113958685846" lon="11.957248865089241"><ele>20.0</ele><time>2026-04-26T16:10:59.001Z</time></trkpt><trkpt lat="44.32109219523762" lon="11.95718292630653"><ele>20.0</ele><time>2026-04-26T16:11:00.001Z</time></trkpt><trkpt lat="44.32104438892475" lon="11.957123639902894"><ele>20.0</ele><time>2026-04-26T16:11:01.001Z</time></trkpt><trkpt lat="44.320937776558054" lon="11.957026128908195"><ele>20.0</ele><time>2026-04-26T16:11:03.001Z</time></trkpt><trkpt lat="44.320879369459725" lon="11.956989809171736"><ele>20.0</ele><time>2026-04-26T16:11:04.001Z</time></trkpt><trkpt lat="44.32075720433228" lon="11.956940551516235"><ele>20.0</ele><time>2026-04-26T16:11:06.001Z</time></trkpt><trkpt lat="44.320633018589255" lon="11.956920631745902"><ele>20.0</ele><time>2026-04-26T16:11:08.001Z</time></trkpt><trkpt lat="44.32050453174898" lon="11.956928381058354"><ele>20.0</ele><time>2026-04-26T16:11:10.001Z</time></trkpt><trkpt lat="44.32043429362784" lon="11.956941068493686"><ele>20.0</ele><time>2026-04-26T16:11:11.001Z</time></trkpt><trkpt lat="44.320369065657744" lon="11.956955658595424"><ele>20.0</ele><time>2026-04-26T16:11:12.001Z</time></trkpt><trkpt lat="44.32025257729106" lon="11.957010026175746"><ele>20.0</ele><time>2026-04-26T16:11:14.001Z</time></trkpt><trkpt lat="44.32018742214631" lon="11.957047491745639"><ele>20.0</ele><time>2026-04-26T16:11:15.001Z</time></trkpt><trkpt lat="44.32012887251498" lon="11.957083718010178"><ele>20.0</ele><time>2026-04-26T16:11:16.001Z</time></trkpt><trkpt lat="44.32007097399135" lon="11.957123350495102"><ele>20.0</ele><time>2026-04-26T16:11:17.001Z</time></trkpt><trkpt lat="44.32001371948921" lon="11.957165542712746"><ele>20.0</ele><time>2026-04-26T16:11:18.001Z</time></trkpt><trkpt lat="44.31989490091012" lon="11.957246147359715"><ele>20.0</ele><time>2026-04-26T16:11:20.001Z</time></trkpt><trkpt lat="44.31983843794915" lon="11.957285156212683"><ele>20.0</ele><time>2026-04-26T16:11:21.001Z</time></trkpt><trkpt lat="44.31977633608373" lon="11.957328938248102"><ele>20.0</ele><time>2026-04-26T16:11:22.001Z</time></trkpt><trkpt lat="44.319718836793484" lon="11.957365890779776"><ele>20.0</ele><time>2026-04-26T16:11:23.001Z</time></trkpt><trkpt lat="44.319656262617684" lon="11.95740772516843"><ele>20.0</ele><time>2026-04-26T16:11:24.001Z</time></trkpt><trkpt lat="44.319598530401386" lon="11.95744285537403"><ele>20.0</ele><time>2026-04-26T16:11:25.001Z</time></trkpt><trkpt lat="44.31953895763311" lon="11.957476374526838"><ele>20.0</ele><time>2026-04-26T16:11:26.001Z</time></trkpt><trkpt lat="44.31947853190015" lon="11.957510661209929"><ele>20.0</ele><time>2026-04-26T16:11:27.001Z</time></trkpt><trkpt lat="44.31941722701397" lon="11.957542254904894"><ele>20.0</ele><time>2026-04-26T16:11:28.001Z</time></trkpt><trkpt lat="44.319356674070065" lon="11.957569506719897"><ele>20.0</ele><time>2026-04-26T16:11:29.001Z</time></trkpt><trkpt lat="44.31924000492797" lon="11.957605302439568"><ele>20.0</ele><time>2026-04-26T16:11:31.001Z</time></trkpt><trkpt lat="44.31911745403705" lon="11.957613969487136"><ele>20.0</ele><time>2026-04-26T16:11:33.001Z</time></trkpt><trkpt lat="44.3189963259399" lon="11.957599094131076"><ele>20.0</ele><time>2026-04-26T16:11:35.001Z</time></trkpt><trkpt lat="44.31888323594308" lon="11.957565163002698"><ele>20.0</ele><time>2026-04-26T16:11:37.001Z</time></trkpt><trkpt lat="44.31877527628679" lon="11.957526110390166"><ele>20.0</ele><time>2026-04-26T16:11:39.001Z</time></trkpt><trkpt lat="44.318685004173624" lon="11.957469701215144"><ele>20.0</ele><time>2026-04-26T16:11:41.001Z</time></trkpt><trkpt lat="44.318603007440124" lon="11.957395337765895"><ele>20.0</ele><time>2026-04-26T16:11:43.001Z</time></trkpt><trkpt lat="44.31853190705635" lon="11.957307865608401"><ele>20.0</ele><time>2026-04-26T16:11:45.001Z</time></trkpt><trkpt lat="44.31847510139628" lon="11.957202537868918"><ele>20.0</ele><time>2026-04-26T16:11:47.002Z</time></trkpt><trkpt lat="44.318415497001624" lon="11.957065525577582"><ele>20.0</ele><time>2026-04-26T16:11:49.002Z</time></trkpt><trkpt lat="44.31835686046851" lon="11.956929348400239"><ele>20.0</ele><time>2026-04-26T16:11:51.002Z</time></trkpt><trkpt lat="44.318304955248976" lon="11.956778094632686"><ele>20.0</ele><time>2026-04-26T16:11:53.002Z</time></trkpt><trkpt lat="44.31825337391954" lon="11.956622836753144"><ele>19.8</ele><time>2026-04-26T16:11:55.002Z</time></trkpt><trkpt lat="44.318212039542644" lon="11.956466703518572"><ele>19.6</ele><time>2026-04-26T16:11:57.002Z</time></trkpt><trkpt lat="44.318179447450134" lon="11.95630660185526"><ele>19.4</ele><time>2026-04-26T16:11:59.002Z</time></trkpt><trkpt lat="44.31815662250303" lon="11.956150887148548"><ele>19.2</ele><time>2026-04-26T16:12:01.002Z</time></trkpt><trkpt lat="44.3181437368986" lon="11.956028304326832"><ele>19.0</ele><time>2026-04-26T16:12:03.002Z</time></trkpt><trkpt lat="44.318121720371735" lon="11.955912192919328"><ele>19.0</ele><time>2026-04-26T16:12:05.002Z</time></trkpt><trkpt lat="44.31813771202042" lon="11.955763256730036"><ele>19.0</ele><time>2026-04-26T16:12:07.002Z</time></trkpt><trkpt lat="44.31813296365853" lon="11.955674340994427"><ele>19.0</ele><time>2026-04-26T16:12:08.002Z</time></trkpt><trkpt lat="44.31810149707014" lon="11.9555038542943"><ele>19.0</ele><time>2026-04-26T16:12:10.002Z</time></trkpt><trkpt lat="44.31808515085505" lon="11.955319076298478"><ele>19.0</ele><time>2026-04-26T16:12:12.002Z</time></trkpt><trkpt lat="44.31807044919278" lon="11.955224299591814"><ele>19.0</ele><time>2026-04-26T16:12:13.002Z</time></trkpt><trkpt lat="44.31805385294888" lon="11.955131089526857"><ele>19.0</ele><time>2026-04-26T16:12:14.002Z</time></trkpt><trkpt lat="44.318037910934954" lon="11.955033816310252"><ele>19.0</ele><time>2026-04-26T16:12:15.002Z</time></trkpt><trkpt lat="44.31802256457839" lon="11.954936933112691"><ele>19.0</ele><time>2026-04-26T16:12:16.002Z</time></trkpt><trkpt lat="44.3180106386279" lon="11.954840042842921"><ele>19.0</ele><time>2026-04-26T16:12:17.002Z</time></trkpt><trkpt lat="44.317990542042686" lon="11.954743042193503"><ele>19.0</ele><time>2026-04-26T16:12:18.002Z</time></trkpt><trkpt lat="44.31797607820784" lon="11.954639710959787"><ele>19.0</ele><time>2026-04-26T16:12:19.002Z</time></trkpt><trkpt lat="44.31795746140523" lon="11.954541391436328"><ele>19.285714285714285</ele><time>2026-04-26T16:12:20.002Z</time></trkpt><trkpt lat="44.31793018429006" lon="11.954439900030707"><ele>19.571428571428573</ele><time>2026-04-26T16:12:21.002Z</time></trkpt><trkpt lat="44.317912651187406" lon="11.954337943976496"><ele>19.857142857142858</ele><time>2026-04-26T16:12:22.002Z</time></trkpt><trkpt lat="44.317891787253316" lon="11.954242335126644"><ele>20.142857142857142</ele><time>2026-04-26T16:12:23.002Z</time></trkpt><trkpt lat="44.31787490895414" lon="11.954142674368512"><ele>20.42857142857143</ele><time>2026-04-26T16:12:24.002Z</time></trkpt><trkpt lat="44.317851334616655" lon="11.954041046497187"><ele>20.714285714285715</ele><time>2026-04-26T16:12:25.002Z</time></trkpt><trkpt lat="44.31783368693372" lon="11.953941749801231"><ele>21.0</ele><time>2026-04-26T16:12:26.002Z</time></trkpt><trkpt lat="44.31781447290977" lon="11.9538440698389"><ele>21.0</ele><time>2026-04-26T16:12:27.002Z</time></trkpt><trkpt lat="44.31779381826777" lon="11.953742107874511"><ele>21.0</ele><time>2026-04-26T16:12:28.002Z</time></trkpt><trkpt lat="44.31777512498113" lon="11.953640790650363"><ele>21.0</ele><time>2026-04-26T16:12:29.002Z</time></trkpt><trkpt lat="44.31775468765351" lon="11.953540660245658"><ele>21.0</ele><time>2026-04-26T16:12:30.002Z</time></trkpt><trkpt lat="44.31773321098755" lon="11.953434555780113"><ele>21.0</ele><time>2026-04-26T16:12:31.003Z</time></trkpt><trkpt lat="44.31771274715407" lon="11.953329893336221"><ele>21.0</ele><time>2026-04-26T16:12:32.003Z</time></trkpt><trkpt lat="44.317692486508356" lon="11.953230199929717"><ele>21.0</ele><time>2026-04-26T16:12:33.003Z</time></trkpt><trkpt lat="44.31766319738754" lon="11.953125313656379"><ele>21.0</ele><time>2026-04-26T16:12:34.003Z</time></trkpt><trkpt lat="44.31764302242722" lon="11.953029159231226"><ele>21.0</ele><time>2026-04-26T16:12:35.003Z</time></trkpt><trkpt lat="44.317608409127544" lon="11.952937201995496"><ele>21.0</ele><time>2026-04-26T16:12:36.003Z</time></trkpt><trkpt lat="44.31756600392592" lon="11.952848277827211"><ele>21.0</ele><time>2026-04-26T16:12:37.003Z</time></trkpt><trkpt lat="44.317525741087216" lon="11.952768578128675"><ele>21.0</ele><time>2026-04-26T16:12:38.003Z</time></trkpt><trkpt lat="44.317482324532406" lon="11.952695939813973"><ele>21.0</ele><time>2026-04-26T16:12:39.003Z</time></trkpt><trkpt lat="44.31743179732067" lon="11.952629172636343"><ele>20.8</ele><time>2026-04-26T16:12:40.003Z</time></trkpt><trkpt lat="44.317339521174006" lon="11.952507245716737"><ele>20.6</ele><time>2026-04-26T16:12:42.003Z</time></trkpt><trkpt lat="44.31727323851343" lon="11.952430093381908"><ele>20.4</ele><time>2026-04-26T16:12:44.003Z</time></trkpt><trkpt lat="44.31721976223397" lon="11.952373204360892"><ele>20.2</ele><time>2026-04-26T16:12:46.003Z</time></trkpt><trkpt lat="44.31716348589754" lon="11.952305569870811"><ele>20.0</ele><time>2026-04-26T16:12:50.003Z</time></trkpt><trkpt lat="44.317052439376" lon="11.952441689583816"><ele>20.0</ele><time>2026-04-26T16:12:52.003Z</time></trkpt><trkpt lat="44.316993254325936" lon="11.952573357668397"><ele>20.0</ele><time>2026-04-26T16:12:54Z</time></trkpt><trkpt lat="44.31694317961986" lon="11.952722818032845"><ele>20.0</ele><time>2026-04-26T16:12:56Z</time></trkpt><trkpt lat="44.31688767562883" lon="11.952887806938268"><ele>20.0</ele><time>2026-04-26T16:12:58Z</time></trkpt><trkpt lat="44.31686135195603" lon="11.952969068385302"><ele>20.0</ele><time>2026-04-26T16:12:59Z</time></trkpt><trkpt lat="44.31683322139299" lon="11.953054115008015"><ele>20.0</ele><time>2026-04-26T16:13:00Z</time></trkpt><trkpt lat="44.316800295580116" lon="11.953143304073645"><ele>20.0</ele><time>2026-04-26T16:13:01Z</time></trkpt><trkpt lat="44.31677647588423" lon="11.953232309746985"><ele>20.0</ele><time>2026-04-26T16:13:02Z</time></trkpt><trkpt lat="44.31672240606539" lon="11.95339536884183"><ele>20.0</ele><time>2026-04-26T16:13:04Z</time></trkpt><trkpt lat="44.316677015832695" lon="11.953558313859823"><ele>20.0</ele><time>2026-04-26T16:13:06Z</time></trkpt><trkpt lat="44.316648963135016" lon="11.953640675170673"><ele>20.0</ele><time>2026-04-26T16:13:07Z</time></trkpt><trkpt lat="44.316602769510034" lon="11.953791834786912"><ele>20.0</ele><time>2026-04-26T16:13:09Z</time></trkpt><trkpt lat="44.316577788241325" lon="11.953874912274255"><ele>20.0</ele><time>2026-04-26T16:13:10Z</time></trkpt><trkpt lat="44.31655128262743" lon="11.953955246847373"><ele>20.0</ele><time>2026-04-26T16:13:11Z</time></trkpt><trkpt lat="44.316526271008236" lon="11.954037852441227"><ele>20.0</ele><time>2026-04-26T16:13:12Z</time></trkpt><trkpt lat="44.31647515025081" lon="11.95420097803615"><ele>20.0</ele><time>2026-04-26T16:13:14Z</time></trkpt><trkpt lat="44.316448479542345" lon="11.95428352815673"><ele>20.0</ele><time>2026-04-26T16:13:15Z</time></trkpt><trkpt lat="44.316419922578696" lon="11.954365658738265"><ele>20.0</ele><time>2026-04-26T16:13:16Z</time></trkpt><trkpt lat="44.31639179800364" lon="11.954451342890877"><ele>20.0</ele><time>2026-04-26T16:13:17Z</time></trkpt><trkpt lat="44.31636545090245" lon="11.954532636909239"><ele>20.0</ele><time>2026-04-26T16:13:18Z</time></trkpt><trkpt lat="44.31633549484847" lon="11.954623380164112"><ele>20.0</ele><time>2026-04-26T16:13:19Z</time></trkpt><trkpt lat="44.31630641634676" lon="11.954712453310977"><ele>20.0</ele><time>2026-04-26T16:13:20Z</time></trkpt><trkpt lat="44.316277203976604" lon="11.954798796981155"><ele>20.0</ele><time>2026-04-26T16:13:21Z</time></trkpt><trkpt lat="44.31624912349488" lon="11.954886516366637"><ele>20.0</ele><time>2026-04-26T16:13:22Z</time></trkpt><trkpt lat="44.316220188623014" lon="11.954973906743824"><ele>20.0</ele><time>2026-04-26T16:13:23Z</time></trkpt><trkpt lat="44.31618677189945" lon="11.955057185169037"><ele>20.0</ele><time>2026-04-26T16:13:24Z</time></trkpt><trkpt lat="44.31615524469416" lon="11.95515049386147"><ele>20.0</ele><time>2026-04-26T16:13:25Z</time></trkpt><trkpt lat="44.31612452265015" lon="11.955235529910189"><ele>20.0</ele><time>2026-04-26T16:13:26.001Z</time></trkpt><trkpt lat="44.316092478462615" lon="11.955324707634691"><ele>20.0</ele><time>2026-04-26T16:13:27.001Z</time></trkpt><trkpt lat="44.316060014786196" lon="11.95541303974283"><ele>20.0</ele><time>2026-04-26T16:13:28.001Z</time></trkpt><trkpt lat="44.31602764764935" lon="11.95550087950154"><ele>20.142857142857142</ele><time>2026-04-26T16:13:29.001Z</time></trkpt><trkpt lat="44.315994341930335" lon="11.955588234106488"><ele>20.285714285714285</ele><time>2026-04-26T16:13:30.001Z</time></trkpt><trkpt lat="44.315960810896335" lon="11.955664195063312"><ele>20.42857142857143</ele><time>2026-04-26T16:13:31.001Z</time></trkpt><trkpt lat="44.31593034900971" lon="11.955754762029882"><ele>20.57142857142857</ele><time>2026-04-26T16:13:32.001Z</time></trkpt><trkpt lat="44.315897605961766" lon="11.9558424940854"><ele>20.714285714285715</ele><time>2026-04-26T16:13:33.001Z</time></trkpt><trkpt lat="44.315863597961" lon="11.955925609437555"><ele>20.857142857142858</ele><time>2026-04-26T16:13:34.001Z</time></trkpt><trkpt lat="44.315838175754436" lon="11.956012291666497"><ele>21.0</ele><time>2026-04-26T16:13:35.001Z</time></trkpt><trkpt lat="44.31580631224893" lon="11.956094502891112"><ele>21.0</ele><time>2026-04-26T16:13:36.001Z</time></trkpt><trkpt lat="44.315755856798084" lon="11.956250387319795"><ele>21.0</ele><time>2026-04-26T16:13:38.001Z</time></trkpt><trkpt lat="44.31572899804062" lon="11.956331577887106"><ele>21.0</ele><time>2026-04-26T16:13:39.001Z</time></trkpt><trkpt lat="44.315703002600486" lon="11.956412517672343"><ele>21.0</ele><time>2026-04-26T16:13:40.001Z</time></trkpt><trkpt lat="44.315677417993896" lon="11.956494588368393"><ele>21.0</ele><time>2026-04-26T16:13:41.001Z</time></trkpt><trkpt lat="44.31562734459906" lon="11.956652750179511"><ele>21.0</ele><time>2026-04-26T16:13:43.001Z</time></trkpt><trkpt lat="44.315568885001156" lon="11.956807148025245"><ele>20.75</ele><time>2026-04-26T16:13:45.001Z</time></trkpt><trkpt lat="44.315506211098096" lon="11.956960253651088"><ele>20.5</ele><time>2026-04-26T16:13:47.001Z</time></trkpt><trkpt lat="44.31543748758493" lon="11.957113012820926"><ele>20.25</ele><time>2026-04-26T16:13:49.001Z</time></trkpt><trkpt lat="44.31538663562716" lon="11.957216344436516"><ele>20.0</ele><time>2026-04-26T16:13:50.001Z</time></trkpt><trkpt lat="44.315326889731054" lon="11.957339010947875"><ele>20.0</ele><time>2026-04-26T16:13:52.001Z</time></trkpt><trkpt lat="44.31525892545055" lon="11.957471546105321"><ele>20.0</ele><time>2026-04-26T16:13:54.001Z</time></trkpt><trkpt lat="44.315209222927315" lon="11.957582219529826"><ele>20.0</ele><time>2026-04-26T16:13:56.001Z</time></trkpt><trkpt lat="44.31516174119519" lon="11.957685637456759"><ele>20.0</ele><time>2026-04-26T16:13:58.001Z</time></trkpt><trkpt lat="44.315118554208894" lon="11.957780488464593"><ele>20.0</ele><time>2026-04-26T16:14:00.001Z</time></trkpt><trkpt lat="44.315067250626576" lon="11.957860605004479"><ele>20.0</ele><time>2026-04-26T16:14:02.001Z</time></trkpt><trkpt lat="44.3150462344344" lon="11.957970161089387"><ele>20.0</ele><time>2026-04-26T16:14:04.001Z</time></trkpt><trkpt lat="44.31500971005279" lon="11.95809474502947"><ele>20.0</ele><time>2026-04-26T16:14:06.001Z</time></trkpt><trkpt lat="44.31496485015103" lon="11.958236583027206"><ele>20.0</ele><time>2026-04-26T16:14:08.001Z</time></trkpt><trkpt lat="44.314925437520024" lon="11.958307952698272"><ele>20.0</ele><time>2026-04-26T16:14:09.001Z</time></trkpt><trkpt lat="44.3149088134426" lon="11.958393260369284"><ele>20.0</ele><time>2026-04-26T16:14:10.001Z</time></trkpt><trkpt lat="44.31488533093574" lon="11.95847951348073"><ele>20.0</ele><time>2026-04-26T16:14:11.002Z</time></trkpt><trkpt lat="44.31483168958685" lon="11.958646422927421"><ele>20.0</ele><time>2026-04-26T16:14:13.002Z</time></trkpt><trkpt lat="44.31477992179241" lon="11.958811926777836"><ele>20.0</ele><time>2026-04-26T16:14:15.002Z</time></trkpt><trkpt lat="44.31473068896663" lon="11.958975747572033"><ele>20.0</ele><time>2026-04-26T16:14:17.002Z</time></trkpt><trkpt lat="44.31468527039484" lon="11.959134613364526"><ele>20.0</ele><time>2026-04-26T16:14:19.002Z</time></trkpt><trkpt lat="44.31465963203201" lon="11.95921692010196"><ele>20.0</ele><time>2026-04-26T16:14:20.002Z</time></trkpt><trkpt lat="44.31463183292724" lon="11.959296169071765"><ele>20.0</ele><time>2026-04-26T16:14:21.002Z</time></trkpt><trkpt lat="44.31458427742052" lon="11.959454852082768"><ele>20.0</ele><time>2026-04-26T16:14:23.002Z</time></trkpt><trkpt lat="44.314536764619454" lon="11.959612117130202"><ele>20.0</ele><time>2026-04-26T16:14:25.002Z</time></trkpt><trkpt lat="44.3144934717461" lon="11.959679187353226"><ele>20.0</ele><time>2026-04-26T16:14:26.002Z</time></trkpt><trkpt lat="44.314475013271455" lon="11.959764649322159"><ele>20.0</ele><time>2026-04-26T16:14:27.002Z</time></trkpt><trkpt lat="44.314413066299075" lon="11.959898750265365"><ele>20.0</ele><time>2026-04-26T16:14:29.002Z</time></trkpt><trkpt lat="44.31434149665318" lon="11.960030683335058"><ele>20.0</ele><time>2026-04-26T16:14:31.002Z</time></trkpt><trkpt lat="44.31427479997099" lon="11.960153832648974"><ele>20.0</ele><time>2026-04-26T16:14:33.002Z</time></trkpt><trkpt lat="44.31420323783096" lon="11.960288789640055"><ele>20.0</ele><time>2026-04-26T16:14:35.002Z</time></trkpt><trkpt lat="44.31413171966832" lon="11.960421893095432"><ele>20.0</ele><time>2026-04-26T16:14:37.002Z</time></trkpt><trkpt lat="44.3140958828853" lon="11.96049622090277"><ele>20.0</ele><time>2026-04-26T16:14:38.002Z</time></trkpt><trkpt lat="44.314059808418946" lon="11.960569328568743"><ele>20.0</ele><time>2026-04-26T16:14:39.002Z</time></trkpt><trkpt lat="44.31398413769051" lon="11.960711694487665"><ele>20.0</ele><time>2026-04-26T16:14:41.002Z</time></trkpt><trkpt lat="44.31391115987911" lon="11.960854190476693"><ele>20.0</ele><time>2026-04-26T16:14:43.002Z</time></trkpt><trkpt lat="44.313845486355596" lon="11.961004700270873"><ele>20.0</ele><time>2026-04-26T16:14:45.002Z</time></trkpt><trkpt lat="44.313811803303814" lon="11.961079386167205"><ele>20.0</ele><time>2026-04-26T16:14:46.002Z</time></trkpt><trkpt lat="44.313745620258324" lon="11.961229740434796"><ele>20.0</ele><time>2026-04-26T16:14:48.002Z</time></trkpt><trkpt lat="44.313721463311055" lon="11.961312841897842"><ele>20.0</ele><time>2026-04-26T16:14:49.002Z</time></trkpt><trkpt lat="44.31366315360226" lon="11.961463319520158"><ele>20.0</ele><time>2026-04-26T16:14:51.002Z</time></trkpt><trkpt lat="44.313600547009365" lon="11.961613595222902"><ele>20.0</ele><time>2026-04-26T16:14:53.002Z</time></trkpt><trkpt lat="44.31354364859079" lon="11.961761560534157"><ele>20.0</ele><time>2026-04-26T16:14:55.002Z</time></trkpt><trkpt lat="44.31348592891984" lon="11.961902126681062"><ele>20.0</ele><time>2026-04-26T16:14:57.003Z</time></trkpt><trkpt lat="44.313439055782915" lon="11.962023773520901"><ele>19.8</ele><time>2026-04-26T16:14:59.003Z</time></trkpt><trkpt lat="44.31339689763041" lon="11.962127246715799"><ele>19.6</ele><time>2026-04-26T16:15:01Z</time></trkpt><trkpt lat="44.31336169396371" lon="11.962206177059416"><ele>19.4</ele><time>2026-04-26T16:15:03Z</time></trkpt><trkpt lat="44.3133006582016" lon="11.96227546129913"><ele>19.2</ele><time>2026-04-26T16:15:06Z</time></trkpt><trkpt lat="44.3132122273911" lon="11.962213710491651"><ele>19.0</ele><time>2026-04-26T16:15:08Z</time></trkpt><trkpt lat="44.31310378677915" lon="11.962119123828423"><ele>19.2</ele><time>2026-04-26T16:15:10Z</time></trkpt><trkpt lat="44.313031198874704" lon="11.962066494658487"><ele>19.4</ele><time>2026-04-26T16:15:11Z</time></trkpt><trkpt lat="44.31295306877016" lon="11.962007604994735"><ele>19.6</ele><time>2026-04-26T16:15:12Z</time></trkpt><trkpt lat="44.31287609579331" lon="11.96194741827796"><ele>19.8</ele><time>2026-04-26T16:15:13Z</time></trkpt><trkpt lat="44.312790396273115" lon="11.961883588059171"><ele>20.0</ele><time>2026-04-26T16:15:14Z</time></trkpt><trkpt lat="44.31269889940543" lon="11.961819144799628"><ele>20.0</ele><time>2026-04-26T16:15:15Z</time></trkpt><trkpt lat="44.312607706773534" lon="11.961750330342138"><ele>20.0</ele><time>2026-04-26T16:15:16Z</time></trkpt><trkpt lat="44.31250962691146" lon="11.961679750533747"><ele>20.0</ele><time>2026-04-26T16:15:17Z</time></trkpt><trkpt lat="44.31240877670387" lon="11.961606030090762"><ele>20.0</ele><time>2026-04-26T16:15:18Z</time></trkpt><trkpt lat="44.312307164643606" lon="11.961524402892653"><ele>20.0</ele><time>2026-04-26T16:15:19Z</time></trkpt><trkpt lat="44.31220054950362" lon="11.961445869989209"><ele>20.0</ele><time>2026-04-26T16:15:20Z</time></trkpt><trkpt lat="44.312097555517816" lon="11.96134208529955"><ele>20.0</ele><time>2026-04-26T16:15:21Z</time></trkpt><trkpt lat="44.31198512138346" lon="11.961258348979188"><ele>20.0</ele><time>2026-04-26T16:15:22Z</time></trkpt><trkpt lat="44.31187836689925" lon="11.961185403557495"><ele>20.0</ele><time>2026-04-26T16:15:23Z</time></trkpt><trkpt lat="44.3117725637264" lon="11.961142591144998"><ele>20.0</ele><time>2026-04-26T16:15:24Z</time></trkpt><trkpt lat="44.31168232572321" lon="11.96107988481884"><ele>20.0</ele><time>2026-04-26T16:15:25Z</time></trkpt><trkpt lat="44.31159747981123" lon="11.961030566793804"><ele>20.0</ele><time>2026-04-26T16:15:26Z</time></trkpt><trkpt lat="44.31152162953582" lon="11.960978390633233"><ele>20.0</ele><time>2026-04-26T16:15:27Z</time></trkpt><trkpt lat="44.31144943114434" lon="11.960941428238922"><ele>20.0</ele><time>2026-04-26T16:15:28Z</time></trkpt><trkpt lat="44.31138882180987" lon="11.960903449339208"><ele>20.0</ele><time>2026-04-26T16:15:29Z</time></trkpt><trkpt lat="44.31128901612416" lon="11.960843517353464"><ele>20.0</ele><time>2026-04-26T16:15:31Z</time></trkpt><trkpt lat="44.311226582986514" lon="11.960801144118433"><ele>20.0</ele><time>2026-04-26T16:15:33Z</time></trkpt><trkpt lat="44.31115960665155" lon="11.960768293834635"><ele>20.0</ele><time>2026-04-26T16:15:36Z</time></trkpt><trkpt lat="44.311081842464006" lon="11.960887794998566"><ele>20.0</ele><time>2026-04-26T16:15:38Z</time></trkpt><trkpt lat="44.3110554354215" lon="11.960987561766476"><ele>20.0</ele><time>2026-04-26T16:15:39Z</time></trkpt><trkpt lat="44.311022756172804" lon="11.961093042214337"><ele>20.0</ele><time>2026-04-26T16:15:40Z</time></trkpt><trkpt lat="44.31098665002457" lon="11.961206739296216"><ele>20.0</ele><time>2026-04-26T16:15:41Z</time></trkpt><trkpt lat="44.31094710603935" lon="11.961331209852432"><ele>20.0</ele><time>2026-04-26T16:15:42Z</time></trkpt><trkpt lat="44.310906581266664" lon="11.961463260913801"><ele>20.0</ele><time>2026-04-26T16:15:43.001Z</time></trkpt><trkpt lat="44.31086388649774" lon="11.961602853750987"><ele>20.0</ele><time>2026-04-26T16:15:44.001Z</time></trkpt><trkpt lat="44.310818298844296" lon="11.961749719146638"><ele>20.0</ele><time>2026-04-26T16:15:45.001Z</time></trkpt><trkpt lat="44.31076808088101" lon="11.961899237462532"><ele>20.0</ele><time>2026-04-26T16:15:46.001Z</time></trkpt><trkpt lat="44.31071864678779" lon="11.962055497459959"><ele>20.0</ele><time>2026-04-26T16:15:47.001Z</time></trkpt><trkpt lat="44.310667486717506" lon="11.96222229502522"><ele>20.0</ele><time>2026-04-26T16:15:48.001Z</time></trkpt><trkpt lat="44.31061598975838" lon="11.962391977042437"><ele>20.0</ele><time>2026-04-26T16:15:49.001Z</time></trkpt><trkpt lat="44.3105642460677" lon="11.962565844014932"><ele>20.25</ele><time>2026-04-26T16:15:50.001Z</time></trkpt><trkpt lat="44.31051125816761" lon="11.962742210846555"><ele>20.5</ele><time>2026-04-26T16:15:51.001Z</time></trkpt><trkpt lat="44.31046066820733" lon="11.96292434959889"><ele>20.75</ele><time>2026-04-26T16:15:52.001Z</time></trkpt><trkpt lat="44.31040653831283" lon="11.963105743521531"><ele>21.0</ele><time>2026-04-26T16:15:53.001Z</time></trkpt><trkpt lat="44.31035184357163" lon="11.963287735881313"><ele>21.0</ele><time>2026-04-26T16:15:54.001Z</time></trkpt><trkpt lat="44.31030128607379" lon="11.963470147503047"><ele>21.0</ele><time>2026-04-26T16:15:55.001Z</time></trkpt><trkpt lat="44.310251238761786" lon="11.963645012242223"><ele>21.0</ele><time>2026-04-26T16:15:56.001Z</time></trkpt><trkpt lat="44.3101989549851" lon="11.963823344114713"><ele>21.0</ele><time>2026-04-26T16:15:57.001Z</time></trkpt><trkpt lat="44.31014406303752" lon="11.96399661164136"><ele>21.0</ele><time>2026-04-26T16:15:58.001Z</time></trkpt><trkpt lat="44.31009256914184" lon="11.964171060510228"><ele>21.0</ele><time>2026-04-26T16:15:59.001Z</time></trkpt><trkpt lat="44.310039350654876" lon="11.964338667536266"><ele>21.0</ele><time>2026-04-26T16:16:00.001Z</time></trkpt><trkpt lat="44.309984470373095" lon="11.964509132000387"><ele>21.0</ele><time>2026-04-26T16:16:01.001Z</time></trkpt><trkpt lat="44.30993163144961" lon="11.964678827680528"><ele>20.5</ele><time>2026-04-26T16:16:02.001Z</time></trkpt><trkpt lat="44.309880047490644" lon="11.96484625428675"><ele>20.0</ele><time>2026-04-26T16:16:03.001Z</time></trkpt><trkpt lat="44.30982934891659" lon="11.965014210516955"><ele>19.5</ele><time>2026-04-26T16:16:04.001Z</time></trkpt><trkpt lat="44.30977528215261" lon="11.96518219244727"><ele>19.0</ele><time>2026-04-26T16:16:05.001Z</time></trkpt><trkpt lat="44.309721896183625" lon="11.965348536979642"><ele>18.75</ele><time>2026-04-26T16:16:06.001Z</time></trkpt><trkpt lat="44.30966819093763" lon="11.965518319752041"><ele>18.5</ele><time>2026-04-26T16:16:07.001Z</time></trkpt><trkpt lat="44.3096162865262" lon="11.965685313366366"><ele>18.25</ele><time>2026-04-26T16:16:08.001Z</time></trkpt><trkpt lat="44.30955939807696" lon="11.965855389769981"><ele>18.0</ele><time>2026-04-26T16:16:09.001Z</time></trkpt><trkpt lat="44.30949840737539" lon="11.966019490129804"><ele>18.5</ele><time>2026-04-26T16:16:10.001Z</time></trkpt><trkpt lat="44.309433915270645" lon="11.966182198319046"><ele>19.0</ele><time>2026-04-26T16:16:11.001Z</time></trkpt><trkpt lat="44.309369043824134" lon="11.966342909379165"><ele>19.5</ele><time>2026-04-26T16:16:12.001Z</time></trkpt><trkpt lat="44.309303142714825" lon="11.96650321357853"><ele>20.0</ele><time>2026-04-26T16:16:13.001Z</time></trkpt><trkpt lat="44.30923578541309" lon="11.966660991993642"><ele>19.75</ele><time>2026-04-26T16:16:14.001Z</time></trkpt><trkpt lat="44.30916959781415" lon="11.966819070987603"><ele>19.5</ele><time>2026-04-26T16:16:15.001Z</time></trkpt><trkpt lat="44.30910472479358" lon="11.966977479657226"><ele>19.25</ele><time>2026-04-26T16:16:16.001Z</time></trkpt><trkpt lat="44.30903655238058" lon="11.96713256490084"><ele>19.0</ele><time>2026-04-26T16:16:17.001Z</time></trkpt><trkpt lat="44.30896224490593" lon="11.9672888773815"><ele>18.75</ele><time>2026-04-26T16:16:18.001Z</time></trkpt><trkpt lat="44.308887303013" lon="11.967434981891705"><ele>18.5</ele><time>2026-04-26T16:16:19.001Z</time></trkpt><trkpt lat="44.308806406285804" lon="11.967581089198593"><ele>18.25</ele><time>2026-04-26T16:16:20.001Z</time></trkpt><trkpt lat="44.308725605153306" lon="11.967727258887846"><ele>18.0</ele><time>2026-04-26T16:16:21.001Z</time></trkpt><trkpt lat="44.30864228664056" lon="11.967873480092013"><ele>18.0</ele><time>2026-04-26T16:16:22.001Z</time></trkpt><trkpt lat="44.30856067624739" lon="11.968021884711607"><ele>18.0</ele><time>2026-04-26T16:16:23.001Z</time></trkpt><trkpt lat="44.30847880505079" lon="11.968171783520484"><ele>18.0</ele><time>2026-04-26T16:16:24.001Z</time></trkpt><trkpt lat="44.30839844055585" lon="11.96832254672288"><ele>18.0</ele><time>2026-04-26T16:16:25.001Z</time></trkpt><trkpt lat="44.308311702894606" lon="11.968480555167798"><ele>18.25</ele><time>2026-04-26T16:16:26.002Z</time></trkpt><trkpt lat="44.308229165229235" lon="11.968634551100466"><ele>18.5</ele><time>2026-04-26T16:16:27.002Z</time></trkpt><trkpt lat="44.3081456752697" lon="11.968784154363991"><ele>18.75</ele><time>2026-04-26T16:16:28.002Z</time></trkpt><trkpt lat="44.3080608946848" lon="11.96893800484736"><ele>19.0</ele><time>2026-04-26T16:16:29.002Z</time></trkpt><trkpt lat="44.30797436624232" lon="11.969087760455972"><ele>19.5</ele><time>2026-04-26T16:16:30.002Z</time></trkpt><trkpt lat="44.30788710258187" lon="11.969237007316272"><ele>20.0</ele><time>2026-04-26T16:16:31.002Z</time></trkpt><trkpt lat="44.30780210304351" lon="11.969389135375575"><ele>20.5</ele><time>2026-04-26T16:16:32.002Z</time></trkpt><trkpt lat="44.30771337085384" lon="11.969543973396554"><ele>21.0</ele><time>2026-04-26T16:16:33.002Z</time></trkpt><trkpt lat="44.30762564365701" lon="11.96969392773576"><ele>21.0</ele><time>2026-04-26T16:16:34.002Z</time></trkpt><trkpt lat="44.30753339255763" lon="11.969849794620187"><ele>21.0</ele><time>2026-04-26T16:16:35.002Z</time></trkpt><trkpt lat="44.30744818063346" lon="11.97000231683232"><ele>21.0</ele><time>2026-04-26T16:16:36.002Z</time></trkpt><trkpt lat="44.30736055741679" lon="11.970157026038063"><ele>21.0</ele><time>2026-04-26T16:16:37.002Z</time></trkpt><trkpt lat="44.30726908616333" lon="11.970312262054632"><ele>20.25</ele><time>2026-04-26T16:16:38.002Z</time></trkpt><trkpt lat="44.30717818170089" lon="11.970466722804794"><ele>19.5</ele><time>2026-04-26T16:16:39.002Z</time></trkpt><trkpt lat="44.307090890357614" lon="11.970620399186695"><ele>18.75</ele><time>2026-04-26T16:16:40.002Z</time></trkpt><trkpt lat="44.306999834818534" lon="11.970773489766097"><ele>18.0</ele><time>2026-04-26T16:16:41.002Z</time></trkpt><trkpt lat="44.30691186951284" lon="11.97092785055149"><ele>18.0</ele><time>2026-04-26T16:16:42.002Z</time></trkpt><trkpt lat="44.3068241036604" lon="11.971085309057578"><ele>18.0</ele><time>2026-04-26T16:16:43.002Z</time></trkpt><trkpt lat="44.306736235354386" lon="11.971238772094082"><ele>18.0</ele><time>2026-04-26T16:16:44.002Z</time></trkpt><trkpt lat="44.30664959010834" lon="11.971387042382828"><ele>18.0</ele><time>2026-04-26T16:16:45.002Z</time></trkpt><trkpt lat="44.30656516510949" lon="11.971531618234856"><ele>18.0</ele><time>2026-04-26T16:16:46.002Z</time></trkpt><trkpt lat="44.306488463721635" lon="11.971659507459176"><ele>18.0</ele><time>2026-04-26T16:16:47.002Z</time></trkpt><trkpt lat="44.306420102286324" lon="11.971776798511124"><ele>18.0</ele><time>2026-04-26T16:16:48.002Z</time></trkpt><trkpt lat="44.30635956278014" lon="11.971883959697394"><ele>18.0</ele><time>2026-04-26T16:16:49.002Z</time></trkpt><trkpt lat="44.30630613245259" lon="11.97198521402496"><ele>18.0</ele><time>2026-04-26T16:16:50.002Z</time></trkpt><trkpt lat="44.306254830258204" lon="11.972068761290748"><ele>18.166666666666668</ele><time>2026-04-26T16:16:51.002Z</time></trkpt><trkpt lat="44.30621031578515" lon="11.97214282274595"><ele>18.333333333333332</ele><time>2026-04-26T16:16:52.002Z</time></trkpt><trkpt lat="44.306141364881206" lon="11.972243235425363"><ele>18.5</ele><time>2026-04-26T16:16:54.002Z</time></trkpt><trkpt lat="44.30608522675478" lon="11.972327496036112"><ele>18.666666666666664</ele><time>2026-04-26T16:16:57.002Z</time></trkpt><trkpt lat="44.30604368881534" lon="11.97239551638917"><ele>18.833333333333332</ele><time>2026-04-26T16:16:59.002Z</time></trkpt><trkpt lat="44.305981249500334" lon="11.972529575224652"><ele>19.0</ele><time>2026-04-26T16:17:01.002Z</time></trkpt><trkpt lat="44.305899742779026" lon="11.972674425898902"><ele>19.0</ele><time>2026-04-26T16:17:03.002Z</time></trkpt><trkpt lat="44.3058559732161" lon="11.97275691537871"><ele>19.0</ele><time>2026-04-26T16:17:04.002Z</time></trkpt><trkpt lat="44.30581109444243" lon="11.972837420220998"><ele>19.0</ele><time>2026-04-26T16:17:05.002Z</time></trkpt><trkpt lat="44.30576156139556" lon="11.972921126502216"><ele>19.0</ele><time>2026-04-26T16:17:05.999Z</time></trkpt><trkpt lat="44.305710010597274" lon="11.973013849758663"><ele>19.0</ele><time>2026-04-26T16:17:06.999Z</time></trkpt><trkpt lat="44.30565209248924" lon="11.973119378577898"><ele>19.0</ele><time>2026-04-26T16:17:07.999Z</time></trkpt><trkpt lat="44.30560099139304" lon="11.973228623104081"><ele>18.8</ele><time>2026-04-26T16:17:08.999Z</time></trkpt><trkpt lat="44.305540714641566" lon="11.973344984125973"><ele>18.599999999999998</ele><time>2026-04-26T16:17:09.999Z</time></trkpt><trkpt lat="44.305479126323945" lon="11.973463078031898"><ele>18.4</ele><time>2026-04-26T16:17:10.999Z</time></trkpt><trkpt lat="44.30541234764663" lon="11.973585063537698"><ele>18.2</ele><time>2026-04-26T16:17:11.999Z</time></trkpt><trkpt lat="44.30534631418179" lon="11.973706611296373"><ele>18.0</ele><time>2026-04-26T16:17:12.999Z</time></trkpt><trkpt lat="44.305284925304925" lon="11.973824130309444"><ele>18.0</ele><time>2026-04-26T16:17:13.999Z</time></trkpt><trkpt lat="44.30522876632567" lon="11.973924203649501"><ele>18.0</ele><time>2026-04-26T16:17:14.999Z</time></trkpt><trkpt lat="44.30518224116384" lon="11.97401065757996"><ele>18.0</ele><time>2026-04-26T16:17:15.999Z</time></trkpt><trkpt lat="44.305141447160295" lon="11.974089306100435"><ele>18.0</ele><time>2026-04-26T16:17:16.999Z</time></trkpt><trkpt lat="44.30507971393075" lon="11.974208745989719"><ele>18.0</ele><time>2026-04-26T16:17:18.999Z</time></trkpt><trkpt lat="44.30501919661293" lon="11.974273429101846"><ele>18.0</ele><time>2026-04-26T16:17:20.999Z</time></trkpt><trkpt lat="44.304973393274786" lon="11.974352093571705"><ele>18.0</ele><time>2026-04-26T16:17:23Z</time></trkpt><trkpt lat="44.30508988324644" lon="11.974497516310759"><ele>18.0</ele><time>2026-04-26T16:17:26Z</time></trkpt><trkpt lat="44.30514083740344" lon="11.974566856362841"><ele>18.0</ele><time>2026-04-26T16:17:27Z</time></trkpt><trkpt lat="44.30520136092855" lon="11.974638943261057"><ele>18.0</ele><time>2026-04-26T16:17:28Z</time></trkpt><trkpt lat="44.305279789268276" lon="11.97470295150624"><ele>18.0</ele><time>2026-04-26T16:17:29Z</time></trkpt><trkpt lat="44.305348073633034" lon="11.974797621793241"><ele>18.0</ele><time>2026-04-26T16:17:30Z</time></trkpt><trkpt lat="44.3054147997915" lon="11.974903564066745"><ele>18.0</ele><time>2026-04-26T16:17:31Z</time></trkpt><trkpt lat="44.30548113861539" lon="11.975026223627674"><ele>18.0</ele><time>2026-04-26T16:17:32Z</time></trkpt><trkpt lat="44.30552955596208" lon="11.97516731847625"><ele>18.0</ele><time>2026-04-26T16:17:33Z</time></trkpt><trkpt lat="44.30559240471299" lon="11.975301192457136"><ele>18.0</ele><time>2026-04-26T16:17:34Z</time></trkpt><trkpt lat="44.30566642878028" lon="11.975433741068995"><ele>18.0</ele><time>2026-04-26T16:17:35Z</time></trkpt><trkpt lat="44.305764198560425" lon="11.975546706067037"><ele>18.0</ele><time>2026-04-26T16:17:36Z</time></trkpt><trkpt lat="44.30585805359779" lon="11.975669647102023"><ele>18.0</ele><time>2026-04-26T16:17:37Z</time></trkpt><trkpt lat="44.30591884298938" lon="11.97582082071523"><ele>18.0</ele><time>2026-04-26T16:17:38Z</time></trkpt><trkpt lat="44.30597068039042" lon="11.97595180107985"><ele>17.666666666666668</ele><time>2026-04-26T16:17:39Z</time></trkpt><trkpt lat="44.30600724334462" lon="11.97607621508726"><ele>17.333333333333332</ele><time>2026-04-26T16:17:40Z</time></trkpt><trkpt lat="44.30603540819333" lon="11.976193738370599"><ele>17.0</ele><time>2026-04-26T16:17:41Z</time></trkpt><trkpt lat="44.30605889559406" lon="11.976301012635522"><ele>16.666666666666664</ele><time>2026-04-26T16:17:42Z</time></trkpt><trkpt lat="44.30609006568402" lon="11.976398092949081"><ele>16.333333333333332</ele><time>2026-04-26T16:17:43Z</time></trkpt><trkpt lat="44.3060805113926" lon="11.976504173919752"><ele>16.0</ele><time>2026-04-26T16:17:44Z</time></trkpt><trkpt lat="44.30603445821722" lon="11.976604640316635"><ele>16.0</ele><time>2026-04-26T16:17:45Z</time></trkpt><trkpt lat="44.305974954814694" lon="11.976705608737554"><ele>16.0</ele><time>2026-04-26T16:17:46Z</time></trkpt><trkpt lat="44.30590248593345" lon="11.976817729944043"><ele>16.0</ele><time>2026-04-26T16:17:47Z</time></trkpt><trkpt lat="44.3058349857275" lon="11.976923921302108"><ele>16.0</ele><time>2026-04-26T16:17:48Z</time></trkpt><trkpt lat="44.305780769569225" lon="11.977009419074363"><ele>16.0</ele><time>2026-04-26T16:17:49Z</time></trkpt><trkpt lat="44.30573865954233" lon="11.977083947169024"><ele>16.0</ele><time>2026-04-26T16:17:50Z</time></trkpt><trkpt lat="44.305668707448994" lon="11.977192408108568"><ele>16.0</ele><time>2026-04-26T16:17:52Z</time></trkpt><trkpt lat="44.305830419713125" lon="11.977425097580271"><ele>16.0</ele><time>2026-04-26T16:17:54.001Z</time></trkpt><trkpt lat="44.305917919444724" lon="11.977506042832196"><ele>16.0</ele><time>2026-04-26T16:17:55.001Z</time></trkpt><trkpt lat="44.306006268695114" lon="11.97759971459292"><ele>16.0</ele><time>2026-04-26T16:17:56.001Z</time></trkpt><trkpt lat="44.30609965668401" lon="11.977699529188621"><ele>16.0</ele><time>2026-04-26T16:17:57.001Z</time></trkpt><trkpt lat="44.30619685293797" lon="11.977807758278743"><ele>16.0</ele><time>2026-04-26T16:17:58.001Z</time></trkpt><trkpt lat="44.3063048581284" lon="11.977926050713299"><ele>16.0</ele><time>2026-04-26T16:17:59.001Z</time></trkpt><trkpt lat="44.306413202246" lon="11.97804976684102"><ele>16.25</ele><time>2026-04-26T16:18:00.001Z</time></trkpt><trkpt lat="44.30652181841067" lon="11.978168818091353"><ele>16.5</ele><time>2026-04-26T16:18:01.001Z</time></trkpt><trkpt lat="44.30661898722864" lon="11.978270231180318"><ele>16.75</ele><time>2026-04-26T16:18:02.001Z</time></trkpt><trkpt lat="44.30670856058277" lon="11.978363182704113"><ele>17.0</ele><time>2026-04-26T16:18:03.001Z</time></trkpt><trkpt lat="44.306780599742304" lon="11.978441544550448"><ele>17.0</ele><time>2026-04-26T16:18:04.001Z</time></trkpt><trkpt lat="44.306843687115965" lon="11.978511915281164"><ele>17.0</ele><time>2026-04-26T16:18:05.001Z</time></trkpt><trkpt lat="44.30689646798026" lon="11.978569062450237"><ele>17.0</ele><time>2026-04-26T16:18:06.001Z</time></trkpt><trkpt lat="44.30696335711006" lon="11.978678323735979"><ele>17.0</ele><time>2026-04-26T16:18:08.001Z</time></trkpt><trkpt lat="44.30692543207628" lon="11.978878568571874"><ele>17.0</ele><time>2026-04-26T16:18:10.001Z</time></trkpt><trkpt lat="44.306865746182666" lon="11.978980868377494"><ele>17.0</ele><time>2026-04-26T16:18:11.001Z</time></trkpt><trkpt lat="44.306801392923965" lon="11.979089001293778"><ele>17.0</ele><time>2026-04-26T16:18:12.001Z</time></trkpt><trkpt lat="44.30674201256932" lon="11.979205301882553"><ele>17.0</ele><time>2026-04-26T16:18:13.001Z</time></trkpt><trkpt lat="44.30667877852685" lon="11.979332872470858"><ele>17.0</ele><time>2026-04-26T16:18:14.001Z</time></trkpt><trkpt lat="44.30660985919136" lon="11.979466967513329"><ele>17.0</ele><time>2026-04-26T16:18:15.001Z</time></trkpt><trkpt lat="44.30653804062232" lon="11.979620068033407"><ele>17.0</ele><time>2026-04-26T16:18:16.001Z</time></trkpt><trkpt lat="44.30646418537313" lon="11.979763674305072"><ele>17.0</ele><time>2026-04-26T16:18:17.001Z</time></trkpt><trkpt lat="44.30638988580359" lon="11.9799150496361"><ele>17.0</ele><time>2026-04-26T16:18:18.001Z</time></trkpt><trkpt lat="44.30631696565999" lon="11.980078348219456"><ele>17.0</ele><time>2026-04-26T16:18:19.001Z</time></trkpt><trkpt lat="44.30624489865721" lon="11.980247235370564"><ele>16.75</ele><time>2026-04-26T16:18:20.001Z</time></trkpt><trkpt lat="44.30617488387324" lon="11.980421099207852"><ele>16.5</ele><time>2026-04-26T16:18:21.001Z</time></trkpt><trkpt lat="44.306103387172335" lon="11.98059934563781"><ele>16.25</ele><time>2026-04-26T16:18:22.001Z</time></trkpt><trkpt lat="44.306029894413335" lon="11.98077907608803"><ele>16.0</ele><time>2026-04-26T16:18:23.001Z</time></trkpt><trkpt lat="44.3059566225417" lon="11.98096395692891"><ele>15.666666666666666</ele><time>2026-04-26T16:18:24.001Z</time></trkpt><trkpt lat="44.305883370436185" lon="11.981148840933823"><ele>15.333333333333332</ele><time>2026-04-26T16:18:25.001Z</time></trkpt><trkpt lat="44.30581100752115" lon="11.981334339101862"><ele>15.0</ele><time>2026-04-26T16:18:26.001Z</time></trkpt><trkpt lat="44.30572988713835" lon="11.981514661218446"><ele>15.25</ele><time>2026-04-26T16:18:27.001Z</time></trkpt><trkpt lat="44.305668826808265" lon="11.9817014274404"><ele>15.5</ele><time>2026-04-26T16:18:28.001Z</time></trkpt><trkpt lat="44.30562112940062" lon="11.981891887213141"><ele>15.75</ele><time>2026-04-26T16:18:29.001Z</time></trkpt><trkpt lat="44.30559449318877" lon="11.98208233327696"><ele>16.0</ele><time>2026-04-26T16:18:30.001Z</time></trkpt><trkpt lat="44.305554629733194" lon="11.982253780193075"><ele>15.75</ele><time>2026-04-26T16:18:31.002Z</time></trkpt><trkpt lat="44.30550849831613" lon="11.982419877083673"><ele>15.5</ele><time>2026-04-26T16:18:32.002Z</time></trkpt><trkpt lat="44.30544537831632" lon="11.982564752443757"><ele>15.25</ele><time>2026-04-26T16:18:33.002Z</time></trkpt><trkpt lat="44.30534869556123" lon="11.98268618072881"><ele>15.0</ele><time>2026-04-26T16:18:34.002Z</time></trkpt><trkpt lat="44.30527717563002" lon="11.982818643959646"><ele>15.0</ele><time>2026-04-26T16:18:35.002Z</time></trkpt><trkpt lat="44.30519889002829" lon="11.98293916365745"><ele>15.0</ele><time>2026-04-26T16:18:36.002Z</time></trkpt><trkpt lat="44.30512659677168" lon="11.98306115265073"><ele>15.0</ele><time>2026-04-26T16:18:37.002Z</time></trkpt><trkpt lat="44.30505678843802" lon="11.983190766571852"><ele>15.0</ele><time>2026-04-26T16:18:38.002Z</time></trkpt><trkpt lat="44.30499038306744" lon="11.983309684846242"><ele>15.0</ele><time>2026-04-26T16:18:39.002Z</time></trkpt><trkpt lat="44.30492187048243" lon="11.983425696971041"><ele>15.0</ele><time>2026-04-26T16:18:40.002Z</time></trkpt><trkpt lat="44.30487037283826" lon="11.983555008290303"><ele>15.0</ele><time>2026-04-26T16:18:41.002Z</time></trkpt><trkpt lat="44.30482104911902" lon="11.983690340380871"><ele>15.0</ele><time>2026-04-26T16:18:42.002Z</time></trkpt><trkpt lat="44.30477054864525" lon="11.983827563850827"><ele>15.0</ele><time>2026-04-26T16:18:43.002Z</time></trkpt><trkpt lat="44.304703920661964" lon="11.983955067962103"><ele>15.0</ele><time>2026-04-26T16:18:44.002Z</time></trkpt><trkpt lat="44.30464722068513" lon="11.984094481763613"><ele>15.0</ele><time>2026-04-26T16:18:45.002Z</time></trkpt><trkpt lat="44.3045897697019" lon="11.984234599512881"><ele>15.0</ele><time>2026-04-26T16:18:46.002Z</time></trkpt><trkpt lat="44.30453020240544" lon="11.984377354199701"><ele>15.0</ele><time>2026-04-26T16:18:47.002Z</time></trkpt><trkpt lat="44.304470327831" lon="11.984520845330323"><ele>14.75</ele><time>2026-04-26T16:18:48.002Z</time></trkpt><trkpt lat="44.304407542761304" lon="11.984671311462876"><ele>14.5</ele><time>2026-04-26T16:18:49.002Z</time></trkpt><trkpt lat="44.30434403874998" lon="11.984823500643785"><ele>14.25</ele><time>2026-04-26T16:18:50.002Z</time></trkpt><trkpt lat="44.30427898105546" lon="11.984978164566623"><ele>14.0</ele><time>2026-04-26T16:18:51.002Z</time></trkpt><trkpt lat="44.30422481301992" lon="11.985145146082099"><ele>14.0</ele><time>2026-04-26T16:18:52.002Z</time></trkpt><trkpt lat="44.304148616929645" lon="11.985302293686797"><ele>14.0</ele><time>2026-04-26T16:18:53.002Z</time></trkpt><trkpt lat="44.30407482739709" lon="11.985466831291385"><ele>14.0</ele><time>2026-04-26T16:18:54.002Z</time></trkpt><trkpt lat="44.30399750339845" lon="11.985630789361037"><ele>14.0</ele><time>2026-04-26T16:18:55.002Z</time></trkpt><trkpt lat="44.30391263511178" lon="11.985798706028156"><ele>13.333333333333334</ele><time>2026-04-26T16:18:56.002Z</time></trkpt><trkpt lat="44.30382877211814" lon="11.985966024726723"><ele>12.666666666666668</ele><time>2026-04-26T16:18:57.002Z</time></trkpt><trkpt lat="44.3037359236558" lon="11.986142202053145"><ele>12.0</ele><time>2026-04-26T16:18:58.002Z</time></trkpt><trkpt lat="44.3036473237305" lon="11.986316914156614"><ele>12.0</ele><time>2026-04-26T16:18:59.002Z</time></trkpt><trkpt lat="44.30355931936031" lon="11.98650098666167"><ele>12.0</ele><time>2026-04-26T16:19:00.002Z</time></trkpt><trkpt lat="44.303471285756515" lon="11.986698374587023"><ele>12.0</ele><time>2026-04-26T16:19:01.002Z</time></trkpt><trkpt lat="44.30338554823059" lon="11.986906135059282"><ele>12.333333333333332</ele><time>2026-04-26T16:19:02.002Z</time></trkpt><trkpt lat="44.3033015180097" lon="11.98711052495057"><ele>12.666666666666666</ele><time>2026-04-26T16:19:03.002Z</time></trkpt><trkpt lat="44.3032204780181" lon="11.987321673103324"><ele>13.0</ele><time>2026-04-26T16:19:04.002Z</time></trkpt><trkpt lat="44.3031467960771" lon="11.987526345173944"><ele>13.25</ele><time>2026-04-26T16:19:05.002Z</time></trkpt><trkpt lat="44.303079870461836" lon="11.987714675577095"><ele>13.5</ele><time>2026-04-26T16:19:06.002Z</time></trkpt><trkpt lat="44.303022647209936" lon="11.987889122878043"><ele>13.75</ele><time>2026-04-26T16:19:07.002Z</time></trkpt><trkpt lat="44.30296933779059" lon="11.988055801134495"><ele>14.0</ele><time>2026-04-26T16:19:08.002Z</time></trkpt><trkpt lat="44.302921737988555" lon="11.988210965162699"><ele>14.0</ele><time>2026-04-26T16:19:09.002Z</time></trkpt><trkpt lat="44.30288030883776" lon="11.988351757849845"><ele>13.999999999999998</ele><time>2026-04-26T16:19:10.002Z</time></trkpt><trkpt lat="44.302842842765685" lon="11.988476712146314"><ele>13.999999999999998</ele><time>2026-04-26T16:19:11.003Z</time></trkpt><trkpt lat="44.30281282705425" lon="11.988581049947948"><ele>14.0</ele><time>2026-04-26T16:19:12Z</time></trkpt><trkpt lat="44.30278389464473" lon="11.988665708212709"><ele>14.0</ele><time>2026-04-26T16:19:13Z</time></trkpt><trkpt lat="44.30273671469588" lon="11.988795793626586"><ele>14.0</ele><time>2026-04-26T16:19:15Z</time></trkpt><trkpt lat="44.302683590889465" lon="11.988879382579455"><ele>13.999999999999998</ele><time>2026-04-26T16:19:17Z</time></trkpt><trkpt lat="44.30258987811595" lon="11.988823264773186"><ele>13.999999999999998</ele><time>2026-04-26T16:19:19Z</time></trkpt><trkpt lat="44.302504481588855" lon="11.988739158243598"><ele>14.0</ele><time>2026-04-26T16:19:21Z</time></trkpt><trkpt lat="44.302407935966905" lon="11.988654601276036"><ele>14.0</ele><time>2026-04-26T16:19:23Z</time></trkpt><trkpt lat="44.30230318521936" lon="11.988573143519996"><ele>14.0</ele><time>2026-04-26T16:19:25Z</time></trkpt><trkpt lat="44.302248445927326" lon="11.988524122476122"><ele>14.0</ele><time>2026-04-26T16:19:26Z</time></trkpt><trkpt lat="44.30218876968676" lon="11.98847856135994"><ele>14.0</ele><time>2026-04-26T16:19:27Z</time></trkpt><trkpt lat="44.30213166229349" lon="11.98841853220231"><ele>14.0</ele><time>2026-04-26T16:19:28Z</time></trkpt><trkpt lat="44.30207470542741" lon="11.98836978115488"><ele>14.0</ele><time>2026-04-26T16:19:29Z</time></trkpt><trkpt lat="44.302013877641144" lon="11.988317895584837"><ele>14.0</ele><time>2026-04-26T16:19:30Z</time></trkpt><trkpt lat="44.30195392313236" lon="11.988266179340966"><ele>14.0</ele><time>2026-04-26T16:19:31Z</time></trkpt><trkpt lat="44.301893412382725" lon="11.988212581800841"><ele>13.833333333333334</ele><time>2026-04-26T16:19:32Z</time></trkpt><trkpt lat="44.30183754322839" lon="11.98816178716335"><ele>13.666666666666668</ele><time>2026-04-26T16:19:33Z</time></trkpt><trkpt lat="44.30178847100105" lon="11.988089586137253"><ele>13.5</ele><time>2026-04-26T16:19:34Z</time></trkpt><trkpt lat="44.30168039419563" lon="11.987988916560912"><ele>13.333333333333332</ele><time>2026-04-26T16:19:36Z</time></trkpt><trkpt lat="44.30161004415458" lon="11.987960704072863"><ele>13.166666666666666</ele><time>2026-04-26T16:19:37Z</time></trkpt><trkpt lat="44.30155189371446" lon="11.98791330752842"><ele>13.0</ele><time>2026-04-26T16:19:38Z</time></trkpt><trkpt lat="44.30144906703324" lon="11.987840498716507"><ele>13.2</ele><time>2026-04-26T16:19:40Z</time></trkpt><trkpt lat="44.301363998414914" lon="11.987797083117023"><ele>13.4</ele><time>2026-04-26T16:19:42Z</time></trkpt><trkpt lat="44.30130116732617" lon="11.987781668234884"><ele>13.599999999999998</ele><time>2026-04-26T16:19:44Z</time></trkpt><trkpt lat="44.301300364563" lon="11.987689646186304"><ele>13.799999999999999</ele><time>2026-04-26T16:19:45Z</time></trkpt><trkpt lat="44.301241999667894" lon="11.9878572122299"><ele>14.0</ele><time>2026-04-26T16:19:47Z</time></trkpt><trkpt lat="44.301285672027184" lon="11.987987612355171"><ele>14.0</ele><time>2026-04-26T17:15:59Z</time></trkpt><trkpt lat="44.30124518223179" lon="11.987840163832656"><ele>14.0</ele><time>2026-04-26T18:13:13Z</time></trkpt><trkpt lat="44.301245457586106" lon="11.98797906137754"><ele>14.0</ele><time>2026-04-26T18:16:06Z</time></trkpt><trkpt lat="44.30129627460888" lon="11.987918983378737"><ele>14.0</ele><time>2026-04-26T18:40:53Z</time></trkpt><trkpt lat="44.301237861900155" lon="11.987877235763394"><ele>14.0</ele><time>2026-04-26T18:41:13Z</time></trkpt><trkpt lat="44.301168776389275" lon="11.987877333351982"><ele>14.0</ele><time>2026-04-26T19:13:46Z</time></trkpt></trkseg></trk></gpx>